# Wetter Temperatur Luftdruck Luftfeuchtigkeit Sichtweite Windgeschwindigkeit Windrichtung Zeit
1 Clouds 7 1017 53 10000 5.14 270 14:22 01.02.2023
2 Clouds 7 1017 65 10000 5.66 240 13:20 01.02.2023
3 Clouds 8 1017 57 10000 5.66 330 12:47 01.02.2023
4 Clouds 6 1017 61 10000 5.66 330 11:56 01.02.2023
5 Clouds 4 1017 81 10000 4.63 340 08:43 01.02.2023
6 Snow 1 1014 93 8000 4.12 320 00:34 01.02.2023
7 Clouds 4 1014 75 10000 4.63 330 21:28 31.01.2023
8 Clouds 4 1013 75 10000 2.06 310 19:48 31.01.2023
9 Clouds 3 1013 87 10000 3.09 340 18:29 31.01.2023
10 Drizzle 4 1012 70 10000 6.17 340 15:36 31.01.2023
11 Drizzle 4 1012 70 10000 6.17 340 15:18 31.01.2023
12 Clouds 6 1011 61 10000 1.54 230 13:51 31.01.2023
13 Clouds 5 1012 70 10000 4.63 260 11:43 31.01.2023
14 Clouds 4 1012 81 10000 2.06 170 10:26 31.01.2023
15 Clouds 4 1012 81 10000 1.54 160 09:50 31.01.2023
16 Clouds 3 1012 93 10000 2.06 260 08:58 31.01.2023
17 Clouds 3 1012 87 10000 1.03 0 08:31 31.01.2023
18 Clear 1 1011 93 10000 1.54 330 05:29 31.01.2023
19 Clouds 2 1012 93 10000 2.57 350 23:40 30.01.2023
20 Clouds 3 1013 87 10000 2.06 350 22:50 30.01.2023
21 Clouds 3 1013 87 10000 2.57 40 21:56 30.01.2023
22 Clouds 4 1013 81 10000 2.57 40 20:47 30.01.2023
23 Clouds 4 1014 81 10000 3.6 40 19:30 30.01.2023
24 Clouds 4 1014 81 10000 4.12 50 17:26 30.01.2023
25 Clouds 4 1015 87 10000 4.63 20 15:35 30.01.2023
26 Rain 4 1015 87 10000 3.09 10 14:26 30.01.2023
27 Rain 4 1017 87 10000 5.14 20 12:21 30.01.2023
28 Rain 4 1017 87 10000 5.14 20 12:21 30.01.2023
29 Clouds 4 1018 87 10000 4.12 10 10:30 30.01.2023
30 Clouds 4 1019 87 10000 3.09 20 09:54 30.01.2023
31 Clouds 5 1019 70 10000 4.12 40 08:40 30.01.2023
32 Clouds 4 1018 70 10000 3.09 360 06:23 30.01.2023
33 Clouds 3 1020 81 10000 3.6 340 01:31 30.01.2023
34 Clouds 3 1021 81 10000 3.6 350 23:34 29.01.2023
35 Clouds 3 1021 81 10000 5.66 360 22:37 29.01.2023
36 Clouds 3 1021 81 10000 4.12 350 20:57 29.01.2023
37 Clouds 3 1021 87 10000 3.6 350 20:36 29.01.2023
38 Clouds 3 1021 81 10000 3.6 360 19:33 29.01.2023
39 Clouds 3 1021 75 10000 7.2 20 18:35 29.01.2023
40 Clouds 3 1020 81 10000 6.17 350 16:53 29.01.2023
41 Clouds 4 1020 75 10000 5.14 350 16:20 29.01.2023
42 Drizzle 5 1020 65 10000 7.2 350 14:20 29.01.2023
43 Clouds 5 1019 65 10000 7.2 350 13:25 29.01.2023
44 Clouds 5 1019 60 10000 8.23 350 12:39 29.01.2023
45 Clouds 5 1019 65 10000 7.72 340 12:20 29.01.2023
46 Clouds 5 1020 65 10000 7.2 330 11:38 29.01.2023
47 Clouds 5 1020 70 10000 8.23 330 10:53 29.01.2023
48 Clouds 5 1020 75 10000 5.14 330 08:54 29.01.2023
49 Clouds 4 1019 81 10000 2.57 360 05:44 29.01.2023
50 Clouds 4 1018 75 10000 6.17 350 23:55 28.01.2023
51 Clouds 4 1017 75 10000 7.72 350 21:30 28.01.2023
52 Clouds 5 1016 75 10000 5.66 360 19:59 28.01.2023
53 Clouds 5 1016 75 10000 5.14 350 19:25 28.01.2023
54 Clouds 5 1015 81 10000 5.66 360 17:49 28.01.2023
55 Clouds 5 1014 81 10000 5.14 350 16:57 28.01.2023
56 Clouds 5 1013 87 10000 5.66 350 16:19 28.01.2023
57 Clouds 5 1013 81 10000 6.17 350 15:37 28.01.2023
58 Clouds 5 1011 93 10000 6.69 360 13:51 28.01.2023
59 Clouds 6 1011 87 10000 6.69 350 12:45 28.01.2023
60 Clouds 6 1011 93 10000 5.14 360 10:41 28.01.2023
61 Clouds 6 1011 93 10000 5.14 360 10:20 28.01.2023
62 Clouds 10 1008 81 10000 4.12 250 05:57 28.01.2023
63 Clouds 11 1007 76 10000 6.69 210 01:32 28.01.2023
64 Clouds 10 1007 81 10000 5.14 220 00:21 28.01.2023
65 Clouds 11 1006 76 10000 3.09 170 20:35 27.01.2023
66 Clouds 12 1005 66 10000 1.54 20 17:58 27.01.2023
67 Clouds 11 1005 71 10000 2.06 360 17:21 27.01.2023
68 Clear 11 1005 71 10000 2.57 300 16:58 27.01.2023
69 Clear 11 1005 71 10000 2.57 290 16:31 27.01.2023
70 Clouds 12 1004 71 10000 2.57 260 14:45 27.01.2023
71 Clear 12 1004 66 10000 3.6 210 14:22 27.01.2023
72 Rain 11 1006 82 10000 3.09 280 12:40 27.01.2023
73 Clouds 10 1008 76 10000 5.66 180 08:35 27.01.2023
74 Clear 12 1008 82 10000 6.17 260 03:54 27.01.2023
75 Clear 11 1009 54 10000 5.14 50 22:51 26.01.2023
76 Clear 10 1011 57 10000 6.69 50 21:21 26.01.2023
77 Clear 10 1011 57 10000 6.17 50 20:34 26.01.2023
78 Clear 10 1013 62 10000 7.2 40 18:20 26.01.2023
79 Clear 10 1014 66 10000 6.69 40 17:40 26.01.2023
80 Clear 10 1014 71 10000 8.23 50 16:26 26.01.2023
81 Clear 11 1015 62 10000 6.17 40 15:48 26.01.2023
82 Clear 11 1016 62 10000 6.17 50 15:28 26.01.2023
83 Rain 12 1016 54 10000 7.2 60 13:58 26.01.2023
84 Rain 10 1018 66 10000 3.6 130 12:43 26.01.2023
85 Clear 11 1019 54 10000 5.66 90 11:25 26.01.2023
86 Clouds 10 1020 62 10000 4.63 80 10:27 26.01.2023
87 Clouds 9 1020 66 10000 5.14 70 09:43 26.01.2023
88 Clouds 8 1021 81 10000 6.17 60 08:25 26.01.2023
89 Clouds 6 1024 87 10000 6.17 20 23:58 25.01.2023
90 Clouds 6 1024 87 10000 6.17 20 23:37 25.01.2023
91 Clear 6 1025 87 10000 6.17 30 21:56 25.01.2023
92 Clouds 6 1025 81 10000 5.66 30 21:20 25.01.2023
93 Clouds 5 1026 81 10000 5.66 10 18:41 25.01.2023
94 Clouds 5 1026 75 10000 5.66 10 17:30 25.01.2023
95 Clouds 6 1027 65 10000 6.69 20 15:42 25.01.2023
96 Clouds 6 1027 70 10000 9.26 360 12:54 25.01.2023
97 Clouds 6 1029 70 10000 9.26 360 10:51 25.01.2023
98 Clouds 5 1029 81 10000 9.26 360 09:44 25.01.2023
99 Clouds 5 1029 81 10000 6.69 360 07:18 25.01.2023
100 Clouds 6 1028 75 10000 5.14 360 01:29 25.01.2023
101 Clouds 6 1028 81 10000 5.66 360 00:21 25.01.2023
102 Clouds 6 1029 87 10000 6.17 360 21:32 24.01.2023
103 Clouds 6 1029 81 10000 6.17 10 20:19 24.01.2023
104 Drizzle 6 1029 87 9000 6.17 10 18:42 24.01.2023
105 Clouds 7 1029 76 10000 8.75 360 17:30 24.01.2023
106 Clouds 7 1028 76 10000 7.72 360 16:52 24.01.2023
107 Clouds 8 1028 66 10000 8.23 20 15:21 24.01.2023
108 Clouds 10 1028 62 10000 7.72 20 13:22 24.01.2023
109 Clouds 10 1029 57 10000 7.72 20 11:20 24.01.2023
110 Clouds 9 1029 61 10000 8.23 20 08:23 24.01.2023
111 Clouds 9 1029 61 10000 7.72 20 07:54 24.01.2023
112 Clouds 8 1029 66 10000 7.72 30 07:25 24.01.2023
113 Clouds 9 1028 71 10000 7.2 30 02:23 24.01.2023
114 Clouds 9 1028 76 10000 7.2 40 00:25 24.01.2023
115 Clouds 9 1028 81 10000 7.72 30 22:27 23.01.2023
116 Clouds 10 1028 76 10000 6.17 40 19:55 23.01.2023
117 Clouds 10 1028 76 10000 7.2 50 18:51 23.01.2023
118 Clouds 10 1027 76 10000 8.23 30 16:39 23.01.2023
119 Clouds 11 1027 66 10000 6.69 40 14:59 23.01.2023
120 Clouds 12 1026 62 10000 7.72 40 13:45 23.01.2023
121 Clouds 11 1026 66 9000 7.72 40 12:55 23.01.2023
122 Clouds 11 1026 66 10000 7.2 60 11:45 23.01.2023
123 Clouds 11 1027 71 10000 6.17 60 10:40 23.01.2023
124 Clouds 10 1026 76 10000 6.69 60 08:23 23.01.2023
125 Clear 10 1023 87 10000 6.17 360 23:51 22.01.2023
126 Clear 11 1023 76 10000 3.09 330 21:50 22.01.2023
127 Clear 12 1023 71 10000 1.03 330 20:58 22.01.2023
128 Clear 13 1022 67 10000 0.51 0 19:54 22.01.2023
129 Clear 13 1022 67 10000 1.03 0 19:21 22.01.2023
130 Clear 13 1022 67 10000 0.51 0 18:25 22.01.2023
131 Clear 13 1022 67 10000 1.54 90 17:55 22.01.2023
132 Clear 14 1022 62 10000 1.54 330 17:23 22.01.2023
133 Clear 16 1021 51 10000 2.06 230 15:23 22.01.2023
134 Clear 17 1021 51 10000 0.51 0 14:20 22.01.2023
135 Clear 15 1021 58 10000 1.03 0 13:26 22.01.2023
136 Clear 16 1021 55 10000 1.54 240 12:28 22.01.2023
137 Clear 16 1021 59 10000 1.03 220 11:23 22.01.2023
138 Clear 13 1022 71 10000 1.54 30 09:34 22.01.2023
139 Clouds 8 1019 66 10000 1.21 170 02:58 22.01.2023
140 Clouds 11 1019 71 7000 1.54 320 23:43 21.01.2023
141 Clouds 11 1019 71 6000 1.54 360 22:48 21.01.2023
142 Clear 13 1019 62 10000 2.06 30 21:28 21.01.2023
143 Clear 14 1018 58 10000 2.06 360 18:52 21.01.2023
144 Clear 16 1017 51 10000 2.06 60 15:37 21.01.2023
145 Clear 16 1016 51 10000 2.57 110 13:32 21.01.2023
146 Clear 15 1016 55 10000 3.6 100 12:52 21.01.2023
147 Clear 15 1017 58 10000 3.09 120 11:37 21.01.2023
148 Clear 14 1017 62 10000 3.6 120 10:47 21.01.2023
149 Clear 12 1017 76 10000 2.57 110 08:31 21.01.2023
150 Clear 11 1016 82 10000 3.09 210 02:18 21.01.2023
151 Clouds 13 1014 71 10000 6.69 200 22:27 20.01.2023
152 Clouds 12 1013 82 10000 4.12 190 21:36 20.01.2023
153 Clouds 12 1013 82 10000 3.6 180 20:42 20.01.2023
154 Rain 11 1012 87 10000 5.14 160 18:34 20.01.2023
155 Clouds 15 1011 67 10000 7.2 240 15:47 20.01.2023
156 Clear 18 1009 36 10000 2.57 110 14:38 20.01.2023
157 Clear 17 1009 39 10000 3.6 100 12:42 20.01.2023
158 Clear 13 1013 58 10000 0 0 09:24 20.01.2023
159 Clear 13 1013 62 10000 0.51 0 08:22 20.01.2023
160 Clear 11 1013 71 10000 3.09 150 02:34 20.01.2023
161 Clear 14 1015 62 10000 2.57 210 22:54 19.01.2023
162 Clear 14 1015 58 10000 2.57 170 22:31 19.01.2023
163 Clear 15 1015 58 10000 3.09 200 20:22 19.01.2023
164 Clear 16 1016 55 10000 2.57 0 18:57 19.01.2023
165 Clear 18 1016 51 10000 6.17 220 15:35 19.01.2023
166 Clear 17 1017 48 10000 6.69 200 10:52 19.01.2023
167 Clear 16 1017 55 10000 6.17 200 08:59 19.01.2023
168 Clear 16 1017 55 10000 6.17 200 08:59 19.01.2023
169 Clear 15 1015 62 10000 3.6 190 23:30 18.01.2023
170 Clear 14 1015 67 10000 2.57 190 20:54 18.01.2023
171 Clear 15 1015 67 10000 3.09 180 20:19 18.01.2023
172 Clear 15 1015 67 10000 6.17 200 19:36 18.01.2023
173 Clear 16 1013 59 10000 9.77 210 17:33 18.01.2023
174 Clear 16 1012 59 10000 10.8 210 15:18 18.01.2023
175 Clear 17 1012 55 10000 8.23 220 13:18 18.01.2023
176 Clear 17 1013 55 10000 5.66 190 10:29 18.01.2023
177 Clear 15 1012 63 10000 7.72 200 08:18 18.01.2023
178 Clouds 15 1011 72 10000 6.17 220 01:26 18.01.2023
179 Clouds 15 1011 63 10000 6.69 200 23:22 17.01.2023
180 Clear 14 1011 67 10000 6.69 200 20:31 17.01.2023
181 Clear 14 1011 67 10000 6.17 200 19:27 17.01.2023
182 Clouds 14 1011 72 10000 5.14 200 17:56 17.01.2023
183 Clouds 14 1011 67 10000 7.72 210 15:57 17.01.2023
184 Clouds 14 1011 72 10000 6.17 210 14:52 17.01.2023
185 Clear 16 1011 63 10000 7.2 210 13:47 17.01.2023
186 Clouds 14 1011 67 10000 5.66 190 11:51 17.01.2023
187 Clouds 14 1011 71 10000 6.69 200 11:23 17.01.2023
188 Clear 14 1011 62 10000 6.17 190 09:31 17.01.2023
189 Clear 13 1011 67 10000 6.17 170 07:52 17.01.2023
190 Clear 11 1011 76 10000 4.63 200 03:54 17.01.2023
191 Clouds 12 1012 71 10000 7.72 200 00:54 17.01.2023
192 Clouds 10 1012 82 8000 5.14 190 22:59 16.01.2023
193 Clouds 10 1012 82 8000 5.14 180 21:47 16.01.2023
194 Clear 10 1013 87 10000 3.09 120 20:23 16.01.2023
195 Clear 9 1013 87 10000 1.54 120 19:28 16.01.2023
196 Clear 9 1013 81 10000 1.54 120 18:52 16.01.2023
197 Clear 9 1013 81 10000 2.06 120 18:20 16.01.2023
198 Clear 9 1013 81 10000 1.03 0 17:34 16.01.2023
199 Clouds 11 1014 71 10000 2.57 210 14:36 16.01.2023
200 Clouds 12 1014 66 10000 3.09 210 13:37 16.01.2023
201 Clouds 10 1016 81 10000 2.57 210 10:27 16.01.2023
202 Clouds 9 1016 81 7000 3.6 100 08:53 16.01.2023
203 Clouds 7 1018 87 10000 3.09 40 23:21 15.01.2023
204 Clouds 8 1019 87 10000 4.12 50 21:32 15.01.2023
205 Clouds 8 1019 87 10000 4.12 50 20:34 15.01.2023
206 Clouds 8 1019 87 10000 4.63 40 19:43 15.01.2023
207 Clouds 10 1019 76 10000 5.66 40 17:39 15.01.2023
208 Clouds 11 1019 66 10000 6.17 30 15:22 15.01.2023
209 Clouds 11 1020 66 10000 3.09 40 12:30 15.01.2023
210 Clouds 11 1020 66 10000 3.09 40 12:30 15.01.2023
211 Clouds 12 1020 66 10000 5.66 30 11:30 15.01.2023
212 Clouds 11 1021 66 10000 4.12 60 10:28 15.01.2023
213 Clouds 10 1021 76 10000 5.14 50 09:34 15.01.2023
214 Clouds 9 1020 87 10000 6.17 20 01:47 15.01.2023
215 Clouds 9 1020 87 10000 5.66 20 22:45 14.01.2023
216 Clouds 9 1021 87 10000 5.66 30 21:55 14.01.2023
217 Clouds 9 1020 81 10000 6.17 30 21:36 14.01.2023
218 Clouds 9 1020 81 10000 6.17 30 21:36 14.01.2023
219 Clouds 9 1020 81 10000 6.17 30 21:18 14.01.2023
220 Clouds 9 1020 81 10000 6.17 30 21:18 14.01.2023
221 Clouds 10 1020 76 10000 6.69 30 20:28 14.01.2023
222 Clouds 10 1020 76 10000 6.17 20 18:29 14.01.2023
223 Clouds 10 1019 81 10000 6.69 20 15:48 14.01.2023
224 Clouds 10 1019 81 10000 5.66 30 15:26 14.01.2023
225 Clouds 11 1018 76 10000 5.66 20 14:24 14.01.2023
226 Clouds 11 1018 76 10000 6.17 10 13:32 14.01.2023
227 Clouds 11 1019 76 10000 4.12 20 10:51 14.01.2023
228 Clouds 10 1020 81 10000 4.63 20 09:43 14.01.2023
229 Clouds 10 1019 81 10000 4.63 30 02:50 14.01.2023
230 Clouds 10 1019 81 10000 5.66 30 23:21 13.01.2023
231 Clouds 10 1019 81 10000 5.66 30 22:42 13.01.2023
232 Clouds 10 1019 81 10000 6.69 20 21:58 13.01.2023
233 Clouds 10 1019 87 10000 6.69 20 20:49 13.01.2023
234 Clouds 10 1019 87 10000 6.17 20 19:28 13.01.2023
235 Clouds 10 1019 87 9000 4.63 40 17:42 13.01.2023
236 Clouds 10 1018 87 9000 5.66 20 16:22 13.01.2023
237 Clouds 10 1018 87 10000 6.69 340 12:33 13.01.2023
238 Clouds 10 1018 87 10000 6.69 350 11:57 13.01.2023
239 Clouds 9 1019 87 10000 7.2 350 10:23 13.01.2023
240 Clouds 9 1018 87 10000 7.2 350 09:44 13.01.2023
241 Rain 8 1018 93 10000 7.2 350 08:52 13.01.2023
242 Clouds 8 1018 93 10000 8.23 350 06:57 13.01.2023
243 Rain 8 1018 87 10000 8.23 350 06:30 13.01.2023
244 Rain 8 1018 93 10000 7.2 360 02:29 13.01.2023
245 Clouds 8 1018 93 10000 7.72 350 22:57 12.01.2023
246 Clouds 8 1018 93 10000 7.2 360 21:59 12.01.2023
247 Rain 8 1018 93 10000 7.2 360 20:54 12.01.2023
248 Clouds 8 1018 93 10000 7.2 360 18:39 12.01.2023
249 Clouds 9 1017 87 10000 8.23 350 17:20 12.01.2023
250 Clouds 10 1017 87 10000 7.2 350 15:28 12.01.2023
251 Clouds 10 1017 87 10000 7.72 340 14:42 12.01.2023
252 Clouds 11 1016 82 10000 6.69 350 14:19 12.01.2023
253 Clouds 14 1016 72 10000 3.6 340 12:29 12.01.2023
254 Mist 12 1017 87 4800 3.09 340 10:27 12.01.2023
255 Clouds 10 1016 93 6000 1.54 360 07:38 12.01.2023
256 Clouds 11 1015 82 10000 4.12 350 00:34 12.01.2023
257 Clouds 11 1014 82 10000 4.12 360 23:57 11.01.2023
258 Clouds 11 1014 82 10000 4.12 360 23:38 11.01.2023
259 Clouds 11 1015 76 10000 3.6 10 23:19 11.01.2023
260 Clouds 11 1015 82 10000 4.12 10 21:41 11.01.2023
261 Rain 12 1015 82 10000 3.6 10 19:30 11.01.2023
262 Rain 12 1015 82 10000 3.09 20 18:19 11.01.2023
263 Rain 13 1014 67 10000 0.51 0 15:54 11.01.2023
264 Clouds 12 1014 82 10000 2.06 350 13:59 11.01.2023
265 Rain 12 1014 76 10000 1.03 0 12:34 11.01.2023
266 Rain 12 1014 76 10000 1.54 150 11:51 11.01.2023
267 Rain 13 1014 71 10000 1.03 0 09:46 11.01.2023
268 Rain 12 1013 76 10000 3.6 110 07:37 11.01.2023
269 Rain 12 1013 71 10000 5.14 100 06:56 11.01.2023
270 Rain 11 1013 93 10000 1.03 0 23:55 10.01.2023
271 Clouds 12 1012 87 10000 3.09 280 22:36 10.01.2023
272 Clouds 13 1012 67 10000 1.54 200 21:30 10.01.2023
273 Clouds 14 1011 51 10000 7.72 130 19:56 10.01.2023
274 Clouds 14 1011 51 10000 8.23 120 19:34 10.01.2023
275 Rain 14 1010 51 10000 7.72 120 18:47 10.01.2023
276 Clear 13 1011 58 10000 6.69 110 17:54 10.01.2023
277 Rain 13 1011 54 10000 6.69 120 15:48 10.01.2023
278 Rain 13 1011 50 10000 7.2 110 15:22 10.01.2023
279 Clear 13 1012 54 10000 6.17 100 14:21 10.01.2023
280 Clear 13 1014 50 10000 7.2 110 11:49 10.01.2023
281 Clear 11 1015 66 10000 4.12 120 08:57 10.01.2023
282 Clear 11 1016 62 10000 4.12 120 08:25 10.01.2023
283 Clear 10 1016 71 10000 3.09 150 07:25 10.01.2023
284 Clear 10 1016 71 10000 2.57 150 04:50 10.01.2023
285 Clear 9 1018 71 10000 3.09 130 22:50 09.01.2023
286 Clear 10 1018 71 10000 3.6 130 21:20 09.01.2023
287 Clear 10 1018 66 10000 3.09 130 20:34 09.01.2023
288 Clear 10 1018 66 10000 3.6 120 18:42 09.01.2023
289 Clear 10 1019 66 10000 4.12 120 17:51 09.01.2023
290 Clear 10 1019 62 10000 3.09 110 16:47 09.01.2023
291 Clear 10 1019 57 10000 2.57 90 16:29 09.01.2023
292 Clear 11 1019 50 10000 3.09 100 15:22 09.01.2023
293 Clear 11 1019 50 10000 3.09 100 15:22 09.01.2023
294 Clear 11 1019 50 10000 3.09 100 15:22 09.01.2023
295 Clear 11 1019 58 10000 3.09 100 14:43 09.01.2023
296 Clear 11 1019 58 10000 3.09 100 14:43 09.01.2023
297 Clear 11 1020 66 10000 2.57 160 12:54 09.01.2023
298 Clear 11 1020 66 10000 2.57 150 12:18 09.01.2023
299 Clear 10 1020 71 10000 3.09 80 11:19 09.01.2023
300 Clear 7 1021 66 10000 4.12 100 07:20 09.01.2023
301 Clear 4 1021 93 10000 1.03 30 04:46 09.01.2023
302 Clear 5 1022 81 10000 0 0 02:52 09.01.2023
303 Clear 6 1022 87 10000 2.57 40 22:29 08.01.2023
304 Clear 7 1022 81 10000 3.09 40 21:22 08.01.2023
305 Clear 7 1022 81 10000 3.09 50 20:54 08.01.2023
306 Clear 9 1022 76 10000 5.14 50 18:52 08.01.2023
307 Clear 10 1022 76 10000 4.63 30 17:37 08.01.2023
308 Clear 10 1022 76 10000 4.63 30 17:18 08.01.2023
309 Clouds 12 1022 66 10000 1.03 0 15:36 08.01.2023
310 Clouds 11 1022 71 10000 2.06 150 13:59 08.01.2023
311 Clouds 12 1022 66 10000 2.57 140 13:31 08.01.2023
312 Clouds 12 1022 62 10000 2.57 150 12:54 08.01.2023
313 Clear 11 1023 71 10000 3.09 90 10:52 08.01.2023
314 Clear 10 1024 76 10000 2.57 100 09:36 08.01.2023
315 Clear 7 1023 87 10000 2.57 30 07:49 08.01.2023
316 Mist 6 1023 93 4000 1.03 20 00:30 08.01.2023
317 Mist 7 1023 87 4500 2.06 350 22:48 07.01.2023
318 Mist 7 1023 87 4500 2.06 340 22:24 07.01.2023
319 Clear 7 1023 87 9000 1.03 0 21:49 07.01.2023
320 Clear 8 1023 87 7000 3.09 40 20:48 07.01.2023
321 Clear 8 1023 81 7000 3.09 40 20:24 07.01.2023
322 Clear 9 1023 87 10000 1.54 50 18:52 07.01.2023
323 Clear 9 1023 87 10000 1.54 50 18:52 07.01.2023
324 Clear 9 1023 87 10000 1.54 70 17:59 07.01.2023
325 Clear 9 1023 87 10000 1.54 70 17:36 07.01.2023
326 Clouds 10 1023 87 10000 2.06 230 16:38 07.01.2023
327 Clouds 11 1023 82 10000 2.57 230 15:50 07.01.2023
328 Clouds 11 1023 82 10000 3.09 240 15:29 07.01.2023
329 Clouds 12 1023 76 10000 3.09 220 14:30 07.01.2023
330 Clouds 12 1023 76 10000 3.09 230 13:54 07.01.2023
331 Clear 12 1023 76 10000 2.57 210 13:34 07.01.2023
332 Clear 12 1024 76 10000 2.57 210 12:23 07.01.2023
333 Clear 12 1024 71 10000 1.54 220 11:51 07.01.2023
334 Clear 11 1025 82 10000 2.06 190 10:25 07.01.2023
335 Clear 9 1025 87 10000 1.54 320 08:38 07.01.2023
336 Clear 7 1025 87 10000 0.51 0 07:45 07.01.2023
337 Clear 6 1025 93 10000 0 0 07:19 07.01.2023
338 Clouds 8 1024 93 8000 0.51 0 02:49 07.01.2023
339 Clear 10 1024 87 10000 1.54 110 22:38 06.01.2023
340 Clear 11 1024 87 10000 1.54 110 22:19 06.01.2023
341 Mist 10 1024 93 3800 1.03 0 21:27 06.01.2023
342 Mist 10 1023 93 4000 2.57 50 19:58 06.01.2023
343 Mist 10 1023 93 4000 2.57 50 19:40 06.01.2023
344 Mist 10 1023 93 5000 1.54 60 19:22 06.01.2023
345 Clouds 10 1023 100 6000 1.54 100 18:42 06.01.2023
346 Clouds 11 1022 87 10000 1.54 80 17:21 06.01.2023
347 Clear 12 1021 82 10000 3.09 220 16:32 06.01.2023
348 Clear 12 1021 76 10000 3.6 240 15:57 06.01.2023
349 Clouds 13 1021 71 10000 2.57 220 15:39 06.01.2023
350 Clouds 12 1021 76 10000 3.6 230 14:52 06.01.2023
351 Clear 13 1020 76 10000 5.14 260 12:42 06.01.2023
352 Clouds 12 1021 82 8000 5.66 230 10:58 06.01.2023
353 Rain 11 1020 87 9000 3.09 250 08:56 06.01.2023
354 Clouds 11 1019 87 7000 4.12 230 07:44 06.01.2023
355 Clouds 11 1018 82 9000 5.66 220 01:43 06.01.2023
356 Clouds 11 1018 82 8000 6.69 220 22:55 05.01.2023
357 Clouds 10 1018 87 7000 5.14 200 21:47 05.01.2023
358 Clouds 10 1018 87 10000 5.66 210 19:32 05.01.2023
359 Clouds 10 1018 87 10000 4.12 230 17:28 05.01.2023
360 Clear 10 1018 81 10000 3.6 240 16:21 05.01.2023
361 Clear 11 1018 76 10000 3.09 230 15:46 05.01.2023
362 Clouds 12 1019 71 10000 4.12 220 14:36 05.01.2023
363 Clear 12 1020 71 10000 3.09 210 12:43 05.01.2023
364 Clouds 13 1020 67 10000 2.06 220 11:50 05.01.2023
365 Clouds 11 1022 82 10000 2.06 180 09:54 05.01.2023
366 Clouds 11 1023 82 8000 0 0 08:29 05.01.2023
367 Clouds 10 1023 87 10000 1.54 350 07:19 05.01.2023
368 Clouds 10 1024 87 10000 1.54 30 04:57 05.01.2023
369 Clouds 10 1026 87 10000 3.6 30 22:55 04.01.2023
370 Clouds 11 1027 76 10000 3.6 50 21:33 04.01.2023
371 Clouds 9 1027 84 10000 4.91 38 20:36 04.01.2023
372 Clouds 11 1027 76 10000 4.12 40 19:56 04.01.2023
373 Clouds 10 1026 87 10000 3.09 60 19:32 04.01.2023
374 Clouds 10 1026 87 10000 3.09 60 18:30 04.01.2023
375 Drizzle 10 1026 87 6000 4.12 30 16:32 04.01.2023
376 Clouds 11 1026 82 6000 4.63 20 15:40 04.01.2023
377 Mist 11 1025 82 4000 4.63 360 13:53 04.01.2023
378 Mist 10 1026 87 4000 3.09 260 11:40 04.01.2023
379 Mist 10 1026 87 4000 2.06 290 11:19 04.01.2023
380 Mist 10 1026 87 4000 2.57 250 10:42 04.01.2023
381 Mist 10 1026 87 4000 2.57 250 10:21 04.01.2023
382 Clouds 7 1026 93 6000 1.54 290 07:19 04.01.2023
383 Clouds 9 1026 93 8000 5.14 260 01:48 04.01.2023
384 Clouds 9 1025 87 7000 5.14 260 23:59 03.01.2023
385 Clouds 9 1026 87 7000 5.14 260 23:32 03.01.2023
386 Clouds 9 1026 93 7000 6.17 260 22:40 03.01.2023
387 Mist 8 1026 93 3100 5.14 250 20:52 03.01.2023
388 Mist 8 1025 87 3500 4.12 240 19:20 03.01.2023
389 Mist 9 1025 81 5000 3.09 230 16:47 03.01.2023
390 Mist 9 1025 87 4200 4.12 250 15:47 03.01.2023
391 Mist 11 1026 81 4700 5.14 250 13:52 03.01.2023
392 Mist 10 1026 87 5000 4.63 250 13:29 03.01.2023
393 Mist 11 1026 82 5000 4.63 250 12:57 03.01.2023
394 Mist 11 1027 82 5000 4.63 260 12:29 03.01.2023
395 Clear 11 1028 76 10000 5.14 230 10:25 03.01.2023
396 Clear 8 1027 71 6000 5.14 220 06:21 03.01.2023
397 Mist 8 1027 87 3300 3.09 210 03:57 03.01.2023
398 Mist 8 1027 87 3300 3.09 210 03:39 03.01.2023
399 Mist 5 1028 93 3300 1.54 270 23:56 02.01.2023
400 Mist 6 1029 93 3500 1.03 270 22:41 02.01.2023
401 Mist 6 1029 93 2700 1.03 300 21:52 02.01.2023
402 Mist 7 1029 87 3500 0 0 20:38 02.01.2023
403 Mist 7 1029 87 4400 0 0 19:27 02.01.2023
404 Clear 9 1029 81 6000 1.03 230 16:54 02.01.2023
405 Clear 11 1029 71 7000 3.09 230 14:46 02.01.2023
406 Clear 11 1030 71 9000 3.09 240 12:57 02.01.2023
407 Clear 11 1031 76 7000 3.09 230 11:40 02.01.2023
408 Mist 9 1032 93 4500 3.09 250 09:48 02.01.2023
409 Mist 5 1032 93 800 0 0 07:30 02.01.2023
410 Fog 7 1031 100 200 1.54 210 00:40 02.01.2023
411 Fog 6 1032 100 300 1.03 0 21:55 01.01.2023
412 Fog 8 1032 93 200 1.54 120 21:22 01.01.2023
413 Clouds 8 1032 93 250 1.54 120 20:45 01.01.2023
414 Fog 9 1032 87 300 1.03 160 19:42 01.01.2023
415 Mist 10 1031 87 3100 0 0 17:53 01.01.2023
416 Mist 10 1031 87 4000 1.54 120 17:20 01.01.2023
417 Mist 11 1031 82 3500 1.54 340 16:31 01.01.2023
418 Mist 12 1031 82 4000 2.06 230 14:37 01.01.2023
419 Mist 12 1031 82 4100 2.06 230 13:29 01.01.2023
420 Mist 12 1032 87 4200 3.09 250 12:32 01.01.2023
421 Clear 12 1032 82 7000 2.06 220 11:36 01.01.2023
422 Mist 11 1033 87 4500 1.54 110 09:53 01.01.2023
423 Mist 9 1032 100 1700 1.54 330 08:46 01.01.2023
424 Fog 9 1032 100 1300 0.51 350 08:18 01.01.2023
425 Fog 9 1032 100 1300 0.51 350 08:18 01.01.2023
426 Fog 8 1032 100 1600 2.06 260 06:51 01.01.2023
427 Mist 7 1031 87 3000 1.03 10 00:44 01.01.2023
428 Mist 7 1031 93 3000 2.06 340 23:41 31.12.2022
429 Mist 8 1031 93 3000 1.03 30 22:31 31.12.2022
430 Mist 9 1031 93 3000 1.03 110 21:25 31.12.2022
431 Mist 8 1031 93 3000 0 0 20:41 31.12.2022
432 Mist 9 1031 87 4000 1.03 320 19:32 31.12.2022
433 Mist 10 1031 87 4000 0 0 18:40 31.12.2022
434 Mist 9 1030 93 4000 1.03 30 18:18 31.12.2022
435 Mist 10 1030 87 4000 1.03 10 17:43 31.12.2022
436 Clear 11 1030 87 10000 1.54 200 16:38 31.12.2022
437 Clear 12 1029 82 10000 1.54 180 15:59 31.12.2022
438 Clear 13 1029 71 10000 2.57 200 14:36 31.12.2022
439 Clear 13 1029 76 10000 3.09 210 13:28 31.12.2022
440 Clear 13 1029 71 10000 3.09 230 12:39 31.12.2022
441 Clear 13 1029 76 10000 3.09 250 12:19 31.12.2022
442 Clear 13 1029 76 10000 3.09 230 11:45 31.12.2022
443 Clear 13 1030 82 10000 3.09 200 10:28 31.12.2022
444 Clear 12 1030 82 10000 2.06 180 09:52 31.12.2022
445 Clouds 12 1030 87 6000 3.09 240 08:59 31.12.2022
446 Mist 8 1029 93 2800 1.54 250 06:52 31.12.2022
447 Fog 9 1028 93 2200 1.54 270 00:35 31.12.2022
448 Fog 10 1028 100 2200 1.54 220 23:40 30.12.2022
449 Mist 10 1028 100 3200 2.06 170 22:41 30.12.2022
450 Mist 9 1028 100 2700 1.03 0 21:42 30.12.2022
451 Mist 10 1028 93 2700 1.03 130 21:21 30.12.2022
452 Mist 10 1028 93 4000 2.06 160 18:57 30.12.2022
453 Mist 11 1027 82 5000 1.54 160 17:35 30.12.2022
454 Clouds 11 1027 82 6000 1.54 180 16:51 30.12.2022
455 Clouds 12 1027 82 6000 3.09 230 15:19 30.12.2022
456 Clear 12 1027 82 6000 4.12 230 13:36 30.12.2022
457 Mist 11 1028 82 5000 4.63 230 09:32 30.12.2022
458 Clouds 10 1027 87 6000 3.09 210 06:44 30.12.2022
459 Clouds 10 1027 87 7000 3.6 240 02:28 30.12.2022
460 Clouds 10 1026 87 6000 2.57 220 23:48 29.12.2022
461 Mist 7 1026 93 4300 1.54 200 22:41 29.12.2022
462 Clear 7 1027 87 6000 0 0 21:29 29.12.2022
463 Clear 9 1027 76 7000 1.03 270 20:53 29.12.2022
464 Clear 9 1027 81 7000 2.06 280 19:55 29.12.2022
465 Clear 9 1026 87 10000 3.09 250 17:56 29.12.2022
466 Clear 9 1026 87 10000 2.57 250 17:27 29.12.2022
467 Clear 9 1027 87 10000 2.06 250 16:55 29.12.2022
468 Clear 10 1027 87 10000 2.06 240 15:58 29.12.2022
469 Clear 11 1026 76 10000 2.57 220 13:55 29.12.2022
470 Clear 12 1027 66 10000 2.57 210 12:34 29.12.2022
471 Clear 12 1027 58 10000 1.03 0 10:27 29.12.2022
472 Clear 7 1027 76 10000 2.06 10 06:32 29.12.2022
473 Clear 8 1027 76 10000 5.14 50 23:29 28.12.2022
474 Clear 9 1028 71 10000 5.66 40 22:21 28.12.2022
475 Clear 9 1028 71 10000 4.63 50 21:20 28.12.2022
476 Clouds 9 1028 71 10000 5.66 60 20:20 28.12.2022
477 Clouds 10 1028 66 10000 6.17 70 18:52 28.12.2022
478 Clouds 10 1028 76 10000 6.69 50 16:23 28.12.2022
479 Clouds 11 1028 76 10000 7.2 40 14:27 28.12.2022
480 Clouds 11 1028 76 10000 7.72 30 12:49 28.12.2022
481 Clouds 11 1028 82 10000 7.72 40 11:34 28.12.2022
482 Rain 11 1029 82 10000 4.63 40 10:26 28.12.2022
483 Clouds 11 1028 82 10000 6.17 20 07:48 28.12.2022
484 Clear 11 1027 76 10000 4.12 10 06:46 28.12.2022
485 Clear 12 1025 87 10000 3.09 230 01:18 28.12.2022
486 Clear 12 1024 76 10000 3.6 220 22:33 27.12.2022
487 Clear 12 1024 76 10000 5.66 220 19:51 27.12.2022
488 Clear 12 1023 76 10000 5.14 220 18:55 27.12.2022
489 Clear 12 1023 76 10000 3.6 220 16:59 27.12.2022
490 Clear 12 1023 76 10000 4.63 210 16:19 27.12.2022
491 Clear 13 1023 67 10000 5.14 220 14:44 27.12.2022
492 Clear 12 1024 66 10000 6.17 210 12:27 27.12.2022
493 Clouds 12 1025 62 10000 5.14 220 10:30 27.12.2022
494 Clear 11 1025 66 10000 6.69 190 09:41 27.12.2022
495 Clear 11 1025 66 10000 6.69 190 09:20 27.12.2022
496 Clear 9 1025 76 10000 5.66 210 04:57 27.12.2022
497 Clear 8 1027 87 10000 1.03 130 23:40 26.12.2022
498 Clear 10 1027 81 10000 2.06 160 21:52 26.12.2022
499 Clear 9 1027 81 10000 2.06 160 20:44 26.12.2022
500 Clear 9 1028 81 10000 2.06 160 19:55 26.12.2022
501 Clear 9 1028 87 10000 1.54 200 18:42 26.12.2022
502 Clear 10 1028 81 10000 1.54 210 17:18 26.12.2022
503 Clouds 11 1028 76 10000 3.09 200 15:38 26.12.2022
504 Clouds 12 1028 66 10000 3.09 190 12:59 26.12.2022
505 Clouds 12 1028 66 10000 2.06 210 11:44 26.12.2022
506 Clear 8 1028 93 10000 2.06 280 05:44 26.12.2022
507 Clear 9 1025 81 10000 2.06 330 23:42 25.12.2022
508 Clouds 9 1025 81 7000 2.57 340 22:51 25.12.2022
509 Clouds 9 1025 81 6000 2.06 330 22:22 25.12.2022
510 Clouds 10 1024 87 8000 2.06 260 19:56 25.12.2022
511 Clouds 11 1023 82 10000 1.54 210 17:52 25.12.2022
512 Clouds 11 1023 82 10000 1.54 210 17:34 25.12.2022
513 Clouds 11 1023 82 10000 1.54 200 16:41 25.12.2022
514 Clouds 13 1021 76 10000 4.12 230 13:30 25.12.2022
515 Clouds 14 1020 58 10000 2.57 320 11:38 25.12.2022
516 Rain 11 1017 93 6000 4.63 240 04:19 25.12.2022
517 Clear 11 1017 87 10000 3.6 260 22:47 24.12.2022
518 Clouds 10 1016 87 6000 2.06 180 19:53 24.12.2022
519 Clouds 10 1016 81 7000 2.06 210 17:34 24.12.2022
520 Clear 11 1016 76 10000 3.09 230 15:37 24.12.2022
521 Clear 12 1015 66 10000 4.63 240 14:28 24.12.2022
522 Clear 12 1015 66 10000 5.14 230 12:20 24.12.2022
523 Clear 12 1016 71 10000 5.14 200 10:23 24.12.2022
524 Clear 11 1016 71 10000 5.14 200 09:37 24.12.2022
525 Clear 11 1016 71 10000 4.63 200 08:36 24.12.2022
526 Clear 10 1015 76 10000 4.12 220 02:51 24.12.2022
527 Clear 10 1015 81 10000 3.09 240 00:29 24.12.2022
528 Clear 10 1016 81 10000 4.12 260 22:30 23.12.2022
529 Clear 9 1016 81 10000 2.57 270 21:37 23.12.2022
530 Clear 11 1016 71 10000 3.09 220 19:40 23.12.2022
531 Clear 11 1016 71 10000 3.6 210 19:22 23.12.2022
532 Clear 11 1016 71 10000 2.57 220 18:53 23.12.2022
533 Clear 10 1016 76 10000 3.09 220 18:22 23.12.2022
534 Clear 10 1016 76 10000 2.06 210 17:43 23.12.2022
535 Clear 11 1015 66 10000 3.6 210 15:45 23.12.2022
536 Clear 12 1015 62 10000 5.14 200 13:42 23.12.2022
537 Clouds 11 1016 71 10000 2.06 0 10:21 23.12.2022
538 Clear 11 1016 66 10000 3.09 90 09:35 23.12.2022
539 Clouds 9 1016 71 10000 5.66 240 07:29 23.12.2022
540 Clouds 10 1016 76 10000 5.14 240 06:49 23.12.2022
541 Clear 7 1016 81 8000 2.06 350 23:42 22.12.2022
542 Clear 7 1017 81 8000 2.06 360 23:19 22.12.2022
543 Clear 7 1017 81 6000 1.54 360 21:55 22.12.2022
544 Clear 9 1017 71 10000 2.06 340 19:47 22.12.2022
545 Clear 8 1017 76 10000 2.06 310 19:18 22.12.2022
546 Clear 9 1017 71 10000 1.03 110 17:59 22.12.2022
547 Clear 10 1017 66 10000 2.06 100 16:52 22.12.2022
548 Clear 12 1017 58 10000 2.06 90 15:38 22.12.2022
549 Clear 12 1017 58 10000 2.06 90 15:18 22.12.2022
550 Clear 12 1018 54 10000 1.54 120 14:27 22.12.2022
551 Clear 13 1018 50 10000 1.03 0 13:19 22.12.2022
552 Clear 11 1019 58 10000 2.57 110 11:40 22.12.2022
553 Clear 10 1030 62 4800 9.77 40 10:31 22.12.2022
554 Clear 10 1020 62 10000 2.06 60 09:22 22.12.2022
555 Clear 10 1020 62 10000 2.06 60 09:22 22.12.2022
556 Clear 7 1020 81 10000 1.54 350 08:36 22.12.2022
557 Clear 5 1020 81 10000 1.54 10 07:51 22.12.2022
558 Clear 5 1019 75 10000 2.57 10 04:19 22.12.2022
559 Clear 5 1020 75 10000 2.57 40 00:40 22.12.2022
560 Clear 6 1021 70 10000 3.6 40 22:29 21.12.2022
561 Clear 7 1021 65 10000 3.6 40 21:35 21.12.2022
562 Clear 6 1021 75 10000 4.12 50 20:57 21.12.2022
563 Clear 6 1021 75 10000 3.6 50 20:31 21.12.2022
564 Clear 6 1021 75 10000 3.6 50 19:47 21.12.2022
565 Clear 7 1022 70 10000 4.12 50 19:28 21.12.2022
566 Clear 7 1022 70 10000 4.63 60 18:51 21.12.2022
567 Clear 8 1022 66 10000 5.66 50 18:33 21.12.2022
568 Clear 9 1022 61 10000 6.17 30 15:50 21.12.2022
569 Clouds 11 1022 54 10000 4.63 30 13:52 21.12.2022
570 Clouds 10 1024 50 10000 4.12 90 11:48 21.12.2022
571 Clouds 10 1024 50 10000 4.12 90 11:20 21.12.2022
572 Clouds 10 1025 53 10000 6.17 60 10:26 21.12.2022
573 Clouds 9 1025 53 10000 4.63 90 08:48 21.12.2022
574 Clouds 8 1025 66 10000 3.6 50 06:30 21.12.2022
575 Clouds 9 1027 57 10000 5.66 40 00:25 21.12.2022
576 Clouds 8 1028 57 10000 7.2 40 21:47 20.12.2022
577 Clouds 8 1028 57 10000 6.17 40 20:51 20.12.2022
578 Clouds 8 1029 61 10000 8.75 60 19:54 20.12.2022
579 Clouds 9 1029 57 10000 7.2 50 18:47 20.12.2022
580 Clouds 9 1029 57 10000 7.2 50 18:22 20.12.2022
581 Clouds 8 1029 61 10000 8.23 40 17:47 20.12.2022
582 Clouds 9 1029 57 10000 8.75 50 17:22 20.12.2022
583 Clouds 9 1029 49 10000 8.23 60 15:50 20.12.2022
584 Clouds 9 1029 49 10000 10.29 40 14:52 20.12.2022
585 Clouds 10 1029 53 10000 10.29 50 14:29 20.12.2022
586 Clouds 9 1029 57 10000 9.77 40 13:25 20.12.2022
587 Clouds 10 1030 50 10000 9.77 50 12:32 20.12.2022
588 Clouds 9 1030 53 10000 10.29 40 11:42 20.12.2022
589 Clouds 9 1032 66 10000 8.75 60 09:52 20.12.2022
590 Clouds 6 1033 70 10000 5.14 40 06:24 20.12.2022
591 Clouds 6 1035 65 10000 7.2 30 23:46 19.12.2022
592 Clouds 6 1036 65 10000 9.26 20 22:21 19.12.2022
593 Clouds 7 1036 57 10000 8.23 20 20:48 19.12.2022
594 Clouds 7 1036 57 10000 9.77 30 19:40 19.12.2022
595 Clouds 7 1036 57 10000 9.77 20 18:43 19.12.2022
596 Clouds 7 1036 57 10000 9.77 20 17:36 19.12.2022
597 Clouds 8 1035 57 10000 10.8 20 14:45 19.12.2022
598 Clouds 8 1035 71 10000 9.26 30 12:34 19.12.2022
599 Clouds 8 1035 66 10000 9.77 30 11:30 19.12.2022
600 Rain 7 1035 87 10000 9.77 20 07:46 19.12.2022
601 Clouds 7 1033 93 10000 8.23 20 05:37 19.12.2022
602 Clouds 9 1031 87 10000 11.83 20 22:43 18.12.2022
603 Clouds 9 1031 93 10000 9.77 20 21:47 18.12.2022
604 Clouds 10 1030 87 10000 10.29 20 21:24 18.12.2022
605 Clouds 10 1030 87 8000 8.23 20 20:52 18.12.2022
606 Drizzle 10 1030 93 10000 9.26 20 19:43 18.12.2022
607 Drizzle 11 1029 87 8000 8.75 20 18:39 18.12.2022
608 Clouds 11 1029 87 10000 7.72 20 17:52 18.12.2022
609 Clouds 11 1028 82 10000 9.26 20 15:41 18.12.2022
610 Clouds 11 1028 82 10000 9.26 20 15:20 18.12.2022
611 Clouds 11 1027 87 10000 8.23 10 14:21 18.12.2022
612 Clouds 12 1027 82 10000 9.26 30 12:57 18.12.2022
613 Clouds 12 1027 82 10000 9.26 30 12:57 18.12.2022
614 Clouds 12 1027 82 10000 9.26 10 12:31 18.12.2022
615 Clouds 12 1027 82 10000 7.72 20 11:48 18.12.2022
616 Clouds 13 1026 82 10000 8.23 20 09:24 18.12.2022
617 Clouds 13 1026 82 10000 9.26 20 08:45 18.12.2022
618 Clouds 14 1024 94 10000 4.12 330 06:24 18.12.2022
619 Clouds 12 1023 94 10000 0 0 04:20 18.12.2022
620 Clear 14 1022 82 10000 0 0 01:49 18.12.2022
621 Clear 15 1021 82 10000 3.09 280 22:30 17.12.2022
622 Clear 16 1020 77 10000 3.09 230 20:35 17.12.2022
623 Clear 16 1019 77 10000 2.57 250 17:20 17.12.2022
624 Clear 18 1019 72 10000 2.06 240 15:18 17.12.2022
625 Clear 18 1018 68 10000 4.12 210 12:33 17.12.2022
626 Clear 18 1019 67 10000 6.17 210 11:18 17.12.2022
627 Clear 18 1019 72 10000 6.17 210 10:38 17.12.2022
628 Clear 17 1019 67 10000 5.66 190 08:36 17.12.2022
629 Clear 15 1019 77 10000 5.14 190 06:47 17.12.2022
630 Clear 15 1019 82 10000 3.6 220 00:32 17.12.2022
631 Clear 15 1019 82 10000 2.57 220 22:22 16.12.2022
632 Clear 16 1019 77 10000 2.06 270 20:26 16.12.2022
633 Clear 15 1019 82 10000 1.54 210 17:49 16.12.2022
634 Clear 18 1018 69 10000 2.06 210 15:19 16.12.2022
635 Clear 19 1018 67 10000 1.54 240 14:36 16.12.2022
636 Clear 19 1019 63 10000 3.09 190 12:22 16.12.2022
637 Clear 19 1019 63 10000 2.06 150 11:35 16.12.2022
638 Clear 18 1019 70 10000 2.06 120 09:39 16.12.2022
639 Clouds 15 1019 84 10000 1.54 110 08:27 16.12.2022
640 Clouds 15 1019 84 10000 1.54 110 08:27 16.12.2022
641 Clouds 15 1019 84 10000 1.54 110 08:27 16.12.2022
642 Clouds 14 1019 85 10000 1.54 60 07:54 16.12.2022
643 Clouds 15 1018 86 8000 1.03 0 00:22 16.12.2022
644 Clouds 15 1017 87 10000 1.54 260 22:33 15.12.2022
645 Clouds 14 1017 87 10000 2.57 250 21:25 15.12.2022
646 Clouds 16 1016 84 10000 3.6 280 19:42 15.12.2022
647 Clouds 16 1015 85 10000 4.12 280 18:51 15.12.2022
648 Clouds 16 1014 84 10000 5.14 260 17:27 15.12.2022
649 Clouds 16 1013 79 10000 3.09 250 15:45 15.12.2022
650 Clouds 16 1013 74 10000 4.63 260 14:55 15.12.2022
651 Clouds 16 1011 75 10000 5.66 230 12:51 15.12.2022
652 Clouds 16 1011 70 10000 7.2 210 11:41 15.12.2022
653 Clouds 13 1011 82 10000 5.14 200 08:55 15.12.2022
654 Clouds 13 1011 82 10000 6.69 200 08:18 15.12.2022
655 Clouds 11 1011 82 10000 4.12 200 05:43 15.12.2022
656 Clear 8 1014 87 10000 1.54 360 22:40 14.12.2022
657 Clear 8 1014 81 10000 2.57 30 21:24 14.12.2022
658 Clear 8 1014 81 10000 3.09 40 20:44 14.12.2022
659 Clear 8 1014 81 10000 2.57 60 19:51 14.12.2022
660 Clouds 10 1015 73 10000 4.12 90 16:58 14.12.2022
661 Clouds 11 1015 73 10000 4.12 90 16:38 14.12.2022
662 Clouds 11 1015 69 10000 5.14 90 14:50 14.12.2022
663 Clouds 11 1015 69 10000 6.69 60 12:56 14.12.2022
664 Clouds 11 1016 71 10000 6.17 60 10:46 14.12.2022
665 Clouds 11 1016 71 10000 6.17 60 10:22 14.12.2022
666 Clouds 8 1015 73 10000 6.69 50 06:37 14.12.2022
667 Clouds 6 1015 70 10000 7.2 30 21:57 13.12.2022
668 Clouds 6 1015 70 10000 7.2 30 21:37 13.12.2022
669 Clouds 6 1015 70 10000 5.66 20 20:47 13.12.2022
670 Clouds 6 1015 71 10000 6.69 20 18:55 13.12.2022
671 Clouds 6 1014 70 10000 7.2 30 16:36 13.12.2022
672 Clouds 6 1013 63 10000 9.26 20 14:59 13.12.2022
673 Rain 6 1013 75 6000 6.17 20 13:33 13.12.2022
674 Rain 5 1013 84 10000 7.72 360 10:49 13.12.2022
675 Rain 6 1013 80 10000 9.26 360 10:26 13.12.2022
676 Clouds 7 1011 87 10000 6.69 10 08:18 13.12.2022
677 Clouds 14 1007 82 10000 1.54 280 22:37 12.12.2022
678 Clouds 15 1007 77 10000 2.57 190 21:58 12.12.2022
679 Clouds 13 1007 88 10000 1.54 150 19:46 12.12.2022
680 Clear 13 1007 86 10000 1.03 290 17:53 12.12.2022
681 Clear 15 1007 74 10000 3.09 230 15:32 12.12.2022
682 Clear 15 1007 73 10000 4.63 210 13:51 12.12.2022
683 Clouds 16 1007 76 10000 5.14 190 09:21 12.12.2022
684 Clouds 15 1007 82 10000 5.14 190 08:56 12.12.2022
685 Clouds 15 1004 82 10000 5.66 190 04:48 12.12.2022
686 Clouds 15 1003 80 10000 7.72 190 01:50 12.12.2022
687 Rain 16 1002 77 10000 9.26 200 22:18 11.12.2022
688 Clouds 17 1001 67 10000 6.69 180 20:34 11.12.2022
689 Clouds 16 1001 72 10000 6.69 180 19:38 11.12.2022
690 Clouds 16 1001 72 10000 6.69 180 19:38 11.12.2022
691 Rain 15 1002 82 10000 3.6 190 18:33 11.12.2022
692 Clouds 15 1003 77 10000 5.14 200 17:33 11.12.2022
693 Clouds 15 1003 77 10000 5.66 180 16:53 11.12.2022
694 Clouds 15 1003 77 10000 6.69 180 16:29 11.12.2022
695 Clouds 16 1003 72 10000 7.2 190 15:44 11.12.2022
696 Clouds 18 1002 63 10000 5.14 180 13:35 11.12.2022
697 Clouds 18 1001 68 10000 6.69 190 12:41 11.12.2022
698 Clouds 20 1003 52 10000 8.75 190 10:25 11.12.2022
699 Clouds 15 1006 82 10000 3.6 230 00:57 11.12.2022
700 Clouds 15 1006 82 10000 3.6 240 00:22 11.12.2022
701 Rain 15 1008 82 10000 2.06 230 22:35 10.12.2022
702 Clouds 15 1009 82 10000 2.06 210 21:59 10.12.2022
703 Rain 15 1009 82 10000 3.6 220 20:59 10.12.2022
704 Rain 15 1009 82 10000 3.09 220 20:19 10.12.2022
705 Clouds 17 1010 67 10000 4.63 210 17:50 10.12.2022
706 Clouds 17 1010 67 10000 7.72 200 16:38 10.12.2022
707 Clouds 17 1011 67 10000 4.63 190 15:41 10.12.2022
708 Clouds 17 1011 67 10000 4.63 190 15:21 10.12.2022
709 Clouds 16 1011 72 10000 5.66 190 13:38 10.12.2022
710 Clouds 16 1012 72 10000 5.66 200 12:21 10.12.2022
711 Clouds 16 1013 72 10000 8.23 190 10:52 10.12.2022
712 Clear 16 1013 67 10000 6.17 200 09:43 10.12.2022
713 Clear 15 1014 72 10000 5.14 210 07:22 10.12.2022
714 Clear 15 1014 77 10000 4.63 180 04:57 10.12.2022
715 Clear 14 1016 82 10000 1.54 240 23:38 09.12.2022
716 Clear 14 1017 82 10000 1.03 0 22:42 09.12.2022
717 Clear 15 1017 77 10000 4.12 210 21:29 09.12.2022
718 Clear 15 1017 77 10000 2.57 210 20:58 09.12.2022
719 Clear 16 1017 72 10000 4.12 200 19:46 09.12.2022
720 Clear 16 1017 72 10000 3.6 170 17:56 09.12.2022
721 Clear 16 1017 72 10000 3.09 170 16:53 09.12.2022
722 Clear 16 1017 72 10000 3.6 170 16:18 09.12.2022
723 Clear 17 1017 67 10000 4.63 190 15:29 09.12.2022
724 Clouds 15 1018 77 10000 2.57 220 12:41 09.12.2022
725 Clouds 15 1018 77 10000 4.12 200 10:50 09.12.2022
726 Clouds 15 1019 77 10000 4.12 190 10:20 09.12.2022
727 Clouds 13 1018 94 10000 2.06 190 05:37 09.12.2022
728 Clouds 14 1018 82 10000 4.12 220 03:18 09.12.2022
729 Clouds 13 1018 88 10000 1.54 120 22:51 08.12.2022
730 Clouds 14 1018 72 10000 2.06 130 20:55 08.12.2022
731 Clouds 13 1018 76 10000 1.03 120 18:57 08.12.2022
732 Clouds 14 1017 72 10000 1.03 150 16:26 08.12.2022
733 Clear 16 1017 63 10000 2.57 190 14:30 08.12.2022
734 Clear 15 1018 63 10000 3.09 190 12:28 08.12.2022
735 Clear 14 1019 67 10000 3.09 140 10:36 08.12.2022
736 Clear 14 1019 67 10000 3.6 170 09:28 08.12.2022
737 Clear 11 1018 76 10000 2.57 120 06:51 08.12.2022
738 Clouds 10 1017 87 8000 1.03 0 22:43 07.12.2022
739 Clouds 10 1017 87 8000 1.03 0 22:18 07.12.2022
740 Clear 11 1017 87 10000 0.51 0 21:45 07.12.2022
741 Clouds 12 1017 82 10000 1.54 170 20:24 07.12.2022
742 Clouds 12 1017 82 10000 1.03 170 18:20 07.12.2022
743 Clouds 12 1016 76 10000 2.06 200 15:39 07.12.2022
744 Clouds 13 1017 67 10000 3.6 180 13:26 07.12.2022
745 Clouds 12 1018 76 10000 4.63 200 10:49 07.12.2022
746 Clouds 12 1018 76 10000 4.63 190 09:58 07.12.2022
747 Clouds 12 1018 82 10000 5.14 200 08:58 07.12.2022
748 Clouds 12 1018 82 10000 4.12 200 07:21 07.12.2022
749 Clouds 11 1017 82 10000 1.03 0 05:24 07.12.2022
750 Clear 10 1018 81 10000 2.57 40 23:58 06.12.2022
751 Clouds 10 1019 81 10000 3.6 50 21:49 06.12.2022
752 Clouds 11 1020 82 10000 4.63 60 19:22 06.12.2022
753 Clouds 11 1020 76 10000 4.63 50 17:19 06.12.2022
754 Clouds 11 1020 76 10000 4.12 50 16:29 06.12.2022
755 Clouds 13 1020 67 10000 2.57 60 15:35 06.12.2022
756 Clouds 13 1020 67 10000 5.14 50 14:35 06.12.2022
757 Clouds 13 1020 67 10000 4.12 60 13:49 06.12.2022
758 Clouds 13 1020 67 10000 5.14 60 12:41 06.12.2022
759 Clouds 13 1021 71 10000 3.6 80 11:34 06.12.2022
760 Clouds 12 1022 76 10000 3.09 30 07:49 06.12.2022
761 Clouds 11 1022 87 10000 3.6 20 03:20 06.12.2022
762 Clouds 12 1023 87 10000 3.6 30 23:21 05.12.2022
763 Clouds 12 1024 82 10000 4.63 30 21:40 05.12.2022
764 Clouds 12 1024 82 10000 5.66 20 20:52 05.12.2022
765 Clouds 12 1024 82 10000 4.63 30 19:53 05.12.2022
766 Clouds 12 1024 82 10000 4.63 30 19:34 05.12.2022
767 Clear 12 1024 82 10000 6.69 40 16:51 05.12.2022
768 Clouds 13 1024 71 10000 7.72 30 15:29 05.12.2022
769 Clouds 13 1024 71 10000 7.2 40 13:52 05.12.2022
770 Clouds 13 1024 71 10000 5.14 30 12:57 05.12.2022
771 Clouds 13 1024 71 10000 5.14 30 12:38 05.12.2022
772 Clouds 13 1025 71 10000 5.14 30 11:40 05.12.2022
773 Clouds 12 1025 76 10000 3.6 20 08:32 05.12.2022
774 Clouds 11 1025 82 10000 4.63 20 00:18 05.12.2022
775 Clouds 11 1026 82 10000 4.63 20 22:44 04.12.2022
776 Clouds 11 1026 82 10000 5.14 30 22:18 04.12.2022
777 Clouds 11 1026 82 10000 5.14 20 21:32 04.12.2022
778 Clouds 11 1026 82 10000 5.66 20 19:59 04.12.2022
779 Clouds 11 1026 82 10000 5.66 20 19:23 04.12.2022
780 Clouds 11 1026 82 10000 5.66 30 18:35 04.12.2022
781 Clouds 11 1025 82 10000 6.69 20 17:22 04.12.2022
782 Clouds 11 1026 82 10000 6.69 30 16:36 04.12.2022
783 Clouds 11 1026 82 10000 6.69 30 16:18 04.12.2022
784 Clouds 11 1026 82 10000 6.17 30 15:27 04.12.2022
785 Clouds 11 1025 82 10000 6.69 30 14:19 04.12.2022
786 Clouds 12 1026 76 10000 7.2 40 12:51 04.12.2022
787 Clouds 12 1026 76 10000 7.72 30 12:33 04.12.2022
788 Clouds 12 1026 76 10000 7.2 30 11:34 04.12.2022
789 Clouds 10 1027 93 10000 5.14 10 07:36 04.12.2022
790 Clouds 11 1027 71 10000 7.2 60 02:51 04.12.2022
791 Clouds 10 1027 81 10000 5.14 20 23:44 03.12.2022
792 Clouds 10 1027 81 10000 6.69 30 22:35 03.12.2022
793 Clouds 10 1028 81 10000 6.69 30 21:50 03.12.2022
794 Clouds 10 1027 81 10000 6.69 30 20:45 03.12.2022
795 Clouds 10 1027 81 10000 8.23 20 18:41 03.12.2022
796 Clouds 10 1026 87 10000 8.23 30 17:49 03.12.2022
797 Clouds 11 1026 87 10000 7.2 30 15:50 03.12.2022
798 Clouds 12 1025 82 10000 6.69 30 13:43 03.12.2022
799 Clouds 12 1025 82 10000 6.17 40 12:51 03.12.2022
800 Clouds 12 1025 82 10000 6.17 40 11:57 03.12.2022
801 Clouds 11 1026 93 10000 3.09 10 08:38 03.12.2022
802 Clouds 10 1024 87 10000 6.17 360 02:48 03.12.2022
803 Clouds 10 1024 87 10000 7.72 10 00:20 03.12.2022
804 Clouds 11 1023 87 10000 6.69 360 21:59 02.12.2022
805 Clouds 11 1023 93 10000 5.14 360 19:50 02.12.2022
806 Clouds 11 1023 93 10000 5.14 360 19:50 02.12.2022
807 Clouds 12 1021 94 10000 2.06 320 17:30 02.12.2022
808 Clouds 11 1021 93 10000 5.66 340 15:57 02.12.2022
809 Clouds 11 1020 87 10000 6.17 330 14:36 02.12.2022
810 Clouds 11 1020 87 10000 6.17 330 14:18 02.12.2022
811 Clouds 11 1020 87 8000 6.69 330 11:59 02.12.2022
812 Rain 10 1020 93 8000 7.2 330 10:35 02.12.2022
813 Clouds 11 1019 93 7000 5.66 10 07:52 02.12.2022
814 Rain 11 1019 93 7000 3.09 20 07:22 02.12.2022
815 Clouds 12 1018 94 10000 1.03 0 22:51 01.12.2022
816 Clear 12 1018 94 10000 1.54 40 21:42 01.12.2022
817 Clear 12 1017 94 10000 1.54 70 20:48 01.12.2022
818 Rain 13 1017 88 10000 2.06 110 18:59 01.12.2022
819 Rain 14 1017 94 10000 3.6 360 17:23 01.12.2022
820 Rain 15 1016 82 10000 8.23 30 14:39 01.12.2022
821 Clouds 15 1016 82 10000 5.66 40 11:20 01.12.2022
822 Clouds 14 1017 88 10000 5.66 40 09:55 01.12.2022
823 Clouds 14 1017 88 10000 5.66 40 09:36 01.12.2022
824 Clouds 13 1017 88 10000 7.2 40 06:44 01.12.2022
825 Rain 14 1018 88 10000 6.17 40 22:44 30.11.2022
826 Clouds 14 1017 82 10000 7.72 50 21:46 30.11.2022
827 Clouds 14 1017 88 10000 7.2 50 21:19 30.11.2022
828 Rain 14 1017 82 10000 7.72 40 20:23 30.11.2022
829 Rain 14 1017 82 10000 7.2 40 18:50 30.11.2022
830 Rain 14 1017 82 10000 7.2 50 18:31 30.11.2022
831 Clouds 15 1017 77 10000 6.17 60 16:39 30.11.2022
832 Rain 14 1017 88 10000 7.2 40 14:46 30.11.2022
833 Clouds 15 1016 77 10000 7.2 40 14:26 30.11.2022
834 Clouds 15 1016 77 10000 7.2 40 12:21 30.11.2022
835 Clouds 15 1017 77 10000 7.2 50 09:38 30.11.2022
836 Clouds 14 1016 88 10000 5.14 50 08:27 30.11.2022
837 Clouds 13 1016 88 10000 4.63 50 06:42 30.11.2022
838 Rain 13 1016 88 10000 5.66 60 23:29 29.11.2022
839 Rain 13 1016 88 10000 5.66 60 23:29 29.11.2022
840 Rain 14 1016 82 10000 4.63 60 22:19 29.11.2022
841 Rain 14 1016 82 10000 4.63 50 20:52 29.11.2022
842 Clouds 13 1016 82 10000 3.6 50 19:54 29.11.2022
843 Clouds 14 1015 72 10000 5.14 60 18:41 29.11.2022
844 Clouds 14 1015 72 10000 6.17 40 16:51 29.11.2022
845 Rain 14 1015 77 10000 5.14 40 15:34 29.11.2022
846 Clouds 14 1015 72 10000 4.63 40 14:48 29.11.2022
847 Rain 14 1015 77 10000 3.09 80 12:38 29.11.2022
848 Clouds 15 1015 63 10000 4.63 30 11:31 29.11.2022
849 Rain 14 1015 62 10000 4.12 30 10:29 29.11.2022
850 Clear 14 1015 72 10000 2.57 50 09:28 29.11.2022
851 Clear 11 1015 87 10000 3.09 40 07:19 29.11.2022
852 Clear 13 1015 76 10000 3.6 40 00:28 29.11.2022
853 Clear 13 1015 71 10000 4.12 40 23:25 28.11.2022
854 Clear 13 1016 71 10000 4.63 60 21:57 28.11.2022
855 Clear 13 1016 71 10000 4.63 60 21:39 28.11.2022
856 Clear 13 1016 71 10000 5.14 50 20:25 28.11.2022
857 Clear 13 1016 67 10000 6.17 40 19:36 28.11.2022
858 Clear 13 1016 67 10000 5.66 40 18:28 28.11.2022
859 Rain 13 1016 67 10000 5.14 60 17:23 28.11.2022
860 Rain 14 1016 62 10000 7.2 40 14:57 28.11.2022
861 Clear 14 1016 62 10000 7.2 30 13:55 28.11.2022
862 Clear 14 1016 62 10000 7.72 30 13:19 28.11.2022
863 Clouds 14 1017 62 10000 5.66 50 11:32 28.11.2022
864 Clouds 12 1019 71 10000 5.14 30 08:26 28.11.2022
865 Clouds 10 1019 76 10000 4.12 30 04:57 28.11.2022
866 Clouds 10 1019 76 10000 4.12 30 04:38 28.11.2022
867 Clouds 10 1020 76 10000 4.12 30 03:21 28.11.2022
868 Clouds 10 1021 76 10000 4.63 50 00:29 28.11.2022
869 Rain 10 1022 76 10000 4.63 40 22:24 27.11.2022
870 Clear 10 1022 76 10000 4.63 20 20:46 27.11.2022
871 Clear 10 1022 71 10000 7.2 40 18:37 27.11.2022
872 Clear 10 1023 71 10000 7.2 30 16:25 27.11.2022
873 Clouds 11 1023 66 10000 5.14 20 13:54 27.11.2022
874 Clouds 12 1024 58 10000 5.66 30 12:24 27.11.2022
875 Clouds 10 1026 71 10000 4.12 20 09:31 27.11.2022
876 Clouds 9 1026 71 10000 3.09 360 07:20 27.11.2022
877 Clouds 8 1026 76 10000 2.57 30 23:37 26.11.2022
878 Clouds 8 1026 76 10000 2.57 40 21:43 26.11.2022
879 Clear 9 1026 66 10000 3.6 10 19:57 26.11.2022
880 Clear 9 1025 66 10000 4.63 20 18:41 26.11.2022
881 Clouds 10 1025 62 10000 4.63 10 16:40 26.11.2022
882 Clouds 11 1024 58 10000 6.69 20 15:22 26.11.2022
883 Clouds 12 1024 58 10000 6.17 20 12:51 26.11.2022
884 Clouds 12 1024 58 10000 6.17 20 12:51 26.11.2022
885 Clouds 12 1024 66 10000 5.66 20 10:54 26.11.2022
886 Clouds 11 1024 71 10000 6.17 10 09:43 26.11.2022
887 Clouds 9 1023 87 10000 1.54 310 08:21 26.11.2022
888 Clouds 9 1019 81 10000 3.09 360 22:43 25.11.2022
889 Rain 10 1019 76 10000 4.12 320 21:35 25.11.2022
890 Clear 11 1018 66 10000 4.12 350 20:21 25.11.2022
891 Clouds 11 1016 66 10000 4.12 350 16:51 25.11.2022
892 Clouds 11 1016 66 10000 4.12 350 15:31 25.11.2022
893 Clouds 12 1014 62 10000 5.66 360 09:51 25.11.2022
894 Clouds 12 1013 62 10000 5.66 360 08:43 25.11.2022
895 Clouds 11 1012 71 10000 4.63 360 07:27 25.11.2022
896 Clouds 11 1012 66 10000 5.66 360 06:42 25.11.2022
897 Clouds 11 1010 76 10000 7.72 360 01:25 25.11.2022
898 Clouds 12 1009 76 10000 8.23 360 23:22 24.11.2022
899 Clouds 12 1009 87 10000 7.72 350 22:22 24.11.2022
900 Clouds 13 1008 82 10000 7.2 350 21:32 24.11.2022
901 Clouds 13 1009 80 10000 2.56 351 19:40 24.11.2022
902 Clouds 14 1007 82 10000 3.09 310 17:47 24.11.2022
903 Clouds 14 1007 77 10000 3.6 310 17:23 24.11.2022
904 Clouds 14 1007 82 10000 3.09 270 16:27 24.11.2022
905 Clouds 15 1006 77 10000 3.6 230 14:23 24.11.2022
906 Clouds 15 1006 77 10000 3.09 240 12:39 24.11.2022
907 Clouds 14 1007 88 10000 1.54 170 10:50 24.11.2022
908 Clouds 13 1007 94 10000 1.03 230 08:32 24.11.2022
909 Rain 14 1006 82 10000 3.09 220 04:42 24.11.2022
910 Clouds 15 1008 72 10000 4.12 200 23:49 23.11.2022
911 Clouds 15 1008 72 10000 4.63 200 23:31 23.11.2022
912 Clouds 15 1008 72 10000 4.63 190 21:44 23.11.2022
913 Clouds 14 1008 82 10000 7.2 190 20:49 23.11.2022
914 Rain 14 1008 82 10000 6.17 190 19:33 23.11.2022
915 Rain 14 1008 82 10000 6.17 190 19:33 23.11.2022
916 Rain 14 1008 88 10000 6.17 190 18:48 23.11.2022
917 Rain 14 1008 88 10000 5.66 200 17:29 23.11.2022
918 Rain 17 1006 67 10000 5.66 240 13:41 23.11.2022
919 Clouds 18 1006 59 10000 8.75 220 13:21 23.11.2022
920 Clouds 19 1006 52 10000 5.14 160 12:22 23.11.2022
921 Rain 19 1007 45 10000 6.69 170 11:42 23.11.2022
922 Rain 19 1007 48 10000 6.69 170 10:45 23.11.2022
923 Clouds 18 1008 55 10000 5.14 170 09:44 23.11.2022
924 Clouds 18 1008 52 10000 5.66 180 09:26 23.11.2022
925 Clouds 18 1008 55 10000 5.66 180 08:37 23.11.2022
926 Clouds 17 1008 55 10000 3.09 170 06:59 23.11.2022
927 Clouds 17 1009 63 10000 4.12 180 05:18 23.11.2022
928 Rain 14 1011 72 10000 4.12 110 23:47 22.11.2022
929 Clear 15 1012 77 10000 3.6 130 22:36 22.11.2022
930 Clear 14 1012 77 10000 2.06 120 21:34 22.11.2022
931 Clear 14 1012 72 10000 2.57 110 20:50 22.11.2022
932 Clear 14 1012 72 10000 3.6 110 20:20 22.11.2022
933 Clear 14 1013 72 10000 3.09 100 18:34 22.11.2022
934 Rain 14 1013 72 10000 3.6 110 17:45 22.11.2022
935 Clear 13 1014 76 10000 1.54 130 16:24 22.11.2022
936 Clear 14 1014 72 10000 2.06 240 14:20 22.11.2022
937 Clear 15 1014 67 10000 3.09 220 12:25 22.11.2022
938 Clouds 11 1013 82 10000 3.09 10 09:26 22.11.2022
939 Clouds 11 1012 87 10000 5.66 350 07:58 22.11.2022
940 Rain 11 1011 93 6000 7.2 320 06:36 22.11.2022
941 Clouds 15 1008 88 10000 8.23 200 23:42 21.11.2022
942 Rain 15 1008 88 10000 4.63 230 22:50 21.11.2022
943 Rain 17 1008 72 10000 5.14 210 21:59 21.11.2022
944 Clouds 17 1008 82 10000 4.12 210 20:56 21.11.2022
945 Clouds 17 1008 72 10000 6.17 200 19:44 21.11.2022
946 Clouds 17 1007 67 10000 7.72 180 19:26 21.11.2022
947 Clouds 17 1007 72 10000 8.23 190 18:44 21.11.2022
948 Clouds 17 1007 72 10000 9.26 190 16:58 21.11.2022
949 Clouds 17 1007 72 10000 9.26 190 16:40 21.11.2022
950 Clouds 18 1007 72 10000 9.77 190 15:54 21.11.2022
951 Clouds 18 1007 68 10000 10.29 190 15:23 21.11.2022
952 Rain 17 1008 82 6000 8.75 210 13:52 21.11.2022
953 Clouds 17 1008 72 4000 13.38 250 11:41 21.11.2022
954 Clear 21 1009 46 10000 7.72 200 09:31 21.11.2022
955 Clear 21 1009 43 10000 7.72 190 07:43 21.11.2022
956 Rain 20 1013 56 10000 7.72 180 22:51 20.11.2022
957 Rain 19 1013 63 10000 5.66 190 21:36 20.11.2022
958 Clear 20 1013 60 10000 6.17 190 20:34 20.11.2022
959 Clear 20 1013 60 10000 6.17 190 18:57 20.11.2022
960 Rain 19 1014 63 10000 2.06 210 16:50 20.11.2022
961 Clear 21 1014 60 10000 3.6 190 15:35 20.11.2022
962 Clear 21 1014 56 10000 2.57 0 14:55 20.11.2022
963 Clear 20 1014 60 10000 4.63 220 13:51 20.11.2022
964 Clear 21 1014 60 10000 5.14 210 13:23 20.11.2022
965 Clear 21 1015 60 10000 4.12 210 11:38 20.11.2022
966 Clear 20 1016 60 10000 4.63 190 10:56 20.11.2022
967 Clear 20 1016 56 10000 4.12 190 09:42 20.11.2022
968 Clear 20 1016 60 10000 6.69 190 08:49 20.11.2022
969 Clear 19 1016 63 10000 6.17 190 07:30 20.11.2022
970 Clear 18 1016 72 10000 3.6 180 06:43 20.11.2022
971 Clear 18 1017 77 10000 3.09 200 01:24 20.11.2022
972 Clear 18 1017 77 10000 2.06 220 00:44 20.11.2022
973 Clear 18 1017 77 10000 4.63 200 00:25 20.11.2022
974 Clear 18 1017 77 10000 2.57 220 23:54 19.11.2022
975 Clear 18 1017 77 10000 2.57 220 23:26 19.11.2022
976 Clear 18 1017 77 10000 2.57 220 23:26 19.11.2022
977 Clear 19 1017 72 10000 4.63 200 22:42 19.11.2022
978 Clear 19 1017 72 10000 5.66 210 21:39 19.11.2022
979 Clear 19 1017 72 10000 6.17 210 21:20 19.11.2022
980 Clear 19 1017 72 10000 5.66 200 20:40 19.11.2022
981 Clear 19 1016 72 10000 3.09 220 19:35 19.11.2022
982 Clear 20 1016 68 10000 6.17 200 17:43 19.11.2022
983 Clear 20 1016 68 10000 6.17 210 17:25 19.11.2022
984 Clear 19 1015 77 10000 2.06 190 16:35 19.11.2022
985 Clouds 20 1014 73 10000 4.12 190 14:40 19.11.2022
986 Clear 21 1014 68 10000 4.63 200 12:42 19.11.2022
987 Clear 20 1014 77 10000 3.09 220 11:19 19.11.2022
988 Clear 19 1013 72 10000 3.6 190 09:32 19.11.2022
989 Clear 19 1012 72 10000 4.63 230 07:52 19.11.2022
990 Clear 18 1009 77 10000 6.69 200 04:43 19.11.2022
991 Clear 18 1008 77 10000 6.17 210 00:24 19.11.2022
992 Clear 17 1007 77 10000 5.14 200 23:26 18.11.2022
993 Clear 17 1007 77 10000 5.14 210 22:18 18.11.2022
994 Clouds 17 1007 77 10000 6.69 200 21:34 18.11.2022
995 Clouds 18 1007 72 10000 6.69 190 20:45 18.11.2022
996 Clouds 17 1007 72 10000 7.2 190 19:47 18.11.2022
997 Clouds 18 1007 68 10000 6.69 180 19:22 18.11.2022
998 Clouds 18 1007 72 10000 6.17 190 17:45 18.11.2022
999 Clear 18 1006 72 10000 2.06 230 14:44 18.11.2022
1000 Clear 19 1007 63 10000 5.14 200 11:41 18.11.2022
1001 Clouds 18 1008 68 10000 5.14 200 09:31 18.11.2022
1002 Clouds 17 1008 72 10000 5.66 200 07:52 18.11.2022
1003 Clouds 17 1007 77 10000 5.66 190 05:26 18.11.2022
1004 Clouds 17 1007 77 10000 5.66 220 01:42 18.11.2022
1005 Clouds 17 1007 82 10000 6.69 210 22:29 17.11.2022
1006 Clouds 17 1006 82 10000 7.2 220 20:46 17.11.2022
1007 Clouds 17 1006 82 10000 4.12 230 19:51 17.11.2022
1008 Clouds 17 1006 82 10000 3.6 250 18:57 17.11.2022
1009 Clouds 16 1006 82 10000 4.12 260 17:54 17.11.2022
1010 Rain 16 1006 88 10000 4.63 250 16:54 17.11.2022
1011 Rain 17 1005 77 10000 5.14 210 15:20 17.11.2022
1012 Clouds 18 1005 68 10000 8.23 200 11:41 17.11.2022
1013 Clouds 18 1006 63 10000 6.69 200 09:53 17.11.2022
1014 Clear 15 1007 77 10000 6.17 190 05:47 17.11.2022
1015 Clouds 15 1008 77 10000 8.23 210 00:48 17.11.2022
1016 Clouds 16 1009 72 10000 6.17 200 22:31 16.11.2022
1017 Clouds 16 1009 72 10000 6.69 210 21:19 16.11.2022
1018 Clouds 16 1009 72 10000 6.17 210 19:54 16.11.2022
1019 Clouds 15 1009 77 10000 4.12 220 18:47 16.11.2022
1020 Clouds 15 1009 77 10000 3.6 240 17:53 16.11.2022
1021 Clouds 16 1010 63 10000 5.66 230 14:22 16.11.2022
1022 Clouds 14 1012 77 10000 5.66 230 10:24 16.11.2022
1023 Clouds 14 1012 77 10000 6.17 210 06:39 16.11.2022
1024 Clouds 11 1014 93 10000 2.06 330 01:31 16.11.2022
1025 Clear 11 1016 87 10000 2.57 340 22:43 15.11.2022
1026 Clear 12 1016 87 10000 3.6 340 20:55 15.11.2022
1027 Clear 13 1016 82 10000 3.09 360 19:35 15.11.2022
1028 Clear 13 1017 82 10000 4.12 350 18:50 15.11.2022
1029 Clear 13 1017 82 10000 5.14 360 17:31 15.11.2022
1030 Clouds 14 1017 77 10000 4.63 10 16:19 15.11.2022
1031 Clouds 15 1018 67 10000 6.17 360 14:59 15.11.2022
1032 Clouds 15 1018 63 10000 6.17 360 13:38 15.11.2022
1033 Clouds 16 1019 63 10000 5.14 10 11:47 15.11.2022
1034 Clouds 16 1019 63 10000 5.14 30 11:19 15.11.2022
1035 Clouds 15 1020 67 10000 4.63 40 09:18 15.11.2022
1036 Clouds 14 1022 72 10000 6.17 30 00:39 15.11.2022
1037 Clouds 14 1022 72 10000 6.17 30 00:18 15.11.2022
1038 Clouds 14 1023 72 10000 6.17 30 21:48 14.11.2022
1039 Clouds 14 1023 77 10000 5.66 20 20:42 14.11.2022
1040 Clouds 14 1023 62 10000 4.12 30 18:57 14.11.2022
1041 Clouds 15 1023 58 10000 6.17 30 16:56 14.11.2022
1042 Clouds 16 1024 51 10000 5.66 40 12:55 14.11.2022
1043 Clouds 16 1025 55 10000 4.63 20 11:42 14.11.2022
1044 Clouds 16 1026 51 10000 6.69 50 09:54 14.11.2022
1045 Clouds 14 1026 67 10000 5.66 40 07:54 14.11.2022
1046 Clouds 14 1026 72 10000 5.66 30 06:43 14.11.2022
1047 Clouds 14 1027 77 10000 4.12 30 00:19 14.11.2022
1048 Clear 13 1027 82 10000 5.14 30 21:58 13.11.2022
1049 Clear 13 1027 82 10000 5.14 30 21:40 13.11.2022
1050 Clear 14 1028 77 10000 6.17 30 19:45 13.11.2022
1051 Clear 14 1028 82 10000 5.66 30 18:28 13.11.2022
1052 Clear 15 1028 77 10000 6.17 40 17:46 13.11.2022
1053 Clouds 16 1028 67 10000 6.69 30 15:19 13.11.2022
1054 Clouds 17 1028 63 10000 7.2 20 14:25 13.11.2022
1055 Clouds 18 1029 63 10000 6.69 20 12:43 13.11.2022
1056 Clouds 17 1029 67 10000 6.69 40 11:29 13.11.2022
1057 Clouds 17 1030 67 10000 6.69 50 09:41 13.11.2022
1058 Clouds 14 1030 82 10000 5.14 20 05:51 13.11.2022
1059 Clouds 14 1029 82 10000 6.17 40 22:58 12.11.2022
1060 Clouds 15 1029 77 10000 5.66 50 21:24 12.11.2022
1061 Clouds 16 1029 72 10000 7.72 60 20:23 12.11.2022
1062 Clouds 16 1028 72 10000 6.17 60 18:45 12.11.2022
1063 Clear 16 1027 67 10000 10.8 40 16:28 12.11.2022
1064 Clear 17 1026 63 10000 10.8 40 15:24 12.11.2022
1065 Clear 19 1026 52 10000 10.8 60 12:38 12.11.2022
1066 Clouds 17 1027 63 10000 7.72 60 09:30 12.11.2022
1067 Clouds 15 1027 72 10000 8.23 60 07:47 12.11.2022
1068 Clouds 14 1027 77 10000 5.14 40 23:23 11.11.2022
1069 Clouds 14 1027 77 10000 5.66 30 20:52 11.11.2022
1070 Clouds 14 1026 77 10000 5.66 30 20:23 11.11.2022
1071 Clouds 15 1027 67 10000 5.66 30 19:25 11.11.2022
1072 Clouds 15 1026 67 10000 6.17 40 17:58 11.11.2022
1073 Clouds 15 1026 72 10000 5.66 30 16:55 11.11.2022
1074 Clouds 17 1026 51 10000 6.17 40 14:29 11.11.2022
1075 Clouds 17 1026 55 10000 5.66 60 13:31 11.11.2022
1076 Clouds 16 1027 63 10000 3.6 50 11:38 11.11.2022
1077 Clouds 15 1027 67 10000 4.63 40 08:43 11.11.2022
1078 Clear 13 1027 82 10000 3.6 30 07:38 11.11.2022
1079 Clear 11 1026 82 10000 3.09 20 00:30 11.11.2022
1080 Rain 11 1026 82 10000 2.57 50 22:51 10.11.2022
1081 Clear 11 1025 82 10000 5.14 40 21:39 10.11.2022
1082 Clear 11 1025 82 10000 5.14 40 21:20 10.11.2022
1083 Rain 12 1025 82 10000 5.14 60 20:24 10.11.2022
1084 Clear 12 1025 82 10000 4.12 50 19:56 10.11.2022
1085 Clear 13 1025 76 10000 4.63 50 18:45 10.11.2022
1086 Clear 15 1024 63 10000 5.14 30 16:27 10.11.2022
1087 Clear 16 1024 59 10000 5.14 40 15:24 10.11.2022
1088 Clear 18 1023 52 10000 2.57 90 13:34 10.11.2022
1089 Clear 14 1024 67 10000 3.6 100 09:30 10.11.2022
1090 Clear 11 1024 82 10000 2.06 350 07:21 10.11.2022
1091 Clear 10 1023 81 10000 2.06 30 00:57 10.11.2022
1092 Clear 11 1023 76 10000 2.57 50 22:47 09.11.2022
1093 Clear 11 1023 76 10000 3.09 50 21:32 09.11.2022
1094 Clear 11 1023 76 10000 3.6 50 20:41 09.11.2022
1095 Rain 12 1023 71 10000 3.09 40 20:22 09.11.2022
1096 Clear 12 1023 71 10000 4.12 50 19:25 09.11.2022
1097 Clear 13 1023 67 10000 4.63 40 17:45 09.11.2022
1098 Clear 16 1022 51 10000 4.12 360 14:57 09.11.2022
1099 Clouds 17 1022 48 10000 4.12 10 14:27 09.11.2022
1100 Clouds 17 1022 48 10000 3.6 40 13:58 09.11.2022
1101 Clouds 17 1022 48 10000 4.12 40 12:53 09.11.2022
1102 Clouds 15 1023 55 10000 4.63 50 09:29 09.11.2022
1103 Clouds 14 1023 58 10000 4.12 60 07:47 09.11.2022
1104 Clouds 12 1022 62 10000 3.09 60 06:33 09.11.2022
1105 Clear 11 1022 71 10000 2.06 40 22:38 08.11.2022
1106 Clear 11 1022 76 10000 3.09 50 21:40 08.11.2022
1107 Clear 11 1022 76 10000 3.09 50 20:54 08.11.2022
1108 Clear 12 1022 71 10000 3.6 40 20:18 08.11.2022
1109 Clear 13 1022 67 10000 4.12 40 19:28 08.11.2022
1110 Clouds 14 1021 62 10000 4.63 30 17:37 08.11.2022
1111 Clouds 15 1021 58 10000 5.14 20 15:32 08.11.2022
1112 Clouds 16 1021 51 10000 5.66 20 14:31 08.11.2022
1113 Clouds 17 1020 48 10000 5.66 20 13:29 08.11.2022
1114 Clouds 16 1021 55 10000 5.14 10 11:21 08.11.2022
1115 Clouds 14 1021 62 10000 3.09 40 07:43 08.11.2022
1116 Clouds 11 1020 71 10000 2.57 350 06:28 08.11.2022
1117 Clouds 13 1020 71 10000 3.6 20 22:59 07.11.2022
1118 Clouds 14 1020 67 10000 4.12 20 21:52 07.11.2022
1119 Clouds 14 1020 67 10000 5.14 20 20:54 07.11.2022
1120 Clouds 14 1020 67 10000 5.14 10 19:42 07.11.2022
1121 Clouds 15 1019 67 10000 5.66 10 17:43 07.11.2022
1122 Clouds 15 1018 67 10000 6.17 20 15:40 07.11.2022
1123 Clouds 16 1018 67 10000 8.23 10 14:57 07.11.2022
1124 Clouds 16 1018 67 10000 8.23 10 14:57 07.11.2022
1125 Clouds 16 1017 67 10000 8.23 20 13:45 07.11.2022
1126 Clouds 17 1017 67 10000 7.2 30 12:30 07.11.2022
1127 Clouds 17 1017 67 10000 7.2 30 10:45 07.11.2022
1128 Clouds 17 1017 67 10000 7.2 30 09:18 07.11.2022
1129 Clouds 16 1016 72 10000 6.69 40 06:54 07.11.2022
1130 Clouds 16 1014 82 10000 7.2 40 02:20 07.11.2022
1131 Clear 16 1014 88 10000 5.14 10 23:49 06.11.2022
1132 Clear 17 1013 82 10000 6.17 20 21:43 06.11.2022
1133 Clear 17 1013 77 10000 7.2 10 21:18 06.11.2022
1134 Clear 17 1013 72 10000 5.14 10 19:57 06.11.2022
1135 Clear 18 1013 68 10000 5.14 10 19:28 06.11.2022
1136 Clear 18 1013 68 10000 5.14 20 18:20 06.11.2022
1137 Clear 18 1013 68 10000 6.17 20 17:45 06.11.2022
1138 Clear 18 1013 68 10000 5.14 10 17:19 06.11.2022
1139 Clear 19 1013 52 10000 5.66 10 16:19 06.11.2022
1140 Clear 21 1013 40 10000 4.63 360 15:20 06.11.2022
1141 Clear 24 1013 25 10000 2.57 70 12:47 06.11.2022
1142 Clear 23 1014 27 10000 3.6 80 10:58 06.11.2022
1143 Clear 22 1015 30 10000 4.12 80 09:52 06.11.2022
1144 Clear 22 1015 30 10000 4.12 80 09:52 06.11.2022
1145 Clear 18 1015 45 10000 3.09 40 07:44 06.11.2022
1146 Clear 16 1014 55 10000 2.57 50 23:25 05.11.2022
1147 Clear 17 1014 55 10000 3.09 50 20:46 05.11.2022
1148 Clear 18 1014 48 10000 3.09 50 18:42 05.11.2022
1149 Clear 20 1013 40 10000 2.06 340 16:40 05.11.2022
1150 Clear 24 1013 31 10000 1.54 0 14:43 05.11.2022
1151 Clear 23 1014 38 10000 2.57 240 13:40 05.11.2022
1152 Clear 21 1014 52 10000 3.09 240 11:51 05.11.2022
1153 Clear 19 1015 63 10000 1.54 130 08:59 05.11.2022
1154 Clouds 13 1014 94 6000 1.03 30 07:23 05.11.2022
1155 Mist 12 1014 94 3000 1.54 40 06:54 05.11.2022
1156 Clouds 13 1014 88 6000 0 0 00:37 05.11.2022
1157 Clouds 13 1014 88 8000 0.51 160 23:27 04.11.2022
1158 Clear 14 1014 82 10000 0.51 250 20:44 04.11.2022
1159 Clear 15 1014 77 10000 0 0 19:31 04.11.2022
1160 Clear 15 1014 77 10000 0 0 19:31 04.11.2022
1161 Clear 16 1014 82 10000 1.54 100 17:25 04.11.2022
1162 Clear 18 1015 68 10000 1.54 180 14:20 04.11.2022
1163 Clear 19 1016 68 10000 3.09 140 12:28 04.11.2022
1164 Clear 19 1017 63 10000 3.09 150 11:45 04.11.2022
1165 Clear 16 1018 72 10000 2.57 80 09:24 04.11.2022
1166 Clear 15 1019 77 10000 3.09 80 07:46 04.11.2022
1167 Rain 13 1018 88 10000 3.09 70 05:51 04.11.2022
1168 Clear 13 1019 88 10000 4.12 50 00:39 04.11.2022
1169 Clear 15 1020 77 10000 5.14 50 21:18 03.11.2022
1170 Clouds 15 1020 77 10000 4.63 50 20:32 03.11.2022
1171 Clear 15 1020 77 10000 5.66 40 19:40 03.11.2022
1172 Clear 16 1021 77 10000 6.69 40 17:52 03.11.2022
1173 Clear 16 1020 77 10000 7.72 30 16:54 03.11.2022
1174 Clouds 18 1020 68 10000 6.69 20 14:56 03.11.2022
1175 Clear 20 1020 60 10000 6.69 20 13:23 03.11.2022
1176 Clouds 20 1021 64 10000 6.17 30 12:30 03.11.2022
1177 Clouds 21 1021 60 10000 5.66 30 11:28 03.11.2022
1178 Clouds 16 1021 88 7000 2.57 40 07:45 03.11.2022
1179 Clear 14 1019 94 10000 0.51 0 21:44 02.11.2022
1180 Clear 14 1019 88 10000 0 0 20:51 02.11.2022
1181 Clear 14 1019 88 10000 0 0 20:23 02.11.2022
1182 Clear 16 1019 77 10000 1.54 240 17:58 02.11.2022
1183 Clear 16 1018 77 10000 2.57 230 16:25 02.11.2022
1184 Clear 17 1019 77 10000 3.6 230 15:25 02.11.2022
1185 Clear 17 1019 77 10000 3.6 230 15:25 02.11.2022
1186 Clear 18 1020 72 10000 4.12 230 12:48 02.11.2022
1187 Clear 17 1020 72 10000 4.12 220 11:58 02.11.2022
1188 Clear 16 1022 72 10000 4.12 220 09:27 02.11.2022
1189 Clear 12 1022 82 10000 0.51 330 07:38 02.11.2022
1190 Clear 12 1022 82 10000 1.54 10 01:23 02.11.2022
1191 Clear 13 1023 76 10000 1.03 40 22:20 01.11.2022
1192 Clear 14 1023 72 10000 2.06 40 21:42 01.11.2022
1193 Clear 14 1023 72 10000 3.09 50 20:27 01.11.2022
1194 Clear 14 1023 72 10000 3.09 50 19:58 01.11.2022
1195 Clear 14 1023 72 10000 3.09 50 19:40 01.11.2022
1196 Clear 16 1023 63 10000 3.6 40 17:58 01.11.2022
1197 Clear 18 1022 55 10000 4.63 40 16:23 01.11.2022
1198 Clear 19 1023 63 10000 1.54 190 14:34 01.11.2022
1199 Clear 18 1023 68 10000 3.09 190 12:33 01.11.2022
1200 Clear 18 1023 72 10000 3.6 200 11:38 01.11.2022
1201 Clear 18 1024 72 10000 2.57 130 11:20 01.11.2022
1202 Clear 16 1024 88 10000 2.06 190 08:51 01.11.2022
1203 Mist 14 1023 100 4000 0.51 0 07:48 01.11.2022
1204 Mist 14 1023 100 4000 0.51 0 07:26 01.11.2022
1205 Fog 12 1023 100 1400 1.54 30 06:45 01.11.2022
1206 Mist 12 1022 94 3100 0.51 0 03:57 01.11.2022
1207 Clear 15 1022 88 10000 3.6 10 22:22 31.10.2022
1208 Clear 15 1022 88 10000 2.57 30 21:26 31.10.2022
1209 Clear 15 1021 88 10000 3.6 20 19:56 31.10.2022
1210 Clear 16 1021 77 10000 3.6 40 18:35 31.10.2022
1211 Clear 18 1020 59 10000 4.63 20 16:44 31.10.2022
1212 Clear 19 1020 68 10000 2.06 0 14:20 31.10.2022
1213 Clear 17 1020 77 10000 2.57 170 11:57 31.10.2022
1214 Clouds 16 1020 82 10000 2.06 80 09:34 31.10.2022
1215 Clear 12 1018 88 10000 1.54 40 05:40 31.10.2022
1216 Clear 11 1018 87 10000 1.03 0 02:34 31.10.2022
1217 Clear 12 1018 87 10000 2.06 330 00:34 31.10.2022
1218 Clear 13 1019 76 10000 1.54 350 21:51 30.10.2022
1219 Clear 13 1019 82 10000 2.06 330 20:37 30.10.2022
1220 Clear 14 1019 77 10000 2.06 20 19:31 30.10.2022
1221 Clear 16 1019 77 10000 2.06 260 16:26 30.10.2022
1222 Clear 18 1019 63 10000 3.6 230 14:23 30.10.2022
1223 Clear 19 1019 59 10000 2.57 210 13:33 30.10.2022
1224 Clear 18 1020 63 10000 3.09 120 11:56 30.10.2022
1225 Clouds 17 1021 63 10000 3.09 100 09:51 30.10.2022
1226 Clear 16 1022 67 10000 2.06 70 08:40 30.10.2022
1227 Clouds 14 1022 77 10000 1.54 50 07:24 30.10.2022
1228 Clear 13 1023 82 10000 3.09 20 00:29 30.10.2022
1229 Clear 13 1023 82 10000 3.09 30 23:45 29.10.2022
1230 Clear 14 1023 77 10000 4.63 40 21:44 29.10.2022
1231 Clouds 16 1023 67 10000 6.69 50 18:35 29.10.2022
1232 Clouds 16 1023 67 10000 6.69 50 18:35 29.10.2022
1233 Clouds 17 1023 63 10000 7.72 40 17:21 29.10.2022
1234 Clouds 19 1023 52 10000 7.2 30 15:38 29.10.2022
1235 Clouds 18 1023 55 10000 8.23 30 14:51 29.10.2022
1236 Clouds 19 1025 52 10000 6.17 50 12:36 29.10.2022
1237 Clouds 18 1025 52 10000 7.72 40 11:58 29.10.2022
1238 Clear 13 1025 88 10000 2.57 50 07:39 29.10.2022
1239 Clouds 12 1025 87 10000 3.09 50 06:47 29.10.2022
1240 Clear 12 1025 87 10000 3.6 40 05:53 29.10.2022
1241 Clouds 15 1027 77 10000 3.6 30 23:43 28.10.2022
1242 Clear 15 1027 77 10000 4.12 30 21:30 28.10.2022
1243 Clear 16 1027 72 10000 4.63 50 19:43 28.10.2022
1244 Clouds 16 1027 67 10000 6.17 40 18:32 28.10.2022
1245 Clouds 17 1027 59 10000 8.75 40 17:26 28.10.2022
1246 Clouds 19 1027 52 10000 8.75 30 14:46 28.10.2022
1247 Clouds 19 1027 48 10000 10.29 40 13:23 28.10.2022
1248 Clouds 20 1028 49 10000 8.23 60 11:54 28.10.2022
1249 Clouds 19 1028 52 10000 8.75 60 11:32 28.10.2022
1250 Clouds 19 1028 55 10000 7.72 70 10:44 28.10.2022
1251 Clear 17 1028 72 10000 4.63 50 08:40 28.10.2022
1252 Clear 15 1027 88 10000 5.14 40 05:59 28.10.2022
1253 Clear 15 1027 88 10000 4.63 50 00:47 28.10.2022
1254 Clear 15 1027 88 10000 2.57 80 23:45 27.10.2022
1255 Clear 16 1027 82 10000 3.6 80 22:31 27.10.2022
1256 Clear 16 1027 77 10000 3.09 60 20:48 27.10.2022
1257 Clear 17 1026 77 10000 6.17 30 18:28 27.10.2022
1258 Clear 19 1026 63 10000 5.66 20 16:36 27.10.2022
1259 Clouds 20 1027 64 10000 4.63 70 11:35 27.10.2022
1260 Clouds 14 1025 88 10000 5.14 40 07:34 27.10.2022
1261 Clear 15 1024 88 10000 2.57 20 02:50 27.10.2022
1262 Clear 16 1024 88 10000 3.6 30 23:53 26.10.2022
1263 Clear 16 1024 82 10000 4.12 40 22:41 26.10.2022
1264 Clear 16 1023 88 10000 4.12 60 21:31 26.10.2022
1265 Clear 18 1022 77 10000 6.17 30 17:59 26.10.2022
1266 Clear 21 1021 64 10000 5.14 10 14:54 26.10.2022
1267 Clear 22 1020 60 10000 5.14 20 13:33 26.10.2022
1268 Clear 22 1020 56 10000 4.63 350 12:26 26.10.2022
1269 Clear 18 1020 72 10000 2.57 270 09:19 26.10.2022
1270 Clear 17 1020 88 10000 1.03 0 08:53 26.10.2022
1271 Clear 14 1017 94 6000 1.03 270 00:57 26.10.2022
1272 Clear 14 1017 94 6000 1.03 270 00:36 26.10.2022
1273 Clear 16 1018 88 6000 1.03 0 22:30 25.10.2022
1274 Clear 15 1017 94 8000 1.03 80 21:45 25.10.2022
1275 Clear 16 1017 82 10000 1.03 140 20:33 25.10.2022
1276 Clear 16 1017 82 10000 1.03 140 20:33 25.10.2022
1277 Clear 18 1017 63 10000 1.03 140 18:56 25.10.2022
1278 Clear 21 1017 49 10000 1.54 240 16:56 25.10.2022
1279 Clear 20 1020 63 10000 2.06 140 11:49 25.10.2022
1280 Clear 18 1020 63 10000 2.57 150 10:56 25.10.2022
1281 Clear 18 1020 68 10000 2.57 130 10:34 25.10.2022
1282 Clear 17 1020 77 10000 3.09 120 08:38 25.10.2022
1283 Clear 16 1020 82 10000 2.57 120 08:18 25.10.2022
1284 Clear 13 1020 88 6000 1.54 50 07:53 25.10.2022
1285 Mist 13 1020 94 4000 1.03 40 06:48 25.10.2022
1286 Clear 13 1020 88 10000 0.51 0 03:32 25.10.2022
1287 Clear 15 1021 77 10000 1.54 50 00:32 25.10.2022
1288 Clear 15 1021 82 10000 2.06 80 22:28 24.10.2022
1289 Clear 16 1021 72 10000 1.03 40 21:49 24.10.2022
1290 Clear 16 1021 77 10000 0 0 20:55 24.10.2022
1291 Clear 16 1021 72 10000 0 0 20:23 24.10.2022
1292 Clear 17 1021 63 10000 1.03 0 18:41 24.10.2022
1293 Clear 19 1021 63 10000 2.57 240 16:55 24.10.2022
1294 Clear 20 1022 60 10000 3.09 230 15:28 24.10.2022
1295 Clear 20 1022 64 10000 3.09 230 14:20 24.10.2022
1296 Clear 20 1023 60 10000 3.09 240 12:37 24.10.2022
1297 Clear 17 1024 77 10000 3.09 110 09:27 24.10.2022
1298 Clear 12 1023 82 10000 1.03 0 07:31 24.10.2022
1299 Clear 15 1023 77 10000 1.54 40 22:39 23.10.2022
1300 Clear 16 1022 82 10000 1.54 100 20:38 23.10.2022
1301 Clear 17 1021 77 10000 2.57 100 18:41 23.10.2022
1302 Clear 18 1021 68 10000 1.03 0 17:29 23.10.2022
1303 Clear 18 1021 68 10000 1.03 0 17:29 23.10.2022
1304 Clear 19 1021 68 10000 3.09 240 15:40 23.10.2022
1305 Clear 19 1020 63 10000 4.12 230 14:56 23.10.2022
1306 Clear 19 1021 68 10000 5.14 220 11:40 23.10.2022
1307 Clear 17 1021 77 10000 4.63 240 10:19 23.10.2022
1308 Clear 16 1020 59 10000 6.69 210 05:53 23.10.2022
1309 Clear 15 1022 63 10000 2.06 210 22:51 22.10.2022
1310 Clear 14 1022 67 10000 2.06 200 21:45 22.10.2022
1311 Clear 14 1022 67 10000 2.06 190 21:20 22.10.2022
1312 Clear 14 1023 58 10000 1.03 210 19:59 22.10.2022
1313 Clear 15 1023 55 10000 2.06 220 19:31 22.10.2022
1314 Clear 16 1023 51 10000 2.06 230 17:39 22.10.2022
1315 Clear 17 1023 45 10000 2.57 230 15:59 22.10.2022
1316 Clear 17 1024 45 10000 3.6 230 14:48 22.10.2022
1317 Clear 17 1024 48 10000 3.09 230 13:58 22.10.2022
1318 Clear 14 1026 54 10000 3.6 120 10:34 22.10.2022
1319 Clear 14 1026 54 10000 3.6 80 09:40 22.10.2022
1320 Clear 14 1026 54 10000 2.06 50 08:37 22.10.2022
1321 Clear 10 1025 71 10000 2.06 10 04:25 22.10.2022
1322 Clear 12 1026 62 10000 2.06 20 00:19 22.10.2022
1323 Clear 12 1027 62 10000 3.09 20 22:19 21.10.2022
1324 Clear 12 1026 62 10000 4.12 40 21:32 21.10.2022
1325 Clear 13 1026 58 10000 4.12 40 20:20 21.10.2022
1326 Clear 14 1026 54 10000 6.69 30 17:50 21.10.2022
1327 Clouds 16 1025 39 10000 7.2 30 14:32 21.10.2022
1328 Clouds 17 1026 42 10000 6.69 30 13:30 21.10.2022
1329 Clouds 17 1026 42 10000 6.17 40 11:45 21.10.2022
1330 Clouds 16 1026 41 10000 7.2 70 10:22 21.10.2022
1331 Clouds 15 1026 51 10000 5.66 50 08:42 21.10.2022
1332 Clouds 14 1026 54 10000 3.09 60 08:19 21.10.2022
1333 Clouds 13 1026 54 10000 3.09 60 08:19 21.10.2022
1334 Clear 12 1025 66 10000 4.12 30 02:32 21.10.2022
1335 Clear 14 1025 62 10000 5.66 60 22:36 20.10.2022
1336 Clear 15 1024 63 10000 7.2 60 20:53 20.10.2022
1337 Clouds 15 1023 63 10000 7.72 50 19:42 20.10.2022
1338 Clouds 15 1023 67 10000 7.2 30 18:19 20.10.2022
1339 Clouds 16 1022 63 10000 7.72 30 17:38 20.10.2022
1340 Clouds 19 1020 68 10000 7.2 30 13:32 20.10.2022
1341 Clouds 19 1020 68 10000 5.66 10 12:31 20.10.2022
1342 Clouds 17 1020 77 10000 2.57 130 11:26 20.10.2022
1343 Clouds 17 1020 77 10000 2.06 100 10:51 20.10.2022
1344 Clouds 16 1019 72 10000 1.03 0 08:42 20.10.2022
1345 Clear 11 1017 93 7000 1.03 300 05:54 20.10.2022
1346 Clear 12 1017 87 10000 2.06 350 01:56 20.10.2022
1347 Clear 14 1017 82 10000 1.54 330 22:52 19.10.2022
1348 Clear 14 1017 82 10000 1.03 350 21:59 19.10.2022
1349 Clouds 15 1017 77 10000 1.03 360 21:20 19.10.2022
1350 Clouds 16 1016 72 10000 2.57 60 19:42 19.10.2022
1351 Clouds 17 1016 67 10000 4.12 30 17:40 19.10.2022
1352 Clouds 18 1016 68 10000 4.12 10 16:22 19.10.2022
1353 Clouds 18 1017 72 10000 4.63 10 13:53 19.10.2022
1354 Clouds 15 1018 94 6000 4.12 10 10:23 19.10.2022
1355 Clouds 15 1018 94 10000 4.63 360 08:37 19.10.2022
1356 Clouds 16 1018 82 10000 4.63 30 07:21 19.10.2022
1357 Clouds 17 1021 77 10000 3.6 40 01:29 19.10.2022
1358 Clouds 17 1022 72 10000 5.14 40 23:22 18.10.2022
1359 Clouds 17 1023 72 10000 5.66 50 21:49 18.10.2022
1360 Clouds 17 1023 68 10000 5.66 40 21:18 18.10.2022
1361 Clouds 17 1024 72 10000 7.72 40 20:24 18.10.2022
1362 Clouds 17 1024 77 10000 6.17 40 18:29 18.10.2022
1363 Clouds 17 1024 77 10000 8.23 40 16:55 18.10.2022
1364 Clouds 18 1025 68 10000 7.2 40 14:53 18.10.2022
1365 Clouds 18 1026 68 10000 7.2 50 13:22 18.10.2022
1366 Clouds 18 1027 63 10000 7.72 40 11:27 18.10.2022
1367 Clouds 18 1028 63 10000 9.26 30 10:23 18.10.2022
1368 Clouds 18 1028 68 10000 5.14 40 07:58 18.10.2022
1369 Clouds 16 1028 72 10000 3.09 40 05:42 18.10.2022
1370 Clouds 17 1029 77 10000 4.63 30 22:54 17.10.2022
1371 Clouds 17 1030 72 10000 5.66 30 20:55 17.10.2022
1372 Clouds 17 1029 67 10000 6.69 30 20:34 17.10.2022
1373 Clouds 17 1029 72 10000 7.2 30 19:52 17.10.2022
1374 Clouds 17 1030 72 10000 7.72 30 19:34 17.10.2022
1375 Clouds 18 1028 72 10000 7.72 30 17:28 17.10.2022
1376 Clouds 20 1028 64 10000 8.75 30 15:54 17.10.2022
1377 Clouds 20 1027 56 10000 9.77 40 14:35 17.10.2022
1378 Clouds 19 1028 59 10000 9.77 30 12:25 17.10.2022
1379 Clouds 17 1026 72 10000 5.14 20 06:42 17.10.2022
1380 Clouds 16 1025 72 10000 6.17 10 00:24 17.10.2022
1381 Clouds 16 1025 72 10000 6.69 10 22:25 16.10.2022
1382 Clouds 17 1025 67 10000 6.69 20 20:59 16.10.2022
1383 Clouds 17 1024 67 10000 7.2 20 19:47 16.10.2022
1384 Clouds 17 1023 67 10000 8.75 10 18:35 16.10.2022
1385 Clouds 17 1023 67 10000 8.75 20 17:41 16.10.2022
1386 Clouds 18 1022 63 10000 9.77 20 15:58 16.10.2022
1387 Clouds 18 1022 59 10000 9.77 20 14:45 16.10.2022
1388 Clouds 19 1022 59 10000 8.75 20 12:25 16.10.2022
1389 Clouds 17 1021 72 10000 9.77 20 10:28 16.10.2022
1390 Clouds 17 1021 77 10000 9.26 20 09:39 16.10.2022
1391 Clouds 16 1019 77 10000 6.69 20 03:22 16.10.2022
1392 Clouds 17 1018 82 10000 7.72 30 23:41 15.10.2022
1393 Clouds 17 1017 82 10000 7.2 20 21:29 15.10.2022
1394 Clouds 16 1017 88 10000 6.69 20 20:57 15.10.2022
1395 Rain 16 1017 88 10000 6.17 20 19:28 15.10.2022
1396 Clouds 17 1015 82 10000 8.23 20 15:59 15.10.2022
1397 Clouds 17 1015 82 10000 8.75 20 15:38 15.10.2022
1398 Rain 17 1015 82 10000 5.66 30 13:18 15.10.2022
1399 Rain 16 1015 88 10000 6.17 40 11:37 15.10.2022
1400 Rain 16 1014 88 10000 6.17 50 09:22 15.10.2022
1401 Clouds 17 1013 77 10000 7.2 40 05:46 15.10.2022
1402 Rain 16 1014 77 10000 5.14 40 00:40 15.10.2022
1403 Rain 17 1015 72 10000 7.2 50 22:25 14.10.2022
1404 Rain 17 1014 72 10000 8.23 60 21:37 14.10.2022
1405 Clouds 18 1014 68 10000 8.75 70 20:28 14.10.2022
1406 Clouds 18 1014 63 10000 10.29 60 17:35 14.10.2022
1407 Clouds 20 1014 52 10000 10.29 40 15:32 14.10.2022
1408 Clouds 20 1015 49 10000 10.8 60 12:46 14.10.2022
1409 Clouds 19 1015 59 10000 8.23 40 10:53 14.10.2022
1410 Clouds 17 1016 67 10000 4.63 50 08:25 14.10.2022
1411 Clear 16 1017 67 10000 4.12 40 06:19 14.10.2022
1412 Clear 15 1017 67 10000 5.14 50 05:59 14.10.2022
1413 Clear 16 1017 67 10000 5.14 50 05:41 14.10.2022
1414 Clear 16 1019 72 10000 5.66 50 01:30 14.10.2022
1415 Clouds 17 1019 72 10000 5.14 40 23:18 13.10.2022
1416 Clouds 18 1019 72 10000 5.66 50 21:30 13.10.2022
1417 Clouds 18 1019 72 10000 6.69 50 20:19 13.10.2022
1418 Clouds 18 1019 72 10000 6.69 40 19:39 13.10.2022
1419 Clouds 18 1020 72 10000 6.17 30 18:44 13.10.2022
1420 Clouds 19 1019 68 10000 7.72 50 17:46 13.10.2022
1421 Clouds 19 1020 72 10000 8.23 20 15:48 13.10.2022
1422 Clouds 21 1020 60 10000 7.2 20 14:30 13.10.2022
1423 Clouds 22 1020 49 10000 8.23 40 13:26 13.10.2022
1424 Clouds 22 1020 46 10000 6.69 30 11:40 13.10.2022
1425 Clouds 19 1021 68 10000 5.66 70 09:48 13.10.2022
1426 Clouds 19 1021 68 10000 5.14 40 08:33 13.10.2022
1427 Clouds 17 1021 82 10000 3.6 40 07:36 13.10.2022
1428 Clouds 17 1021 77 10000 4.63 30 02:00 13.10.2022
1429 Clouds 17 1021 77 10000 4.63 30 01:38 13.10.2022
1430 Clouds 17 1021 67 10000 6.17 10 23:20 12.10.2022
1431 Clear 17 1021 67 10000 5.66 20 22:43 12.10.2022
1432 Clear 17 1021 63 10000 6.17 20 21:24 12.10.2022
1433 Clear 17 1021 67 10000 6.69 20 20:53 12.10.2022
1434 Clouds 17 1021 67 10000 5.66 20 20:25 12.10.2022
1435 Clear 17 1021 63 10000 8.23 40 18:40 12.10.2022
1436 Clouds 18 1021 55 10000 8.23 40 17:54 12.10.2022
1437 Clouds 19 1020 55 10000 8.23 30 16:18 12.10.2022
1438 Clouds 20 1020 52 10000 8.75 30 13:57 12.10.2022
1439 Clouds 20 1020 52 10000 9.26 30 13:29 12.10.2022
1440 Clouds 20 1021 52 10000 7.72 50 10:39 12.10.2022
1441 Clouds 19 1021 59 10000 6.17 50 08:37 12.10.2022
1442 Clouds 17 1020 67 10000 5.66 60 07:41 12.10.2022
1443 Clear 17 1020 67 10000 5.14 50 06:43 12.10.2022
1444 Clear 17 1020 67 10000 4.63 40 01:34 12.10.2022
1445 Clear 17 1020 67 10000 4.63 50 22:40 11.10.2022
1446 Clear 17 1020 72 10000 7.2 60 20:55 11.10.2022
1447 Clear 17 1020 72 10000 7.2 50 19:56 11.10.2022
1448 Clear 19 1020 63 10000 7.72 40 17:28 11.10.2022
1449 Clear 21 1020 52 10000 7.72 40 15:32 11.10.2022
1450 Clear 22 1021 53 10000 7.72 40 13:28 11.10.2022
1451 Clear 20 1022 60 10000 7.72 60 10:31 11.10.2022
1452 Clear 20 1022 60 10000 7.72 60 10:31 11.10.2022
1453 Clear 19 1022 68 10000 8.23 60 09:50 11.10.2022
1454 Clouds 18 1021 77 10000 6.69 60 08:22 11.10.2022
1455 Clear 17 1023 77 10000 5.66 60 02:39 11.10.2022
1456 Clear 17 1023 82 10000 6.69 60 00:33 11.10.2022
1457 Clear 18 1024 77 10000 6.17 60 21:40 10.10.2022
1458 Clear 18 1024 77 10000 7.2 50 20:32 10.10.2022
1459 Clear 19 1024 72 10000 8.23 50 18:44 10.10.2022
1460 Clouds 20 1024 64 10000 8.75 30 17:24 10.10.2022
1461 Clouds 21 1024 60 10000 8.75 20 16:22 10.10.2022
1462 Clouds 22 1024 56 10000 3.6 120 13:31 10.10.2022
1463 Clouds 20 1025 68 10000 3.6 150 12:22 10.10.2022
1464 Clouds 19 1025 77 10000 2.57 100 09:23 10.10.2022
1465 Clear 13 1023 82 10000 1.54 60 05:52 10.10.2022
1466 Clear 13 1023 82 10000 2.06 10 05:32 10.10.2022
1467 Clear 15 1021 82 10000 2.06 330 00:41 10.10.2022
1468 Clear 15 1021 82 10000 1.54 30 23:36 09.10.2022
1469 Clear 16 1021 82 10000 1.54 350 22:24 09.10.2022
1470 Clear 17 1021 77 10000 0.51 20 21:27 09.10.2022
1471 Clear 17 1021 82 10000 0 0 20:42 09.10.2022
1472 Clear 18 1020 68 10000 1.54 110 19:47 09.10.2022
1473 Clear 18 1020 72 10000 0.51 0 18:48 09.10.2022
1474 Clear 19 1020 63 10000 2.06 230 17:35 09.10.2022
1475 Clear 20 1020 64 10000 3.09 210 16:39 09.10.2022
1476 Clear 20 1020 64 10000 3.09 210 16:19 09.10.2022
1477 Clouds 20 1019 64 10000 4.12 190 14:49 09.10.2022
1478 Clouds 20 1019 60 10000 5.14 190 14:26 09.10.2022
1479 Clouds 21 1019 49 10000 3.09 330 12:46 09.10.2022
1480 Clouds 20 1019 56 10000 3.6 350 11:22 09.10.2022
1481 Clear 17 1018 72 10000 4.63 330 08:32 09.10.2022
1482 Clouds 16 1017 88 10000 4.12 300 04:28 09.10.2022
1483 Clear 15 1017 94 10000 2.57 290 03:20 09.10.2022
1484 Clear 16 1017 88 10000 2.06 300 00:40 09.10.2022
1485 Clouds 17 1018 88 10000 3.09 280 23:19 08.10.2022
1486 Clouds 18 1018 77 10000 3.09 330 22:35 08.10.2022
1487 Clouds 19 1018 72 10000 4.12 350 20:33 08.10.2022
1488 Clouds 19 1017 77 10000 5.14 360 19:27 08.10.2022
1489 Clouds 19 1017 72 10000 6.17 350 17:39 08.10.2022
1490 Clouds 20 1017 64 10000 8.23 360 15:34 08.10.2022
1491 Clouds 21 1017 56 10000 7.2 10 13:32 08.10.2022
1492 Clouds 20 1018 60 10000 7.72 360 11:24 08.10.2022
1493 Clouds 20 1018 64 10000 9.26 10 10:33 08.10.2022
1494 Clouds 20 1018 64 10000 5.66 20 09:25 08.10.2022
1495 Clouds 18 1017 77 10000 4.63 360 06:20 08.10.2022
1496 Clouds 19 1018 63 10000 8.23 20 02:32 08.10.2022
1497 Clouds 19 1019 72 10000 5.66 20 23:49 07.10.2022
1498 Clouds 19 1019 68 10000 8.75 20 23:20 07.10.2022
1499 Clouds 18 1019 68 10000 8.75 20 21:53 07.10.2022
1500 Clouds 18 1020 77 8000 8.23 20 20:23 07.10.2022
1501 Clouds 19 1020 63 10000 9.26 20 18:22 07.10.2022
1502 Clouds 19 1020 59 10000 8.75 20 16:53 07.10.2022
1503 Clouds 19 1020 63 10000 10.29 30 15:44 07.10.2022
1504 Clouds 20 1020 52 10000 9.26 20 14:22 07.10.2022
1505 Clouds 22 1021 43 10000 11.83 30 11:41 07.10.2022
1506 Clouds 20 1022 64 10000 10.29 40 09:25 07.10.2022
1507 Clouds 18 1022 77 10000 7.72 20 08:29 07.10.2022
1508 Clear 17 1022 72 10000 2.57 340 04:39 07.10.2022
1509 Clear 18 1024 63 10000 5.14 30 23:52 06.10.2022
1510 Clear 18 1023 63 10000 7.72 40 22:50 06.10.2022
1511 Clear 18 1024 63 10000 7.72 50 21:39 06.10.2022
1512 Clouds 18 1023 63 10000 8.23 40 20:45 06.10.2022
1513 Clouds 18 1024 63 10000 8.23 40 18:58 06.10.2022
1514 Clouds 18 1024 63 10000 8.23 40 18:32 06.10.2022
1515 Clouds 20 1023 52 10000 10.29 50 15:47 06.10.2022
1516 Clouds 21 1024 46 10000 9.77 40 13:49 06.10.2022
1517 Clouds 21 1025 49 10000 9.26 50 10:43 06.10.2022
1518 Clouds 17 1025 63 10000 5.66 50 05:20 06.10.2022
1519 Clouds 17 1026 72 10000 6.17 40 02:22 06.10.2022
1520 Clear 17 1027 67 10000 4.12 40 22:28 05.10.2022
1521 Clouds 17 1026 59 10000 4.63 40 19:54 05.10.2022
1522 Clouds 18 1026 55 10000 6.69 40 17:48 05.10.2022
1523 Clouds 18 1026 63 10000 6.69 30 17:27 05.10.2022
1524 Clouds 20 1025 52 10000 7.2 30 15:37 05.10.2022
1525 Clouds 19 1025 52 10000 7.72 40 14:38 05.10.2022
1526 Clouds 20 1025 52 10000 7.2 20 13:31 05.10.2022
1527 Clouds 19 1026 48 10000 6.69 40 11:53 05.10.2022
1528 Clouds 17 1025 59 10000 5.14 40 08:30 05.10.2022
1529 Clouds 15 1025 72 10000 1.03 360 07:22 05.10.2022
1530 Clear 14 1023 72 10000 2.06 40 05:34 05.10.2022
1531 Clear 15 1023 67 10000 2.57 340 02:37 05.10.2022
1532 Rain 15 1022 67 10000 3.09 10 00:41 05.10.2022
1533 Rain 16 1022 67 10000 3.09 10 00:23 05.10.2022
1534 Clear 16 1021 67 10000 2.57 30 21:38 04.10.2022
1535 Clear 16 1021 67 10000 4.12 40 20:20 04.10.2022
1536 Clouds 17 1020 63 10000 4.12 10 18:56 04.10.2022
1537 Clouds 17 1020 63 10000 5.14 10 18:34 04.10.2022
1538 Clouds 19 1019 52 10000 6.17 20 16:58 04.10.2022
1539 Clouds 19 1018 52 10000 5.66 10 16:20 04.10.2022
1540 Clouds 19 1017 55 10000 6.17 10 10:54 04.10.2022
1541 Clouds 18 1016 59 10000 5.66 360 08:28 04.10.2022
1542 Clear 16 1015 63 10000 4.12 330 06:22 04.10.2022
1543 Clouds 19 1014 63 10000 3.09 20 00:29 04.10.2022
1544 Clouds 19 1014 59 10000 3.09 10 22:58 03.10.2022
1545 Clouds 19 1014 63 10000 5.66 20 21:41 03.10.2022
1546 Clear 19 1013 59 10000 6.69 20 20:43 03.10.2022
1547 Clear 20 1012 49 10000 5.14 10 18:53 03.10.2022
1548 Clear 21 1012 46 10000 4.63 360 17:38 03.10.2022
1549 Clouds 22 1012 53 10000 2.57 200 16:23 03.10.2022
1550 Clear 21 1012 56 10000 4.12 220 14:37 03.10.2022
1551 Clouds 21 1012 56 10000 3.6 220 13:27 03.10.2022
1552 Clear 21 1013 56 10000 3.09 160 11:45 03.10.2022
1553 Clear 20 1014 56 10000 2.57 220 10:19 03.10.2022
1554 Clear 20 1014 56 10000 1.03 0 08:56 03.10.2022
1555 Clear 16 1014 63 10000 2.06 10 04:49 03.10.2022
1556 Rain 17 1014 67 10000 3.6 330 01:30 03.10.2022
1557 Clear 20 1015 60 10000 1.03 0 22:19 02.10.2022
1558 Clear 20 1015 60 10000 1.03 0 22:19 02.10.2022
1559 Clear 21 1015 56 10000 3.09 350 20:22 02.10.2022
1560 Clouds 21 1013 73 10000 1.54 170 17:59 02.10.2022
1561 Clouds 22 1013 68 10000 2.57 190 17:29 02.10.2022
1562 Clouds 23 1012 64 10000 2.57 190 16:33 02.10.2022
1563 Clouds 23 1012 68 10000 3.09 220 15:39 02.10.2022
1564 Clouds 23 1012 56 10000 5.14 360 13:48 02.10.2022
1565 Clouds 23 1012 64 10000 5.14 360 12:43 02.10.2022
1566 Clouds 22 1012 78 10000 5.66 350 12:23 02.10.2022
1567 Clouds 22 1011 78 10000 5.14 350 11:34 02.10.2022
1568 Thunderstorm 20 1009 88 10000 6.69 340 10:29 02.10.2022
1569 Clouds 26 1008 47 10000 4.12 310 08:31 02.10.2022
1570 Clouds 26 1008 47 10000 4.12 310 08:31 02.10.2022
1571 Clear 25 1007 53 10000 3.09 230 05:32 02.10.2022
1572 Rain 24 1009 64 10000 2.06 120 02:49 02.10.2022
1573 Clear 24 1010 60 10000 3.09 120 00:45 02.10.2022
1574 Clear 23 1012 73 10000 2.06 60 23:36 01.10.2022
1575 Clear 23 1014 78 10000 2.06 60 22:31 01.10.2022
1576 Clear 23 1016 83 10000 2.57 130 19:58 01.10.2022
1577 Clear 25 1018 57 10000 1.03 0 17:46 01.10.2022
1578 Clear 27 1019 50 10000 1.54 0 16:28 01.10.2022
1579 Clear 26 1020 61 10000 3.6 230 14:19 01.10.2022
1580 Clear 25 1020 73 10000 3.6 230 12:35 01.10.2022
1581 Clear 25 1021 78 10000 4.63 250 11:57 01.10.2022
1582 Clear 25 1021 69 10000 3.09 240 11:18 01.10.2022
1583 Clear 25 1021 65 10000 3.6 230 10:30 01.10.2022
1584 Clear 24 1021 73 10000 2.57 230 09:26 01.10.2022
1585 Clear 23 1021 78 10000 2.06 220 08:40 01.10.2022
1586 Clear 20 1020 88 10000 1.03 90 03:55 01.10.2022
1587 Clear 20 1020 88 10000 0.51 110 03:28 01.10.2022
1588 Clear 23 1019 64 10000 1.54 270 23:30 30.09.2022
1589 Clear 23 1018 68 10000 1.03 0 22:19 30.09.2022
1590 Clear 23 1018 68 10000 1.03 0 22:19 30.09.2022
1591 Clear 23 1018 68 10000 0.51 0 21:22 30.09.2022
1592 Clear 23 1018 68 10000 1.54 60 20:42 30.09.2022
1593 Clear 24 1017 69 10000 1.54 150 19:30 30.09.2022
1594 Clear 28 1016 42 10000 2.57 260 17:27 30.09.2022
1595 Clear 28 1016 42 10000 2.57 240 14:55 30.09.2022
1596 Clear 27 1016 47 10000 2.57 200 13:24 30.09.2022
1597 Clear 27 1016 47 10000 3.6 180 11:56 30.09.2022
1598 Clear 25 1015 57 10000 2.57 140 09:50 30.09.2022
1599 Clear 24 1015 64 10000 3.09 170 08:21 30.09.2022
1600 Clear 20 1014 88 10000 2.06 150 04:31 30.09.2022
1601 Clear 21 1013 88 10000 2.57 230 02:23 30.09.2022
1602 Clear 22 1011 73 10000 2.57 210 22:24 29.09.2022
1603 Clear 22 1011 78 10000 1.03 0 21:26 29.09.2022
1604 Clear 23 1010 68 10000 1.54 140 20:31 29.09.2022
1605 Clear 24 1010 69 10000 2.06 170 18:32 29.09.2022
1606 Clear 27 1009 50 10000 2.06 200 16:56 29.09.2022
1607 Clear 27 1009 50 10000 2.57 210 16:26 29.09.2022
1608 Clouds 27 1010 50 10000 3.6 230 15:35 29.09.2022
1609 Clouds 26 1010 57 10000 3.09 230 13:28 29.09.2022
1610 Clouds 26 1010 57 10000 3.09 230 13:28 29.09.2022
1611 Clouds 25 1010 61 10000 3.6 180 09:21 29.09.2022
1612 Clear 21 1008 83 10000 1.54 250 05:42 29.09.2022
1613 Clear 21 1008 88 10000 4.12 200 02:44 29.09.2022
1614 Clear 22 1008 83 10000 1.54 0 23:32 28.09.2022
1615 Clear 23 1008 78 10000 3.09 180 22:25 28.09.2022
1616 Clear 23 1008 73 10000 4.63 180 21:28 28.09.2022
1617 Clouds 23 1007 73 10000 3.6 180 20:18 28.09.2022
1618 Clouds 23 1007 73 10000 4.63 180 17:42 28.09.2022
1619 Clouds 24 1007 69 10000 5.66 190 14:50 28.09.2022
1620 Clouds 24 1007 69 10000 5.14 190 12:40 28.09.2022
1621 Clouds 24 1007 69 10000 4.63 230 10:24 28.09.2022
1622 Clouds 22 1006 78 10000 5.14 210 08:25 28.09.2022
1623 Clouds 23 1006 68 10000 6.17 210 06:42 28.09.2022
1624 Clouds 23 1006 73 10000 4.63 230 01:51 28.09.2022
1625 Clouds 23 1006 73 10000 5.14 220 01:27 28.09.2022
1626 Clear 23 1006 68 10000 5.66 230 22:50 27.09.2022
1627 Rain 22 1006 73 10000 2.06 210 21:24 27.09.2022
1628 Clear 23 1006 53 10000 3.6 190 20:37 27.09.2022
1629 Clear 23 1005 49 10000 2.06 190 19:47 27.09.2022
1630 Clear 23 1006 53 10000 1.54 200 18:25 27.09.2022
1631 Clear 24 1006 49 10000 2.57 240 17:42 27.09.2022
1632 Rain 24 1006 53 10000 5.14 240 15:27 27.09.2022
1633 Clear 24 1006 50 10000 4.63 230 14:33 27.09.2022
1634 Clear 23 1007 49 10000 5.14 220 12:40 27.09.2022
1635 Clear 25 1007 41 10000 6.17 220 12:40 27.09.2022
1636 Clear 23 1007 46 10000 7.2 220 10:53 27.09.2022
1637 Clear 22 1008 53 10000 3.09 220 08:46 27.09.2022
1638 Clear 20 1008 64 10000 4.63 230 06:27 27.09.2022
1639 Clear 19 1010 82 10000 3.09 170 01:45 27.09.2022
1640 Clear 19 1011 82 10000 2.06 170 00:50 27.09.2022
1641 Clear 19 1012 82 10000 1.03 150 23:25 26.09.2022
1642 Clear 19 1012 82 10000 1.03 0 22:19 26.09.2022
1643 Clear 20 1012 68 10000 2.06 160 20:29 26.09.2022
1644 Clear 20 1012 68 10000 2.06 140 19:30 26.09.2022
1645 Clear 21 1012 60 10000 2.06 160 18:31 26.09.2022
1646 Clear 23 1013 33 10000 5.66 250 15:52 26.09.2022
1647 Clear 23 1015 43 10000 5.14 240 13:28 26.09.2022
1648 Clear 22 1015 56 10000 5.66 210 11:29 26.09.2022
1649 Clear 21 1016 60 10000 5.66 210 10:37 26.09.2022
1650 Clear 21 1016 52 10000 5.66 210 10:19 26.09.2022
1651 Clear 21 1016 52 10000 5.66 200 09:53 26.09.2022
1652 Clear 21 1016 64 10000 5.14 210 09:22 26.09.2022
1653 Clear 14 1016 88 10000 1.54 310 06:28 26.09.2022
1654 Clear 14 1016 82 10000 1.03 0 02:44 26.09.2022
1655 Clear 17 1017 67 10000 1.03 350 23:28 25.09.2022
1656 Clear 16 1017 72 10000 3.09 50 21:49 25.09.2022
1657 Clear 17 1017 67 10000 2.57 50 21:25 25.09.2022
1658 Clear 18 1017 63 10000 3.6 40 20:38 25.09.2022
1659 Clear 20 1017 56 10000 1.54 0 19:30 25.09.2022
1660 Clear 19 1017 59 10000 0.51 0 18:34 25.09.2022
1661 Clear 21 1018 52 10000 1.54 210 17:49 25.09.2022
1662 Clear 22 1018 46 10000 2.06 220 16:22 25.09.2022
1663 Clear 22 1018 40 10000 2.57 170 15:35 25.09.2022
1664 Clear 22 1019 35 10000 3.09 150 14:20 25.09.2022
1665 Clear 21 1020 37 10000 2.57 120 11:53 25.09.2022
1666 Clear 19 1021 52 10000 3.6 80 10:20 25.09.2022
1667 Clear 17 1021 63 10000 2.06 30 07:47 25.09.2022
1668 Clear 14 1020 77 10000 1.54 350 05:29 25.09.2022
1669 Clear 17 1021 63 10000 3.09 110 23:37 24.09.2022
1670 Clear 17 1021 63 10000 3.09 90 22:34 24.09.2022
1671 Clear 18 1021 52 10000 2.57 100 20:36 24.09.2022
1672 Clear 18 1021 48 10000 0.51 130 19:20 24.09.2022
1673 Clouds 20 1020 45 10000 3.09 220 16:58 24.09.2022
1674 Clouds 20 1020 42 10000 3.6 220 16:23 24.09.2022
1675 Clouds 20 1021 45 10000 4.63 210 15:19 24.09.2022
1676 Clouds 20 1021 42 10000 4.63 220 13:23 24.09.2022
1677 Clouds 20 1021 42 10000 4.63 200 12:40 24.09.2022
1678 Clear 18 1021 52 10000 2.57 240 10:18 24.09.2022
1679 Clear 18 1021 55 10000 2.57 260 09:22 24.09.2022
1680 Clear 17 1021 63 10000 2.57 310 08:40 24.09.2022
1681 Clear 12 1019 82 10000 2.57 330 04:58 24.09.2022
1682 Clear 12 1018 82 10000 2.57 330 04:27 24.09.2022
1683 Clear 14 1018 72 10000 2.06 30 23:25 23.09.2022
1684 Clear 14 1018 72 10000 2.57 40 21:41 23.09.2022
1685 Clear 15 1018 67 10000 3.09 40 21:22 23.09.2022
1686 Clear 15 1018 67 10000 3.09 40 20:54 23.09.2022
1687 Clear 15 1018 63 10000 4.12 60 19:20 23.09.2022
1688 Clouds 17 1017 51 10000 5.14 50 17:42 23.09.2022
1689 Clouds 18 1017 52 10000 5.14 30 13:40 23.09.2022
1690 Clouds 17 1017 59 10000 2.57 200 10:22 23.09.2022
1691 Clear 14 1017 72 10000 1.03 0 07:30 23.09.2022
1692 Clouds 14 1017 82 10000 3.6 60 02:25 23.09.2022
1693 Clear 12 1017 82 10000 2.57 290 23:29 22.09.2022
1694 Clouds 14 1017 77 10000 3.6 310 22:28 22.09.2022
1695 Clouds 14 1017 82 10000 1.03 340 21:30 22.09.2022
1696 Clouds 14 1017 82 10000 1.54 60 20:23 22.09.2022
1697 Rain 14 1016 77 10000 4.12 60 18:57 22.09.2022
1698 Clouds 16 1015 59 10000 6.17 320 15:23 22.09.2022
1699 Clouds 16 1015 67 10000 7.72 350 10:48 22.09.2022
1700 Clouds 15 1015 77 10000 5.66 350 10:19 22.09.2022
1701 Clouds 14 1014 77 8000 6.69 350 07:50 22.09.2022
1702 Clouds 15 1013 77 10000 4.63 360 04:38 22.09.2022
1703 Rain 16 1014 67 10000 6.69 10 00:36 22.09.2022
1704 Rain 18 1014 52 10000 5.66 360 22:29 21.09.2022
1705 Clouds 19 1014 48 10000 6.17 20 21:18 21.09.2022
1706 Rain 19 1014 59 10000 7.2 30 18:34 21.09.2022
1707 Clear 19 1014 52 10000 7.72 20 17:41 21.09.2022
1708 Clouds 20 1013 45 10000 8.23 20 15:35 21.09.2022
1709 Clouds 22 1013 40 10000 5.66 20 13:39 21.09.2022
1710 Clouds 21 1014 43 10000 4.12 80 11:34 21.09.2022
1711 Clouds 21 1015 40 10000 5.14 70 10:54 21.09.2022
1712 Clouds 20 1015 45 10000 4.63 80 09:39 21.09.2022
1713 Clouds 19 1015 48 10000 3.6 70 08:24 21.09.2022
1714 Clear 15 1015 63 10000 2.57 40 03:51 21.09.2022
1715 Clear 16 1016 59 10000 2.06 20 02:38 21.09.2022
1716 Clear 16 1016 59 10000 2.06 30 01:52 21.09.2022
1717 Clear 17 1016 59 10000 3.09 40 00:19 21.09.2022
1718 Clear 17 1015 59 10000 4.12 50 21:52 20.09.2022
1719 Clear 18 1015 55 10000 6.17 40 20:32 20.09.2022
1720 Clear 19 1014 52 10000 8.23 40 17:54 20.09.2022
1721 Clear 21 1014 49 10000 6.69 20 15:33 20.09.2022
1722 Clouds 21 1014 49 10000 7.2 20 14:18 20.09.2022
1723 Clouds 21 1014 56 10000 8.23 10 11:29 20.09.2022
1724 Rain 20 1014 68 10000 6.17 350 08:36 20.09.2022
1725 Clouds 19 1013 68 10000 5.66 340 07:37 20.09.2022
1726 Clear 16 1012 72 10000 2.57 30 04:35 20.09.2022
1727 Clear 18 1013 68 10000 3.6 40 01:41 20.09.2022
1728 Clear 18 1013 68 10000 4.12 60 22:42 19.09.2022
1729 Clear 19 1014 59 10000 5.14 50 21:28 19.09.2022
1730 Clear 19 1013 55 10000 6.17 50 20:40 19.09.2022
1731 Clear 20 1013 52 10000 6.17 20 18:45 19.09.2022
1732 Clear 22 1013 46 10000 7.2 10 17:20 19.09.2022
1733 Clear 23 1014 38 10000 3.6 40 13:47 19.09.2022
1734 Clear 22 1015 40 10000 4.63 50 11:57 19.09.2022
1735 Clouds 21 1016 43 10000 6.17 60 09:44 19.09.2022
1736 Clouds 20 1016 40 10000 6.69 30 08:32 19.09.2022
1737 Clouds 18 1015 48 10000 6.69 10 03:37 19.09.2022
1738 Clouds 20 1014 49 10000 7.2 10 00:48 19.09.2022
1739 Clouds 21 1013 46 10000 6.69 20 22:33 18.09.2022
1740 Clouds 21 1012 46 10000 6.17 20 21:19 18.09.2022
1741 Clouds 22 1011 46 10000 6.17 30 19:40 18.09.2022
1742 Clear 21 1010 52 10000 7.2 30 17:52 18.09.2022
1743 Clouds 21 1009 56 10000 8.23 20 16:49 18.09.2022
1744 Clouds 22 1007 78 10000 8.75 360 14:51 18.09.2022
1745 Clouds 24 1007 60 10000 9.77 10 13:35 18.09.2022
1746 Clouds 28 1006 54 10000 4.12 230 12:20 18.09.2022
1747 Clear 27 1005 61 10000 4.12 220 09:25 18.09.2022
1748 Clear 25 1003 53 10000 3.09 300 01:44 18.09.2022
1749 Clear 25 1003 53 10000 3.09 300 01:20 18.09.2022
1750 Clear 24 1003 57 10000 1.54 150 22:57 17.09.2022
1751 Clear 25 1003 57 10000 1.03 0 20:55 17.09.2022
1752 Clear 27 1003 50 10000 1.03 140 19:39 17.09.2022
1753 Clear 27 1003 53 10000 2.06 140 18:21 17.09.2022
1754 Clear 29 1005 42 10000 3.09 220 14:24 17.09.2022
1755 Clear 29 1005 44 10000 3.09 240 13:26 17.09.2022
1756 Clear 28 1006 47 10000 4.12 220 10:49 17.09.2022
1757 Clear 23 1006 78 10000 2.06 230 07:28 17.09.2022
1758 Clear 22 1007 88 10000 1.54 230 06:19 17.09.2022
1759 Clear 24 1008 78 10000 3.6 230 23:41 16.09.2022
1760 Clear 24 1007 69 10000 3.09 220 22:19 16.09.2022
1761 Clear 25 1008 50 10000 3.09 180 20:53 16.09.2022
1762 Clear 25 1007 65 10000 1.03 160 19:29 16.09.2022
1763 Clear 30 1008 32 10000 2.06 230 16:24 16.09.2022
1764 Clear 29 1009 44 10000 3.09 220 14:52 16.09.2022
1765 Clear 28 1010 50 10000 3.09 210 13:21 16.09.2022
1766 Clear 27 1011 61 10000 4.12 220 10:24 16.09.2022
1767 Clear 24 1010 73 10000 4.63 230 07:23 16.09.2022
1768 Clear 23 1010 78 10000 4.12 230 06:48 16.09.2022
1769 Clear 23 1010 78 10000 4.12 230 05:57 16.09.2022
1770 Clear 23 1010 83 10000 4.63 230 02:30 16.09.2022
1771 Clear 23 1011 73 10000 0.51 0 21:44 15.09.2022
1772 Clear 23 1011 68 10000 2.57 170 20:37 15.09.2022
1773 Clear 24 1011 64 10000 2.06 180 19:24 15.09.2022
1774 Clear 27 1012 38 10000 2.06 200 17:40 15.09.2022
1775 Clear 27 1012 38 10000 2.06 200 17:22 15.09.2022
1776 Clear 27 1012 44 10000 3.09 240 15:38 15.09.2022
1777 Clouds 27 1013 38 10000 4.36 231 12:50 15.09.2022
1778 Clear 25 1014 50 10000 5.66 210 11:48 15.09.2022
1779 Clear 23 1014 56 10000 5.14 210 09:44 15.09.2022
1780 Clear 21 1013 64 10000 4.12 200 06:45 15.09.2022
1781 Clear 19 1014 72 10000 0.51 0 03:46 15.09.2022
1782 Clear 21 1014 64 10000 2.57 100 22:57 14.09.2022
1783 Clear 22 1015 49 10000 1.03 0 20:31 14.09.2022
1784 Clear 22 1014 49 10000 2.57 260 19:32 14.09.2022
1785 Clear 25 1014 38 10000 2.57 250 17:37 14.09.2022
1786 Clear 25 1014 36 10000 3.09 230 16:36 14.09.2022
1787 Clouds 25 1015 38 10000 3.6 210 14:51 14.09.2022
1788 Clouds 23 1016 53 10000 3.09 170 12:38 14.09.2022
1789 Clouds 22 1016 68 10000 2.57 150 09:52 14.09.2022
1790 Clouds 20 1015 77 10000 2.06 100 08:28 14.09.2022
1791 Clear 17 1015 82 10000 2.06 340 06:49 14.09.2022
1792 Clear 16 1014 82 10000 2.06 350 06:28 14.09.2022
1793 Clear 19 1014 77 10000 2.57 100 02:25 14.09.2022
1794 Clear 19 1014 77 10000 2.57 80 01:34 14.09.2022
1795 Clear 19 1014 77 10000 2.57 100 00:52 14.09.2022
1796 Clear 19 1014 72 10000 2.57 90 23:54 13.09.2022
1797 Clear 19 1014 72 10000 2.57 90 23:36 13.09.2022
1798 Clear 20 1014 68 10000 4.12 100 23:18 13.09.2022
1799 Clear 20 1014 68 10000 3.09 90 22:26 13.09.2022
1800 Clear 19 1014 68 10000 3.6 60 21:35 13.09.2022
1801 Clear 21 1012 56 10000 6.17 60 18:54 13.09.2022
1802 Clouds 23 1011 56 10000 6.69 30 16:34 13.09.2022
1803 Clouds 23 1011 53 10000 4.12 10 15:18 13.09.2022
1804 Clouds 24 1011 47 10000 5.14 350 13:37 13.09.2022
1805 Clouds 23 1011 56 10000 4.63 340 10:20 13.09.2022
1806 Clear 20 1010 73 10000 1.03 0 07:54 13.09.2022
1807 Clear 18 1010 82 10000 2.57 340 02:21 13.09.2022
1808 Clear 20 1010 83 10000 0.51 0 23:22 12.09.2022
1809 Clear 20 1010 88 10000 1.03 320 22:37 12.09.2022
1810 Clear 20 1010 83 10000 1.03 270 21:21 12.09.2022
1811 Clear 21 1010 78 10000 1.03 220 19:58 12.09.2022
1812 Clear 22 1009 73 10000 2.06 210 18:22 12.09.2022
1813 Clouds 22 1010 73 10000 3.09 170 15:48 12.09.2022
1814 Clouds 23 1010 60 10000 1.54 280 12:30 12.09.2022
1815 Rain 19 1010 82 10000 5.66 360 10:30 12.09.2022
1816 Clouds 21 1009 64 10000 9.77 350 07:33 12.09.2022
1817 Clouds 21 1008 78 10000 4.12 360 04:35 12.09.2022
1818 Clear 22 1008 83 10000 5.14 350 01:53 12.09.2022
1819 Clear 22 1008 83 10000 3.6 50 22:46 11.09.2022
1820 Clear 23 1009 78 10000 4.63 50 21:26 11.09.2022
1821 Clear 23 1009 78 10000 4.63 50 20:44 11.09.2022
1822 Clear 24 1009 69 10000 4.63 40 19:39 11.09.2022
1823 Clear 24 1009 69 10000 5.14 30 19:18 11.09.2022
1824 Clouds 27 1009 54 10000 6.69 40 17:28 11.09.2022
1825 Clouds 28 1010 57 10000 3.6 360 15:51 11.09.2022
1826 Clouds 26 1011 69 10000 2.06 220 13:22 11.09.2022
1827 Clouds 27 1011 65 10000 2.57 180 11:25 11.09.2022
1828 Clear 25 1011 61 10000 1.03 0 08:25 11.09.2022
1829 Clear 22 1010 78 10000 1.54 330 05:30 11.09.2022
1830 Clear 23 1010 64 10000 0 0 23:51 10.09.2022
1831 Clear 24 1010 60 10000 0 0 22:22 10.09.2022
1832 Clear 25 1011 53 10000 2.06 70 20:33 10.09.2022
1833 Clear 25 1011 57 10000 2.57 80 19:43 10.09.2022
1834 Clear 26 1010 44 10000 2.57 100 19:25 10.09.2022
1835 Clear 28 1011 42 10000 1.54 230 17:27 10.09.2022
1836 Clear 28 1012 54 10000 2.57 210 15:35 10.09.2022
1837 Clear 28 1013 47 10000 2.57 200 13:36 10.09.2022
1838 Clear 26 1014 57 10000 2.06 180 12:30 10.09.2022
1839 Clear 24 1015 69 10000 3.09 140 10:31 10.09.2022
1840 Clouds 24 1015 64 10000 0.51 0 08:41 10.09.2022
1841 Clouds 23 1015 68 10000 1.03 0 08:20 10.09.2022
1842 Clear 19 1015 82 10000 2.06 340 03:48 10.09.2022
1843 Clear 21 1016 78 10000 3.09 40 23:36 09.09.2022
1844 Clear 22 1016 73 10000 2.57 20 22:36 09.09.2022
1845 Clear 22 1016 68 10000 4.12 40 20:50 09.09.2022
1846 Clear 23 1016 68 10000 4.12 30 19:58 09.09.2022
1847 Clear 23 1015 68 10000 5.14 50 19:22 09.09.2022
1848 Clear 27 1016 50 10000 4.63 50 17:19 09.09.2022
1849 Clear 26 1016 65 10000 3.09 230 14:47 09.09.2022
1850 Clear 26 1017 65 10000 2.57 210 13:19 09.09.2022
1851 Clear 25 1018 65 10000 3.09 100 10:42 09.09.2022
1852 Clear 25 1018 65 10000 3.09 100 10:42 09.09.2022
1853 Clear 22 1018 68 10000 2.57 60 07:45 09.09.2022
1854 Clear 19 1018 77 10000 3.09 30 03:34 09.09.2022
1855 Clear 21 1018 68 10000 5.14 60 22:34 08.09.2022
1856 Clear 21 1018 68 10000 5.14 60 21:51 08.09.2022
1857 Clear 22 1018 64 10000 6.69 70 20:49 08.09.2022
1858 Clear 22 1018 64 10000 6.17 70 20:25 08.09.2022
1859 Clear 23 1017 56 10000 8.75 40 18:43 08.09.2022
1860 Clear 25 1017 44 10000 7.2 50 17:23 08.09.2022
1861 Clear 26 1017 41 10000 6.17 70 15:35 08.09.2022
1862 Clear 26 1017 39 10000 5.98 55 13:30 08.09.2022
1863 Clear 26 1017 39 10000 5.96 55 12:40 08.09.2022
1864 Clear 26 1018 31 10000 5.4 69 11:22 08.09.2022
1865 Clear 24 1018 41 10000 6.13 72 09:35 08.09.2022
1866 Clear 20 1019 68 10000 4.95 76 07:18 08.09.2022
1867 Clear 19 1018 63 10000 5.29 72 03:37 08.09.2022
1868 Clear 19 1019 63 10000 5.18 73 02:36 08.09.2022
1869 Clear 19 1018 63 10000 5.37 72 02:18 08.09.2022
1870 Clear 21 1019 52 10000 6.17 69 22:58 07.09.2022
1871 Clear 21 1020 52 10000 6.48 68 21:44 07.09.2022
1872 Clear 21 1020 52 10000 6.7 65 21:21 07.09.2022
1873 Clear 22 1020 49 10000 7.09 62 20:25 07.09.2022
1874 Clear 23 1019 46 10000 7.34 60 18:54 07.09.2022
1875 Clear 25 1018 44 10000 9.22 61 15:51 07.09.2022
1876 Clouds 25 1019 38 10000 10.29 60 10:51 07.09.2022
1877 Clouds 24 1019 41 10000 9.77 70 10:32 07.09.2022
1878 Clouds 23 1019 46 10000 7.72 70 08:23 07.09.2022
1879 Clear 20 1018 56 10000 4.12 70 05:33 07.09.2022
1880 Clear 21 1019 56 10000 5.14 60 00:27 07.09.2022
1881 Clouds 21 1019 64 10000 6.17 50 21:48 06.09.2022
1882 Clouds 22 1020 60 10000 5.66 50 21:30 06.09.2022
1883 Clouds 22 1019 64 10000 7.2 50 19:27 06.09.2022
1884 Clouds 23 1019 56 10000 8.23 60 18:29 06.09.2022
1885 Clouds 24 1018 53 10000 8.75 60 17:23 06.09.2022
1886 Clouds 24 1018 57 10000 10.29 50 16:41 06.09.2022
1887 Clouds 23 1019 56 10000 11.83 50 15:26 06.09.2022
1888 Clouds 24 1019 60 10000 9.26 50 13:47 06.09.2022
1889 Clouds 22 1019 73 10000 7.2 40 13:27 06.09.2022
1890 Clouds 21 1019 78 10000 8.75 30 12:40 06.09.2022
1891 Clouds 22 1020 56 10000 9.26 50 10:52 06.09.2022
1892 Clouds 21 1019 68 10000 7.72 40 08:56 06.09.2022
1893 Clouds 21 1019 60 10000 4.63 30 07:52 06.09.2022
1894 Clouds 20 1019 64 10000 4.63 20 05:59 06.09.2022
1895 Clear 19 1021 56 10000 6.69 50 00:20 06.09.2022
1896 Clear 20 1022 56 10000 7.72 50 22:41 05.09.2022
1897 Clear 20 1022 56 10000 7.2 50 20:59 05.09.2022
1898 Clear 21 1021 52 10000 7.72 40 19:56 05.09.2022
1899 Clouds 21 1021 56 10000 10.8 60 18:51 05.09.2022
1900 Clouds 22 1021 53 10000 10.8 70 18:24 05.09.2022
1901 Clouds 22 1021 53 10000 10.29 60 17:35 05.09.2022
1902 Clouds 23 1020 53 10000 10.8 50 15:53 05.09.2022
1903 Clouds 24 1020 57 10000 10.29 50 13:54 05.09.2022
1904 Clouds 24 1020 60 10000 10.29 50 12:29 05.09.2022
1905 Clouds 24 1020 57 10000 6.69 40 10:34 05.09.2022
1906 Clouds 22 1019 64 10000 8.75 50 07:43 05.09.2022
1907 Clouds 22 1018 73 10000 4.12 50 02:58 05.09.2022
1908 Rain 22 1019 73 10000 5.14 30 23:48 04.09.2022
1909 Clouds 22 1019 73 10000 6.17 30 22:28 04.09.2022
1910 Clouds 22 1020 73 10000 5.66 30 21:41 04.09.2022
1911 Clouds 22 1019 73 10000 6.17 40 19:39 04.09.2022
1912 Clouds 23 1019 68 10000 8.75 40 18:21 04.09.2022
1913 Clouds 24 1019 64 10000 7.72 30 17:24 04.09.2022
1914 Clouds 25 1019 65 10000 7.2 40 14:59 04.09.2022
1915 Clouds 25 1019 65 10000 7.2 30 14:21 04.09.2022
1916 Clouds 24 1019 69 10000 7.72 40 12:24 04.09.2022
1917 Clouds 24 1020 73 10000 7.2 20 10:58 04.09.2022
1918 Clouds 25 1019 69 10000 6.69 20 09:23 04.09.2022
1919 Clouds 22 1018 78 10000 5.66 20 06:24 04.09.2022
1920 Clouds 22 1018 78 10000 5.14 20 02:30 04.09.2022
1921 Clouds 23 1017 73 10000 7.2 20 22:26 03.09.2022
1922 Clouds 23 1017 73 10000 7.2 20 22:26 03.09.2022
1923 Clouds 23 1017 73 10000 7.2 20 22:26 03.09.2022
1924 Clouds 23 1017 73 10000 5.66 20 21:24 03.09.2022
1925 Clouds 24 1016 73 10000 7.72 30 20:42 03.09.2022
1926 Clouds 26 1014 65 10000 6.17 30 17:36 03.09.2022
1927 Clouds 28 1014 61 10000 5.66 30 16:49 03.09.2022
1928 Clouds 27 1014 65 10000 2.06 220 14:47 03.09.2022
1929 Clouds 28 1014 61 10000 2.57 30 14:28 03.09.2022
1930 Clouds 28 1014 61 10000 2.57 20 13:43 03.09.2022
1931 Clouds 28 1013 61 10000 5.14 240 11:24 03.09.2022
1932 Clouds 26 1013 73 10000 3.09 360 08:55 03.09.2022
1933 Clouds 24 1012 78 10000 3.6 350 07:23 03.09.2022
1934 Clear 23 1011 83 10000 2.06 350 04:45 03.09.2022
1935 Clouds 26 1011 83 10000 1.54 10 00:48 03.09.2022
1936 Rain 26 1011 78 10000 3.09 20 23:28 02.09.2022
1937 Rain 26 1010 78 10000 3.6 80 21:36 02.09.2022
1938 Clouds 26 1010 78 10000 4.12 40 20:40 02.09.2022
1939 Clouds 27 1010 74 10000 6.17 60 19:47 02.09.2022
1940 Clouds 27 1009 69 10000 5.66 40 18:43 02.09.2022
1941 Clear 28 1009 65 10000 5.14 40 18:24 02.09.2022
1942 Clear 31 1009 55 10000 3.6 60 16:56 02.09.2022
1943 Clear 31 1010 55 10000 3.09 70 15:48 02.09.2022
1944 Clouds 31 1011 42 10000 3.6 50 12:58 02.09.2022
1945 Clouds 28 1011 69 10000 2.57 170 10:37 02.09.2022
1946 Clouds 28 1011 69 10000 2.57 120 09:41 02.09.2022
1947 Clouds 27 1011 78 10000 2.57 100 08:42 02.09.2022
1948 Clouds 25 1011 83 9000 3.09 40 06:43 02.09.2022
1949 Clouds 24 1011 83 10000 2.57 40 04:58 02.09.2022
1950 Clouds 25 1011 78 10000 3.09 40 22:54 01.09.2022
1951 Clouds 26 1011 73 10000 4.12 60 21:45 01.09.2022
1952 Clouds 26 1011 73 10000 5.14 50 21:26 01.09.2022
1953 Clouds 26 1011 78 10000 4.12 50 20:49 01.09.2022
1954 Clouds 27 1010 69 10000 5.14 40 19:24 01.09.2022
1955 Clouds 28 1010 61 10000 6.17 40 17:49 01.09.2022
1956 Clouds 29 1010 61 10000 6.69 20 16:41 01.09.2022
1957 Clouds 29 1011 58 10000 3.09 100 14:34 01.09.2022
1958 Rain 29 1011 65 10000 3.6 360 13:20 01.09.2022
1959 Clouds 25 1011 83 6000 3.09 330 11:57 01.09.2022
1960 Clouds 25 1011 83 6000 3.09 330 11:38 01.09.2022
1961 Clouds 26 1011 73 8000 5.66 330 11:18 01.09.2022
1962 Clouds 27 1010 69 10000 2.06 40 08:53 01.09.2022
1963 Clouds 22 1010 94 10000 0 0 06:26 01.09.2022
1964 Clouds 24 1011 78 10000 2.06 10 01:45 01.09.2022
1965 Clear 24 1011 83 10000 3.6 10 00:19 01.09.2022
1966 Clear 25 1011 78 10000 3.09 20 22:21 31.08.2022
1967 Clouds 25 1010 78 10000 3.6 360 20:22 31.08.2022
1968 Clouds 27 1010 65 10000 5.14 50 18:19 31.08.2022
1969 Clouds 27 1011 65 10000 5.14 70 16:31 31.08.2022
1970 Rain 26 1010 69 10000 5.66 10 14:44 31.08.2022
1971 Clouds 29 1011 58 10000 3.6 40 12:25 31.08.2022
1972 Clouds 28 1011 61 10000 3.6 50 11:37 31.08.2022
1973 Clouds 26 1011 69 10000 4.12 350 09:25 31.08.2022
1974 Clouds 26 1011 83 10000 2.06 70 06:19 31.08.2022
1975 Clouds 26 1012 83 10000 4.63 50 23:25 30.08.2022
1976 Clouds 27 1012 83 10000 4.63 60 21:49 30.08.2022
1977 Clouds 27 1012 78 10000 5.14 50 20:58 30.08.2022
1978 Clouds 28 1011 74 10000 6.69 30 18:52 30.08.2022
1979 Clouds 31 1012 58 10000 7.2 40 15:29 30.08.2022
1980 Clouds 31 1012 58 10000 6.69 20 13:25 30.08.2022
1981 Clouds 31 1013 58 10000 7.2 30 11:22 30.08.2022
1982 Clouds 30 1013 62 10000 6.69 40 10:57 30.08.2022
1983 Clouds 26 1012 83 10000 6.17 50 07:46 30.08.2022
1984 Clear 25 1012 83 10000 4.12 30 02:34 30.08.2022
1985 Clear 25 1013 83 10000 4.63 60 23:22 29.08.2022
1986 Clear 26 1012 73 10000 5.66 40 22:28 29.08.2022
1987 Clear 26 1012 73 10000 6.17 50 21:26 29.08.2022
1988 Clear 27 1012 65 10000 6.17 70 19:54 29.08.2022
1989 Clear 29 1012 54 10000 7.72 40 17:54 29.08.2022
1990 Clear 30 1012 48 10000 8.23 40 17:25 29.08.2022
1991 Clear 30 1012 48 10000 8.23 40 16:40 29.08.2022
1992 Clear 32 1013 45 10000 7.72 70 14:47 29.08.2022
1993 Clear 32 1014 43 10000 8.23 70 13:21 29.08.2022
1994 Clear 31 1014 48 10000 6.17 60 11:20 29.08.2022
1995 Clouds 29 1014 61 10000 7.2 60 09:48 29.08.2022
1996 Clouds 26 1014 78 10000 4.63 60 08:29 29.08.2022
1997 Clouds 24 1014 83 10000 3.6 50 05:35 29.08.2022
1998 Clear 25 1013 78 10000 4.12 50 00:22 29.08.2022
1999 Clear 26 1014 73 10000 3.6 70 22:41 28.08.2022
2000 Clear 26 1014 73 10000 4.12 80 21:44 28.08.2022
2001 Clear 27 1013 65 10000 5.14 70 20:55 28.08.2022
2002 Clear 28 1012 54 10000 5.66 50 19:26 28.08.2022
2003 Clear 29 1012 45 10000 6.69 60 18:20 28.08.2022
2004 Clear 31 1012 42 10000 6.69 70 17:22 28.08.2022
2005 Clear 32 1012 37 10000 6.17 30 16:27 28.08.2022
2006 Clear 31 1012 45 10000 2.57 230 14:41 28.08.2022
2007 Clear 31 1012 44 10000 3.04 46 12:48 28.08.2022
2008 Clear 29 1012 48 10000 2.18 84 10:43 28.08.2022
2009 Clear 29 1012 48 10000 2.18 84 10:43 28.08.2022
2010 Clear 28 1013 53 10000 2.78 89 09:49 28.08.2022
2011 Clear 26 1013 58 10000 2.28 86 08:37 28.08.2022
2012 Clouds 23 1012 64 10000 2.19 63 07:43 28.08.2022
2013 Clear 21 1012 63 10000 1.48 19 02:48 28.08.2022
2014 Clear 23 1012 64 10000 0.7 39 00:27 28.08.2022
2015 Clear 25 1011 63 10000 0.76 63 22:36 27.08.2022
2016 Clear 25 1011 62 10000 1.29 87 21:36 27.08.2022
2017 Clear 26 1011 63 10000 3.07 67 19:49 27.08.2022
2018 Clear 28 1010 58 10000 3.18 28 17:43 27.08.2022
2019 Clouds 28 1011 74 10000 3.09 240 15:53 27.08.2022
2020 Clouds 28 1011 65 10000 3.09 240 15:24 27.08.2022
2021 Clouds 27 1011 74 10000 4.63 230 12:28 27.08.2022
2022 Clouds 26 1011 78 10000 4.63 220 11:31 27.08.2022
2023 Clouds 26 1011 78 10000 4.12 220 09:49 27.08.2022
2024 Clouds 25 1010 83 10000 0 0 07:54 27.08.2022
2025 Clear 23 1009 83 10000 0 0 02:52 27.08.2022
2026 Clear 23 1009 83 10000 1.54 350 23:57 26.08.2022
2027 Clouds 25 1008 69 10000 2.06 60 22:40 26.08.2022
2028 Clouds 25 1008 69 10000 2.57 50 21:30 26.08.2022
2029 Clouds 27 1008 69 10000 3.6 100 19:23 26.08.2022
2030 Clouds 27 1003 74 10000 2.57 240 16:50 26.08.2022
2031 Clouds 29 1003 65 10000 3.6 240 15:31 26.08.2022
2032 Clouds 28 1004 69 10000 3.6 240 14:34 26.08.2022
2033 Clouds 27 1004 65 10000 3.09 220 12:51 26.08.2022
2034 Clouds 27 1003 65 10000 3.09 230 11:33 26.08.2022
2035 Clouds 26 1004 69 10000 2.57 250 10:46 26.08.2022
2036 Clear 23 1008 78 10000 1.54 90 07:28 26.08.2022
2037 Clouds 21 1007 78 10000 1.54 300 02:30 26.08.2022
2038 Clouds 21 1007 83 10000 2.06 310 23:41 25.08.2022
2039 Clouds 21 1007 73 10000 3.09 320 21:36 25.08.2022
2040 Clouds 21 1007 78 10000 1.54 300 20:30 25.08.2022
2041 Clouds 23 1007 73 10000 2.06 350 18:55 25.08.2022
2042 Clouds 24 1007 69 10000 5.14 360 17:50 25.08.2022
2043 Clouds 24 1008 78 10000 6.69 350 17:31 25.08.2022
2044 Clouds 27 1008 69 10000 2.06 270 15:43 25.08.2022
2045 Clouds 25 1007 73 10000 3.6 240 15:25 25.08.2022
2046 Thunderstorm 22 1009 78 7000 3.09 140 11:55 25.08.2022
2047 Thunderstorm 22 1010 83 4000 1.54 70 10:48 25.08.2022
2048 Thunderstorm 23 1009 83 10000 2.06 360 08:54 25.08.2022
2049 Clouds 22 1008 83 10000 0.51 0 05:24 25.08.2022
2050 Clouds 22 1010 83 10000 1.54 360 01:37 25.08.2022
2051 Rain 22 1009 88 10000 5.14 10 23:26 24.08.2022
2052 Thunderstorm 22 1011 88 10000 2.57 50 22:22 24.08.2022
2053 Thunderstorm 25 1012 83 10000 4.12 120 21:36 24.08.2022
2054 Thunderstorm 26 1012 78 10000 3.6 100 20:52 24.08.2022
2055 Rain 27 1008 78 10000 5.14 20 18:58 24.08.2022
2056 Rain 28 1009 74 10000 6.17 30 16:37 24.08.2022
2057 Rain 29 1009 70 10000 6.17 50 15:52 24.08.2022
2058 Clouds 29 1008 61 10000 8.23 40 13:40 24.08.2022
2059 Rain 30 1008 66 10000 6.17 50 11:29 24.08.2022
2060 Rain 29 1008 70 10000 6.17 80 09:35 24.08.2022
2061 Rain 27 1008 78 10000 6.17 60 07:50 24.08.2022
2062 Clouds 26 1008 83 10000 3.09 360 02:29 24.08.2022
2063 Clouds 27 1008 78 10000 4.63 40 23:32 23.08.2022
2064 Clouds 27 1009 78 10000 4.12 20 22:32 23.08.2022
2065 Clouds 27 1008 78 10000 6.17 50 21:29 23.08.2022
2066 Clouds 27 1008 78 10000 5.14 60 20:20 23.08.2022
2067 Clouds 28 1008 74 10000 5.66 40 18:44 23.08.2022
2068 Clouds 28 1008 69 10000 7.2 20 17:49 23.08.2022
2069 Clouds 30 1008 66 10000 7.2 40 16:53 23.08.2022
2070 Clouds 32 1008 55 10000 6.17 30 15:39 23.08.2022
2071 Clouds 30 1008 62 10000 4.63 30 13:29 23.08.2022
2072 Clouds 30 1008 66 10000 6.17 30 11:32 23.08.2022
2073 Rain 30 1008 62 10000 4.12 40 10:36 23.08.2022
2074 Clouds 29 1008 70 10000 3.6 60 09:54 23.08.2022
2075 Clouds 27 1008 78 10000 3.09 110 08:51 23.08.2022
2076 Clouds 27 1008 78 10000 2.57 100 08:20 23.08.2022
2077 Clouds 27 1008 78 10000 3.09 80 07:38 23.08.2022
2078 Clouds 26 1007 83 10000 2.06 80 06:28 23.08.2022
2079 Clouds 26 1007 83 10000 3.09 80 04:38 23.08.2022
2080 Clouds 26 1007 83 10000 5.14 40 00:28 23.08.2022
2081 Clouds 26 1007 83 10000 4.63 20 23:37 22.08.2022
2082 Clouds 27 1006 74 10000 5.14 40 22:44 22.08.2022
2083 Clouds 26 1007 83 10000 6.69 50 21:29 22.08.2022
2084 Clouds 27 1006 78 10000 6.17 50 19:48 22.08.2022
2085 Clouds 28 1005 74 10000 7.2 40 18:50 22.08.2022
2086 Clouds 26 1006 59 10000 6.23 58 17:22 22.08.2022
2087 Clouds 31 1006 58 10000 7.72 40 15:39 22.08.2022
2088 Clouds 31 1006 58 10000 6.17 50 13:57 22.08.2022
2089 Clouds 29 1006 65 10000 6.17 50 10:43 22.08.2022
2090 Rain 26 1006 78 10000 3.09 70 07:59 22.08.2022
2091 Clouds 25 1005 83 10000 3.09 40 04:25 22.08.2022
2092 Rain 25 1005 83 10000 4.12 60 00:43 22.08.2022
2093 Clear 25 1005 78 10000 4.12 60 00:23 22.08.2022
2094 Clear 26 1005 73 10000 4.12 80 22:22 21.08.2022
2095 Clear 26 1005 73 10000 5.66 60 21:25 21.08.2022
2096 Clear 26 1005 73 10000 5.66 60 20:56 21.08.2022
2097 Clear 27 1005 74 10000 7.2 40 19:26 21.08.2022
2098 Clouds 28 1005 65 10000 8.23 50 17:35 21.08.2022
2099 Clouds 31 1005 51 10000 8.75 50 15:53 21.08.2022
2100 Clouds 31 1005 55 10000 7.2 50 15:21 21.08.2022
2101 Clouds 31 1005 55 10000 6.69 40 13:52 21.08.2022
2102 Clouds 31 1006 58 10000 7.72 50 13:28 21.08.2022
2103 Clouds 30 1006 58 10000 6.69 40 11:39 21.08.2022
2104 Clouds 28 1007 61 10000 6.69 70 09:31 21.08.2022
2105 Clouds 27 1007 65 10000 6.17 80 08:56 21.08.2022
2106 Clouds 26 1007 73 10000 5.66 70 08:38 21.08.2022
2107 Clouds 25 1007 83 10000 3.09 70 07:26 21.08.2022
2108 Clear 24 1007 83 10000 3.6 50 03:41 21.08.2022
2109 Clear 25 1008 78 10000 4.12 70 00:24 21.08.2022
2110 Clear 25 1008 78 10000 4.63 70 22:40 20.08.2022
2111 Clear 26 1009 73 10000 5.66 70 21:37 20.08.2022
2112 Clear 26 1008 73 10000 6.69 70 20:40 20.08.2022
2113 Clear 26 1008 73 10000 5.66 50 19:40 20.08.2022
2114 Clear 29 1008 58 10000 7.2 50 18:30 20.08.2022
2115 Clear 29 1008 58 10000 6.17 30 17:50 20.08.2022
2116 Clouds 30 1008 54 10000 6.17 40 16:52 20.08.2022
2117 Clouds 28 1009 69 10000 3.6 240 15:30 20.08.2022
2118 Clouds 28 1009 69 10000 4.63 250 13:26 20.08.2022
2119 Clouds 28 1010 69 10000 3.09 250 11:50 20.08.2022
2120 Clouds 27 1010 69 10000 2.06 80 09:37 20.08.2022
2121 Clouds 26 1010 73 10000 1.54 0 08:31 20.08.2022
2122 Clouds 24 1010 83 10000 2.57 50 05:52 20.08.2022
2123 Clear 24 1011 88 10000 1.54 20 00:59 20.08.2022
2124 Clear 24 1011 83 10000 3.09 30 00:35 20.08.2022
2125 Clear 25 1011 83 10000 3.09 40 23:18 19.08.2022
2126 Clear 26 1011 73 10000 3.6 50 21:41 19.08.2022
2127 Clear 26 1010 69 10000 4.12 60 20:20 19.08.2022
2128 Clear 30 1010 51 10000 4.12 20 17:35 19.08.2022
2129 Clouds 32 1010 45 10000 5.14 10 15:18 19.08.2022
2130 Clouds 30 1011 62 10000 1.54 200 13:18 19.08.2022
2131 Clouds 27 1011 78 10000 2.57 190 10:53 19.08.2022
2132 Clouds 27 1011 78 10000 3.6 200 10:21 19.08.2022
2133 Clear 24 1010 88 10000 3.09 10 06:27 19.08.2022
2134 Clear 26 1010 69 10000 2.06 70 00:56 19.08.2022
2135 Clear 26 1010 69 10000 2.57 60 00:26 19.08.2022
2136 Clear 26 1010 69 10000 2.57 60 23:37 18.08.2022
2137 Clear 26 1010 69 10000 2.57 60 22:38 18.08.2022
2138 Clear 27 1010 69 10000 4.12 50 21:55 18.08.2022
2139 Clear 27 1010 69 10000 3.6 60 21:26 18.08.2022
2140 Clear 28 1010 61 10000 6.17 30 19:56 18.08.2022
2141 Clear 28 1010 61 10000 5.14 30 19:26 18.08.2022
2142 Clear 31 1010 51 10000 5.14 20 17:49 18.08.2022
2143 Clear 33 1010 46 10000 5.14 10 16:55 18.08.2022
2144 Clear 31 1010 70 10000 2.57 210 14:42 18.08.2022
2145 Clear 31 1010 66 10000 3.6 240 14:19 18.08.2022
2146 Clear 29 1010 61 10000 3.09 230 12:55 18.08.2022
2147 Clear 28 1010 65 10000 3.09 220 11:31 18.08.2022
2148 Clear 28 1011 65 10000 2.06 170 09:43 18.08.2022
2149 Clear 26 1011 78 10000 2.57 150 08:39 18.08.2022
2150 Clear 25 1010 78 10000 1.03 0 07:19 18.08.2022
2151 Clear 23 1009 78 10000 2.06 350 03:53 18.08.2022
2152 Clear 25 1010 69 10000 0.51 0 23:30 17.08.2022
2153 Clear 28 1010 61 10000 2.57 70 21:39 17.08.2022
2154 Clear 28 1010 65 10000 1.54 90 20:18 17.08.2022
2155 Clear 29 1009 51 10000 1.03 220 19:28 17.08.2022
2156 Clear 29 1009 57 10000 2.06 240 17:32 17.08.2022
2157 Clear 30 1009 61 10000 2.57 220 16:22 17.08.2022
2158 Clear 29 1009 61 10000 2.06 230 15:22 17.08.2022
2159 Clear 28 1010 74 10000 4.63 240 12:54 17.08.2022
2160 Clear 28 1010 74 10000 4.12 220 11:36 17.08.2022
2161 Clear 28 1010 74 10000 4.12 220 11:36 17.08.2022
2162 Clear 27 1010 69 10000 3.09 230 09:31 17.08.2022
2163 Clear 25 1010 83 10000 2.06 240 07:55 17.08.2022
2164 Clear 24 1010 78 10000 0.51 0 02:24 17.08.2022
2165 Clear 24 1011 73 10000 0 0 23:58 16.08.2022
2166 Clear 25 1011 69 10000 0.51 0 22:30 16.08.2022
2167 Clear 25 1010 69 10000 0.51 0 20:52 16.08.2022
2168 Clear 26 1010 61 10000 1.54 100 19:53 16.08.2022
2169 Clear 27 1010 54 10000 1.03 0 18:34 16.08.2022
2170 Clear 28 1010 54 10000 1.54 170 17:41 16.08.2022
2171 Clear 29 1011 51 10000 2.57 230 15:47 16.08.2022
2172 Clear 28 1011 54 10000 2.57 250 14:55 16.08.2022
2173 Clear 28 1011 54 10000 2.57 250 14:37 16.08.2022
2174 Clear 27 1012 69 10000 3.6 250 12:44 16.08.2022
2175 Clear 26 1011 69 10000 4.63 230 10:37 16.08.2022
2176 Clear 25 1012 78 10000 5.14 220 09:44 16.08.2022
2177 Clear 25 1011 73 10000 4.12 220 08:45 16.08.2022
2178 Clear 24 1011 78 10000 4.12 210 07:33 16.08.2022
2179 Clear 21 1010 88 10000 0 0 02:19 16.08.2022
2180 Clear 22 1010 78 10000 0 0 22:30 15.08.2022
2181 Clear 22 1010 78 10000 0 0 22:30 15.08.2022
2182 Clear 22 1010 83 10000 1.03 200 21:54 15.08.2022
2183 Clear 22 1009 83 10000 0.51 210 20:52 15.08.2022
2184 Clear 22 1009 83 10000 1.03 0 20:19 15.08.2022
2185 Clear 22 1009 83 10000 1.03 0 20:19 15.08.2022
2186 Clear 23 1008 73 10000 2.06 210 18:42 15.08.2022
2187 Clear 23 1008 78 10000 3.09 210 17:36 15.08.2022
2188 Clouds 24 1008 78 10000 3.6 230 16:22 15.08.2022
2189 Clouds 23 1008 78 10000 3.6 240 13:57 15.08.2022
2190 Clouds 21 1008 78 10000 2.57 270 12:37 15.08.2022
2191 Thunderstorm 20 1008 94 10000 6.17 130 10:18 15.08.2022
2192 Rain 23 1005 94 10000 5.66 20 08:42 15.08.2022
2193 Clouds 24 1005 83 10000 4.12 10 06:27 15.08.2022
2194 Clouds 25 1005 78 10000 3.6 70 02:40 15.08.2022
2195 Clouds 25 1005 78 10000 6.17 40 22:40 14.08.2022
2196 Clouds 26 1005 73 10000 5.66 40 21:39 14.08.2022
2197 Clouds 26 1004 69 10000 4.12 50 20:29 14.08.2022
2198 Clouds 27 1004 65 10000 4.12 40 19:32 14.08.2022
2199 Clouds 29 1003 58 10000 5.14 40 18:20 14.08.2022
2200 Clouds 30 1003 54 10000 3.6 70 17:22 14.08.2022
2201 Clouds 29 1004 58 10000 2.57 240 15:51 14.08.2022
2202 Clouds 29 1004 54 10000 4.12 250 14:38 14.08.2022
2203 Clouds 29 1005 61 10000 4.12 240 13:50 14.08.2022
2204 Clouds 30 1005 54 10000 2.57 240 13:26 14.08.2022
2205 Clouds 28 1006 61 10000 3.6 240 12:34 14.08.2022
2206 Clouds 28 1006 65 10000 2.57 160 11:20 14.08.2022
2207 Clouds 26 1007 65 10000 2.57 110 08:56 14.08.2022
2208 Clear 22 1007 88 10000 2.57 360 06:23 14.08.2022
2209 Clear 22 1007 88 10000 2.57 360 06:23 14.08.2022
2210 Clouds 23 1007 88 10000 3.09 50 04:21 14.08.2022
2211 Clear 23 1007 88 10000 2.57 20 00:42 14.08.2022
2212 Clear 25 1008 73 10000 3.09 60 22:56 13.08.2022
2213 Clear 25 1008 73 10000 4.12 70 21:55 13.08.2022
2214 Clear 25 1008 73 10000 3.6 70 20:49 13.08.2022
2215 Clear 26 1007 69 10000 5.14 40 19:47 13.08.2022
2216 Clear 27 1007 65 10000 7.2 50 18:47 13.08.2022
2217 Clouds 30 1007 51 10000 7.72 40 16:23 13.08.2022
2218 Clouds 30 1008 54 10000 7.72 20 14:41 13.08.2022
2219 Clouds 29 1008 58 10000 7.2 40 13:48 13.08.2022
2220 Clouds 31 1008 55 10000 8.23 30 13:23 13.08.2022
2221 Clouds 29 1009 61 10000 6.17 40 10:44 13.08.2022
2222 Clouds 27 1009 65 10000 4.12 100 09:22 13.08.2022
2223 Clouds 23 1009 88 10000 3.09 40 06:26 13.08.2022
2224 Clouds 24 1011 83 10000 3.09 70 00:44 13.08.2022
2225 Clouds 24 1011 83 10000 5.14 40 23:25 12.08.2022
2226 Clouds 25 1012 78 10000 6.17 50 21:35 12.08.2022
2227 Clouds 25 1012 73 10000 5.66 40 19:47 12.08.2022
2228 Clouds 25 1012 73 10000 6.17 40 19:22 12.08.2022
2229 Clouds 27 1012 65 10000 7.2 30 17:59 12.08.2022
2230 Clouds 29 1012 58 10000 7.72 20 16:25 12.08.2022
2231 Clouds 29 1012 58 10000 6.69 10 14:50 12.08.2022
2232 Clouds 28 1013 61 10000 5.66 20 13:30 12.08.2022
2233 Clouds 26 1013 69 10000 2.57 250 11:40 12.08.2022
2234 Clouds 26 1013 65 10000 4.63 40 08:50 12.08.2022
2235 Clouds 25 1013 73 10000 0.51 0 07:45 12.08.2022
2236 Clouds 20 1013 94 10000 1.03 10 04:55 12.08.2022
2237 Clear 23 1014 78 10000 2.06 60 00:31 12.08.2022
2238 Clear 23 1014 78 10000 1.54 90 23:55 11.08.2022
2239 Clouds 23 1014 78 10000 2.57 70 22:45 11.08.2022
2240 Clear 23 1014 78 10000 3.09 70 21:53 11.08.2022
2241 Clear 24 1014 73 10000 3.6 60 21:26 11.08.2022
2242 Clear 24 1013 69 10000 5.14 70 20:30 11.08.2022
2243 Clear 24 1013 69 10000 6.69 40 19:33 11.08.2022
2244 Clouds 25 1013 65 10000 6.69 30 18:41 11.08.2022
2245 Clouds 27 1013 61 10000 7.72 30 16:46 11.08.2022
2246 Clouds 28 1013 57 10000 5.66 20 15:42 11.08.2022
2247 Clouds 26 1014 61 10000 6.69 20 14:32 11.08.2022
2248 Clouds 26 1014 65 10000 6.17 360 11:53 11.08.2022
2249 Clouds 24 1013 69 10000 7.2 10 08:48 11.08.2022
2250 Clouds 22 1012 78 10000 7.72 360 05:57 11.08.2022
2251 Clouds 24 1012 73 10000 6.69 10 02:33 11.08.2022
2252 Clouds 25 1012 73 10000 9.26 20 22:59 10.08.2022
2253 Clouds 25 1012 73 10000 7.72 30 21:46 10.08.2022
2254 Clouds 26 1012 69 10000 8.23 30 20:56 10.08.2022
2255 Clouds 25 1012 78 10000 8.23 30 20:27 10.08.2022
2256 Clouds 26 1011 73 10000 8.23 20 18:48 10.08.2022
2257 Clouds 28 1011 65 10000 8.23 10 17:27 10.08.2022
2258 Clouds 28 1011 69 10000 7.2 10 14:36 10.08.2022
2259 Clouds 31 1011 55 10000 6.69 50 13:32 10.08.2022
2260 Clouds 29 1010 58 10000 6.17 50 10:47 10.08.2022
2261 Clouds 27 1010 69 10000 4.12 100 08:37 10.08.2022
2262 Clouds 26 1010 73 10000 2.06 130 07:35 10.08.2022
2263 Clouds 24 1009 78 10000 2.06 60 04:50 10.08.2022
2264 Clouds 25 1010 78 10000 4.12 30 01:33 10.08.2022
2265 Clouds 26 1010 73 10000 4.63 40 23:31 09.08.2022
2266 Clouds 26 1010 78 10000 4.12 40 21:58 09.08.2022
2267 Clear 26 1010 78 10000 5.66 40 21:23 09.08.2022
2268 Clear 28 1010 51 10000 7.72 40 19:18 09.08.2022
2269 Clear 31 1010 51 10000 7.72 30 17:37 09.08.2022
2270 Clear 31 1010 51 10000 7.72 30 17:19 09.08.2022
2271 Clear 31 1010 51 10000 7.72 30 16:23 09.08.2022
2272 Clear 32 1010 45 10000 8.75 40 15:23 09.08.2022
2273 Clouds 31 1011 45 10000 8.75 40 11:30 09.08.2022
2274 Clear 30 1011 54 10000 6.69 40 08:53 09.08.2022
2275 Clear 28 1011 61 10000 5.66 50 07:58 09.08.2022
2276 Clear 25 1011 73 10000 4.12 40 05:25 09.08.2022
2277 Clouds 26 1011 78 10000 6.69 40 00:59 09.08.2022
2278 Clouds 26 1011 78 10000 7.2 60 23:25 08.08.2022
2279 Clouds 26 1011 78 10000 7.72 50 22:45 08.08.2022
2280 Clouds 26 1011 73 10000 6.69 70 21:47 08.08.2022
2281 Clouds 27 1011 69 10000 8.23 60 20:43 08.08.2022
2282 Clouds 27 1010 69 10000 8.23 50 19:39 08.08.2022
2283 Clouds 28 1011 61 10000 11.32 50 18:19 08.08.2022
2284 Clouds 31 1010 55 10000 10.29 30 15:55 08.08.2022
2285 Clouds 31 1010 55 10000 10.29 30 15:37 08.08.2022
2286 Clouds 31 1011 51 10000 9.77 50 12:31 08.08.2022
2287 Clouds 30 1011 54 10000 9.26 60 10:50 08.08.2022
2288 Clouds 25 1010 88 10000 7.72 40 08:20 08.08.2022
2289 Clouds 26 1009 73 10000 5.66 50 04:45 08.08.2022
2290 Clouds 26 1009 78 10000 5.14 40 01:29 08.08.2022
2291 Clouds 26 1010 78 10000 7.2 50 21:49 07.08.2022
2292 Clouds 26 1010 78 10000 7.72 50 21:30 07.08.2022
2293 Clouds 27 1009 69 10000 8.23 50 20:25 07.08.2022
2294 Clouds 27 1009 74 10000 8.23 40 19:53 07.08.2022
2295 Clouds 27 1008 69 10000 8.23 30 19:24 07.08.2022
2296 Clouds 29 1008 65 10000 8.75 30 17:58 07.08.2022
2297 Clouds 30 1008 58 10000 9.77 30 16:53 07.08.2022
2298 Clouds 30 1008 54 10000 9.77 40 15:45 07.08.2022
2299 Clouds 31 1009 51 10000 8.23 40 14:32 07.08.2022
2300 Clouds 31 1009 48 10000 8.75 70 12:50 07.08.2022
2301 Clouds 29 1009 54 10000 8.75 40 10:54 07.08.2022
2302 Clouds 29 1009 51 10000 7.72 50 10:21 07.08.2022
2303 Clouds 24 1008 83 10000 4.12 30 04:41 07.08.2022
2304 Clouds 24 1008 78 10000 4.12 40 02:37 07.08.2022
2305 Clouds 25 1009 73 10000 6.17 50 22:57 06.08.2022
2306 Clouds 25 1009 73 10000 6.17 50 22:19 06.08.2022
2307 Clouds 26 1009 69 10000 6.17 60 20:19 06.08.2022
2308 Clouds 26 1009 69 10000 7.2 40 19:38 06.08.2022
2309 Clouds 28 1009 57 10000 8.75 30 17:52 06.08.2022
2310 Clouds 29 1009 54 10000 8.75 40 16:33 06.08.2022
2311 Clouds 31 1009 51 10000 8.75 40 13:52 06.08.2022
2312 Clouds 30 1010 51 10000 8.75 50 12:50 06.08.2022
2313 Clouds 29 1010 58 10000 7.72 60 11:21 06.08.2022
2314 Clouds 28 1010 57 10000 7.72 50 09:50 06.08.2022
2315 Clouds 25 1010 73 10000 4.63 60 07:36 06.08.2022
2316 Clouds 24 1011 78 10000 4.63 60 02:22 06.08.2022
2317 Clear 25 1012 73 10000 6.69 60 22:40 05.08.2022
2318 Clear 25 1012 73 10000 7.2 70 21:51 05.08.2022
2319 Clear 27 1012 65 10000 7.2 40 19:29 05.08.2022
2320 Clear 27 1011 61 10000 8.75 40 18:44 05.08.2022
2321 Clouds 29 1012 58 10000 9.26 50 17:26 05.08.2022
2322 Clouds 29 1012 54 10000 8.75 30 16:43 05.08.2022
2323 Clouds 30 1012 51 10000 9.26 70 15:21 05.08.2022
2324 Clouds 31 1012 48 10000 8.23 60 13:43 05.08.2022
2325 Clouds 31 1012 48 10000 8.23 50 13:22 05.08.2022
2326 Clouds 30 1013 48 10000 7.72 50 12:24 05.08.2022
2327 Clouds 29 1013 54 10000 7.2 60 10:30 05.08.2022
2328 Clouds 26 1013 69 10000 4.63 50 07:58 05.08.2022
2329 Clouds 26 1013 69 10000 4.63 50 07:58 05.08.2022
2330 Clouds 23 1013 83 10000 4.12 40 05:30 05.08.2022
2331 Clear 24 1014 78 10000 4.12 50 23:51 04.08.2022
2332 Clouds 25 1014 73 10000 5.66 60 21:58 04.08.2022
2333 Clouds 25 1014 69 10000 5.66 60 21:25 04.08.2022
2334 Clouds 25 1014 69 10000 6.69 60 20:41 04.08.2022
2335 Clouds 26 1014 65 10000 7.2 40 19:21 04.08.2022
2336 Clouds 27 1013 57 10000 8.75 40 18:34 04.08.2022
2337 Clouds 29 1013 51 10000 7.72 60 17:31 04.08.2022
2338 Clouds 30 1014 54 10000 9.26 50 13:44 04.08.2022
2339 Clouds 29 1014 48 10000 8.23 50 11:47 04.08.2022
2340 Clouds 29 1014 51 10000 8.23 50 10:48 04.08.2022
2341 Clouds 25 1014 73 10000 6.69 40 07:51 04.08.2022
2342 Clouds 24 1013 78 10000 5.14 50 04:30 04.08.2022
2343 Clouds 24 1013 78 10000 5.14 60 02:20 04.08.2022
2344 Clear 24 1014 78 10000 5.14 70 23:43 03.08.2022
2345 Clouds 25 1014 69 10000 5.14 60 21:50 03.08.2022
2346 Clouds 25 1014 69 10000 7.72 50 20:37 03.08.2022
2347 Clouds 26 1013 65 10000 7.2 30 19:29 03.08.2022
2348 Clouds 28 1013 54 10000 9.77 40 17:58 03.08.2022
2349 Clouds 29 1013 54 10000 9.26 40 16:24 03.08.2022
2350 Clouds 30 1012 54 10000 9.26 30 14:44 03.08.2022
2351 Clouds 29 1013 58 10000 8.23 20 11:53 03.08.2022
2352 Clouds 25 1013 69 10000 4.12 80 08:26 03.08.2022
2353 Clouds 23 1013 78 10000 3.6 50 04:47 03.08.2022
2354 Clear 23 1013 78 10000 2.57 70 03:28 03.08.2022
2355 Clear 24 1013 73 10000 3.09 60 01:18 03.08.2022
2356 Clear 24 1013 73 10000 3.09 60 01:18 03.08.2022
2357 Clear 24 1013 73 10000 3.09 60 01:18 03.08.2022
2358 Clear 24 1013 73 10000 4.12 60 23:18 02.08.2022
2359 Clear 24 1013 73 10000 4.12 70 21:55 02.08.2022
2360 Clear 25 1013 65 10000 4.63 60 21:21 02.08.2022
2361 Clear 27 1012 54 10000 7.72 50 18:52 02.08.2022
2362 Clear 29 1012 51 10000 7.2 10 16:24 02.08.2022
2363 Clouds 31 1012 45 10000 6.17 10 12:53 02.08.2022
2364 Clouds 29 1012 51 10000 5.14 40 09:40 02.08.2022
2365 Clouds 27 1011 61 10000 4.12 30 07:56 02.08.2022
2366 Clear 24 1011 73 10000 3.09 350 06:43 02.08.2022
2367 Clear 21 1011 64 10000 1.54 350 04:55 02.08.2022
2368 Clear 24 1010 57 10000 1.03 40 23:52 01.08.2022
2369 Clear 25 1011 53 10000 2.06 110 22:36 01.08.2022
2370 Clear 27 1010 44 10000 2.06 110 20:53 01.08.2022
2371 Clear 28 1010 36 10000 5.14 50 19:34 01.08.2022
2372 Clear 28 1009 39 10000 5.66 60 18:42 01.08.2022
2373 Clear 28 1009 39 10000 5.66 60 18:42 01.08.2022
2374 Clear 30 1009 37 10000 5.14 100 16:54 01.08.2022
2375 Clear 30 1009 37 10000 5.14 100 16:54 01.08.2022
2376 Clear 30 1009 37 10000 4.63 110 16:28 01.08.2022
2377 Clear 30 1009 37 10000 5.14 90 15:30 01.08.2022
2378 Clear 30 1009 37 10000 5.14 40 14:43 01.08.2022
2379 Clear 31 1010 40 10000 5.14 40 12:51 01.08.2022
2380 Clear 29 1010 48 10000 7.2 10 10:29 01.08.2022
2381 Clear 28 1010 54 10000 6.69 360 08:39 01.08.2022
2382 Clouds 25 1010 78 10000 3.09 350 06:50 01.08.2022
2383 Clouds 24 1009 83 10000 4.12 30 04:24 01.08.2022
2384 Clouds 25 1009 88 10000 3.6 40 00:55 01.08.2022
2385 Clear 25 1009 83 10000 3.6 30 22:42 31.07.2022
2386 Clear 26 1009 73 10000 5.14 40 21:35 31.07.2022
2387 Clear 28 1008 57 10000 5.14 60 19:58 31.07.2022
2388 Clear 29 1008 54 10000 7.2 60 18:38 31.07.2022
2389 Clouds 31 1008 51 10000 8.23 30 16:18 31.07.2022
2390 Clouds 31 1009 58 10000 7.2 20 13:53 31.07.2022
2391 Clouds 31 1009 55 10000 5.66 30 12:29 31.07.2022
2392 Clouds 30 1009 58 10000 5.14 40 10:22 31.07.2022
2393 Clouds 28 1009 69 10000 4.63 40 08:19 31.07.2022
2394 Clouds 24 1009 88 10000 3.6 30 04:30 31.07.2022
2395 Clouds 25 1010 83 10000 4.63 70 00:23 31.07.2022
2396 Clear 25 1010 83 10000 6.17 50 22:20 30.07.2022
2397 Clear 26 1011 78 10000 5.14 50 21:50 30.07.2022
2398 Clear 26 1010 73 10000 5.14 50 21:20 30.07.2022
2399 Clear 26 1010 69 10000 6.69 40 20:24 30.07.2022
2400 Clear 28 1010 61 10000 8.23 50 19:27 30.07.2022
2401 Clear 29 1010 51 10000 9.77 50 17:48 30.07.2022
2402 Clear 31 1011 45 10000 9.26 60 16:21 30.07.2022
2403 Clear 31 1011 42 10000 10.8 50 15:27 30.07.2022
2404 Clouds 31 1012 48 10000 8.23 70 13:21 30.07.2022
2405 Clouds 30 1012 54 10000 8.23 40 12:20 30.07.2022
2406 Clouds 29 1012 58 10000 6.69 70 10:44 30.07.2022
2407 Clouds 28 1013 57 10000 7.2 50 09:59 30.07.2022
2408 Clouds 27 1013 61 10000 7.2 50 08:44 30.07.2022
2409 Clouds 25 1013 78 10000 4.12 50 06:50 30.07.2022
2410 Clouds 24 1013 83 10000 4.63 50 02:33 30.07.2022
2411 Clear 25 1014 73 10000 7.2 60 22:57 29.07.2022
2412 Clear 25 1013 73 10000 7.2 60 21:30 29.07.2022
2413 Clouds 25 1013 73 10000 7.72 70 20:50 29.07.2022
2414 Clear 26 1013 65 10000 9.26 40 19:34 29.07.2022
2415 Clear 29 1013 51 10000 9.77 40 16:44 29.07.2022
2416 Clouds 31 1013 48 10000 8.75 50 14:23 29.07.2022
2417 Clouds 29 1013 54 10000 10.8 40 12:32 29.07.2022
2418 Clouds 26 1013 65 10000 10.29 60 08:51 29.07.2022
2419 Clouds 26 1013 65 10000 9.26 70 08:21 29.07.2022
2420 Clouds 23 1013 78 10000 6.69 60 03:55 29.07.2022
2421 Clear 25 1013 73 10000 8.23 70 23:30 28.07.2022
2422 Clear 25 1013 69 10000 8.75 60 21:31 28.07.2022
2423 Clear 25 1013 69 10000 9.77 60 20:50 28.07.2022
2424 Clear 26 1012 65 10000 8.75 60 20:18 28.07.2022
2425 Clear 27 1012 57 10000 9.77 60 19:26 28.07.2022
2426 Clear 28 1012 54 10000 9.77 60 17:46 28.07.2022
2427 Clear 29 1012 51 10000 10.29 50 17:20 28.07.2022
2428 Clear 29 1012 51 10000 10.8 60 16:40 28.07.2022
2429 Clear 30 1012 51 10000 9.77 60 13:56 28.07.2022
2430 Clear 30 1012 45 10000 9.77 60 12:39 28.07.2022
2431 Clouds 25 1011 69 10000 8.23 70 07:46 28.07.2022
2432 Clear 23 1011 83 10000 6.17 70 05:39 28.07.2022
2433 Clear 23 1011 83 10000 5.66 70 05:20 28.07.2022
2434 Clear 24 1010 64 10000 6.17 60 23:19 27.07.2022
2435 Clear 26 1010 53 10000 6.17 70 21:30 27.07.2022
2436 Clear 27 1009 47 10000 7.2 60 19:48 27.07.2022
2437 Clear 28 1009 39 10000 8.23 70 19:19 27.07.2022
2438 Clear 31 1010 35 10000 7.2 60 16:31 27.07.2022
2439 Clear 31 1010 37 10000 8.23 80 15:51 27.07.2022
2440 Clear 32 1010 35 10000 7.2 50 14:41 27.07.2022
2441 Clear 32 1010 35 10000 7.72 60 13:34 27.07.2022
2442 Clear 28 1010 44 10000 4.12 100 09:28 27.07.2022
2443 Clear 26 1010 50 10000 4.63 70 07:40 27.07.2022
2444 Clear 23 1010 53 10000 2.06 40 03:57 27.07.2022
2445 Clear 25 1010 53 10000 4.12 70 22:49 26.07.2022
2446 Clear 25 1010 53 10000 4.12 70 21:49 26.07.2022
2447 Clear 26 1010 50 10000 5.14 80 20:49 26.07.2022
2448 Clear 28 1010 44 10000 6.69 60 19:20 26.07.2022
2449 Clear 28 1010 44 10000 7.72 60 18:39 26.07.2022
2450 Clear 30 1010 42 10000 6.69 80 17:46 26.07.2022
2451 Clear 31 1011 40 10000 7.2 60 15:43 26.07.2022
2452 Clear 31 1011 40 10000 6.17 40 14:38 26.07.2022
2453 Clear 31 1012 37 10000 6.17 80 12:25 26.07.2022
2454 Clouds 27 1012 57 10000 4.12 60 09:44 26.07.2022
2455 Clouds 27 1012 65 10000 4.12 50 08:22 26.07.2022
2456 Clear 24 1012 73 10000 4.12 80 01:52 26.07.2022
2457 Clear 24 1012 78 10000 4.12 80 23:44 25.07.2022
2458 Clear 24 1012 78 10000 5.14 60 22:39 25.07.2022
2459 Clear 25 1012 69 10000 6.17 60 21:43 25.07.2022
2460 Clear 25 1012 65 10000 7.2 50 20:43 25.07.2022
2461 Clear 26 1012 57 10000 7.72 50 19:55 25.07.2022
2462 Clear 27 1011 50 10000 7.72 50 19:20 25.07.2022
2463 Clear 29 1012 45 10000 8.23 50 17:35 25.07.2022
2464 Rain 29 1012 45 10000 7.72 40 16:40 25.07.2022
2465 Clear 30 1013 42 10000 6.69 40 12:58 25.07.2022
2466 Clear 30 1013 48 10000 5.14 40 10:47 25.07.2022
2467 Clear 25 1012 65 10000 3.09 40 07:29 25.07.2022
2468 Clear 24 1013 47 10000 3.09 80 23:57 24.07.2022
2469 Clear 25 1013 47 10000 3.09 80 23:22 24.07.2022
2470 Clear 25 1012 50 10000 4.12 90 22:43 24.07.2022
2471 Clear 26 1012 44 10000 5.14 80 21:33 24.07.2022
2472 Clear 27 1012 44 10000 5.66 70 20:58 24.07.2022
2473 Clear 27 1012 44 10000 5.66 70 20:35 24.07.2022
2474 Clear 29 1012 42 10000 4.63 60 18:59 24.07.2022
2475 Clear 32 1013 29 10000 4.63 70 16:54 24.07.2022
2476 Clear 31 1013 33 10000 2.06 240 15:54 24.07.2022
2477 Clear 29 1014 45 10000 3.09 240 14:41 24.07.2022
2478 Clear 29 1014 51 10000 3.09 240 13:47 24.07.2022
2479 Clear 29 1014 39 10000 3.6 240 12:19 24.07.2022
2480 Clear 29 1015 39 10000 3.09 160 11:29 24.07.2022
2481 Clear 28 1015 36 10000 2.57 130 09:33 24.07.2022
2482 Clear 26 1015 41 10000 1.03 0 07:53 24.07.2022
2483 Clear 24 1015 50 10000 1.03 0 06:55 24.07.2022
2484 Clear 22 1015 56 10000 2.06 50 02:41 24.07.2022
2485 Clear 27 1015 41 10000 2.06 70 22:37 23.07.2022
2486 Clear 28 1015 39 10000 3.09 70 20:47 23.07.2022
2487 Clear 31 1015 33 10000 0.51 70 18:59 23.07.2022
2488 Clear 29 1015 42 10000 2.57 260 17:58 23.07.2022
2489 Clear 30 1015 39 10000 3.09 250 17:25 23.07.2022
2490 Clear 30 1015 35 10000 2.57 240 16:21 23.07.2022
2491 Clear 30 1015 37 10000 3.09 240 15:21 23.07.2022
2492 Clear 29 1016 42 10000 3.6 250 14:52 23.07.2022
2493 Clear 29 1016 42 10000 3.6 240 13:58 23.07.2022
2494 Clear 29 1017 32 10000 3.09 220 11:48 23.07.2022
2495 Clear 28 1017 39 10000 2.57 190 10:37 23.07.2022
2496 Clear 26 1017 61 10000 2.06 160 09:34 23.07.2022
2497 Clear 23 1017 64 10000 2.57 120 06:46 23.07.2022
2498 Clear 20 1016 64 10000 0.51 0 03:37 23.07.2022
2499 Clear 22 1016 60 10000 1.03 10 00:34 23.07.2022
2500 Clear 26 1016 41 10000 2.57 70 21:33 22.07.2022
2501 Clear 27 1015 39 10000 3.09 90 20:31 22.07.2022
2502 Clear 25 1014 36 10000 4.98 81 18:42 22.07.2022
2503 Clear 31 1015 29 10000 2.57 210 17:39 22.07.2022
2504 Clear 28 1015 57 10000 3.6 240 15:48 22.07.2022
2505 Clear 27 1016 57 10000 4.12 230 12:47 22.07.2022
2506 Clear 26 1016 53 10000 4.12 110 10:22 22.07.2022
2507 Clear 26 1016 53 10000 3.6 80 09:21 22.07.2022
2508 Clear 24 1016 69 10000 1.54 100 07:57 22.07.2022
2509 Clear 19 1015 94 10000 1.03 50 04:23 22.07.2022
2510 Clear 24 1015 78 10000 4.12 70 23:36 21.07.2022
2511 Clear 24 1015 73 10000 4.63 50 21:41 21.07.2022
2512 Clear 26 1014 65 10000 5.14 50 19:45 21.07.2022
2513 Clear 27 1014 57 10000 5.14 20 18:36 21.07.2022
2514 Clear 30 1014 39 10000 5.14 10 17:21 21.07.2022
2515 Clear 31 1014 42 10000 3.6 0 16:23 21.07.2022
2516 Clear 28 1014 44 10000 4.12 250 14:46 21.07.2022
2517 Clear 27 1014 39 10000 3.6 230 13:58 21.07.2022
2518 Clear 26 1015 41 10000 3.6 220 11:58 21.07.2022
2519 Clear 26 1015 50 10000 2.57 180 10:20 21.07.2022
2520 Clear 25 1015 61 10000 0.51 0 08:53 21.07.2022
2521 Clear 24 1015 64 10000 0.51 0 07:50 21.07.2022
2522 Clear 20 1015 83 10000 1.03 0 06:27 21.07.2022
2523 Clear 19 1016 82 10000 1.03 0 02:59 21.07.2022
2524 Clear 23 1017 68 10000 3.09 80 22:49 20.07.2022
2525 Clear 23 1017 73 10000 3.6 60 22:19 20.07.2022
2526 Clear 23 1017 68 10000 5.66 50 20:46 20.07.2022
2527 Clouds 24 1017 64 10000 6.69 40 19:47 20.07.2022
2528 Clouds 25 1017 53 10000 8.23 40 18:55 20.07.2022
2529 Clouds 26 1017 47 10000 8.75 40 18:31 20.07.2022
2530 Clouds 26 1017 47 10000 8.75 40 18:31 20.07.2022
2531 Clouds 27 1017 47 10000 10.8 40 17:33 20.07.2022
2532 Clouds 27 1018 54 10000 10.29 30 15:38 20.07.2022
2533 Clouds 27 1018 50 10000 10.29 40 14:49 20.07.2022
2534 Clouds 27 1018 47 10000 10.8 50 13:44 20.07.2022
2535 Clouds 26 1018 50 10000 9.26 50 11:29 20.07.2022
2536 Clouds 23 1018 64 10000 4.12 50 06:49 20.07.2022
2537 Clear 21 1018 68 10000 4.63 40 01:57 20.07.2022
2538 Clear 22 1018 64 10000 5.66 50 00:42 20.07.2022
2539 Clear 23 1019 64 10000 6.17 50 22:38 19.07.2022
2540 Clear 23 1019 64 10000 7.2 60 22:20 19.07.2022
2541 Clear 23 1019 64 10000 8.23 50 20:50 19.07.2022
2542 Clouds 24 1018 53 10000 9.26 50 19:37 19.07.2022
2543 Clouds 25 1018 53 10000 9.77 30 18:42 19.07.2022
2544 Clouds 26 1019 47 10000 11.32 50 17:56 19.07.2022
2545 Clouds 27 1018 47 10000 10.29 40 15:50 19.07.2022
2546 Clouds 27 1019 47 10000 10.29 40 13:51 19.07.2022
2547 Clouds 26 1019 47 10000 8.75 50 11:34 19.07.2022
2548 Clouds 25 1020 50 10000 7.72 60 09:54 19.07.2022
2549 Clouds 24 1020 53 10000 8.23 60 08:48 19.07.2022
2550 Clouds 23 1020 53 10000 8.23 50 08:21 19.07.2022
2551 Clouds 22 1020 53 10000 7.2 50 07:18 19.07.2022
2552 Clouds 20 1020 64 10000 4.12 50 05:23 19.07.2022
2553 Clouds 19 1019 64 10000 5.14 40 04:40 19.07.2022
2554 Clear 21 1020 64 10000 4.63 60 00:21 19.07.2022
2555 Clear 22 1021 64 10000 5.66 70 23:21 18.07.2022
2556 Clear 22 1021 64 10000 5.66 70 22:51 18.07.2022
2557 Clear 22 1021 60 10000 8.75 60 21:27 18.07.2022
2558 Clear 23 1021 56 10000 8.23 60 20:49 18.07.2022
2559 Clouds 24 1020 57 10000 10.8 40 19:21 18.07.2022
2560 Clouds 26 1020 50 10000 12.86 50 16:50 18.07.2022
2561 Clouds 28 1020 44 10000 11.83 40 15:41 18.07.2022
2562 Clouds 29 1020 45 10000 10.29 60 13:41 18.07.2022
2563 Clouds 28 1020 51 10000 11.32 60 12:29 18.07.2022
2564 Clouds 28 1020 47 10000 10.29 60 10:24 18.07.2022
2565 Clouds 26 1020 57 10000 9.77 70 08:21 18.07.2022
2566 Clear 24 1020 69 10000 5.14 50 06:48 18.07.2022
2567 Clear 24 1019 78 10000 4.63 80 23:30 17.07.2022
2568 Clear 25 1019 73 10000 5.14 70 22:32 17.07.2022
2569 Clear 25 1019 73 10000 4.63 70 21:43 17.07.2022
2570 Clear 25 1018 73 10000 6.69 50 20:53 17.07.2022
2571 Clear 25 1018 69 10000 6.69 50 20:35 17.07.2022
2572 Clear 27 1017 57 10000 6.69 50 19:26 17.07.2022
2573 Clear 28 1017 51 10000 7.72 40 18:26 17.07.2022
2574 Clear 29 1017 42 10000 8.23 40 17:37 17.07.2022
2575 Clear 30 1017 42 10000 7.72 30 16:50 17.07.2022
2576 Clear 30 1017 42 10000 7.2 30 16:25 17.07.2022
2577 Clear 32 1017 40 10000 6.17 10 14:20 17.07.2022
2578 Clear 31 1017 45 10000 6.17 10 13:28 17.07.2022
2579 Clouds 29 1017 54 10000 6.17 80 10:59 17.07.2022
2580 Clouds 27 1017 61 10000 5.66 50 08:43 17.07.2022
2581 Clear 22 1016 78 10000 2.57 60 03:40 17.07.2022
2582 Clear 23 1016 78 10000 4.63 60 01:47 17.07.2022
2583 Clear 24 1016 69 10000 4.63 70 23:19 16.07.2022
2584 Clear 25 1016 61 10000 4.63 60 21:21 16.07.2022
2585 Clear 27 1015 54 10000 6.69 60 19:25 16.07.2022
2586 Clear 29 1015 48 10000 7.72 60 17:56 16.07.2022
2587 Clear 29 1015 51 10000 7.2 60 16:27 16.07.2022
2588 Clouds 30 1014 45 10000 3.09 100 13:47 16.07.2022
2589 Clouds 28 1015 47 10000 6.69 80 10:40 16.07.2022
2590 Clouds 26 1015 53 10000 5.14 90 09:30 16.07.2022
2591 Clouds 25 1015 65 10000 5.14 80 08:42 16.07.2022
2592 Clear 25 1015 65 10000 5.14 80 07:59 16.07.2022
2593 Clear 21 1014 78 10000 2.57 60 03:41 16.07.2022
2594 Clear 22 1014 78 10000 3.09 50 02:35 16.07.2022
2595 Clear 23 1014 73 10000 3.6 70 23:28 15.07.2022
2596 Clear 23 1014 73 10000 3.6 70 22:39 15.07.2022
2597 Clear 24 1014 64 10000 4.12 70 21:24 15.07.2022
2598 Clear 25 1013 61 10000 4.63 40 19:59 15.07.2022
2599 Clouds 26 1013 61 10000 7.2 40 18:37 15.07.2022
2600 Clouds 27 1013 57 10000 8.75 40 17:36 15.07.2022
2601 Clouds 28 1012 54 10000 9.26 50 14:48 15.07.2022
2602 Clouds 29 1012 48 10000 9.26 50 12:49 15.07.2022
2603 Clouds 28 1013 54 10000 7.2 50 10:54 15.07.2022
2604 Clouds 26 1013 61 10000 9.26 50 08:49 15.07.2022
2605 Clear 22 1013 73 10000 5.14 50 05:56 15.07.2022
2606 Clear 22 1015 64 10000 5.14 70 00:52 15.07.2022
2607 Clear 23 1015 64 10000 5.66 70 23:36 14.07.2022
2608 Clear 24 1015 57 10000 5.14 60 22:42 14.07.2022
2609 Clear 24 1015 57 10000 6.17 70 21:43 14.07.2022
2610 Clear 24 1015 57 10000 7.2 60 21:25 14.07.2022
2611 Clear 24 1015 57 10000 7.2 50 20:43 14.07.2022
2612 Clear 25 1015 53 10000 7.72 50 20:19 14.07.2022
2613 Clear 26 1015 47 10000 9.26 40 18:42 14.07.2022
2614 Clear 29 1016 42 10000 8.75 50 16:22 14.07.2022
2615 Clear 29 1016 45 10000 8.23 40 15:29 14.07.2022
2616 Clouds 29 1016 42 10000 8.23 50 13:53 14.07.2022
2617 Clouds 27 1017 41 10000 8.23 60 12:53 14.07.2022
2618 Clouds 28 1017 44 10000 7.2 40 11:43 14.07.2022
2619 Clouds 27 1017 44 10000 7.2 50 11:22 14.07.2022
2620 Clouds 26 1017 44 10000 6.17 70 09:49 14.07.2022
2621 Clear 22 1018 68 10000 2.06 90 06:54 14.07.2022
2622 Clear 21 1017 68 10000 1.54 40 01:24 14.07.2022
2623 Clear 22 1017 64 10000 2.06 60 00:53 14.07.2022
2624 Clear 23 1018 64 10000 4.12 70 22:33 13.07.2022
2625 Clear 23 1017 60 10000 3.6 70 21:55 13.07.2022
2626 Clear 23 1017 60 10000 5.14 70 20:45 13.07.2022
2627 Clouds 24 1016 64 10000 5.66 30 19:21 13.07.2022
2628 Clouds 26 1016 50 10000 7.72 50 17:42 13.07.2022
2629 Clouds 28 1016 44 10000 7.2 30 16:29 13.07.2022
2630 Clouds 27 1016 50 10000 7.72 20 15:24 13.07.2022
2631 Clouds 26 1016 53 10000 5.14 20 12:55 13.07.2022
2632 Clouds 28 1016 47 10000 4.12 30 10:45 13.07.2022
2633 Clouds 26 1017 57 10000 3.6 40 09:58 13.07.2022
2634 Clouds 26 1016 53 10000 3.09 40 09:21 13.07.2022
2635 Clear 20 1017 83 10000 1.54 10 06:19 13.07.2022
2636 Clear 22 1017 73 10000 3.09 70 01:28 13.07.2022
2637 Clear 22 1017 73 10000 2.57 60 23:45 12.07.2022
2638 Clear 23 1017 68 10000 4.12 60 21:57 12.07.2022
2639 Clear 23 1017 68 10000 3.6 60 21:29 12.07.2022
2640 Clear 23 1017 68 10000 5.14 70 20:41 12.07.2022
2641 Clear 24 1017 60 10000 6.69 50 19:26 12.07.2022
2642 Clear 26 1016 53 10000 6.69 60 17:49 12.07.2022
2643 Clear 27 1017 50 10000 6.69 40 15:57 12.07.2022
2644 Clouds 27 1017 50 10000 6.69 30 14:31 12.07.2022
2645 Clouds 27 1017 50 10000 7.2 40 12:29 12.07.2022
2646 Clouds 27 1017 50 10000 6.69 20 11:22 12.07.2022
2647 Clouds 26 1017 47 10000 7.2 40 09:38 12.07.2022
2648 Clouds 24 1017 64 10000 7.2 40 08:19 12.07.2022
2649 Clear 20 1017 83 10000 2.06 10 06:29 12.07.2022
2650 Clear 19 1017 88 10000 2.57 10 05:39 12.07.2022
2651 Clear 21 1016 78 10000 2.57 60 02:21 12.07.2022
2652 Clear 22 1016 73 10000 4.63 70 23:18 11.07.2022
2653 Clear 23 1016 68 10000 4.63 70 22:30 11.07.2022
2654 Clear 24 1016 60 10000 5.14 60 20:33 11.07.2022
2655 Clear 24 1016 60 10000 4.63 80 19:36 11.07.2022
2656 Clear 25 1015 57 10000 5.66 40 18:32 11.07.2022
2657 Clouds 27 1015 44 10000 5.14 60 17:39 11.07.2022
2658 Clear 27 1015 47 10000 5.66 60 16:19 11.07.2022
2659 Clouds 28 1015 44 10000 5.14 20 14:37 11.07.2022
2660 Clear 27 1014 54 10000 4.63 360 11:49 11.07.2022
2661 Clouds 25 1014 61 10000 5.14 360 10:29 11.07.2022
2662 Clouds 25 1014 61 10000 5.14 10 09:42 11.07.2022
2663 Clear 23 1013 68 10000 2.57 350 08:33 11.07.2022
2664 Clear 20 1012 88 10000 1.03 100 05:51 11.07.2022
2665 Clear 19 1012 94 10000 0 0 00:22 11.07.2022
2666 Clear 20 1011 88 10000 1.03 250 22:56 10.07.2022
2667 Clear 21 1011 88 10000 1.54 240 21:51 10.07.2022
2668 Clear 22 1010 73 10000 0.51 0 20:54 10.07.2022
2669 Clear 24 1010 57 10000 2.06 40 19:50 10.07.2022
2670 Clear 25 1010 61 10000 3.6 10 18:48 10.07.2022
2671 Clouds 26 1010 57 10000 5.14 30 17:37 10.07.2022
2672 Clouds 26 1009 57 10000 6.17 30 16:45 10.07.2022
2673 Clouds 22 1010 83 10000 1.03 0 15:28 10.07.2022
2674 Rain 22 1010 88 10000 1.54 280 14:21 10.07.2022
2675 Rain 19 1010 94 10000 3.09 70 12:29 10.07.2022
2676 Thunderstorm 19 1009 94 10000 4.63 320 11:20 10.07.2022
2677 Clouds 20 1007 94 10000 4.12 30 08:45 10.07.2022
2678 Rain 19 1007 94 10000 4.63 30 07:39 10.07.2022
2679 Thunderstorm 20 1006 94 5000 2.57 350 02:47 10.07.2022
2680 Rain 24 1006 83 10000 6.17 20 22:51 09.07.2022
2681 Clouds 24 1006 78 10000 5.14 20 22:24 09.07.2022
2682 Clouds 25 1007 73 10000 6.69 20 20:50 09.07.2022
2683 Clouds 26 1006 69 10000 8.23 20 18:43 09.07.2022
2684 Clouds 26 1006 65 10000 9.77 30 17:45 09.07.2022
2685 Clouds 28 1006 57 10000 9.26 30 16:58 09.07.2022
2686 Clouds 29 1006 58 10000 10.29 30 15:42 09.07.2022
2687 Clouds 29 1007 58 10000 9.26 30 14:44 09.07.2022
2688 Clouds 31 1007 48 10000 8.75 40 13:51 09.07.2022
2689 Clouds 30 1007 48 10000 8.23 40 12:48 09.07.2022
2690 Clouds 30 1008 45 10000 6.17 50 11:32 09.07.2022
2691 Clouds 28 1008 57 10000 5.14 70 10:23 09.07.2022
2692 Clouds 28 1008 57 10000 5.14 70 10:23 09.07.2022
2693 Clouds 25 1008 69 10000 5.66 60 07:54 09.07.2022
2694 Clouds 22 1009 88 10000 3.09 50 05:37 09.07.2022
2695 Clouds 22 1009 88 10000 3.09 60 04:34 09.07.2022
2696 Clouds 23 1011 83 10000 3.09 60 23:18 08.07.2022
2697 Clouds 23 1011 83 10000 3.09 60 23:18 08.07.2022
2698 Clouds 23 1011 83 10000 5.14 40 21:59 08.07.2022
2699 Clouds 24 1011 73 10000 5.14 50 20:59 08.07.2022
2700 Clouds 24 1011 73 10000 6.17 50 20:25 08.07.2022
2701 Clouds 26 1011 65 10000 7.2 30 18:32 08.07.2022
2702 Clouds 28 1011 61 10000 8.23 50 17:25 08.07.2022
2703 Clouds 28 1012 61 10000 8.75 50 14:55 08.07.2022
2704 Clouds 29 1012 58 10000 7.2 30 13:56 08.07.2022
2705 Clouds 28 1013 61 10000 5.66 10 12:28 08.07.2022
2706 Clouds 26 1013 65 10000 6.17 40 10:45 08.07.2022
2707 Clouds 25 1013 69 10000 5.14 30 08:51 08.07.2022
2708 Clear 24 1013 73 10000 5.14 10 06:54 08.07.2022
2709 Clouds 23 1012 83 10000 3.6 10 03:22 08.07.2022
2710 Clouds 23 1013 88 10000 4.63 40 23:45 07.07.2022
2711 Clouds 24 1013 83 10000 5.14 30 22:40 07.07.2022
2712 Clouds 24 1012 83 10000 6.17 30 20:59 07.07.2022
2713 Clouds 28 1012 65 10000 7.72 20 18:42 07.07.2022
2714 Clouds 29 1012 61 10000 7.72 20 17:41 07.07.2022
2715 Clouds 30 1011 51 10000 7.2 10 15:22 07.07.2022
2716 Clouds 29 1012 51 10000 5.66 10 13:26 07.07.2022
2717 Clouds 31 1012 51 10000 5.66 20 12:39 07.07.2022
2718 Clouds 29 1012 54 10000 6.69 350 12:19 07.07.2022
2719 Clouds 30 1012 48 10000 6.17 10 11:30 07.07.2022
2720 Clouds 28 1012 54 10000 6.17 10 10:43 07.07.2022
2721 Clouds 28 1012 54 10000 6.17 360 10:25 07.07.2022
2722 Clouds 25 1011 78 10000 5.14 20 07:40 07.07.2022
2723 Clear 23 1011 83 10000 3.09 10 04:18 07.07.2022
2724 Clear 23 1011 73 10000 1.89 16 23:37 06.07.2022
2725 Clear 24 1011 78 10000 3.09 40 23:19 06.07.2022
2726 Clear 24 1011 78 10000 3.09 40 22:56 06.07.2022
2727 Clear 24 1011 78 10000 3.09 40 22:38 06.07.2022
2728 Clear 25 1011 69 10000 5.66 40 21:27 06.07.2022
2729 Clear 26 1010 57 10000 5.66 40 19:38 06.07.2022
2730 Clear 28 1010 47 10000 8.23 30 18:21 06.07.2022
2731 Clear 29 1010 45 10000 8.75 50 16:19 06.07.2022
2732 Clear 29 1010 51 10000 9.26 50 14:46 06.07.2022
2733 Clouds 30 1011 45 10000 8.23 40 12:35 06.07.2022
2734 Clouds 30 1011 45 10000 8.23 30 11:48 06.07.2022
2735 Clouds 28 1011 51 10000 7.72 70 10:18 06.07.2022
2736 Clouds 25 1011 69 10000 5.14 50 07:44 06.07.2022
2737 Clouds 25 1011 69 10000 4.63 50 07:23 06.07.2022
2738 Clear 22 1012 83 10000 3.09 40 02:55 06.07.2022
2739 Clear 23 1013 78 10000 5.14 60 22:45 05.07.2022
2740 Clear 23 1013 78 10000 5.14 60 22:45 05.07.2022
2741 Clear 23 1013 73 10000 6.17 50 21:36 05.07.2022
2742 Clear 24 1013 64 10000 6.17 50 20:38 05.07.2022
2743 Clear 25 1013 57 10000 7.72 50 19:41 05.07.2022
2744 Clear 25 1013 53 10000 7.2 30 19:21 05.07.2022
2745 Clear 27 1013 41 10000 9.77 40 17:46 05.07.2022
2746 Clear 28 1013 36 10000 11.32 40 16:44 05.07.2022
2747 Clear 28 1014 42 10000 10.8 50 15:25 05.07.2022
2748 Clear 29 1014 45 10000 8.75 40 13:53 05.07.2022
2749 Clear 30 1014 42 10000 8.75 40 12:42 05.07.2022
2750 Clouds 29 1014 42 10000 7.72 70 11:24 05.07.2022
2751 Clear 28 1014 47 10000 8.23 60 10:31 05.07.2022
2752 Clouds 25 1015 61 10000 7.2 60 08:26 05.07.2022
2753 Clouds 23 1015 68 10000 5.14 60 07:31 05.07.2022
2754 Clear 21 1014 78 10000 5.14 70 04:47 05.07.2022
2755 Clear 21 1014 78 10000 3.6 70 04:20 05.07.2022
2756 Clear 22 1015 73 10000 5.14 70 23:42 04.07.2022
2757 Clear 23 1014 73 10000 5.66 70 22:59 04.07.2022
2758 Clear 23 1015 68 10000 5.66 70 22:20 04.07.2022
2759 Clear 23 1015 68 10000 6.69 70 21:18 04.07.2022
2760 Clear 23 1014 64 10000 7.72 60 20:50 04.07.2022
2761 Clear 23 1014 64 10000 7.72 60 20:50 04.07.2022
2762 Clear 24 1014 60 10000 8.23 60 20:32 04.07.2022
2763 Clear 24 1014 60 10000 9.26 60 19:44 04.07.2022
2764 Clear 25 1014 50 10000 9.77 60 19:25 04.07.2022
2765 Clear 26 1014 53 10000 9.77 50 17:40 04.07.2022
2766 Clear 28 1014 51 10000 9.26 50 15:42 04.07.2022
2767 Clear 28 1015 51 10000 8.75 40 14:39 04.07.2022
2768 Clear 28 1015 47 10000 9.26 30 13:20 04.07.2022
2769 Clear 28 1015 47 10000 7.72 50 11:43 04.07.2022
2770 Clear 26 1015 50 10000 8.23 60 10:33 04.07.2022
2771 Clouds 25 1015 50 10000 7.72 50 09:33 04.07.2022
2772 Clear 22 1016 64 10000 5.66 60 06:50 04.07.2022
2773 Clear 21 1015 68 10000 4.63 60 03:23 04.07.2022
2774 Clear 22 1016 60 10000 6.17 70 23:53 03.07.2022
2775 Clear 22 1016 60 10000 6.69 70 22:55 03.07.2022
2776 Clear 23 1016 56 10000 8.75 70 20:46 03.07.2022
2777 Clear 23 1016 56 10000 7.72 70 20:20 03.07.2022
2778 Clear 25 1016 47 10000 7.72 70 19:25 03.07.2022
2779 Clear 26 1016 41 10000 9.77 60 18:31 03.07.2022
2780 Clear 26 1016 41 10000 10.8 50 17:42 03.07.2022
2781 Clear 29 1016 30 10000 10.8 40 15:28 03.07.2022
2782 Clear 28 1016 30 10000 11.83 50 14:57 03.07.2022
2783 Clear 29 1016 30 10000 10.29 30 13:50 03.07.2022
2784 Clear 29 1017 30 10000 10.8 60 12:51 03.07.2022
2785 Clear 29 1017 32 10000 10.29 50 12:21 03.07.2022
2786 Clouds 27 1017 41 10000 9.77 70 10:55 03.07.2022
2787 Clouds 27 1017 41 10000 9.77 70 10:36 03.07.2022
2788 Clouds 25 1017 61 10000 7.72 70 08:21 03.07.2022
2789 Clouds 25 1017 65 10000 8.23 50 07:34 03.07.2022
2790 Clear 23 1017 73 10000 3.6 70 01:32 03.07.2022
2791 Clear 23 1017 78 10000 4.63 50 23:38 02.07.2022
2792 Clear 24 1017 78 10000 4.12 40 22:31 02.07.2022
2793 Clear 25 1016 69 10000 6.17 50 20:37 02.07.2022
2794 Clear 25 1016 65 10000 6.17 50 19:50 02.07.2022
2795 Clear 27 1016 54 10000 10.29 40 18:48 02.07.2022
2796 Clear 29 1016 45 10000 8.75 60 17:40 02.07.2022
2797 Clear 30 1016 39 10000 8.75 40 16:32 02.07.2022
2798 Clear 30 1016 42 10000 7.72 30 13:51 02.07.2022
2799 Clear 31 1016 40 10000 8.75 70 11:51 02.07.2022
2800 Clear 29 1016 34 10000 7.2 50 10:52 02.07.2022
2801 Clear 29 1016 45 10000 5.14 50 10:28 02.07.2022
2802 Clouds 26 1016 61 10000 4.63 60 08:39 02.07.2022
2803 Clouds 25 1016 69 10000 4.63 40 08:19 02.07.2022
2804 Clouds 22 1015 88 10000 4.12 60 05:51 02.07.2022
2805 Clear 23 1015 83 10000 4.63 50 00:34 02.07.2022
2806 Clear 24 1015 83 10000 5.14 40 23:31 01.07.2022
2807 Clear 24 1015 78 10000 4.63 40 22:35 01.07.2022
2808 Clear 24 1015 78 10000 5.66 40 21:39 01.07.2022
2809 Clear 25 1014 69 10000 5.14 30 20:59 01.07.2022
2810 Clear 25 1014 69 10000 5.14 30 20:37 01.07.2022
2811 Clear 26 1014 69 10000 6.17 30 19:40 01.07.2022
2812 Clear 30 1013 51 10000 5.66 40 17:39 01.07.2022
2813 Clear 28 1014 57 10000 3.09 240 14:59 01.07.2022
2814 Clear 27 1014 69 10000 4.12 240 13:54 01.07.2022
2815 Clear 26 1015 69 10000 3.6 240 11:48 01.07.2022
2816 Clouds 25 1015 73 10000 2.57 180 10:19 01.07.2022
2817 Clouds 25 1014 73 10000 5.14 40 07:40 01.07.2022
2818 Clear 22 1013 88 10000 3.09 30 02:43 01.07.2022
2819 Clear 22 1013 83 10000 4.63 50 00:22 01.07.2022
2820 Clear 23 1013 78 10000 5.14 50 22:52 30.06.2022
2821 Clear 23 1013 78 10000 6.17 30 22:32 30.06.2022
2822 Clear 23 1013 78 10000 5.66 30 21:55 30.06.2022
2823 Clear 23 1013 73 10000 5.66 30 21:34 30.06.2022
2824 Clear 24 1013 69 10000 6.17 30 20:22 30.06.2022
2825 Clear 24 1013 69 10000 7.2 30 19:53 30.06.2022
2826 Clear 25 1013 61 10000 7.2 60 19:18 30.06.2022
2827 Clear 26 1013 57 10000 8.23 50 18:34 30.06.2022
2828 Clear 27 1012 57 10000 7.72 20 17:37 30.06.2022
2829 Clear 28 1012 54 10000 6.69 60 16:28 30.06.2022
2830 Clear 29 1013 48 10000 7.2 70 14:31 30.06.2022
2831 Clouds 29 1013 51 10000 5.14 50 13:30 30.06.2022
2832 Clouds 28 1013 51 10000 6.17 60 12:34 30.06.2022
2833 Clouds 28 1014 54 10000 6.69 40 11:28 30.06.2022
2834 Clouds 26 1013 57 10000 5.66 50 09:53 30.06.2022
2835 Clouds 25 1013 65 10000 4.12 40 09:31 30.06.2022
2836 Clouds 23 1013 73 10000 4.12 50 07:41 30.06.2022
2837 Clouds 21 1013 78 10000 1.03 80 05:47 30.06.2022
2838 Clear 22 1013 78 10000 2.06 100 00:31 30.06.2022
2839 Clear 22 1013 78 10000 2.57 70 23:19 29.06.2022
2840 Clear 23 1013 73 10000 3.6 70 22:38 29.06.2022
2841 Clear 23 1013 73 10000 4.63 60 21:34 29.06.2022
2842 Clear 23 1013 73 10000 4.63 30 20:33 29.06.2022
2843 Clear 24 1013 69 10000 5.66 30 19:36 29.06.2022
2844 Clouds 26 1013 61 10000 5.66 360 17:42 29.06.2022
2845 Clouds 25 1013 65 10000 5.66 30 16:36 29.06.2022
2846 Clouds 28 1013 54 10000 5.14 40 14:56 29.06.2022
2847 Clouds 28 1014 57 10000 8.75 60 12:39 29.06.2022
2848 Clouds 26 1014 61 10000 6.69 50 10:37 29.06.2022
2849 Clouds 24 1014 73 10000 6.69 60 09:32 29.06.2022
2850 Clouds 22 1013 88 10000 4.12 20 07:39 29.06.2022
2851 Clouds 22 1014 78 10000 4.12 360 04:51 29.06.2022
2852 Clouds 22 1014 78 10000 6.17 20 00:57 29.06.2022
2853 Clouds 22 1014 78 10000 6.17 20 00:35 29.06.2022
2854 Clouds 22 1014 83 10000 6.17 30 22:54 28.06.2022
2855 Clouds 22 1014 83 10000 5.14 10 22:24 28.06.2022
2856 Clouds 23 1014 73 10000 4.12 350 21:54 28.06.2022
2857 Clouds 23 1014 73 10000 6.17 340 21:32 28.06.2022
2858 Clouds 24 1013 57 10000 5.14 350 20:34 28.06.2022
2859 Clouds 26 1013 50 10000 5.66 20 19:34 28.06.2022
2860 Clouds 27 1013 47 10000 4.12 10 18:46 28.06.2022
2861 Clouds 28 1013 51 10000 4.63 340 17:40 28.06.2022
2862 Clouds 28 1014 54 10000 6.17 10 15:57 28.06.2022
2863 Clouds 28 1014 54 10000 6.69 10 15:36 28.06.2022
2864 Clouds 27 1014 54 10000 6.69 10 14:20 28.06.2022
2865 Clouds 28 1014 54 10000 7.2 40 13:51 28.06.2022
2866 Clouds 28 1013 51 10000 7.2 30 12:55 28.06.2022
2867 Clouds 28 1014 51 10000 6.69 30 11:18 28.06.2022
2868 Clouds 25 1013 69 10000 7.2 60 09:28 28.06.2022
2869 Clouds 24 1013 73 10000 6.17 50 08:43 28.06.2022
2870 Clouds 23 1012 83 10000 5.14 50 07:42 28.06.2022
2871 Clouds 21 1012 94 10000 5.66 20 06:20 28.06.2022
2872 Clouds 22 1013 78 10000 3.09 300 00:56 28.06.2022
2873 Clouds 22 1014 73 10000 1.54 310 23:37 27.06.2022
2874 Clouds 22 1014 78 10000 4.12 320 22:52 27.06.2022
2875 Clouds 22 1015 78 10000 4.12 360 21:34 27.06.2022
2876 Clouds 22 1015 78 10000 5.14 10 20:48 27.06.2022
2877 Clouds 23 1015 78 10000 5.14 40 19:31 27.06.2022
2878 Clouds 25 1015 57 10000 7.2 360 18:24 27.06.2022
2879 Clouds 28 1014 47 10000 6.69 360 16:19 27.06.2022
2880 Clouds 29 1015 45 10000 7.2 340 14:45 27.06.2022
2881 Clouds 29 1015 48 10000 6.69 20 13:35 27.06.2022
2882 Clouds 27 1015 51 10000 4.63 20 12:52 27.06.2022
2883 Clouds 26 1015 65 10000 3.6 350 10:23 27.06.2022
2884 Clouds 24 1016 69 10000 2.57 310 08:48 27.06.2022
2885 Clouds 23 1016 78 10000 3.09 300 08:19 27.06.2022
2886 Clouds 22 1016 83 10000 1.03 0 06:38 27.06.2022
2887 Clear 20 1015 83 10000 2.06 360 02:28 27.06.2022
2888 Clear 22 1015 64 10000 3.6 30 23:55 26.06.2022
2889 Clear 23 1015 53 10000 4.63 40 21:58 26.06.2022
2890 Clear 23 1015 49 10000 4.12 30 20:44 26.06.2022
2891 Clear 25 1015 47 10000 5.14 40 19:32 26.06.2022
2892 Clear 27 1015 41 10000 5.14 40 18:30 26.06.2022
2893 Clear 28 1015 42 10000 4.12 60 16:33 26.06.2022
2894 Clear 28 1015 47 10000 3.6 30 14:40 26.06.2022
2895 Clear 25 1015 57 10000 3.09 250 13:38 26.06.2022
2896 Clear 25 1015 61 10000 4.12 240 13:18 26.06.2022
2897 Clouds 24 1015 60 10000 3.09 210 11:26 26.06.2022
2898 Clouds 24 1015 60 10000 2.57 180 10:26 26.06.2022
2899 Clouds 23 1015 64 10000 3.09 140 09:19 26.06.2022
2900 Clouds 22 1014 68 10000 2.06 70 07:30 26.06.2022
2901 Clear 20 1013 73 10000 1.54 320 00:49 26.06.2022
2902 Clear 20 1013 73 10000 2.06 360 00:20 26.06.2022
2903 Clear 21 1013 68 10000 3.09 360 23:33 25.06.2022
2904 Clear 23 1013 53 10000 3.09 50 22:55 25.06.2022
2905 Clear 23 1013 53 10000 2.57 30 22:27 25.06.2022
2906 Clear 24 1013 53 10000 4.12 50 21:37 25.06.2022
2907 Clear 24 1013 53 10000 4.12 50 21:18 25.06.2022
2908 Clear 25 1013 50 10000 3.09 80 20:25 25.06.2022
2909 Clear 25 1013 50 10000 2.57 100 19:19 25.06.2022
2910 Clear 26 1013 50 10000 4.12 110 17:53 25.06.2022
2911 Clear 27 1013 41 10000 3.6 40 17:19 25.06.2022
2912 Clouds 26 1013 69 10000 2.06 180 14:59 25.06.2022
2913 Clouds 25 1013 69 10000 5.14 240 12:57 25.06.2022
2914 Clouds 24 1013 78 10000 5.66 250 12:37 25.06.2022
2915 Clear 25 1013 65 10000 5.14 230 10:32 25.06.2022
2916 Clear 24 1013 69 10000 4.12 250 08:57 25.06.2022
2917 Clear 23 1013 73 10000 4.63 250 08:35 25.06.2022
2918 Clear 23 1013 73 10000 4.12 260 07:45 25.06.2022
2919 Clear 21 1012 88 10000 2.57 300 03:30 25.06.2022
2920 Clear 21 1013 78 10000 2.57 250 00:33 25.06.2022
2921 Clear 22 1013 56 10000 0 0 22:51 24.06.2022
2922 Clear 22 1013 56 10000 1.54 60 21:34 24.06.2022
2923 Clear 24 1013 50 10000 3.09 60 20:44 24.06.2022
2924 Clear 24 1013 50 10000 3.09 50 20:18 24.06.2022
2925 Clear 25 1013 47 10000 4.12 20 19:20 24.06.2022
2926 Clear 26 1013 47 10000 5.14 20 18:48 24.06.2022
2927 Clear 26 1013 47 10000 4.12 20 18:30 24.06.2022
2928 Clear 28 1013 39 10000 6.17 20 16:57 24.06.2022
2929 Clear 28 1013 42 10000 5.14 10 15:28 24.06.2022
2930 Clouds 28 1013 44 10000 6.69 20 14:25 24.06.2022
2931 Clouds 27 1013 47 10000 6.17 350 13:53 24.06.2022
2932 Clouds 28 1013 44 10000 5.14 40 11:42 24.06.2022
2933 Clouds 28 1012 47 10000 5.14 10 10:47 24.06.2022
2934 Clouds 27 1012 50 10000 3.6 20 09:42 24.06.2022
2935 Clouds 25 1013 57 10000 1.54 0 09:19 24.06.2022
2936 Clear 24 1013 64 10000 3.09 350 08:42 24.06.2022
2937 Clear 22 1012 73 10000 3.6 340 06:47 24.06.2022
2938 Clear 21 1012 78 10000 2.57 360 06:29 24.06.2022
2939 Clear 19 1012 88 10000 2.57 340 05:51 24.06.2022
2940 Clouds 22 1012 73 10000 2.06 90 00:57 24.06.2022
2941 Clouds 23 1012 73 10000 3.6 90 22:44 23.06.2022
2942 Clouds 23 1012 73 10000 4.63 60 21:43 23.06.2022
2943 Clouds 23 1012 73 10000 5.14 60 20:43 23.06.2022
2944 Clouds 23 1012 73 10000 5.14 60 19:57 23.06.2022
2945 Clouds 24 1011 50 10000 5.66 30 18:43 23.06.2022
2946 Rain 27 1011 54 10000 4.12 20 17:37 23.06.2022
2947 Clouds 27 1010 57 10000 2.57 140 16:32 23.06.2022
2948 Clouds 28 1011 54 10000 3.09 220 15:26 23.06.2022
2949 Clouds 28 1011 51 10000 1.54 220 14:45 23.06.2022
2950 Clear 27 1011 54 10000 3.6 200 11:49 23.06.2022
2951 Clear 27 1011 61 10000 3.09 160 10:42 23.06.2022
2952 Clear 28 1011 39 10000 1.54 0 09:19 23.06.2022
2953 Clear 21 1010 68 10000 1.03 90 05:37 23.06.2022
2954 Clear 24 1010 50 10000 2.57 30 00:28 23.06.2022
2955 Clear 23 1010 60 10000 2.06 30 23:59 22.06.2022
2956 Clear 23 1010 64 10000 0.51 0 23:18 22.06.2022
2957 Clouds 25 1009 57 10000 1.54 280 21:44 22.06.2022
2958 Clouds 25 1009 61 10000 3.09 260 20:52 22.06.2022
2959 Clouds 26 1009 57 10000 2.57 260 20:19 22.06.2022
2960 Clear 27 1008 47 10000 0.51 0 19:30 22.06.2022
2961 Clear 28 1008 51 10000 2.06 210 17:40 22.06.2022
2962 Clear 28 1008 51 10000 3.6 180 16:41 22.06.2022
2963 Clear 28 1009 65 10000 4.12 200 15:29 22.06.2022
2964 Clear 27 1009 65 10000 4.63 190 14:51 22.06.2022
2965 Clear 28 1009 57 10000 4.12 160 13:48 22.06.2022
2966 Clear 28 1010 57 10000 4.12 160 13:24 22.06.2022
2967 Clouds 29 1010 48 10000 4.63 310 12:18 22.06.2022
2968 Clouds 29 1010 48 10000 3.6 360 11:29 22.06.2022
2969 Clouds 29 1010 54 10000 4.12 340 10:43 22.06.2022
2970 Clear 29 1009 51 10000 4.12 350 09:40 22.06.2022
2971 Clear 23 1008 78 10000 2.57 260 06:55 22.06.2022
2972 Clear 22 1007 83 10000 5.14 250 02:26 22.06.2022
2973 Clear 23 1007 78 10000 4.12 250 00:57 22.06.2022
2974 Clear 21 1008 83 10000 0.51 0 22:53 21.06.2022
2975 Clear 23 1008 68 10000 1.03 190 20:58 21.06.2022
2976 Clear 23 1008 68 10000 2.06 240 19:23 21.06.2022
2977 Clear 24 1008 64 10000 3.09 220 17:54 21.06.2022
2978 Clear 25 1008 65 10000 3.09 220 16:38 21.06.2022
2979 Clouds 23 1010 73 10000 5.14 240 11:58 21.06.2022
2980 Clouds 22 1010 83 10000 4.12 230 10:46 21.06.2022
2981 Clouds 22 1010 78 10000 2.57 200 09:24 21.06.2022
2982 Clouds 21 1009 83 10000 1.54 130 07:49 21.06.2022
2983 Thunderstorm 20 1009 94 10000 3.6 10 04:57 21.06.2022
2984 Clouds 21 1010 83 10000 0.51 0 00:23 21.06.2022
2985 Clouds 22 1011 83 10000 2.57 60 22:21 20.06.2022
2986 Clouds 22 1011 83 10000 2.57 60 22:21 20.06.2022
2987 Clouds 22 1011 83 10000 3.6 50 21:37 20.06.2022
2988 Clouds 22 1011 83 10000 4.12 30 20:29 20.06.2022
2989 Clouds 22 1010 78 10000 4.12 20 19:36 20.06.2022
2990 Clouds 23 1011 73 10000 5.66 50 18:26 20.06.2022
2991 Clouds 23 1011 73 10000 4.63 40 17:49 20.06.2022
2992 Clouds 24 1011 73 10000 6.17 10 16:26 20.06.2022
2993 Clouds 24 1011 73 10000 6.17 10 15:30 20.06.2022
2994 Clouds 25 1012 61 10000 7.2 70 12:32 20.06.2022
2995 Clouds 26 1013 53 10000 6.17 30 10:21 20.06.2022
2996 Clouds 26 1013 53 10000 6.17 30 10:21 20.06.2022
2997 Clouds 25 1013 53 10000 6.17 50 08:54 20.06.2022
2998 Clouds 23 1013 68 10000 6.17 50 07:52 20.06.2022
2999 Clear 20 1014 83 10000 4.63 50 05:21 20.06.2022
3000 Clear 20 1015 83 10000 4.63 50 01:33 20.06.2022
3001 Clear 21 1016 78 10000 4.63 60 23:57 19.06.2022
3002 Clouds 21 1016 78 10000 7.2 60 22:40 19.06.2022
3003 Clouds 21 1017 78 10000 7.2 50 21:45 19.06.2022
3004 Clouds 21 1017 73 10000 7.2 50 21:26 19.06.2022
3005 Clear 22 1016 68 10000 8.23 50 20:25 19.06.2022
3006 Clouds 22 1016 64 10000 6.69 40 19:46 19.06.2022
3007 Clouds 24 1016 60 10000 7.2 40 18:41 19.06.2022
3008 Clouds 25 1016 57 10000 8.75 30 17:48 19.06.2022
3009 Clouds 25 1016 57 10000 7.2 30 17:21 19.06.2022
3010 Clouds 26 1016 53 10000 7.72 50 16:34 19.06.2022
3011 Clouds 25 1017 53 10000 9.26 60 15:38 19.06.2022
3012 Clouds 27 1017 50 10000 7.2 50 14:55 19.06.2022
3013 Clouds 26 1017 47 10000 8.23 50 13:58 19.06.2022
3014 Clouds 27 1017 44 10000 9.26 50 12:56 19.06.2022
3015 Clouds 26 1018 50 10000 8.23 60 10:54 19.06.2022
3016 Clouds 24 1017 53 10000 9.26 60 09:40 19.06.2022
3017 Clouds 22 1017 68 10000 7.72 30 08:47 19.06.2022
3018 Clouds 23 1017 68 10000 7.2 60 07:48 19.06.2022
3019 Clear 20 1016 83 10000 5.66 40 04:41 19.06.2022
3020 Clear 21 1016 78 10000 5.14 50 01:29 19.06.2022
3021 Clouds 21 1016 78 10000 6.69 60 00:24 19.06.2022
3022 Clouds 21 1016 78 10000 7.2 50 23:35 18.06.2022
3023 Clouds 21 1017 78 10000 7.2 50 22:36 18.06.2022
3024 Clouds 21 1016 73 10000 7.72 50 20:56 18.06.2022
3025 Clear 22 1016 64 10000 8.75 50 20:28 18.06.2022
3026 Clear 23 1016 49 10000 9.77 60 19:31 18.06.2022
3027 Clouds 24 1016 53 10000 7.72 50 18:44 18.06.2022
3028 Clouds 25 1015 50 10000 9.26 30 17:30 18.06.2022
3029 Clouds 25 1015 53 10000 9.77 30 16:37 18.06.2022
3030 Clouds 27 1015 47 10000 8.75 40 15:22 18.06.2022
3031 Clouds 27 1015 47 10000 9.26 50 14:42 18.06.2022
3032 Clouds 27 1015 44 10000 9.77 50 13:22 18.06.2022
3033 Clouds 27 1015 47 10000 8.23 60 11:38 18.06.2022
3034 Clouds 25 1015 57 10000 7.72 50 10:46 18.06.2022
3035 Clouds 24 1016 60 10000 8.23 50 09:20 18.06.2022
3036 Clouds 23 1016 68 10000 7.2 70 08:19 18.06.2022
3037 Clouds 21 1015 78 10000 4.12 60 06:44 18.06.2022
3038 Clouds 20 1015 83 10000 4.63 70 03:24 18.06.2022
3039 Clouds 21 1016 78 10000 4.12 70 01:24 18.06.2022
3040 Clouds 21 1016 78 10000 4.12 70 00:45 18.06.2022
3041 Clouds 21 1016 78 10000 5.14 80 23:52 17.06.2022
3042 Clouds 21 1016 78 10000 5.14 70 23:19 17.06.2022
3043 Clouds 21 1016 78 10000 6.17 50 20:42 17.06.2022
3044 Clouds 23 1016 64 10000 7.72 50 19:30 17.06.2022
3045 Clear 24 1015 60 10000 6.69 60 18:37 17.06.2022
3046 Clear 25 1015 53 10000 7.72 30 17:43 17.06.2022
3047 Clear 26 1016 47 10000 8.75 30 16:43 17.06.2022
3048 Clouds 26 1016 44 10000 9.26 50 15:43 17.06.2022
3049 Clouds 26 1016 44 10000 9.26 70 14:58 17.06.2022
3050 Clouds 26 1016 44 10000 8.75 60 14:20 17.06.2022
3051 Clouds 27 1016 44 10000 8.75 40 13:45 17.06.2022
3052 Clouds 27 1016 47 10000 7.2 50 12:53 17.06.2022
3053 Clouds 25 1016 53 10000 6.69 50 11:57 17.06.2022
3054 Clouds 25 1016 53 10000 6.69 50 11:36 17.06.2022
3055 Clouds 26 1016 50 10000 6.69 50 10:48 17.06.2022
3056 Clouds 26 1016 50 10000 6.69 50 10:48 17.06.2022
3057 Clouds 26 1016 50 10000 6.69 50 10:48 17.06.2022
3058 Clouds 22 1017 64 10000 6.69 70 08:29 17.06.2022
3059 Clear 21 1017 73 10000 4.63 60 07:30 17.06.2022
3060 Clear 19 1017 82 10000 4.63 50 05:50 17.06.2022
3061 Clear 20 1018 77 10000 5.66 40 02:47 17.06.2022
3062 Clear 20 1018 77 10000 5.66 30 00:42 17.06.2022
3063 Clear 21 1018 68 10000 5.14 70 22:44 16.06.2022
3064 Clear 21 1018 68 10000 6.17 60 21:58 16.06.2022
3065 Clear 22 1018 60 10000 7.2 70 21:18 16.06.2022
3066 Clear 22 1018 60 10000 6.17 70 20:49 16.06.2022
3067 Clear 23 1018 49 10000 8.23 60 19:56 16.06.2022
3068 Clear 24 1018 46 10000 10.29 40 18:30 16.06.2022
3069 Clear 25 1018 44 10000 8.23 60 17:44 16.06.2022
3070 Clear 26 1018 50 10000 9.26 50 16:46 16.06.2022
3071 Clear 26 1018 50 10000 7.72 60 15:24 16.06.2022
3072 Clear 27 1018 47 10000 8.75 60 14:56 16.06.2022
3073 Clear 25 1018 50 10000 9.26 60 13:45 16.06.2022
3074 Clear 26 1019 47 10000 8.23 50 12:37 16.06.2022
3075 Clear 25 1019 47 10000 8.23 50 11:53 16.06.2022
3076 Clear 26 1018 47 10000 7.72 60 11:18 16.06.2022
3077 Clear 25 1018 47 10000 9.26 50 10:33 16.06.2022
3078 Clouds 24 1018 57 10000 6.69 50 09:25 16.06.2022
3079 Clouds 23 1018 60 10000 6.69 60 08:46 16.06.2022
3080 Clouds 22 1019 68 10000 5.14 50 07:29 16.06.2022
3081 Clear 19 1018 82 10000 4.12 50 05:31 16.06.2022
3082 Clear 20 1019 77 10000 5.14 60 02:52 16.06.2022
3083 Clear 20 1019 77 10000 4.63 50 01:51 16.06.2022
3084 Clear 20 1019 77 10000 5.14 50 01:21 16.06.2022
3085 Clear 21 1019 73 10000 6.17 70 23:49 15.06.2022
3086 Clear 21 1019 73 10000 5.14 70 22:44 15.06.2022
3087 Clear 21 1019 78 10000 7.2 50 21:23 15.06.2022
3088 Clear 21 1018 78 10000 8.23 50 20:56 15.06.2022
3089 Clear 21 1018 78 10000 8.23 50 20:35 15.06.2022
3090 Clear 22 1018 64 10000 9.26 40 19:30 15.06.2022
3091 Clear 25 1018 47 10000 10.29 50 17:58 15.06.2022
3092 Clear 26 1018 47 10000 7.72 50 17:33 15.06.2022
3093 Clear 27 1018 50 10000 7.72 50 15:51 15.06.2022
3094 Clouds 27 1018 54 10000 7.72 70 14:30 15.06.2022
3095 Clouds 25 1018 65 10000 8.23 60 12:56 15.06.2022
3096 Clouds 24 1018 69 10000 8.23 50 12:32 15.06.2022
3097 Clouds 24 1018 73 10000 8.23 30 10:28 15.06.2022
3098 Clouds 24 1018 73 10000 7.72 30 09:53 15.06.2022
3099 Clouds 24 1017 73 10000 8.75 30 08:50 15.06.2022
3100 Clouds 22 1017 83 10000 5.66 30 07:21 15.06.2022
3101 Clouds 20 1016 88 10000 5.14 20 04:51 15.06.2022
3102 Clear 21 1015 83 10000 4.63 20 02:28 15.06.2022
3103 Clear 22 1015 78 10000 3.6 30 00:54 15.06.2022
3104 Clear 22 1015 78 10000 3.6 20 23:55 14.06.2022
3105 Clear 22 1015 78 10000 3.6 20 23:37 14.06.2022
3106 Clear 22 1014 78 10000 5.14 20 22:28 14.06.2022
3107 Clear 22 1014 78 10000 5.14 20 21:41 14.06.2022
3108 Clear 24 1013 60 10000 3.09 40 20:57 14.06.2022
3109 Clear 25 1013 57 10000 4.12 30 20:32 14.06.2022
3110 Clear 26 1012 53 10000 6.17 20 19:22 14.06.2022
3111 Clear 28 1012 47 10000 5.14 30 18:25 14.06.2022
3112 Clear 28 1011 54 10000 5.66 20 16:49 14.06.2022
3113 Clear 29 1011 48 10000 6.17 30 15:50 14.06.2022
3114 Clear 30 1011 48 10000 6.17 40 15:31 14.06.2022
3115 Clear 29 1011 51 10000 6.17 20 14:40 14.06.2022
3116 Clear 25 1012 69 10000 5.14 240 13:46 14.06.2022
3117 Clear 24 1013 73 10000 5.14 250 12:48 14.06.2022
3118 Clear 24 1013 69 10000 3.09 240 11:46 14.06.2022
3119 Clear 23 1013 78 10000 4.63 210 10:49 14.06.2022
3120 Clear 23 1013 78 10000 4.63 210 10:49 14.06.2022
3121 Clear 24 1013 73 10000 3.09 190 10:24 14.06.2022
3122 Clear 26 1012 61 10000 5.14 350 08:49 14.06.2022
3123 Clear 23 1012 73 10000 1.54 290 07:50 14.06.2022
3124 Clear 19 1011 94 10000 1.03 240 05:56 14.06.2022
3125 Clear 19 1011 82 10000 2.06 20 03:20 14.06.2022
3126 Clear 19 1011 94 10000 3.6 30 01:31 14.06.2022
3127 Clear 19 1011 88 10000 3.6 10 23:48 13.06.2022
3128 Clear 21 1011 83 10000 4.12 30 22:26 13.06.2022
3129 Clear 20 1011 88 10000 3.6 20 21:54 13.06.2022
3130 Clear 21 1010 83 10000 3.6 20 20:42 13.06.2022
3131 Clear 23 1009 68 10000 4.12 20 19:39 13.06.2022
3132 Clear 25 1009 61 10000 4.12 20 18:36 13.06.2022
3133 Clear 26 1009 61 10000 4.12 10 17:48 13.06.2022
3134 Clear 26 1009 65 10000 6.17 10 16:54 13.06.2022
3135 Clear 26 1009 65 10000 7.72 350 15:41 13.06.2022
3136 Clear 26 1009 65 10000 6.69 350 14:47 13.06.2022
3137 Clear 25 1010 65 10000 6.69 10 13:55 13.06.2022
3138 Rain 27 1010 57 10000 6.17 10 12:59 13.06.2022
3139 Clouds 24 1010 69 10000 7.72 360 11:38 13.06.2022
3140 Clouds 23 1010 73 10000 8.23 360 10:28 13.06.2022
3141 Rain 23 1010 73 10000 6.69 360 09:42 13.06.2022
3142 Clouds 23 1009 73 10000 6.17 20 08:25 13.06.2022
3143 Clouds 21 1008 83 10000 7.72 10 06:34 13.06.2022
3144 Clouds 20 1007 88 10000 5.14 350 03:45 13.06.2022
3145 Clouds 21 1007 83 10000 3.6 10 01:38 13.06.2022
3146 Clouds 21 1007 83 10000 3.09 20 00:48 13.06.2022
3147 Clouds 21 1008 83 10000 5.14 350 23:31 12.06.2022
3148 Clouds 20 1008 88 10000 3.6 350 22:23 12.06.2022
3149 Clouds 21 1008 88 10000 2.06 10 21:40 12.06.2022
3150 Clouds 21 1007 83 10000 3.6 30 20:40 12.06.2022
3151 Clouds 22 1007 78 10000 5.14 10 19:41 12.06.2022
3152 Clouds 22 1006 83 10000 5.66 10 18:43 12.06.2022
3153 Clouds 24 1005 69 10000 7.2 40 16:44 12.06.2022
3154 Clouds 23 1005 69 10000 8.75 30 15:32 12.06.2022
3155 Clouds 23 1005 83 10000 7.2 30 14:33 12.06.2022
3156 Clouds 22 1004 88 10000 6.69 30 13:57 12.06.2022
3157 Clouds 22 1004 88 10000 6.69 30 13:38 12.06.2022
3158 Rain 19 1005 94 4000 6.17 330 11:48 12.06.2022
3159 Rain 19 1005 94 3200 3.09 330 10:45 12.06.2022
3160 Clouds 20 1005 88 10000 5.14 360 09:28 12.06.2022
3161 Clouds 20 1005 88 10000 4.63 30 08:49 12.06.2022
3162 Rain 20 1005 94 6000 2.57 360 07:47 12.06.2022
3163 Rain 19 1004 94 10000 3.09 320 05:39 12.06.2022
3164 Clouds 20 1005 88 10000 2.57 310 03:38 12.06.2022
3165 Clouds 21 1005 83 10000 3.09 10 01:44 12.06.2022
3166 Clouds 21 1006 83 10000 3.09 30 00:59 12.06.2022
3167 Clouds 21 1006 83 10000 3.6 30 00:28 12.06.2022
3168 Clouds 21 1006 83 10000 3.6 30 23:56 11.06.2022
3169 Clouds 21 1006 83 10000 4.12 350 22:49 11.06.2022
3170 Clouds 21 1006 78 10000 3.6 10 22:29 11.06.2022
3171 Clouds 22 1006 73 10000 5.14 30 20:55 11.06.2022
3172 Clouds 22 1006 73 10000 5.14 40 20:26 11.06.2022
3173 Clouds 23 1006 73 10000 5.66 20 19:32 11.06.2022
3174 Clouds 23 1006 68 10000 5.14 20 18:36 11.06.2022
3175 Clouds 23 1006 73 10000 2.06 170 17:58 11.06.2022
3176 Clouds 23 1006 73 10000 2.06 170 17:38 11.06.2022
3177 Clouds 24 1006 69 10000 2.57 160 17:19 11.06.2022
3178 Clouds 24 1006 64 10000 2.57 170 16:38 11.06.2022
3179 Clouds 23 1007 73 10000 3.6 130 15:46 11.06.2022
3180 Clouds 22 1008 83 10000 4.63 110 13:54 11.06.2022
3181 Clouds 22 1008 83 10000 4.63 110 13:36 11.06.2022
3182 Rain 22 1010 83 10000 4.63 110 11:18 11.06.2022
3183 Rain 23 1009 78 10000 6.17 90 10:22 11.06.2022
3184 Rain 22 1009 83 10000 4.63 100 09:40 11.06.2022
3185 Rain 21 1010 88 10000 3.09 130 07:58 11.06.2022
3186 Clouds 22 1009 88 10000 3.09 70 06:31 11.06.2022
3187 Clouds 21 1009 100 10000 2.57 50 05:22 11.06.2022
3188 Clear 23 1008 68 10000 3.09 30 01:54 11.06.2022
3189 Clear 24 1008 64 10000 3.09 30 01:34 11.06.2022
3190 Clear 24 1009 60 10000 3.6 40 00:34 11.06.2022
3191 Clear 24 1009 64 10000 4.12 50 22:35 10.06.2022
3192 Clear 24 1010 64 10000 3.6 40 21:56 10.06.2022
3193 Clear 25 1009 61 10000 5.14 40 20:55 10.06.2022
3194 Clear 25 1009 61 10000 5.14 40 20:36 10.06.2022
3195 Clear 25 1009 57 10000 5.14 40 20:18 10.06.2022
3196 Clear 27 1009 50 10000 6.69 40 19:18 10.06.2022
3197 Clear 28 1009 47 10000 6.17 30 18:20 10.06.2022
3198 Clear 28 1009 47 10000 6.17 20 17:36 10.06.2022
3199 Clear 30 1008 37 10000 2.06 250 16:58 10.06.2022
3200 Clouds 30 1008 37 10000 2.57 230 15:50 10.06.2022
3201 Rain 29 1009 37 10000 1.54 250 15:30 10.06.2022
3202 Clear 29 1009 37 10000 1.54 0 13:49 10.06.2022
3203 Clear 29 1009 39 10000 1.54 0 12:35 10.06.2022
3204 Clear 29 1009 45 10000 2.57 140 11:40 10.06.2022
3205 Clear 26 1009 57 10000 3.6 120 10:43 10.06.2022
3206 Clear 25 1009 61 10000 3.09 140 09:44 10.06.2022
3207 Clear 23 1009 68 10000 3.09 120 08:28 10.06.2022
3208 Clear 23 1008 73 10000 2.57 110 06:53 10.06.2022
3209 Clear 22 1008 78 10000 1.54 100 06:33 10.06.2022
3210 Clear 21 1008 83 10000 1.03 90 05:48 10.06.2022
3211 Clear 22 1007 73 10000 0.51 0 03:50 10.06.2022
3212 Clear 20 1008 83 10000 1.03 0 01:38 10.06.2022
3213 Clear 21 1008 78 10000 0 0 00:27 10.06.2022
3214 Clear 21 1008 78 10000 1.03 0 23:28 09.06.2022
3215 Clear 22 1008 73 10000 0 0 21:47 09.06.2022
3216 Clear 22 1008 73 10000 0 0 21:29 09.06.2022
3217 Clear 21 1008 78 10000 2.06 310 20:54 09.06.2022
3218 Clear 22 1007 73 10000 1.03 0 19:59 09.06.2022
3219 Clear 23 1007 73 10000 2.06 180 18:49 09.06.2022
3220 Clear 24 1007 60 10000 3.09 210 18:21 09.06.2022
3221 Clear 28 1007 44 10000 1.54 240 16:46 09.06.2022
3222 Clear 27 1008 47 10000 1.54 230 15:47 09.06.2022
3223 Clear 26 1008 50 10000 2.06 230 14:35 09.06.2022
3224 Clear 25 1008 53 10000 2.57 230 13:47 09.06.2022
3225 Clear 25 1009 53 10000 1.54 230 13:26 09.06.2022
3226 Clear 24 1010 57 10000 2.57 210 11:53 09.06.2022
3227 Clouds 23 1010 73 10000 1.03 0 10:51 09.06.2022
3228 Clouds 22 1010 78 10000 2.57 200 09:42 09.06.2022
3229 Clouds 21 1010 78 10000 2.57 180 09:23 09.06.2022
3230 Clear 20 1009 83 10000 2.06 130 07:34 09.06.2022
3231 Clouds 19 1009 82 10000 2.06 60 05:46 09.06.2022
3232 Clear 17 1009 94 10000 0 0 01:59 09.06.2022
3233 Clear 20 1010 83 10000 2.06 60 23:34 08.06.2022
3234 Clear 20 1011 83 10000 1.54 60 22:51 08.06.2022
3235 Clear 20 1011 77 10000 3.09 40 22:26 08.06.2022
3236 Clear 20 1011 77 10000 3.09 30 21:49 08.06.2022
3237 Clouds 20 1010 77 10000 3.6 30 20:43 08.06.2022
3238 Clouds 21 1010 73 10000 3.6 30 19:50 08.06.2022
3239 Clouds 23 1010 68 10000 4.12 40 18:58 08.06.2022
3240 Clouds 23 1010 68 10000 4.12 40 18:40 08.06.2022
3241 Clouds 23 1010 68 10000 4.63 30 16:34 08.06.2022
3242 Clouds 22 1010 73 10000 3.6 260 15:26 08.06.2022
3243 Clouds 20 1009 65 10000 2.06 306 13:36 08.06.2022
3244 Clouds 22 1010 68 10000 2.57 250 11:50 08.06.2022
3245 Clouds 22 1011 68 10000 3.09 230 11:24 08.06.2022
3246 Clouds 22 1010 73 10000 3.09 200 09:47 08.06.2022
3247 Clouds 22 1010 68 10000 2.57 160 09:20 08.06.2022
3248 Clouds 20 1010 77 10000 0.51 0 07:32 08.06.2022
3249 Clouds 18 1010 88 10000 2.57 50 05:22 08.06.2022
3250 Clear 17 1010 88 10000 2.57 20 02:38 08.06.2022
3251 Clear 18 1010 88 10000 2.06 40 23:42 07.06.2022
3252 Clear 19 1011 82 10000 2.06 60 23:24 07.06.2022
3253 Clouds 19 1011 82 10000 2.57 70 22:39 07.06.2022
3254 Clouds 18 1011 88 10000 2.57 10 21:52 07.06.2022
3255 Clouds 19 1011 82 10000 3.09 10 21:27 07.06.2022
3256 Clouds 19 1011 82 10000 3.09 10 21:27 07.06.2022
3257 Clouds 19 1011 77 10000 2.57 30 20:46 07.06.2022
3258 Clouds 19 1011 77 10000 2.06 10 20:23 07.06.2022
3259 Clouds 20 1011 73 10000 4.63 30 19:19 07.06.2022
3260 Clouds 21 1011 64 10000 5.14 10 17:55 07.06.2022
3261 Clouds 23 1011 60 10000 6.17 20 16:56 07.06.2022
3262 Clouds 24 1011 60 10000 6.17 10 16:33 07.06.2022
3263 Clouds 23 1011 64 10000 6.69 350 15:40 07.06.2022
3264 Clouds 23 1011 64 10000 5.66 20 15:22 07.06.2022
3265 Clouds 23 1011 69 10000 6.69 10 14:46 07.06.2022
3266 Rain 21 1012 73 10000 2.06 230 13:46 07.06.2022
3267 Rain 21 1012 73 10000 2.06 230 13:46 07.06.2022
3268 Rain 19 1012 88 10000 3.09 260 13:27 07.06.2022
3269 Rain 19 1012 82 10000 2.57 260 12:39 07.06.2022
3270 Rain 20 1013 88 8000 4.12 350 10:57 07.06.2022
3271 Rain 22 1013 64 10000 1.03 0 09:58 07.06.2022
3272 Rain 20 1013 77 10000 2.57 40 08:32 07.06.2022
3273 Rain 18 1013 94 10000 4.12 30 07:21 07.06.2022
3274 Rain 18 1013 88 10000 3.09 10 05:48 07.06.2022
3275 Clouds 18 1013 88 10000 3.09 350 02:28 07.06.2022
3276 Clouds 19 1013 82 10000 4.12 20 00:33 07.06.2022
3277 Clouds 20 1014 77 10000 4.63 40 23:32 06.06.2022
3278 Clear 20 1014 77 10000 5.66 40 22:37 06.06.2022
3279 Clear 20 1014 73 10000 6.17 20 21:36 06.06.2022
3280 Clear 21 1014 56 10000 7.2 40 19:59 06.06.2022
3281 Clear 21 1013 60 10000 6.17 30 19:21 06.06.2022
3282 Clear 22 1013 56 10000 7.2 30 18:38 06.06.2022
3283 Clear 23 1013 60 10000 6.69 30 17:42 06.06.2022
3284 Clouds 25 1013 50 10000 8.23 40 16:39 06.06.2022
3285 Clouds 26 1013 57 10000 7.2 30 15:40 06.06.2022
3286 Clouds 27 1012 54 10000 5.14 10 14:40 06.06.2022
3287 Clouds 24 1013 60 10000 6.17 20 13:27 06.06.2022
3288 Rain 24 1013 60 10000 7.2 10 12:38 06.06.2022
3289 Rain 23 1014 60 10000 9.77 350 12:19 06.06.2022
3290 Clouds 26 1013 57 10000 3.09 280 11:42 06.06.2022
3291 Clear 24 1012 60 10000 2.06 220 09:41 06.06.2022
3292 Clear 25 1012 57 10000 1.03 0 08:35 06.06.2022
3293 Clear 24 1012 57 10000 1.54 100 07:37 06.06.2022
3294 Clear 20 1011 68 10000 1.54 100 05:34 06.06.2022
3295 Clear 19 1012 63 10000 1.54 70 03:47 06.06.2022
3296 Clear 21 1012 56 10000 2.57 20 01:29 06.06.2022
3297 Clear 22 1012 53 10000 2.57 50 00:43 06.06.2022
3298 Clear 22 1012 49 10000 2.57 50 23:50 05.06.2022
3299 Clear 22 1013 46 10000 2.06 70 22:57 05.06.2022
3300 Clear 25 1013 41 10000 4.12 50 21:33 05.06.2022
3301 Clear 25 1012 44 10000 4.63 60 20:23 05.06.2022
3302 Clear 26 1012 61 10000 1.54 240 18:42 05.06.2022
3303 Clear 26 1012 69 10000 1.54 240 17:57 05.06.2022
3304 Clear 26 1012 69 10000 1.54 240 17:36 05.06.2022
3305 Clear 27 1012 61 10000 2.06 230 17:18 05.06.2022
3306 Clear 26 1012 69 10000 2.57 240 16:45 05.06.2022
3307 Clear 26 1013 69 10000 5.14 260 14:46 05.06.2022
3308 Clear 25 1014 73 10000 5.14 240 13:55 05.06.2022
3309 Clear 25 1014 65 10000 2.57 210 11:56 05.06.2022
3310 Clear 23 1015 73 10000 2.57 190 10:44 05.06.2022
3311 Clouds 23 1015 78 10000 3.09 200 10:23 05.06.2022
3312 Clouds 22 1015 78 10000 1.03 0 08:45 05.06.2022
3313 Clouds 21 1015 83 10000 1.03 0 08:21 05.06.2022
3314 Clouds 19 1015 88 10000 3.09 40 05:23 05.06.2022
3315 Clouds 19 1014 88 10000 4.12 10 04:33 05.06.2022
3316 Clouds 19 1015 88 10000 3.09 10 01:45 05.06.2022
3317 Clouds 19 1015 88 10000 3.09 10 01:45 05.06.2022
3318 Clouds 19 1015 88 10000 3.09 10 01:45 05.06.2022
3319 Clouds 19 1015 88 10000 3.6 360 01:23 05.06.2022
3320 Clouds 19 1015 88 10000 3.6 360 01:23 05.06.2022
3321 Clear 19 1016 88 10000 2.06 20 22:45 04.06.2022
3322 Clear 21 1016 78 10000 4.63 20 21:21 04.06.2022
3323 Clear 22 1015 78 10000 7.72 50 18:54 04.06.2022
3324 Clear 24 1015 69 10000 7.2 20 16:48 04.06.2022
3325 Clouds 25 1015 69 10000 7.72 20 16:19 04.06.2022
3326 Clouds 25 1015 69 10000 8.75 30 15:27 04.06.2022
3327 Clouds 26 1016 65 10000 8.23 10 13:54 04.06.2022
3328 Clouds 27 1016 65 10000 6.69 350 11:23 04.06.2022
3329 Clouds 27 1016 65 10000 4.63 10 10:52 04.06.2022
3330 Clouds 23 1016 78 10000 3.09 230 09:46 04.06.2022
3331 Clouds 24 1016 73 10000 2.57 150 08:44 04.06.2022
3332 Clouds 23 1015 78 10000 4.63 20 07:59 04.06.2022
3333 Clouds 21 1015 83 10000 4.63 40 06:20 04.06.2022
3334 Clouds 20 1015 88 10000 2.57 10 02:56 04.06.2022
3335 Clear 21 1016 83 10000 3.6 30 00:20 04.06.2022
3336 Clear 21 1016 83 10000 4.12 50 22:49 03.06.2022
3337 Clouds 21 1016 83 10000 5.14 50 21:43 03.06.2022
3338 Clouds 22 1015 78 10000 6.17 50 20:38 03.06.2022
3339 Clouds 23 1015 73 10000 8.75 40 19:19 03.06.2022
3340 Clear 26 1014 65 10000 8.23 30 16:54 03.06.2022
3341 Clear 25 1015 69 10000 7.72 30 15:40 03.06.2022
3342 Clear 29 1015 51 10000 8.23 40 13:51 03.06.2022
3343 Clouds 27 1015 61 10000 6.69 50 11:51 03.06.2022
3344 Clouds 25 1015 65 10000 5.14 40 09:54 03.06.2022
3345 Clouds 25 1015 65 10000 5.14 30 09:29 03.06.2022
3346 Clouds 22 1015 78 10000 6.17 50 07:42 03.06.2022
3347 Clouds 20 1013 88 10000 2.57 20 06:46 03.06.2022
3348 Clouds 20 1013 88 10000 4.12 20 06:27 03.06.2022
3349 Clouds 19 1014 88 10000 1.03 300 02:50 03.06.2022
3350 Clear 20 1014 83 10000 4.12 30 23:36 02.06.2022
3351 Clear 21 1014 78 10000 6.17 50 21:58 02.06.2022
3352 Clear 21 1013 78 10000 6.17 30 20:26 02.06.2022
3353 Clear 22 1014 68 10000 6.69 40 19:54 02.06.2022
3354 Clear 22 1013 68 10000 6.17 50 19:36 02.06.2022
3355 Clear 24 1013 57 10000 7.2 20 18:34 02.06.2022
3356 Clear 26 1013 57 10000 7.2 30 16:28 02.06.2022
3357 Clear 27 1014 57 10000 7.2 20 15:30 02.06.2022
3358 Clear 28 1014 51 10000 6.69 30 13:30 02.06.2022
3359 Clear 27 1014 57 10000 7.2 30 12:46 02.06.2022
3360 Clear 27 1014 54 10000 5.14 60 10:32 02.06.2022
3361 Clouds 24 1014 69 10000 5.14 30 09:29 02.06.2022
3362 Clouds 22 1014 73 10000 4.63 40 08:30 02.06.2022
3363 Clouds 21 1014 78 10000 5.66 50 07:58 02.06.2022
3364 Clouds 21 1014 78 10000 4.63 50 06:20 02.06.2022
3365 Clear 20 1013 83 10000 5.14 20 03:49 02.06.2022
3366 Clear 20 1014 83 10000 2.06 80 00:39 02.06.2022
3367 Clear 21 1014 78 10000 4.63 40 22:57 01.06.2022
3368 Clear 21 1015 78 10000 4.12 50 21:52 01.06.2022
3369 Clear 22 1014 73 10000 5.14 40 21:22 01.06.2022
3370 Clear 23 1014 64 10000 7.72 30 20:38 01.06.2022
3371 Clear 23 1014 64 10000 6.17 20 19:50 01.06.2022
3372 Clear 26 1014 50 10000 5.66 30 18:24 01.06.2022
3373 Clear 28 1014 44 10000 6.69 30 16:48 01.06.2022
3374 Clear 28 1013 45 10000 6.17 40 15:42 01.06.2022
3375 Clear 29 1014 42 10000 6.17 20 14:35 01.06.2022
3376 Clear 28 1015 42 10000 4.12 40 12:46 01.06.2022
3377 Clear 27 1015 50 10000 2.57 0 10:42 01.06.2022
3378 Clear 26 1015 53 10000 3.6 70 09:27 01.06.2022
3379 Clear 24 1015 60 10000 3.6 60 07:57 01.06.2022
3380 Clear 22 1015 64 10000 3.6 60 07:20 01.06.2022
3381 Clear 20 1014 73 10000 3.09 60 03:22 01.06.2022
3382 Clear 21 1015 73 10000 4.12 50 23:47 31.05.2022
3383 Clear 22 1015 68 10000 4.12 40 22:38 31.05.2022
3384 Clear 22 1015 68 10000 3.6 30 22:19 31.05.2022
3385 Clear 23 1015 64 10000 4.12 70 21:23 31.05.2022
3386 Clear 23 1015 64 10000 3.6 60 20:42 31.05.2022
3387 Clear 25 1014 53 10000 5.14 40 19:22 31.05.2022
3388 Clear 27 1014 47 10000 6.17 70 18:19 31.05.2022
3389 Clear 27 1014 50 10000 5.66 70 17:37 31.05.2022
3390 Clouds 29 1014 45 10000 6.17 20 15:45 31.05.2022
3391 Clouds 29 1014 48 10000 6.17 360 15:22 31.05.2022
3392 Clouds 29 1015 48 10000 5.14 70 12:41 31.05.2022
3393 Clouds 28 1015 51 10000 5.14 40 12:18 31.05.2022
3394 Clouds 27 1015 54 10000 5.14 80 10:22 31.05.2022
3395 Clear 24 1015 60 10000 2.06 100 07:43 31.05.2022
3396 Clear 20 1014 77 10000 2.06 20 05:38 31.05.2022
3397 Clear 20 1013 73 10000 3.09 350 03:49 31.05.2022
3398 Clear 21 1013 68 10000 3.09 10 23:45 30.05.2022
3399 Clear 21 1013 68 10000 3.09 10 23:23 30.05.2022
3400 Clear 23 1013 60 10000 3.6 30 22:33 30.05.2022
3401 Clear 22 1013 64 10000 3.6 30 21:40 30.05.2022
3402 Clear 24 1012 57 10000 4.12 40 20:43 30.05.2022
3403 Clear 25 1012 53 10000 4.63 40 19:40 30.05.2022
3404 Clear 30 1010 45 10000 5.66 10 17:48 30.05.2022
3405 Clear 30 1010 39 9000 6.17 320 17:20 30.05.2022
3406 Clouds 29 1010 42 10000 6.17 270 15:51 30.05.2022
3407 Clear 28 1011 42 10000 4.12 250 13:21 30.05.2022
3408 Clear 27 1011 50 10000 4.12 250 11:39 30.05.2022
3409 Clear 26 1010 47 10000 4.12 250 09:45 30.05.2022
3410 Clouds 24 1009 57 10000 3.09 260 07:34 30.05.2022
3411 Clear 22 1008 68 10000 3.09 260 05:54 30.05.2022
3412 Clear 21 1007 68 10000 1.03 0 03:22 30.05.2022
3413 Clear 25 1008 60 10000 2.06 170 23:58 29.05.2022
3414 Rain 25 1007 64 10000 5.66 110 22:40 29.05.2022
3415 Clear 25 1007 53 10000 7.72 120 21:44 29.05.2022
3416 Clouds 27 1006 54 10000 5.14 100 20:21 29.05.2022
3417 Clouds 30 1006 42 10000 5.14 80 19:28 29.05.2022
3418 Clouds 31 1007 42 10000 3.6 30 17:56 29.05.2022
3419 Clear 33 1007 43 10000 4.63 40 16:20 29.05.2022
3420 Clear 34 1007 43 10000 5.14 40 15:41 29.05.2022
3421 Clear 33 1008 40 10000 4.12 60 14:49 29.05.2022
3422 Clear 32 1010 43 10000 5.66 20 12:21 29.05.2022
3423 Clear 29 1010 48 10000 5.14 50 11:19 29.05.2022
3424 Clear 29 1011 48 10000 2.57 20 09:54 29.05.2022
3425 Clear 26 1010 50 10000 2.06 50 07:55 29.05.2022
3426 Clear 20 1009 68 10000 0 0 04:58 29.05.2022
3427 Clear 21 1009 64 10000 1.03 90 04:33 29.05.2022
3428 Clear 21 1010 68 10000 1.03 290 01:23 29.05.2022
3429 Clear 24 1010 57 10000 1.54 90 23:47 28.05.2022
3430 Clear 25 1010 50 10000 2.06 110 23:19 28.05.2022
3431 Clear 26 1010 47 10000 2.57 80 21:52 28.05.2022
3432 Clear 26 1010 47 10000 3.09 90 20:46 28.05.2022
3433 Clear 27 1010 47 10000 2.57 100 19:20 28.05.2022
3434 Clear 28 1010 42 10000 1.03 260 18:23 28.05.2022
3435 Clear 29 1010 39 10000 1.54 0 17:32 28.05.2022
3436 Clear 29 1010 39 10000 2.06 210 15:49 28.05.2022
3437 Clear 28 1011 47 10000 2.57 210 15:20 28.05.2022
3438 Clear 28 1012 39 10000 2.06 210 13:36 28.05.2022
3439 Clear 27 1012 44 10000 2.06 220 12:42 28.05.2022
3440 Clear 26 1013 57 10000 2.06 190 11:37 28.05.2022
3441 Clear 25 1013 57 10000 2.06 170 10:39 28.05.2022
3442 Clear 26 1012 57 10000 2.06 160 09:54 28.05.2022
3443 Clear 24 1013 60 10000 2.06 150 08:24 28.05.2022
3444 Clear 20 1012 77 10000 0 0 06:34 28.05.2022
3445 Clear 19 1012 73 10000 2.06 70 04:46 28.05.2022
3446 Clear 18 1013 82 10000 1.03 0 02:26 28.05.2022
3447 Clear 20 1015 77 10000 2.06 360 23:57 27.05.2022
3448 Clear 20 1015 77 10000 1.54 10 22:38 27.05.2022
3449 Clear 22 1015 68 10000 2.06 30 21:28 27.05.2022
3450 Clear 23 1015 60 10000 2.57 50 20:44 27.05.2022
3451 Clear 23 1015 64 10000 3.09 30 20:19 27.05.2022
3452 Clear 23 1015 64 10000 3.09 20 19:38 27.05.2022
3453 Clear 24 1015 60 10000 3.6 350 19:19 27.05.2022
3454 Clear 29 1016 42 10000 3.6 60 17:19 27.05.2022
3455 Clear 28 1016 54 10000 3.09 220 15:56 27.05.2022
3456 Clear 26 1017 65 10000 3.6 240 14:53 27.05.2022
3457 Clear 26 1017 65 10000 4.63 220 13:40 27.05.2022
3458 Clear 25 1019 64 10000 3.09 200 11:55 27.05.2022
3459 Clear 24 1019 64 10000 3.09 190 11:30 27.05.2022
3460 Clear 25 1019 65 10000 3.09 200 10:41 27.05.2022
3461 Clear 25 1019 69 10000 3.09 170 09:59 27.05.2022
3462 Clear 27 1019 57 10000 3.09 40 09:29 27.05.2022
3463 Clear 24 1019 64 7000 0 0 07:30 27.05.2022
3464 Clear 19 1018 82 10000 1.54 330 03:59 27.05.2022
3465 Clear 20 1018 83 10000 1.03 10 01:27 27.05.2022
3466 Clouds 24 1018 64 10000 2.57 70 23:23 26.05.2022
3467 Rain 23 1019 68 10000 1.03 0 21:57 26.05.2022
3468 Rain 22 1019 73 10000 0.51 0 21:27 26.05.2022
3469 Clear 24 1018 64 10000 0.51 0 19:34 26.05.2022
3470 Clear 24 1017 69 10000 1.54 170 18:45 26.05.2022
3471 Clear 25 1017 69 10000 2.06 170 17:36 26.05.2022
3472 Clear 25 1017 73 10000 2.57 190 16:18 26.05.2022
3473 Clear 25 1017 64 10000 5.14 240 15:24 26.05.2022
3474 Clear 24 1018 64 10000 4.63 240 14:19 26.05.2022
3475 Clear 24 1018 60 10000 4.12 240 12:18 26.05.2022
3476 Clear 25 1018 60 10000 5.14 250 11:20 26.05.2022
3477 Clear 24 1018 60 10000 4.12 270 09:39 26.05.2022
3478 Clear 22 1017 68 10000 2.06 240 08:48 26.05.2022
3479 Clear 18 1017 77 10000 1.03 0 05:43 26.05.2022
3480 Clear 18 1017 68 10000 1.03 210 02:24 26.05.2022
3481 Clear 19 1018 59 10000 1.03 0 23:57 25.05.2022
3482 Clear 21 1018 49 10000 0.51 0 22:53 25.05.2022
3483 Clear 22 1018 46 10000 2.57 50 21:42 25.05.2022
3484 Clear 23 1017 43 10000 4.63 60 20:49 25.05.2022
3485 Clear 24 1017 41 10000 4.12 50 19:45 25.05.2022
3486 Clear 25 1017 41 10000 4.63 50 18:48 25.05.2022
3487 Clear 25 1017 50 10000 2.06 240 17:24 25.05.2022
3488 Clear 26 1017 50 10000 2.06 230 16:33 25.05.2022
3489 Clear 26 1017 47 10000 2.57 230 15:36 25.05.2022
3490 Clear 26 1017 41 10000 2.57 240 14:50 25.05.2022
3491 Clear 26 1018 47 10000 3.6 240 14:32 25.05.2022
3492 Clear 25 1018 53 10000 2.57 230 13:23 25.05.2022
3493 Clear 18 1018 46 10000 1.72 75 11:50 25.05.2022
3494 Clear 23 1018 53 10000 2.06 230 10:41 25.05.2022
3495 Clear 23 1017 49 10000 1.03 220 09:38 25.05.2022
3496 Clouds 18 1017 50 10000 4.16 71 07:36 25.05.2022
3497 Clear 17 1015 67 10000 3.09 60 05:41 25.05.2022
3498 Clouds 16 1015 66 10000 4.35 61 02:41 25.05.2022
3499 Clouds 19 1014 59 10000 1.54 50 23:50 24.05.2022
3500 Clouds 20 1014 56 10000 2.06 40 22:59 24.05.2022
3501 Clouds 20 1014 56 10000 2.06 40 22:59 24.05.2022
3502 Rain 20 1014 56 10000 2.06 50 21:58 24.05.2022
3503 Clouds 20 1014 56 10000 2.06 50 21:37 24.05.2022
3504 Clear 22 1013 46 10000 3.09 60 21:19 24.05.2022
3505 Clear 23 1012 46 10000 3.09 90 19:27 24.05.2022
3506 Rain 24 1013 43 10000 2.06 110 18:29 24.05.2022
3507 Clear 25 1013 38 10000 1.54 160 16:39 24.05.2022
3508 Clouds 25 1013 38 10000 2.06 180 15:45 24.05.2022
3509 Clear 25 1013 36 10000 3.09 160 14:41 24.05.2022
3510 Clear 24 1013 33 10000 3.6 160 13:47 24.05.2022
3511 Clear 24 1013 43 10000 2.05 95 12:24 24.05.2022
3512 Clear 22 1014 37 10000 3.6 110 09:52 24.05.2022
3513 Clear 20 1013 52 10000 3.09 100 08:52 24.05.2022
3514 Clear 18 1013 63 10000 2.06 120 07:56 24.05.2022
3515 Clear 17 1013 67 10000 2.06 80 06:39 24.05.2022
3516 Clear 16 1012 77 10000 2.57 70 03:41 24.05.2022
3517 Clear 17 1012 72 10000 2.57 60 01:46 24.05.2022
3518 Clouds 17 1012 72 9000 2.57 100 00:34 24.05.2022
3519 Clear 18 1012 68 10000 6.17 40 22:24 23.05.2022
3520 Clear 19 1012 63 10000 5.14 50 21:53 23.05.2022
3521 Clear 19 1011 68 10000 5.14 60 20:49 23.05.2022
3522 Clouds 21 1010 56 10000 4.63 70 19:55 23.05.2022
3523 Clouds 20 1010 60 10000 3.6 110 19:24 23.05.2022
3524 Clouds 21 1010 60 10000 3.6 120 18:41 23.05.2022
3525 Clouds 21 1010 60 10000 3.6 120 18:41 23.05.2022
3526 Clear 22 1009 56 10000 4.63 100 17:56 23.05.2022
3527 Clouds 22 1009 56 10000 2.06 120 16:29 23.05.2022
3528 Clouds 22 1009 60 10000 3.6 40 14:20 23.05.2022
3529 Clouds 22 1009 53 10000 8.23 340 11:57 23.05.2022
3530 Clouds 23 1008 56 10000 4.12 340 10:58 23.05.2022
3531 Clear 22 1008 56 10000 3.09 310 09:48 23.05.2022
3532 Clear 19 1008 82 10000 3.6 250 08:47 23.05.2022
3533 Clear 18 1008 82 10000 2.06 230 07:37 23.05.2022
3534 Clouds 18 1008 82 10000 1.54 220 06:41 23.05.2022
3535 Clouds 16 1008 88 10000 0 0 03:52 23.05.2022
3536 Clouds 18 1008 72 10000 0 0 02:18 23.05.2022
3537 Clouds 17 1008 77 10000 1.54 10 01:33 23.05.2022
3538 Clouds 18 1009 72 10000 0.51 0 23:22 22.05.2022
3539 Clouds 19 1009 68 10000 1.54 80 22:33 22.05.2022
3540 Clouds 20 1009 64 10000 1.54 90 21:53 22.05.2022
3541 Clouds 20 1009 64 10000 1.54 80 20:51 22.05.2022
3542 Clouds 20 1008 64 10000 2.57 80 20:23 22.05.2022
3543 Clouds 20 1008 64 10000 3.09 60 19:42 22.05.2022
3544 Clouds 21 1008 64 10000 3.6 10 18:53 22.05.2022
3545 Clouds 21 1008 64 10000 3.6 360 18:22 22.05.2022
3546 Rain 23 1008 53 10000 5.66 20 17:28 22.05.2022
3547 Clear 25 1008 53 10000 5.14 340 15:59 22.05.2022
3548 Clear 24 1008 57 10000 6.69 340 14:48 22.05.2022
3549 Rain 23 1009 49 10000 5.14 260 13:27 22.05.2022
3550 Clear 22 1009 52 10000 5.66 250 12:50 22.05.2022
3551 Clear 20 1009 63 10000 4.63 260 11:32 22.05.2022
3552 Clear 20 1009 63 10000 4.63 240 09:42 22.05.2022
3553 Clear 18 1009 72 10000 3.6 230 08:31 22.05.2022
3554 Clear 17 1010 77 10000 2.06 230 07:21 22.05.2022
3555 Clear 12 1010 94 10000 0.51 0 05:22 22.05.2022
3556 Mist 13 1011 100 4000 0 0 01:41 22.05.2022
3557 Clear 15 1012 94 6000 1.03 170 00:43 22.05.2022
3558 Clear 16 1013 88 10000 1.03 180 23:52 21.05.2022
3559 Clear 16 1013 88 10000 1.03 0 22:28 21.05.2022
3560 Clear 17 1013 82 10000 1.03 120 21:42 21.05.2022
3561 Clear 17 1013 77 10000 1.03 140 20:51 21.05.2022
3562 Clear 17 1013 72 10000 1.03 0 20:22 21.05.2022
3563 Clear 19 1013 59 10000 2.06 230 19:27 21.05.2022
3564 Clear 20 1014 52 10000 3.6 240 17:48 21.05.2022
3565 Clear 21 1015 56 10000 3.6 250 15:54 21.05.2022
3566 Clear 21 1016 64 10000 3.6 230 14:37 21.05.2022
3567 Clear 21 1017 52 10000 3.09 240 13:42 21.05.2022
3568 Clear 20 1017 63 10000 3.6 250 12:50 21.05.2022
3569 Clear 20 1018 59 10000 3.6 250 12:25 21.05.2022
3570 Clear 20 1018 45 10000 2.06 230 10:24 21.05.2022
3571 Clear 19 1018 42 10000 1.54 230 09:43 21.05.2022
3572 Clear 20 1019 42 10000 0.51 0 08:57 21.05.2022
3573 Clear 18 1019 45 10000 0 0 07:53 21.05.2022
3574 Clear 11 1019 62 10000 2.06 10 03:58 21.05.2022
3575 Clear 16 1021 41 10000 2.06 90 23:54 20.05.2022
3576 Clear 16 1022 39 10000 2.57 60 22:57 20.05.2022
3577 Clear 16 1022 39 10000 3.09 50 22:23 20.05.2022
3578 Clear 17 1022 39 10000 3.6 70 21:43 20.05.2022
3579 Clear 18 1022 36 10000 5.14 60 20:56 20.05.2022
3580 Clear 19 1023 37 10000 4.63 80 19:59 20.05.2022
3581 Clear 20 1023 37 10000 5.14 80 19:26 20.05.2022
3582 Clear 20 1023 34 10000 6.69 70 18:44 20.05.2022
3583 Clear 22 1023 30 10000 8.23 60 16:54 20.05.2022
3584 Clear 23 1023 28 10000 7.72 50 16:19 20.05.2022
3585 Clear 23 1024 28 10000 8.75 50 15:44 20.05.2022
3586 Clear 22 1024 33 10000 7.2 60 14:30 20.05.2022
3587 Clear 22 1025 33 10000 6.17 70 13:55 20.05.2022
3588 Clear 19 1026 39 10000 4.12 120 11:34 20.05.2022
3589 Clear 17 1027 48 10000 3.6 120 09:52 20.05.2022
3590 Clear 16 1027 51 10000 3.6 110 08:44 20.05.2022
3591 Clear 12 1026 67 10000 3.6 50 06:50 20.05.2022
3592 Clear 12 1026 71 10000 3.6 50 06:31 20.05.2022
3593 Clear 9 1026 87 10000 2.06 40 04:31 20.05.2022
3594 Clear 12 1026 71 10000 2.57 70 00:48 20.05.2022
3595 Clear 13 1026 62 10000 3.09 50 22:47 19.05.2022
3596 Clear 13 1026 67 10000 2.57 50 22:19 19.05.2022
3597 Clear 13 1027 67 10000 2.06 60 21:42 19.05.2022
3598 Clear 13 1027 67 10000 3.09 70 21:22 19.05.2022
3599 Clear 14 1026 62 10000 3.6 70 20:32 19.05.2022
3600 Clear 14 1026 58 10000 5.14 70 19:40 19.05.2022
3601 Clear 15 1026 58 10000 6.17 40 18:19 19.05.2022
3602 Clouds 16 1026 55 10000 5.14 20 16:35 19.05.2022
3603 Clouds 17 1026 48 10000 6.17 30 14:52 19.05.2022
3604 Clouds 16 1026 55 10000 6.69 40 14:24 19.05.2022
3605 Clouds 16 1027 51 10000 6.69 20 13:20 19.05.2022
3606 Clouds 16 1027 51 10000 7.72 30 11:25 19.05.2022
3607 Clouds 15 1026 58 10000 6.17 30 09:19 19.05.2022
3608 Clouds 14 1026 67 10000 4.12 60 07:48 19.05.2022
3609 Clouds 10 1024 87 10000 1.54 90 05:32 19.05.2022
3610 Clouds 11 1024 76 10000 2.06 70 01:59 19.05.2022
3611 Clouds 11 1024 82 10000 3.6 80 23:55 18.05.2022
3612 Clouds 11 1023 87 10000 5.14 80 22:47 18.05.2022
3613 Clouds 11 1023 87 8000 7.2 70 21:47 18.05.2022
3614 Rain 11 1023 87 8000 5.66 70 21:26 18.05.2022
3615 Rain 11 1022 87 7000 7.2 60 20:41 18.05.2022
3616 Thunderstorm 11 1019 93 2500 11.83 30 20:18 18.05.2022
3617 Thunderstorm 11 1019 93 2500 11.83 30 18:28 18.05.2022
3618 Clouds 12 1018 94 4500 12.35 30 17:41 18.05.2022
3619 Rain 13 1017 82 10000 11.32 20 17:23 18.05.2022
3620 Rain 14 1017 88 10000 11.32 20 16:31 18.05.2022
3621 Clouds 15 1016 82 8000 11.32 10 15:40 18.05.2022
3622 Clouds 20 1015 73 10000 8.75 20 14:35 18.05.2022
3623 Clouds 23 1014 64 10000 6.69 20 13:22 18.05.2022
3624 Clouds 22 1014 64 10000 6.69 20 12:42 18.05.2022
3625 Clouds 24 1013 57 10000 2.57 250 11:34 18.05.2022
3626 Clear 22 1013 53 10000 4.12 240 10:56 18.05.2022
3627 Clear 21 1013 56 10000 3.09 250 09:24 18.05.2022
3628 Clear 19 1012 63 10000 3.09 230 07:32 18.05.2022
3629 Clear 16 1011 77 10000 1.03 180 05:34 18.05.2022
3630 Clear 17 1013 82 10000 0.51 0 00:52 18.05.2022
3631 Clear 17 1013 82 10000 1.03 100 00:21 18.05.2022
3632 Clear 19 1014 72 10000 1.03 0 21:39 17.05.2022
3633 Clear 19 1014 72 10000 2.06 140 21:19 17.05.2022
3634 Clear 21 1014 40 10000 1.03 270 19:52 17.05.2022
3635 Clear 23 1014 35 10000 1.03 260 19:27 17.05.2022
3636 Clear 25 1015 31 10000 3.6 260 17:50 17.05.2022
3637 Clear 25 1015 33 10000 4.12 250 16:58 17.05.2022
3638 Clear 25 1015 33 10000 3.6 250 16:29 17.05.2022
3639 Clear 25 1016 31 10000 3.09 240 15:24 17.05.2022
3640 Clouds 24 1017 41 10000 3.6 260 14:30 17.05.2022
3641 Clouds 24 1017 41 10000 3.6 260 14:30 17.05.2022
3642 Clouds 24 1017 41 10000 3.6 260 14:30 17.05.2022
3643 Clouds 24 1017 41 10000 3.6 260 14:30 17.05.2022
3644 Clouds 24 1017 41 10000 3.6 260 14:30 17.05.2022
3645 Clear 23 1017 49 10000 3.09 250 13:32 17.05.2022
3646 Clear 22 1018 53 10000 2.57 220 11:21 17.05.2022
3647 Clear 20 1018 59 10000 3.09 160 09:23 17.05.2022
3648 Clear 19 1018 59 10000 2.06 120 08:23 17.05.2022
3649 Clear 17 1018 68 10000 0 0 06:45 17.05.2022
3650 Clear 16 1017 63 10000 2.57 350 02:55 17.05.2022
3651 Clear 20 1018 49 10000 2.57 60 00:32 17.05.2022
3652 Clear 20 1018 45 10000 2.57 50 22:42 16.05.2022
3653 Clear 21 1018 43 10000 2.06 90 21:37 16.05.2022
3654 Clear 21 1018 46 10000 4.63 70 20:46 16.05.2022
3655 Clear 23 1017 46 10000 4.63 50 19:22 16.05.2022
3656 Clear 24 1017 43 10000 0.51 0 18:18 16.05.2022
3657 Clear 24 1017 49 10000 2.57 240 15:49 16.05.2022
3658 Clear 22 1019 60 10000 4.12 240 13:49 16.05.2022
3659 Clear 22 1019 60 10000 4.63 250 13:20 16.05.2022
3660 Clear 21 1020 64 10000 2.06 160 10:53 16.05.2022
3661 Clear 20 1020 64 10000 1.54 110 09:23 16.05.2022
3662 Clear 17 1019 82 10000 1.54 50 06:34 16.05.2022
3663 Clear 17 1018 77 10000 1.54 40 03:31 16.05.2022
3664 Clear 17 1018 77 10000 2.57 20 23:26 15.05.2022
3665 Clear 17 1018 72 10000 2.57 30 22:29 15.05.2022
3666 Clear 19 1018 63 10000 3.09 40 21:44 15.05.2022
3667 Clear 20 1018 60 10000 3.09 30 20:54 15.05.2022
3668 Clear 21 1017 60 10000 4.12 30 19:28 15.05.2022
3669 Clear 22 1016 53 10000 4.63 20 17:51 15.05.2022
3670 Clear 23 1016 56 10000 6.17 330 15:59 15.05.2022
3671 Clear 21 1016 73 10000 3.6 230 13:54 15.05.2022
3672 Clear 21 1017 68 10000 4.63 220 12:26 15.05.2022
3673 Clear 20 1017 73 10000 4.12 220 11:38 15.05.2022
3674 Clear 20 1017 73 10000 4.63 190 10:25 15.05.2022
3675 Clouds 19 1016 72 10000 4.12 30 08:32 15.05.2022
3676 Rain 17 1016 77 10000 3.09 10 06:58 15.05.2022
3677 Clear 15 1014 88 10000 0 0 05:33 15.05.2022
3678 Clear 16 1015 67 10000 0 0 00:49 15.05.2022
3679 Clear 17 1015 59 10000 0 0 23:38 14.05.2022
3680 Clear 17 1015 63 10000 0.51 0 22:47 14.05.2022
3681 Clear 17 1015 72 10000 0.51 0 21:29 14.05.2022
3682 Clear 18 1014 77 10000 1.03 130 20:51 14.05.2022
3683 Clear 20 1014 64 10000 1.03 0 19:37 14.05.2022
3684 Clear 20 1014 64 10000 1.03 0 19:19 14.05.2022
3685 Clear 22 1014 49 10000 2.06 200 17:56 14.05.2022
3686 Clear 23 1014 40 10000 3.09 240 16:37 14.05.2022
3687 Clear 22 1015 49 10000 4.12 230 15:23 14.05.2022
3688 Clear 21 1015 64 10000 5.14 220 14:33 14.05.2022
3689 Clear 21 1016 60 10000 4.12 240 12:23 14.05.2022
3690 Clear 21 1016 56 10000 4.12 240 10:54 14.05.2022
3691 Clear 20 1016 64 10000 4.12 250 10:20 14.05.2022
3692 Clear 20 1016 68 10000 3.09 230 09:53 14.05.2022
3693 Clear 20 1015 64 10000 3.09 260 08:49 14.05.2022
3694 Clear 17 1014 72 10000 3.09 250 05:47 14.05.2022
3695 Clear 15 1015 82 10000 0.51 0 02:32 14.05.2022
3696 Clear 18 1015 48 10000 1.03 340 23:36 13.05.2022
3697 Clear 17 1015 55 10000 1.03 50 22:58 13.05.2022
3698 Clear 18 1016 52 10000 1.03 0 22:25 13.05.2022
3699 Clear 19 1016 48 10000 2.06 40 21:39 13.05.2022
3700 Clear 22 1016 37 10000 2.06 70 20:45 13.05.2022
3701 Clear 23 1015 35 10000 3.09 70 20:24 13.05.2022
3702 Clear 22 1015 37 10000 0.51 110 19:28 13.05.2022
3703 Clear 22 1016 37 10000 2.57 270 17:50 13.05.2022
3704 Clear 25 1016 33 10000 2.06 240 17:27 13.05.2022
3705 Clear 24 1016 33 10000 3.09 240 16:18 13.05.2022
3706 Clear 25 1017 33 10000 2.57 240 15:20 13.05.2022
3707 Clear 24 1018 33 10000 5.14 260 13:41 13.05.2022
3708 Clear 24 1018 31 10000 3.09 150 12:25 13.05.2022
3709 Clear 21 1019 40 10000 2.06 150 10:53 13.05.2022
3710 Clear 21 1020 42 10000 2.57 140 09:34 13.05.2022
3711 Clear 19 1020 48 10000 2.06 110 08:24 13.05.2022
3712 Clear 18 1020 52 10000 2.57 120 07:42 13.05.2022
3713 Clear 13 1019 82 10000 0.51 0 05:59 13.05.2022
3714 Clear 14 1020 72 10000 0 0 02:48 13.05.2022
3715 Clear 19 1020 45 10000 2.57 70 23:56 12.05.2022
3716 Clear 18 1020 52 10000 2.06 90 22:44 12.05.2022
3717 Clear 18 1021 59 10000 0.51 0 21:54 12.05.2022
3718 Clear 20 1020 52 10000 1.54 0 20:27 12.05.2022
3719 Clear 25 1020 29 10000 1.54 0 18:50 12.05.2022
3720 Clear 23 1020 33 10000 2.57 250 16:58 12.05.2022
3721 Clear 23 1021 33 10000 3.09 250 15:50 12.05.2022
3722 Clear 22 1021 33 10000 3.09 260 14:39 12.05.2022
3723 Clear 21 1022 49 10000 3.6 250 13:34 12.05.2022
3724 Clear 19 1023 52 10000 2.06 230 10:43 12.05.2022
3725 Clear 16 1022 59 10000 2.06 150 09:24 12.05.2022
3726 Clear 16 1022 59 10000 2.06 140 08:50 12.05.2022
3727 Clear 15 1022 67 10000 3.09 140 07:38 12.05.2022
3728 Clear 10 1021 71 10000 0 0 05:35 12.05.2022
3729 Clear 11 1021 66 10000 2.57 340 02:49 12.05.2022
3730 Clear 12 1021 62 10000 1.54 360 00:35 12.05.2022
3731 Clear 14 1020 47 10000 1.03 0 22:34 11.05.2022
3732 Clear 17 1020 39 10000 3.09 50 21:38 11.05.2022
3733 Clear 17 1020 36 10000 3.6 60 20:55 11.05.2022
3734 Clear 20 1019 30 10000 5.66 40 18:27 11.05.2022
3735 Clear 21 1019 35 10000 5.14 70 16:51 11.05.2022
3736 Clear 21 1019 35 10000 5.14 70 16:51 11.05.2022
3737 Clear 21 1019 43 10000 2.06 240 14:58 11.05.2022
3738 Clear 21 1019 43 10000 2.06 240 14:38 11.05.2022
3739 Clear 21 1019 46 10000 3.6 250 14:18 11.05.2022
3740 Clear 20 1020 56 10000 2.57 0 11:52 11.05.2022
3741 Clear 18 1020 63 10000 4.63 40 10:32 11.05.2022
3742 Clear 16 1020 72 10000 5.14 40 08:37 11.05.2022
3743 Clear 12 1018 82 10000 3.09 50 05:27 11.05.2022
3744 Clear 13 1018 67 10000 4.12 60 00:42 11.05.2022
3745 Clear 13 1019 67 10000 4.12 60 22:30 10.05.2022
3746 Clear 13 1019 62 10000 4.63 60 21:55 10.05.2022
3747 Clear 14 1019 62 10000 6.17 50 20:56 10.05.2022
3748 Clear 15 1018 55 10000 7.2 50 19:27 10.05.2022
3749 Clear 17 1018 48 10000 8.75 50 17:54 10.05.2022
3750 Clear 18 1019 45 10000 9.26 50 16:56 10.05.2022
3751 Clear 19 1019 45 10000 8.75 50 14:48 10.05.2022
3752 Clear 19 1020 48 10000 8.23 60 12:39 10.05.2022
3753 Clear 18 1020 48 10000 8.23 60 11:50 10.05.2022
3754 Clear 18 1021 48 10000 8.75 40 11:20 10.05.2022
3755 Clear 17 1021 48 10000 7.72 50 10:22 10.05.2022
3756 Clear 16 1021 51 10000 7.2 40 09:25 10.05.2022
3757 Clear 12 1020 82 10000 5.14 60 06:54 10.05.2022
3758 Clear 11 1020 82 10000 4.63 40 03:30 10.05.2022
3759 Clear 12 1021 82 10000 6.17 40 00:38 10.05.2022
3760 Clear 12 1021 76 10000 5.66 40 22:52 09.05.2022
3761 Clear 13 1021 67 10000 7.2 40 21:50 09.05.2022
3762 Clear 13 1021 67 10000 5.66 60 20:52 09.05.2022
3763 Clear 15 1021 55 10000 7.2 40 18:43 09.05.2022
3764 Clear 16 1021 48 10000 8.23 40 17:44 09.05.2022
3765 Clear 17 1021 45 10000 8.75 40 16:33 09.05.2022
3766 Clear 17 1021 45 10000 10.8 50 15:52 09.05.2022
3767 Clear 18 1021 45 10000 11.83 50 15:21 09.05.2022
3768 Clear 18 1021 48 10000 11.32 50 14:29 09.05.2022
3769 Clear 18 1021 48 10000 10.29 40 13:40 09.05.2022
3770 Clear 18 1021 55 10000 7.72 40 12:21 09.05.2022
3771 Clear 17 1021 55 10000 6.17 40 11:18 09.05.2022
3772 Clear 17 1021 51 10000 6.69 40 10:42 09.05.2022
3773 Clouds 14 1021 67 10000 6.17 70 08:36 09.05.2022
3774 Clouds 13 1021 71 10000 6.69 80 07:53 09.05.2022
3775 Clear 11 1020 76 10000 7.72 40 03:19 09.05.2022
3776 Clear 12 1021 71 10000 6.17 70 23:34 08.05.2022
3777 Clear 12 1021 71 10000 5.66 70 22:52 08.05.2022
3778 Clear 13 1021 67 10000 5.66 70 21:55 08.05.2022
3779 Clear 13 1021 67 10000 5.66 70 21:55 08.05.2022
3780 Clear 14 1021 62 10000 7.2 70 20:35 08.05.2022
3781 Clear 14 1020 62 10000 7.2 60 19:44 08.05.2022
3782 Clear 15 1020 63 10000 8.23 60 18:54 08.05.2022
3783 Clear 16 1020 63 10000 9.26 60 17:59 08.05.2022
3784 Clear 17 1020 55 10000 8.23 50 16:43 08.05.2022
3785 Clear 19 1021 52 10000 8.75 60 15:31 08.05.2022
3786 Clear 19 1021 52 10000 8.23 60 14:44 08.05.2022
3787 Clear 18 1022 55 10000 6.69 30 12:25 08.05.2022
3788 Clear 17 1022 59 10000 4.63 50 10:31 08.05.2022
3789 Clear 16 1022 63 10000 5.14 60 09:57 08.05.2022
3790 Clear 16 1022 63 10000 5.14 60 09:56 08.05.2022
3791 Clear 15 1022 67 10000 5.14 60 08:55 08.05.2022
3792 Clear 11 1022 82 10000 4.63 50 06:57 08.05.2022
3793 Clear 11 1022 87 10000 4.12 50 03:35 08.05.2022
3794 Clear 11 1022 87 10000 3.6 60 02:41 08.05.2022
3795 Clear 12 1022 82 10000 3.6 70 00:21 08.05.2022
3796 Clear 12 1022 82 10000 4.63 70 23:47 07.05.2022
3797 Clear 12 1022 82 10000 5.14 70 22:46 07.05.2022
3798 Clear 13 1022 76 10000 5.66 70 21:57 07.05.2022
3799 Clear 13 1022 76 10000 5.66 70 21:33 07.05.2022
3800 Clear 13 1022 76 10000 7.2 40 20:28 07.05.2022
3801 Clear 14 1021 67 10000 6.17 30 19:22 07.05.2022
3802 Clear 17 1021 51 10000 7.72 30 17:33 07.05.2022
3803 Clear 18 1021 48 10000 7.2 40 15:41 07.05.2022
3804 Clear 18 1022 48 10000 4.63 60 12:50 07.05.2022
3805 Clouds 15 1022 63 10000 5.66 80 10:33 07.05.2022
3806 Clouds 14 1022 72 10000 4.12 110 08:52 07.05.2022
3807 Clouds 12 1022 82 10000 4.12 70 07:43 07.05.2022
3808 Clouds 12 1022 82 8000 3.09 80 06:43 07.05.2022
3809 Clouds 11 1022 87 10000 5.14 30 04:24 07.05.2022
3810 Clouds 12 1022 87 10000 4.63 50 00:56 07.05.2022
3811 Clouds 13 1022 82 10000 4.63 50 23:28 06.05.2022
3812 Clouds 13 1023 82 10000 3.6 50 22:21 06.05.2022
3813 Clouds 14 1023 77 10000 4.12 70 21:36 06.05.2022
3814 Clouds 14 1022 77 10000 4.12 60 20:20 06.05.2022
3815 Clouds 15 1022 72 10000 5.14 50 19:28 06.05.2022
3816 Clouds 15 1022 72 10000 6.69 60 18:49 06.05.2022
3817 Clouds 17 1022 59 10000 8.23 50 17:38 06.05.2022
3818 Clouds 17 1022 63 10000 8.75 50 15:56 06.05.2022
3819 Clouds 18 1022 55 10000 8.75 40 15:33 06.05.2022
3820 Clouds 19 1022 59 10000 7.2 30 14:22 06.05.2022
3821 Clouds 18 1023 55 10000 5.66 30 12:52 06.05.2022
3822 Clear 18 1023 59 10000 6.17 60 12:20 06.05.2022
3823 Clear 18 1023 52 10000 5.14 10 11:31 06.05.2022
3824 Clear 15 1024 67 10000 2.57 0 09:48 06.05.2022
3825 Clear 15 1024 67 10000 2.57 0 09:48 06.05.2022
3826 Clear 15 1024 63 10000 4.12 200 09:19 06.05.2022
3827 Clear 14 1023 58 10000 3.09 30 07:56 06.05.2022
3828 Clear 11 1023 71 10000 3.6 20 06:28 06.05.2022
3829 Clouds 9 1023 93 10000 2.57 350 04:29 06.05.2022
3830 Clouds 10 1022 93 10000 1.54 20 02:38 06.05.2022
3831 Clear 12 1023 82 10000 3.09 50 23:25 05.05.2022
3832 Clear 12 1023 82 10000 4.63 30 21:51 05.05.2022
3833 Clear 12 1022 82 10000 5.14 20 20:37 05.05.2022
3834 Clear 14 1022 62 10000 5.14 360 19:20 05.05.2022
3835 Clear 18 1021 45 10000 5.66 20 16:51 05.05.2022
3836 Clear 18 1021 45 10000 5.14 360 15:48 05.05.2022
3837 Clear 15 1021 77 10000 4.12 240 14:34 05.05.2022
3838 Clouds 15 1021 77 10000 5.14 240 13:18 05.05.2022
3839 Clouds 14 1021 72 10000 5.14 240 11:46 05.05.2022
3840 Clear 14 1021 82 10000 4.12 230 10:28 05.05.2022
3841 Clouds 13 1021 82 10000 3.09 220 09:32 05.05.2022
3842 Clouds 10 1020 93 10000 0.51 120 06:49 05.05.2022
3843 Clear 7 1019 93 10000 1.03 360 02:28 05.05.2022
3844 Clear 8 1019 93 10000 0.51 0 01:45 05.05.2022
3845 Clear 8 1019 93 10000 1.54 330 01:19 05.05.2022
3846 Clear 9 1019 93 10000 1.03 0 23:27 04.05.2022
3847 Clear 10 1019 87 10000 1.54 10 22:23 04.05.2022
3848 Clear 10 1019 87 10000 2.06 360 21:46 04.05.2022
3849 Clear 11 1019 87 10000 2.57 360 21:18 04.05.2022
3850 Clear 12 1018 71 10000 3.09 10 20:20 04.05.2022
3851 Clear 12 1018 66 10000 2.57 10 19:44 04.05.2022
3852 Clear 14 1017 62 10000 5.14 20 18:44 04.05.2022
3853 Clouds 14 1017 62 10000 4.63 20 18:20 04.05.2022
3854 Clouds 14 1017 62 10000 5.14 10 17:22 04.05.2022
3855 Clouds 15 1017 58 10000 3.09 10 15:34 04.05.2022
3856 Clouds 15 1017 58 10000 3.6 10 14:45 04.05.2022
3857 Clouds 14 1017 62 10000 4.12 360 14:19 04.05.2022
3858 Clouds 13 1017 67 10000 4.12 20 12:58 04.05.2022
3859 Clouds 13 1018 71 10000 3.6 40 11:59 04.05.2022
3860 Clouds 12 1017 76 10000 5.14 10 10:28 04.05.2022
3861 Clouds 13 1017 71 10000 3.09 10 09:22 04.05.2022
3862 Clouds 11 1017 87 10000 2.57 360 08:26 04.05.2022
3863 Clouds 10 1016 93 10000 5.14 10 05:42 04.05.2022
3864 Clouds 10 1015 87 10000 3.6 360 02:42 04.05.2022
3865 Clouds 11 1015 87 10000 2.06 20 23:23 03.05.2022
3866 Clouds 11 1015 87 10000 3.09 360 21:59 03.05.2022
3867 Clouds 11 1015 87 10000 3.09 10 21:32 03.05.2022
3868 Clouds 11 1014 87 10000 4.63 20 20:52 03.05.2022
3869 Clouds 11 1014 87 10000 4.12 360 19:36 03.05.2022
3870 Clouds 12 1014 82 10000 3.6 20 18:47 03.05.2022
3871 Clouds 12 1013 87 10000 4.12 20 17:34 03.05.2022
3872 Clouds 13 1013 82 10000 4.12 30 16:20 03.05.2022
3873 Rain 12 1013 87 10000 4.63 50 14:34 03.05.2022
3874 Clouds 12 1013 87 10000 6.17 50 12:46 03.05.2022
3875 Rain 12 1013 82 10000 5.14 40 12:22 03.05.2022
3876 Clouds 12 1012 82 10000 6.17 60 10:50 03.05.2022
3877 Clouds 12 1012 87 10000 6.17 60 08:33 03.05.2022
3878 Rain 12 1012 82 10000 4.63 80 06:46 03.05.2022
3879 Rain 12 1012 82 8000 4.63 80 06:46 03.05.2022
3880 Rain 12 1012 87 7000 5.14 60 03:26 03.05.2022
3881 Rain 13 1012 76 10000 6.17 60 23:32 02.05.2022
3882 Rain 14 1012 67 10000 6.69 50 22:34 02.05.2022
3883 Rain 14 1012 67 10000 8.23 60 21:48 02.05.2022
3884 Rain 14 1012 67 10000 7.72 60 20:48 02.05.2022
3885 Clear 16 1012 59 10000 9.26 60 18:28 02.05.2022
3886 Clear 16 1012 59 10000 9.26 70 17:42 02.05.2022
3887 Clear 16 1011 59 10000 10.29 50 16:47 02.05.2022
3888 Clear 17 1012 55 10000 10.29 50 15:52 02.05.2022
3889 Clear 18 1012 52 10000 10.8 60 14:54 02.05.2022
3890 Clear 18 1013 48 10000 10.8 60 13:45 02.05.2022
3891 Clear 18 1014 55 10000 9.77 50 11:51 02.05.2022
3892 Clear 17 1015 59 10000 9.77 50 10:18 02.05.2022
3893 Clouds 15 1015 67 10000 8.23 50 08:44 02.05.2022
3894 Clouds 13 1016 76 10000 5.66 60 07:23 02.05.2022
3895 Clouds 12 1017 82 10000 5.14 50 00:48 02.05.2022
3896 Clouds 12 1018 82 10000 6.69 40 00:22 02.05.2022
3897 Clouds 12 1018 82 10000 6.69 50 23:43 01.05.2022
3898 Clouds 12 1019 87 10000 5.14 30 21:46 01.05.2022
3899 Clouds 13 1018 82 10000 6.69 50 20:50 01.05.2022
3900 Clouds 14 1018 77 10000 6.17 40 19:40 01.05.2022
3901 Clouds 15 1017 72 10000 6.69 50 18:53 01.05.2022
3902 Clouds 16 1017 67 10000 8.23 60 17:51 01.05.2022
3903 Clear 17 1018 63 10000 8.23 50 16:46 01.05.2022
3904 Clear 17 1018 67 10000 6.17 30 16:23 01.05.2022
3905 Clear 18 1018 63 10000 5.66 20 14:58 01.05.2022
3906 Clouds 18 1019 59 10000 6.17 10 13:23 01.05.2022
3907 Clouds 16 1019 67 10000 5.14 40 10:45 01.05.2022
3908 Clouds 14 1019 82 10000 5.14 20 08:50 01.05.2022
3909 Clouds 12 1019 82 10000 5.66 40 06:51 01.05.2022
3910 Clouds 12 1018 87 10000 4.63 60 02:47 01.05.2022
3911 Clouds 12 1019 87 10000 6.17 40 22:52 30.04.2022
3912 Clouds 12 1019 87 10000 8.23 40 21:34 30.04.2022
3913 Clouds 12 1018 87 10000 8.23 30 20:22 30.04.2022
3914 Clouds 12 1018 87 10000 7.72 20 19:31 30.04.2022
3915 Clouds 12 1018 87 10000 6.17 20 17:37 30.04.2022
3916 Clouds 13 1017 82 10000 8.23 20 16:28 30.04.2022
3917 Clouds 13 1017 82 10000 9.77 10 15:19 30.04.2022
3918 Clouds 13 1018 82 10000 7.2 10 14:30 30.04.2022
3919 Clouds 14 1018 82 10000 6.69 20 12:28 30.04.2022
3920 Clouds 14 1018 77 10000 8.75 20 11:32 30.04.2022
3921 Clouds 13 1018 88 10000 9.26 30 10:30 30.04.2022
3922 Clouds 13 1018 88 10000 7.2 30 08:26 30.04.2022
3923 Clouds 13 1017 82 10000 7.2 50 04:58 30.04.2022
3924 Clouds 13 1018 82 10000 8.23 40 00:34 30.04.2022
3925 Clear 13 1018 82 10000 7.2 30 22:58 29.04.2022
3926 Clear 13 1018 82 10000 7.2 20 22:29 29.04.2022
3927 Clear 14 1018 77 10000 7.2 40 21:26 29.04.2022
3928 Clear 14 1018 77 10000 6.17 30 20:24 29.04.2022
3929 Clear 15 1018 72 10000 5.66 30 19:33 29.04.2022
3930 Clear 18 1017 59 10000 7.72 40 17:38 29.04.2022
3931 Clear 18 1017 63 10000 8.23 40 16:43 29.04.2022
3932 Clear 20 1017 52 10000 10.29 40 14:38 29.04.2022
3933 Clear 19 1018 55 10000 9.26 40 14:38 29.04.2022
3934 Clear 19 1018 55 10000 9.26 40 14:38 29.04.2022
3935 Clear 19 1018 55 10000 8.75 20 13:59 29.04.2022
3936 Clear 19 1018 55 10000 8.75 30 12:41 29.04.2022
3937 Clear 18 1019 59 10000 9.26 50 10:56 29.04.2022
3938 Clouds 14 1019 82 10000 5.14 50 07:58 29.04.2022
3939 Clouds 13 1019 88 10000 5.14 40 07:26 29.04.2022
3940 Clouds 13 1018 82 8000 4.12 40 06:33 29.04.2022
3941 Clear 12 1017 87 10000 5.66 40 03:23 29.04.2022
3942 Clear 13 1018 82 10000 6.17 50 00:18 29.04.2022
3943 Clear 13 1018 82 10000 6.17 50 23:26 28.04.2022
3944 Clear 13 1018 82 10000 6.69 50 22:37 28.04.2022
3945 Clear 14 1018 77 10000 5.14 50 21:44 28.04.2022
3946 Clear 14 1017 77 10000 5.14 60 20:49 28.04.2022
3947 Clear 15 1017 72 10000 6.69 30 19:57 28.04.2022
3948 Clear 15 1017 72 10000 6.69 30 19:38 28.04.2022
3949 Clear 16 1016 67 10000 6.69 30 19:19 28.04.2022
3950 Clear 19 1015 52 10000 7.2 40 17:55 28.04.2022
3951 Clear 20 1015 49 10000 9.77 60 16:58 28.04.2022
3952 Clear 20 1015 49 10000 9.77 40 16:21 28.04.2022
3953 Clear 21 1015 46 10000 8.23 40 15:52 28.04.2022
3954 Clear 21 1015 43 10000 7.2 50 15:18 28.04.2022
3955 Clear 21 1015 52 10000 5.14 60 13:42 28.04.2022
3956 Clear 17 1015 77 10000 3.09 220 12:32 28.04.2022
3957 Clear 20 1016 60 10000 3.6 10 11:38 28.04.2022
3958 Clear 18 1015 63 10000 4.12 20 10:27 28.04.2022
3959 Clear 17 1015 67 10000 4.12 10 09:50 28.04.2022
3960 Clouds 14 1015 82 10000 5.14 20 07:43 28.04.2022
3961 Clouds 13 1015 88 10000 4.12 30 06:53 28.04.2022
3962 Clouds 12 1015 87 8000 4.12 20 05:53 28.04.2022
3963 Clear 11 1015 93 8000 4.63 10 04:43 28.04.2022
3964 Clear 12 1015 87 10000 5.66 20 02:45 28.04.2022
3965 Clear 13 1016 82 10000 5.14 10 23:36 27.04.2022
3966 Clear 14 1016 77 10000 4.12 40 22:22 27.04.2022
3967 Clear 14 1016 77 10000 5.14 50 21:46 27.04.2022
3968 Clear 15 1016 72 10000 5.14 40 20:47 27.04.2022
3969 Clear 14 1016 77 10000 7.72 20 20:29 27.04.2022
3970 Clear 15 1015 63 10000 6.69 20 19:36 27.04.2022
3971 Clear 18 1015 55 10000 5.66 30 18:42 27.04.2022
3972 Clear 18 1015 55 10000 5.66 30 18:21 27.04.2022
3973 Clear 22 1015 43 10000 8.23 60 16:20 27.04.2022
3974 Clear 23 1015 38 10000 7.2 60 13:21 27.04.2022
3975 Clear 21 1016 37 10000 7.2 40 11:26 27.04.2022
3976 Clear 21 1016 35 10000 6.69 60 10:50 27.04.2022
3977 Clear 17 1015 55 10000 5.66 50 08:31 27.04.2022
3978 Clear 14 1015 72 10000 4.12 30 06:42 27.04.2022
3979 Clear 13 1014 82 10000 5.14 10 02:40 27.04.2022
3980 Clear 13 1013 82 10000 4.12 360 01:24 27.04.2022
3981 Clear 13 1014 82 10000 3.6 10 00:34 27.04.2022
3982 Clear 14 1014 72 10000 3.6 20 23:24 26.04.2022
3983 Clear 15 1014 67 10000 4.12 20 22:51 26.04.2022
3984 Clear 17 1014 59 10000 5.14 20 22:31 26.04.2022
3985 Clear 17 1013 63 10000 4.63 40 21:25 26.04.2022
3986 Clear 17 1013 67 10000 4.12 40 20:39 26.04.2022
3987 Clear 18 1012 59 10000 5.66 30 19:45 26.04.2022
3988 Clear 19 1012 59 10000 5.66 30 19:26 26.04.2022
3989 Clear 19 1012 59 10000 5.66 40 18:39 26.04.2022
3990 Clear 21 1012 56 10000 5.66 30 17:42 26.04.2022
3991 Clear 22 1012 53 10000 5.14 360 15:59 26.04.2022
3992 Clear 23 1013 53 10000 4.12 10 13:55 26.04.2022
3993 Clear 23 1013 49 10000 4.12 360 13:28 26.04.2022
3994 Clear 21 1013 56 10000 3.09 150 11:24 26.04.2022
3995 Clear 21 1012 60 10000 1.54 190 10:30 26.04.2022
3996 Clear 19 1012 59 10000 1.03 0 08:34 26.04.2022
3997 Clear 13 1011 82 10000 0.51 350 04:59 26.04.2022
3998 Clear 13 1011 82 10000 1.03 50 04:22 26.04.2022
3999 Clear 15 1011 77 10000 1.54 80 00:51 26.04.2022
4000 Clear 15 1011 72 10000 0 0 23:50 25.04.2022
4001 Clear 15 1010 72 10000 1.03 160 21:53 25.04.2022
4002 Clear 15 1010 77 10000 1.03 160 21:26 25.04.2022
4003 Clear 16 1009 77 10000 1.54 180 19:53 25.04.2022
4004 Clear 18 1009 72 10000 1.54 190 18:34 25.04.2022
4005 Clear 19 1008 72 10000 2.06 180 17:40 25.04.2022
4006 Clear 20 1008 64 10000 3.6 220 16:42 25.04.2022
4007 Clear 21 1009 46 10000 3.6 250 15:22 25.04.2022
4008 Clear 19 1009 55 10000 4.12 250 14:32 25.04.2022
4009 Clear 18 1009 68 10000 2.57 240 12:47 25.04.2022
4010 Clear 17 1010 77 10000 2.06 210 10:44 25.04.2022
4011 Clear 17 1010 77 10000 1.03 0 09:41 25.04.2022
4012 Clear 15 1009 72 10000 2.06 340 07:38 25.04.2022
4013 Clear 11 1009 82 10000 1.03 0 05:54 25.04.2022
4014 Clear 14 1009 67 10000 1.54 340 01:28 25.04.2022
4015 Clear 18 1010 55 10000 3.09 50 23:54 24.04.2022
4016 Clear 18 1010 55 10000 3.09 50 23:24 24.04.2022
4017 Clear 19 1010 52 10000 3.09 70 22:39 24.04.2022
4018 Clear 19 1010 52 10000 5.14 70 21:55 24.04.2022
4019 Clear 20 1010 49 10000 5.14 70 21:21 24.04.2022
4020 Clear 20 1010 49 10000 5.14 70 20:44 24.04.2022
4021 Clear 20 1010 49 10000 6.17 60 20:20 24.04.2022
4022 Clear 22 1010 40 10000 6.69 60 18:38 24.04.2022
4023 Clear 23 1010 40 10000 7.2 50 17:42 24.04.2022
4024 Clear 24 1010 38 10000 7.2 50 17:20 24.04.2022
4025 Clear 24 1010 38 10000 7.72 40 16:51 24.04.2022
4026 Clear 25 1010 36 10000 6.69 40 16:23 24.04.2022
4027 Clear 25 1010 38 10000 6.17 40 15:39 24.04.2022
4028 Clear 25 1011 36 10000 5.66 50 14:31 24.04.2022
4029 Clear 23 1011 56 10000 2.57 250 13:26 24.04.2022
4030 Clear 22 1011 56 10000 2.06 230 12:46 24.04.2022
4031 Clear 21 1012 60 10000 2.06 230 11:46 24.04.2022
4032 Clear 20 1012 63 10000 1.03 0 10:37 24.04.2022
4033 Clear 19 1012 63 10000 1.54 170 10:37 24.04.2022
4034 Clear 19 1012 63 10000 1.54 210 09:42 24.04.2022
4035 Clouds 17 1012 67 10000 0.51 0 07:41 24.04.2022
4036 Clear 12 1011 82 10000 1.03 80 05:32 24.04.2022
4037 Clear 13 1010 76 10000 0 0 01:51 24.04.2022
4038 Clear 13 1010 76 10000 0 0 00:38 24.04.2022
4039 Clear 15 1010 72 10000 0 0 23:46 23.04.2022
4040 Clear 15 1010 72 10000 1.03 180 23:25 23.04.2022
4041 Clear 16 1010 63 10000 0.51 0 21:56 23.04.2022
4042 Clear 16 1009 67 10000 1.03 0 21:36 23.04.2022
4043 Clear 16 1009 72 10000 3.09 260 20:58 23.04.2022
4044 Clear 16 1008 67 10000 3.09 220 19:54 23.04.2022
4045 Clear 17 1008 72 10000 2.06 0 19:19 23.04.2022
4046 Clear 18 1008 59 10000 2.57 220 18:53 23.04.2022
4047 Clear 19 1007 52 10000 4.12 260 18:28 23.04.2022
4048 Clear 20 1007 49 10000 5.14 270 17:43 23.04.2022
4049 Clear 22 1008 46 10000 3.09 260 16:43 23.04.2022
4050 Clear 22 1007 46 10000 4.63 280 15:32 23.04.2022
4051 Clear 21 1009 52 10000 3.09 220 12:50 23.04.2022
4052 Clear 20 1009 60 10000 2.06 220 10:50 23.04.2022
4053 Clear 19 1009 59 10000 1.54 250 09:38 23.04.2022
4054 Clear 17 1008 72 10000 1.03 110 07:38 23.04.2022
4055 Clear 15 1008 77 10000 1.03 0 03:54 23.04.2022
4056 Clear 16 1009 77 10000 3.6 280 01:32 23.04.2022
4057 Rain 17 1010 67 10000 2.06 80 23:32 22.04.2022
4058 Clear 16 1011 72 10000 2.57 70 22:22 22.04.2022
4059 Clear 16 1011 72 10000 1.54 50 21:44 22.04.2022
4060 Clear 19 1011 55 10000 2.57 50 20:54 22.04.2022
4061 Clear 18 1012 63 10000 2.06 30 20:27 22.04.2022
4062 Clear 21 1012 49 10000 3.6 50 19:21 22.04.2022
4063 Clear 21 1012 49 10000 4.12 50 18:45 22.04.2022
4064 Clear 22 1012 43 10000 3.6 90 17:48 22.04.2022
4065 Clear 23 1013 43 10000 3.09 100 16:46 22.04.2022
4066 Clear 22 1014 40 10000 3.6 80 15:44 22.04.2022
4067 Clear 21 1014 40 10000 2.57 100 15:18 22.04.2022
4068 Clear 20 1015 52 10000 2.06 100 13:54 22.04.2022
4069 Clear 18 1016 55 10000 1.03 0 12:58 22.04.2022
4070 Clear 18 1017 52 10000 1.54 150 11:52 22.04.2022
4071 Clear 18 1017 55 10000 2.57 120 11:22 22.04.2022
4072 Clear 17 1017 55 10000 2.57 110 10:50 22.04.2022
4073 Clear 16 1017 63 10000 2.57 110 10:30 22.04.2022
4074 Clear 16 1017 67 10000 2.06 110 09:50 22.04.2022
4075 Clear 14 1017 72 10000 1.03 0 08:50 22.04.2022
4076 Clear 12 1017 82 10000 0.51 80 07:21 22.04.2022
4077 Clear 11 1017 87 10000 2.06 110 03:47 22.04.2022
4078 Clear 11 1017 76 10000 0 0 00:52 22.04.2022
4079 Clear 11 1017 71 10000 1.03 0 23:25 21.04.2022
4080 Clear 11 1018 66 10000 1.03 80 22:29 21.04.2022
4081 Clear 11 1018 66 10000 0 0 20:43 21.04.2022
4082 Clear 11 1018 66 10000 0 0 20:24 21.04.2022
4083 Clear 12 1017 62 10000 1.54 170 18:44 21.04.2022
4084 Clear 13 1017 62 10000 1.54 170 18:18 21.04.2022
4085 Clear 13 1017 62 10000 2.06 160 16:44 21.04.2022
4086 Clear 14 1018 58 10000 2.06 140 15:22 21.04.2022
4087 Clear 13 1018 67 10000 1.54 160 14:49 21.04.2022
4088 Clouds 13 1018 67 10000 3.09 140 13:23 21.04.2022
4089 Clouds 12 1018 66 10000 3.09 150 12:59 21.04.2022
4090 Clouds 11 1018 71 10000 4.12 130 10:57 21.04.2022
4091 Clouds 10 1018 81 10000 1.03 0 08:57 21.04.2022
4092 Clouds 9 1018 81 10000 1.03 0 07:32 21.04.2022
4093 Clouds 8 1017 87 10000 1.03 300 05:42 21.04.2022
4094 Clouds 9 1016 81 10000 4.63 310 03:32 21.04.2022
4095 Rain 10 1016 66 10000 5.14 320 02:47 21.04.2022
4096 Clouds 12 1015 66 10000 5.14 300 00:47 21.04.2022
4097 Clouds 11 1014 71 10000 1.03 240 23:51 20.04.2022
4098 Clouds 12 1014 54 10000 0.51 0 23:22 20.04.2022
4099 Clouds 11 1013 62 10000 1.03 160 22:50 20.04.2022
4100 Clouds 10 1013 66 10000 0.51 0 22:31 20.04.2022
4101 Clear 11 1013 62 10000 1.54 330 21:29 20.04.2022
4102 Clear 11 1014 66 10000 1.54 310 20:37 20.04.2022
4103 Clear 11 1014 66 10000 1.03 0 19:53 20.04.2022
4104 Clear 13 1013 66 10000 3.09 150 19:22 20.04.2022
4105 Clear 14 1014 44 10000 1.54 130 18:23 20.04.2022
4106 Clear 16 1014 36 10000 1.54 230 16:56 20.04.2022
4107 Clear 16 1014 36 10000 1.54 230 16:37 20.04.2022
4108 Clear 14 1016 51 10000 2.57 240 14:21 20.04.2022
4109 Clear 12 1017 66 10000 3.6 210 11:52 20.04.2022
4110 Clear 11 1018 66 10000 3.09 180 11:24 20.04.2022
4111 Clear 11 1018 71 10000 3.09 170 10:24 20.04.2022
4112 Clouds 10 1018 76 10000 2.57 180 09:25 20.04.2022
4113 Clouds 10 1018 76 10000 4.12 220 08:22 20.04.2022
4114 Clouds 9 1018 81 10000 3.09 210 07:37 20.04.2022
4115 Clouds 4 1017 93 10000 0 0 03:49 20.04.2022
4116 Clouds 5 1017 93 10000 0 0 00:23 20.04.2022
4117 Clouds 5 1017 93 10000 0 0 23:59 19.04.2022
4118 Clouds 6 1016 87 10000 0.51 0 22:28 19.04.2022
4119 Clouds 7 1016 87 10000 0.51 220 21:57 19.04.2022
4120 Clouds 7 1017 87 10000 0 0 21:33 19.04.2022
4121 Clouds 7 1016 87 10000 0.51 330 20:46 19.04.2022
4122 Clouds 7 1016 87 10000 1.03 320 20:26 19.04.2022
4123 Clouds 7 1015 81 10000 2.06 350 19:19 19.04.2022
4124 Clouds 7 1015 81 10000 2.06 350 19:19 19.04.2022
4125 Clouds 8 1015 76 10000 2.06 30 17:50 19.04.2022
4126 Clouds 8 1014 76 10000 3.09 360 16:43 19.04.2022
4127 Clouds 8 1014 76 10000 3.09 10 16:23 19.04.2022
4128 Clouds 8 1014 81 10000 3.09 10 14:51 19.04.2022
4129 Clouds 8 1014 81 10000 3.6 20 14:27 19.04.2022
4130 Rain 7 1014 87 10000 3.6 10 12:51 19.04.2022
4131 Rain 7 1013 87 8000 4.63 10 12:26 19.04.2022
4132 Clouds 7 1013 87 10000 4.63 10 10:47 19.04.2022
4133 Clouds 7 1012 87 10000 5.14 10 09:22 19.04.2022
4134 Clouds 6 1010 93 10000 6.69 20 05:59 19.04.2022
4135 Clouds 7 1010 87 10000 5.14 10 03:37 19.04.2022
4136 Clouds 7 1011 87 10000 7.72 40 00:56 19.04.2022
4137 Clouds 7 1011 87 10000 6.69 30 23:36 18.04.2022
4138 Clouds 7 1012 87 10000 7.72 30 21:37 18.04.2022
4139 Clouds 7 1012 87 10000 6.69 30 21:18 18.04.2022
4140 Clouds 7 1012 87 10000 7.2 30 20:35 18.04.2022
4141 Clouds 7 1012 87 10000 6.69 30 19:54 18.04.2022
4142 Clouds 7 1011 87 10000 7.72 30 18:58 18.04.2022
4143 Clouds 7 1011 87 10000 7.72 30 18:32 18.04.2022
4144 Clouds 7 1011 87 10000 6.69 20 17:36 18.04.2022
4145 Clouds 8 1011 81 10000 8.75 20 17:18 18.04.2022
4146 Clouds 8 1011 81 10000 7.72 20 16:34 18.04.2022
4147 Clouds 8 1010 81 10000 8.23 10 15:18 18.04.2022
4148 Clouds 7 1010 87 10000 10.29 360 13:42 18.04.2022
4149 Clouds 8 1009 87 10000 9.26 10 12:34 18.04.2022
4150 Clouds 8 1008 87 10000 8.75 10 11:35 18.04.2022
4151 Rain 8 1008 93 10000 7.2 10 10:32 18.04.2022
4152 Rain 8 1007 93 3100 7.72 10 09:31 18.04.2022
4153 Clouds 8 1006 93 6000 7.2 20 08:28 18.04.2022
4154 Clouds 9 1005 93 8000 8.75 30 05:51 18.04.2022
4155 Clouds 10 1006 87 10000 7.2 20 01:34 18.04.2022
4156 Rain 10 1007 87 8000 7.2 30 22:43 17.04.2022
4157 Rain 10 1007 87 4000 9.26 30 21:50 17.04.2022
4158 Rain 10 1007 93 8000 7.72 20 21:27 17.04.2022
4159 Rain 10 1008 93 4000 7.2 30 20:50 17.04.2022
4160 Rain 10 1008 93 7000 7.72 40 19:52 17.04.2022
4161 Rain 10 1009 87 10000 9.26 50 18:24 17.04.2022
4162 Clouds 11 1010 82 10000 9.26 50 16:32 17.04.2022
4163 Clouds 11 1010 82 10000 7.2 40 15:28 17.04.2022
4164 Rain 11 1011 82 10000 9.77 40 14:27 17.04.2022
4165 Rain 12 1011 76 10000 10.29 20 13:20 17.04.2022
4166 Rain 12 1011 76 10000 7.72 10 12:29 17.04.2022
4167 Rain 12 1011 76 10000 8.23 10 10:47 17.04.2022
4168 Rain 12 1012 82 10000 8.23 10 10:28 17.04.2022
4169 Rain 12 1012 82 10000 7.72 10 09:37 17.04.2022
4170 Rain 13 1011 67 10000 6.69 10 08:54 17.04.2022
4171 Rain 13 1011 71 10000 6.69 10 08:26 17.04.2022
4172 Rain 14 1010 54 10000 4.63 360 04:52 17.04.2022
4173 Clear 14 1011 58 10000 2.57 10 01:38 17.04.2022
4174 Clear 12 1012 66 10000 1.03 30 23:57 16.04.2022
4175 Clear 14 1013 62 10000 0 0 22:41 16.04.2022
4176 Clear 15 1013 55 10000 1.54 60 21:41 16.04.2022
4177 Clear 15 1013 72 10000 1.03 10 20:35 16.04.2022
4178 Clear 16 1012 72 10000 1.54 250 19:18 16.04.2022
4179 Clear 19 1012 55 10000 1.54 230 18:32 16.04.2022
4180 Clear 19 1013 42 10000 1.03 0 16:41 16.04.2022
4181 Clear 19 1013 45 10000 2.57 230 15:46 16.04.2022
4182 Clear 18 1013 48 10000 1.54 270 14:57 16.04.2022
4183 Clear 16 1014 67 10000 3.09 230 13:58 16.04.2022
4184 Clear 18 1014 52 10000 2.06 230 13:37 16.04.2022
4185 Clear 16 1014 67 10000 3.09 230 13:37 16.04.2022
4186 Clear 17 1015 59 10000 2.06 220 12:27 16.04.2022
4187 Clear 16 1015 63 10000 1.54 240 11:19 16.04.2022
4188 Clear 15 1016 67 10000 2.57 210 09:57 16.04.2022
4189 Clear 14 1015 67 10000 1.03 0 08:59 16.04.2022
4190 Clear 14 1015 67 10000 1.03 0 08:18 16.04.2022
4191 Clear 10 1015 87 10000 1.54 340 06:59 16.04.2022
4192 Clear 10 1015 81 10000 1.03 110 03:36 16.04.2022
4193 Clear 12 1017 66 10000 2.06 360 00:31 16.04.2022
4194 Clear 12 1018 62 10000 3.09 350 23:23 15.04.2022
4195 Clear 12 1018 62 10000 1.54 40 22:36 15.04.2022
4196 Clear 13 1018 58 10000 2.57 20 21:55 15.04.2022
4197 Clear 16 1018 44 10000 3.09 80 21:18 15.04.2022
4198 Clear 17 1018 45 10000 4.12 50 20:24 15.04.2022
4199 Clear 18 1017 42 10000 4.12 50 19:40 15.04.2022
4200 Clear 18 1017 42 10000 4.12 50 18:54 15.04.2022
4201 Clear 19 1018 39 10000 5.66 40 18:25 15.04.2022
4202 Clear 20 1018 40 10000 4.63 50 17:35 15.04.2022
4203 Clear 21 1018 35 10000 3.6 70 16:53 15.04.2022
4204 Clear 20 1019 45 10000 1.54 230 16:19 15.04.2022
4205 Clear 20 1019 42 10000 1.54 240 15:24 15.04.2022
4206 Clear 17 1020 59 10000 3.6 260 13:42 15.04.2022
4207 Clear 17 1021 51 10000 3.09 240 12:43 15.04.2022
4208 Clear 17 1021 48 10000 2.06 230 11:57 15.04.2022
4209 Clear 17 1022 55 10000 1.03 0 11:35 15.04.2022
4210 Clear 16 1022 63 10000 2.06 160 10:45 15.04.2022
4211 Clear 15 1022 55 10000 2.06 160 09:47 15.04.2022
4212 Clear 14 1022 58 10000 2.57 160 09:21 15.04.2022
4213 Clear 13 1022 54 10000 0.51 0 07:44 15.04.2022
4214 Clear 9 1022 71 10000 1.03 60 06:37 15.04.2022
4215 Clear 9 1022 66 10000 1.54 360 03:21 15.04.2022
4216 Clear 13 1023 47 10000 2.06 110 23:32 14.04.2022
4217 Clear 13 1023 38 10000 2.57 50 22:49 14.04.2022
4218 Clear 13 1023 38 10000 3.09 50 22:31 14.04.2022
4219 Clear 13 1023 35 10000 2.57 80 21:59 14.04.2022
4220 Clear 15 1023 31 10000 3.6 70 20:57 14.04.2022
4221 Clear 16 1022 31 10000 2.57 0 19:23 14.04.2022
4222 Clear 15 1022 41 10000 1.03 0 18:29 14.04.2022
4223 Clear 15 1022 41 10000 1.54 230 17:40 14.04.2022
4224 Clear 15 1022 44 10000 2.57 250 16:46 14.04.2022
4225 Clear 16 1022 36 10000 3.09 250 15:26 14.04.2022
4226 Clouds 15 1023 51 10000 2.57 230 13:47 14.04.2022
4227 Clear 14 1023 58 10000 3.09 220 12:57 14.04.2022
4228 Clear 13 1023 67 10000 3.09 220 12:31 14.04.2022
4229 Clear 13 1023 58 10000 4.12 240 11:29 14.04.2022
4230 Clear 13 1023 58 10000 3.6 240 10:53 14.04.2022
4231 Clear 12 1023 62 10000 2.57 240 10:27 14.04.2022
4232 Clear 12 1023 66 10000 2.57 220 09:24 14.04.2022
4233 Clear 9 1022 81 10000 0.51 0 07:33 14.04.2022
4234 Clear 6 1021 81 10000 1.03 0 04:28 14.04.2022
4235 Clear 8 1022 66 10000 1.03 60 23:29 13.04.2022
4236 Clear 10 1022 62 10000 1.54 110 22:23 13.04.2022
4237 Clear 10 1022 40 10000 1.54 120 21:37 13.04.2022
4238 Clear 11 1021 32 10000 0 0 20:23 13.04.2022
4239 Clear 11 1021 35 10000 1.03 0 19:37 13.04.2022
4240 Clear 12 1021 28 10000 1.03 250 18:36 13.04.2022
4241 Clouds 13 1021 41 10000 2.57 250 17:24 13.04.2022
4242 Clouds 13 1021 47 10000 2.57 240 16:41 13.04.2022
4243 Clouds 12 1021 66 10000 3.09 240 15:43 13.04.2022
4244 Clouds 12 1021 62 10000 4.12 220 14:53 13.04.2022
4245 Clouds 12 1022 71 10000 4.12 220 14:30 13.04.2022
4246 Clouds 12 1022 66 10000 4.12 240 13:29 13.04.2022
4247 Clouds 12 1022 66 10000 4.12 230 12:30 13.04.2022
4248 Clouds 11 1022 71 10000 3.09 230 10:58 13.04.2022
4249 Clear 11 1022 66 10000 2.06 130 09:45 13.04.2022
4250 Clear 10 1021 76 10000 2.06 120 08:43 13.04.2022
4251 Clear 8 1021 87 10000 0 0 07:18 13.04.2022
4252 Clear 6 1021 93 10000 0 0 06:46 13.04.2022
4253 Clear 4 1021 93 10000 0.51 340 06:18 13.04.2022
4254 Clear 9 1021 76 10000 3.09 120 00:24 13.04.2022
4255 Clear 9 1021 71 10000 4.12 130 23:46 12.04.2022
4256 Clouds 9 1021 81 10000 3.09 80 22:19 12.04.2022
4257 Clouds 8 1022 76 10000 2.57 360 21:32 12.04.2022
4258 Clouds 9 1021 66 10000 2.57 350 20:42 12.04.2022
4259 Clouds 9 1021 71 10000 5.14 40 19:54 12.04.2022
4260 Clouds 10 1021 71 10000 6.69 70 19:33 12.04.2022
4261 Rain 11 1020 54 10000 2.06 100 18:50 12.04.2022
4262 Clouds 12 1020 58 10000 2.06 220 17:34 12.04.2022
4263 Clouds 11 1020 62 10000 3.09 220 16:25 12.04.2022
4264 Clouds 11 1020 62 10000 3.6 240 15:33 12.04.2022
4265 Clouds 12 1021 62 10000 4.12 250 14:32 12.04.2022
4266 Clouds 12 1021 58 10000 4.12 240 13:38 12.04.2022
4267 Clouds 11 1022 62 10000 4.12 250 12:53 12.04.2022
4268 Clouds 11 1022 62 10000 5.14 230 11:47 12.04.2022
4269 Clouds 12 1022 58 10000 4.12 220 11:24 12.04.2022
4270 Clear 11 1021 58 10000 3.09 330 09:25 12.04.2022
4271 Clear 10 1021 66 10000 2.06 350 08:18 12.04.2022
4272 Clear 7 1020 76 10000 2.06 270 06:33 12.04.2022
4273 Clear 7 1020 76 10000 2.06 270 05:35 12.04.2022
4274 Clear 9 1020 66 10000 2.57 300 00:59 12.04.2022
4275 Clear 9 1019 66 10000 2.57 300 23:19 11.04.2022
4276 Clear 9 1019 66 10000 3.6 310 21:49 11.04.2022
4277 Clear 9 1019 66 10000 2.57 300 21:18 11.04.2022
4278 Clear 9 1018 71 10000 2.06 290 20:30 11.04.2022
4279 Clear 9 1018 71 10000 3.09 320 19:56 11.04.2022
4280 Clear 9 1017 71 10000 3.09 300 19:21 11.04.2022
4281 Clear 9 1017 71 10000 3.6 350 18:48 11.04.2022
4282 Clouds 9 1016 66 10000 6.17 360 17:57 11.04.2022
4283 Clouds 8 1015 76 10000 7.2 350 16:54 11.04.2022
4284 Clouds 8 1015 81 10000 7.2 340 15:58 11.04.2022
4285 Clouds 7 1014 87 10000 7.72 340 14:33 11.04.2022
4286 Clouds 7 1013 81 10000 8.75 350 12:53 11.04.2022
4287 Clouds 8 1012 81 10000 7.2 360 12:35 11.04.2022
4288 Clouds 7 1012 87 10000 10.29 360 11:37 11.04.2022
4289 Clouds 7 1011 87 10000 9.77 350 10:31 11.04.2022
4290 Clouds 7 1010 87 10000 9.77 360 09:20 11.04.2022
4291 Clouds 7 1007 93 10000 7.72 10 06:44 11.04.2022
4292 Clouds 10 1004 93 10000 6.69 10 02:30 11.04.2022
4293 Clouds 14 1005 76 10000 6.17 350 22:38 10.04.2022
4294 Clouds 15 1005 77 10000 5.66 360 21:55 10.04.2022
4295 Clouds 17 1005 67 10000 6.69 10 21:32 10.04.2022
4296 Clear 18 1004 63 10000 0.51 0 20:31 10.04.2022
4297 Clear 18 1004 63 10000 1.03 0 19:45 10.04.2022
4298 Clear 18 1003 59 10000 1.54 160 19:22 10.04.2022
4299 Clear 19 1003 63 10000 2.06 150 18:42 10.04.2022
4300 Clear 19 1003 55 10000 2.57 240 17:54 10.04.2022
4301 Clear 21 1003 49 10000 1.54 230 17:34 10.04.2022
4302 Clear 22 1003 46 10000 4.63 270 16:22 10.04.2022
4303 Clear 23 1004 46 10000 5.66 270 15:19 10.04.2022
4304 Clear 21 1005 49 10000 3.6 250 14:22 10.04.2022
4305 Clear 18 1006 55 10000 4.12 250 12:34 10.04.2022
4306 Clear 18 1006 55 10000 3.09 260 11:46 10.04.2022
4307 Clear 18 1007 55 10000 2.57 250 11:28 10.04.2022
4308 Clear 18 1007 59 10000 3.6 250 10:48 10.04.2022
4309 Clear 17 1007 59 10000 4.63 250 09:55 10.04.2022
4310 Clear 17 1007 63 10000 4.63 250 09:28 10.04.2022
4311 Clear 16 1007 63 10000 3.6 250 08:22 10.04.2022
4312 Clear 15 1007 67 10000 6.17 240 07:21 10.04.2022
4313 Clear 13 1007 76 10000 2.57 260 05:27 10.04.2022
4314 Clear 14 1007 82 10000 1.54 240 02:20 10.04.2022
4315 Clear 15 1007 82 10000 2.06 270 00:25 10.04.2022
4316 Clear 15 1007 77 10000 2.06 270 23:43 09.04.2022
4317 Clear 15 1007 67 10000 3.09 270 22:45 09.04.2022
4318 Clear 15 1007 63 10000 2.06 230 21:34 09.04.2022
4319 Clear 16 1006 55 10000 1.54 240 20:48 09.04.2022
4320 Clear 16 1006 59 10000 0.51 0 20:23 09.04.2022
4321 Clear 16 1006 59 10000 1.03 230 19:41 09.04.2022
4322 Clear 17 1006 59 10000 1.54 0 18:54 09.04.2022
4323 Clear 17 1006 59 10000 2.57 200 18:18 09.04.2022
4324 Clear 21 1006 46 10000 2.57 220 17:34 09.04.2022
4325 Clear 23 1006 35 10000 2.06 260 16:47 09.04.2022
4326 Clear 23 1006 35 10000 2.06 260 15:53 09.04.2022
4327 Clear 22 1006 37 10000 2.06 250 15:28 09.04.2022
4328 Clear 21 1007 43 10000 4.12 260 14:27 09.04.2022
4329 Clear 21 1008 43 10000 3.09 240 13:47 09.04.2022
4330 Clear 19 1008 48 10000 3.09 230 12:59 09.04.2022
4331 Clear 19 1009 52 10000 3.6 260 11:56 09.04.2022
4332 Clear 17 1009 59 10000 4.12 220 10:56 09.04.2022
4333 Clear 16 1010 63 10000 2.57 230 10:19 09.04.2022
4334 Clear 16 1009 59 10000 2.57 220 09:36 09.04.2022
4335 Clear 15 1009 63 10000 2.06 190 08:50 09.04.2022
4336 Clear 10 1010 87 10000 0.51 0 05:58 09.04.2022
4337 Clear 13 1011 71 10000 2.57 280 00:38 09.04.2022
4338 Clear 13 1011 76 10000 2.06 210 23:25 08.04.2022
4339 Clear 14 1011 67 10000 2.57 250 21:57 08.04.2022
4340 Clear 14 1011 67 10000 1.54 260 20:47 08.04.2022
4341 Clear 15 1010 63 10000 2.57 260 19:57 08.04.2022
4342 Clear 15 1010 67 10000 2.57 270 19:18 08.04.2022
4343 Clear 16 1009 63 10000 2.57 250 18:25 08.04.2022
4344 Clear 16 1009 63 10000 3.09 230 17:38 08.04.2022
4345 Clear 16 1009 63 10000 3.09 230 17:19 08.04.2022
4346 Clear 15 1009 72 10000 3.09 240 16:35 08.04.2022
4347 Clear 15 1009 77 10000 3.09 240 15:53 08.04.2022
4348 Clear 16 1009 72 10000 4.12 220 15:23 08.04.2022
4349 Clear 16 1008 72 10000 3.6 240 14:26 08.04.2022
4350 Clouds 15 1009 77 10000 4.12 220 13:41 08.04.2022
4351 Clouds 15 1009 82 10000 4.12 230 13:22 08.04.2022
4352 Clouds 15 1008 77 10000 4.63 240 11:51 08.04.2022
4353 Clouds 13 1007 88 10000 3.09 230 10:31 08.04.2022
4354 Clouds 13 1006 88 10000 3.09 250 09:26 08.04.2022
4355 Clouds 12 1005 87 10000 3.6 230 08:30 08.04.2022
4356 Clouds 11 1004 93 10000 1.03 220 06:47 08.04.2022
4357 Clear 13 1003 82 10000 2.06 300 04:32 08.04.2022
4358 Clouds 12 1002 87 10000 8.23 270 00:33 08.04.2022
4359 Clouds 12 1002 87 10000 8.23 260 23:59 07.04.2022
4360 Clouds 12 1001 87 10000 3.6 290 22:58 07.04.2022
4361 Clouds 12 1001 87 10000 3.6 290 22:37 07.04.2022
4362 Clouds 13 1001 82 10000 4.12 270 22:19 07.04.2022
4363 Clouds 12 1000 87 10000 2.06 270 21:47 07.04.2022
4364 Clouds 12 1000 87 10000 2.06 230 20:57 07.04.2022
4365 Clouds 13 1000 87 10000 2.06 250 20:28 07.04.2022
4366 Rain 14 999 77 10000 3.09 150 17:51 07.04.2022
4367 Rain 16 1000 67 10000 2.06 220 17:24 07.04.2022
4368 Rain 17 1000 67 10000 3.09 280 16:42 07.04.2022
4369 Rain 17 1000 63 10000 8.23 290 16:18 07.04.2022
4370 Clouds 20 1000 42 10000 3.09 100 14:31 07.04.2022
4371 Clouds 18 1002 42 10000 2.57 100 13:41 07.04.2022
4372 Clouds 17 1004 45 10000 3.09 120 12:28 07.04.2022
4373 Clear 16 1006 41 10000 3.6 120 10:57 07.04.2022
4374 Clear 13 1007 47 10000 3.09 120 09:36 07.04.2022
4375 Clear 12 1008 50 10000 2.06 90 08:35 07.04.2022
4376 Clear 6 1009 70 10000 1.54 60 06:29 07.04.2022
4377 Clear 6 1011 61 10000 0 0 02:40 07.04.2022
4378 Clear 6 1012 61 10000 1.03 360 01:27 07.04.2022
4379 Clear 11 1013 37 10000 1.03 60 23:53 06.04.2022
4380 Clear 12 1014 35 10000 3.09 60 22:45 06.04.2022
4381 Clear 12 1014 35 10000 3.6 70 22:24 06.04.2022
4382 Clear 13 1014 38 10000 4.12 70 21:31 06.04.2022
4383 Clear 14 1014 38 10000 4.12 70 20:27 06.04.2022
4384 Clear 15 1014 36 10000 5.14 70 19:53 06.04.2022
4385 Clear 16 1013 36 10000 5.66 70 18:50 06.04.2022
4386 Clear 17 1013 31 10000 5.14 50 17:52 06.04.2022
4387 Clear 18 1013 32 10000 4.63 40 17:28 06.04.2022
4388 Clear 18 1013 32 10000 2.57 0 16:35 06.04.2022
4389 Clear 17 1014 48 10000 2.57 250 15:47 06.04.2022
4390 Clear 16 1014 55 10000 3.09 230 14:23 06.04.2022
4391 Clear 14 1015 72 10000 3.09 240 12:58 06.04.2022
4392 Clear 13 1015 71 7000 3.09 240 11:55 06.04.2022
4393 Clear 13 1016 71 8000 2.06 230 10:45 06.04.2022
4394 Clear 13 1015 76 7000 1.54 0 10:20 06.04.2022
4395 Clear 12 1015 76 7000 1.03 0 09:27 06.04.2022
4396 Clear 11 1015 82 6000 0.51 0 08:30 06.04.2022
4397 Mist 9 1015 87 3100 0 0 07:38 06.04.2022
4398 Mist 4 1013 100 4000 2.06 360 03:37 06.04.2022
4399 Clear 6 1012 93 10000 1.03 0 23:51 05.04.2022
4400 Clear 9 1013 87 10000 2.06 60 22:30 05.04.2022
4401 Clear 10 1012 81 10000 3.09 70 21:19 05.04.2022
4402 Clear 11 1012 82 10000 3.09 50 20:25 05.04.2022
4403 Clear 11 1011 82 10000 2.06 10 19:26 05.04.2022
4404 Clouds 12 1011 76 10000 3.6 10 17:52 05.04.2022
4405 Clouds 13 1012 76 10000 1.54 210 16:51 05.04.2022
4406 Clouds 12 1012 71 10000 0.51 0 15:53 05.04.2022
4407 Clouds 12 1012 66 10000 1.54 130 15:33 05.04.2022
4408 Clouds 12 1013 71 10000 1.03 0 14:27 05.04.2022
4409 Rain 11 1014 76 10000 2.06 80 12:56 05.04.2022
4410 Rain 11 1014 82 10000 2.57 60 11:50 05.04.2022
4411 Rain 11 1014 82 10000 1.54 90 11:32 05.04.2022
4412 Rain 11 1015 76 10000 2.06 50 09:52 05.04.2022
4413 Rain 10 1015 81 10000 2.57 60 08:52 05.04.2022
4414 Rain 10 1016 87 10000 2.57 80 06:52 05.04.2022
4415 Rain 9 1018 93 6000 1.03 0 00:41 05.04.2022
4416 Rain 9 1017 87 10000 3.6 80 22:41 04.04.2022
4417 Rain 9 1017 87 10000 3.6 80 22:19 04.04.2022
4418 Rain 9 1018 76 10000 3.6 60 21:21 04.04.2022
4419 Rain 10 1018 71 10000 4.63 50 20:49 04.04.2022
4420 Rain 10 1018 62 10000 4.12 40 19:45 04.04.2022
4421 Rain 10 1018 57 10000 5.14 30 19:25 04.04.2022
4422 Clear 11 1018 50 10000 5.66 40 18:20 04.04.2022
4423 Clear 13 1018 50 10000 5.14 70 16:36 04.04.2022
4424 Clear 14 1019 51 10000 4.63 70 15:43 04.04.2022
4425 Clear 14 1019 47 10000 3.6 40 15:25 04.04.2022
4426 Clear 14 1019 51 10000 3.6 70 14:46 04.04.2022
4427 Clear 13 1021 54 10000 4.12 50 13:22 04.04.2022
4428 Clouds 12 1022 54 10000 6.17 40 11:55 04.04.2022
4429 Clouds 11 1022 58 10000 6.17 40 11:28 04.04.2022
4430 Clouds 9 1021 66 10000 8.23 50 08:36 04.04.2022
4431 Clouds 8 1017 81 10000 1.03 340 04:18 04.04.2022
4432 Clouds 8 1016 71 10000 0.51 0 00:44 04.04.2022
4433 Clouds 12 1015 50 10000 2.57 300 22:40 03.04.2022
4434 Clouds 13 1015 50 10000 4.63 280 21:45 03.04.2022
4435 Clouds 13 1014 50 10000 7.72 280 20:54 03.04.2022
4436 Clouds 14 1013 44 10000 9.26 280 19:50 03.04.2022
4437 Clouds 15 1012 41 10000 11.83 280 18:32 03.04.2022
4438 Clouds 15 1012 44 10000 10.8 270 17:47 03.04.2022
4439 Clouds 15 1011 51 10000 11.32 270 16:57 03.04.2022
4440 Clouds 15 1011 51 10000 11.32 270 16:39 03.04.2022
4441 Clouds 15 1010 58 10000 9.26 260 14:48 03.04.2022
4442 Clouds 15 1010 58 10000 9.26 270 13:53 03.04.2022
4443 Clouds 14 1010 72 10000 7.72 230 12:42 03.04.2022
4444 Clear 12 1009 76 10000 6.69 240 11:29 03.04.2022
4445 Rain 11 1009 87 8000 6.69 270 09:38 03.04.2022
4446 Clouds 12 1007 76 10000 3.6 270 08:36 03.04.2022
4447 Clouds 12 1007 82 10000 2.57 240 05:38 03.04.2022
4448 Clouds 14 1008 71 10000 4.63 220 02:53 03.04.2022
4449 Clouds 14 1008 62 10000 8.75 220 23:21 02.04.2022
4450 Clouds 14 1007 62 10000 7.72 220 22:18 02.04.2022
4451 Clouds 14 1007 71 10000 5.66 230 21:47 02.04.2022
4452 Clouds 15 1007 67 10000 4.63 240 21:19 02.04.2022
4453 Clouds 15 1007 67 10000 4.12 270 20:29 02.04.2022
4454 Clear 16 1006 59 10000 5.14 280 18:23 02.04.2022
4455 Clear 16 1006 59 10000 5.14 280 17:53 02.04.2022
4456 Clear 18 1006 55 10000 3.6 230 16:30 02.04.2022
4457 Clear 18 1006 52 10000 5.14 260 15:22 02.04.2022
4458 Clear 18 1006 55 10000 5.66 250 14:51 02.04.2022
4459 Clear 17 1007 59 10000 5.14 250 13:56 02.04.2022
4460 Clear 18 1007 55 10000 7.72 240 13:19 02.04.2022
4461 Clear 17 1007 59 10000 9.26 220 11:39 02.04.2022
4462 Clear 15 1007 63 10000 8.23 210 09:31 02.04.2022
4463 Clouds 14 1006 67 10000 3.6 210 06:56 02.04.2022
4464 Clear 16 1005 51 10000 8.23 220 03:55 02.04.2022
4465 Clear 18 1005 36 10000 5.14 250 00:25 02.04.2022
4466 Clear 18 1004 36 10000 5.66 260 23:45 01.04.2022
4467 Clear 18 1004 39 10000 5.14 260 21:55 01.04.2022
4468 Clear 17 1004 42 10000 2.06 260 20:53 01.04.2022
4469 Clear 17 1003 45 10000 3.09 280 20:31 01.04.2022
4470 Clear 15 1003 55 10000 3.09 230 19:38 01.04.2022
4471 Clear 18 1002 42 10000 4.12 220 18:52 01.04.2022
4472 Clear 19 1003 39 10000 3.6 240 17:59 01.04.2022
4473 Clear 22 1003 28 10000 3.6 230 17:35 01.04.2022
4474 Clear 22 1004 30 10000 3.6 250 15:43 01.04.2022
4475 Rain 22 1004 30 10000 2.06 270 14:39 01.04.2022
4476 Rain 21 1005 35 10000 1.03 0 13:35 01.04.2022
4477 Rain 23 1006 31 10000 1.03 0 12:33 01.04.2022
4478 Rain 22 1006 33 10000 2.06 90 11:44 01.04.2022
4479 Clear 19 1006 37 10000 0.51 0 10:19 01.04.2022
4480 Clear 17 1007 45 10000 2.06 150 09:29 01.04.2022
4481 Rain 17 1006 42 10000 5.14 260 06:55 01.04.2022
4482 Clear 15 1007 51 10000 5.66 270 04:53 01.04.2022
4483 Clear 15 1007 51 10000 5.66 270 04:34 01.04.2022
4484 Clear 13 1009 62 10000 1.03 0 01:58 01.04.2022
4485 Clear 13 1010 62 10000 2.06 230 00:44 01.04.2022
4486 Clear 14 1011 67 10000 1.54 220 21:54 31.03.2022
4487 Clear 14 1011 67 10000 1.54 210 21:32 31.03.2022
4488 Clear 16 1011 55 10000 2.57 260 20:30 31.03.2022
4489 Clear 16 1011 58 10000 3.6 250 19:50 31.03.2022
4490 Clear 16 1010 55 10000 2.06 0 18:51 31.03.2022
4491 Clear 16 1010 55 10000 2.57 280 17:50 31.03.2022
4492 Clear 16 1010 51 10000 3.09 270 16:39 31.03.2022
4493 Clear 16 1010 55 10000 3.6 270 15:46 31.03.2022
4494 Clear 16 1011 55 10000 5.14 260 15:20 31.03.2022
4495 Clear 16 1011 51 10000 6.17 260 14:37 31.03.2022
4496 Clear 14 1012 71 10000 2.06 230 12:30 31.03.2022
4497 Clear 15 1013 62 10000 3.6 210 11:28 31.03.2022
4498 Clear 13 1012 71 10000 4.12 210 09:50 31.03.2022
4499 Clear 13 1012 71 10000 2.06 220 08:23 31.03.2022
4500 Clear 11 1012 76 10000 2.06 270 06:21 31.03.2022
4501 Clear 11 1013 82 10000 1.03 140 00:46 31.03.2022
4502 Clear 12 1013 71 10000 1.03 210 23:23 30.03.2022
4503 Clear 12 1012 66 10000 2.06 200 21:41 30.03.2022
4504 Clear 14 1012 58 10000 1.54 230 20:55 30.03.2022
4505 Clear 15 1012 51 10000 2.06 250 20:20 30.03.2022
4506 Clear 15 1012 51 10000 1.03 0 19:36 30.03.2022
4507 Clear 16 1012 48 10000 2.06 260 18:29 30.03.2022
4508 Clear 17 1011 45 10000 2.06 250 17:48 30.03.2022
4509 Clear 17 1012 48 10000 1.54 210 16:57 30.03.2022
4510 Clear 17 1012 48 10000 1.54 220 16:38 30.03.2022
4511 Clear 18 1013 45 10000 3.09 240 15:24 30.03.2022
4512 Clear 17 1014 51 10000 3.09 240 13:44 30.03.2022
4513 Clear 16 1014 55 10000 3.6 230 12:58 30.03.2022
4514 Clear 15 1015 58 10000 4.63 220 11:34 30.03.2022
4515 Clear 15 1015 58 10000 4.63 220 11:34 30.03.2022
4516 Clear 13 1015 67 10000 3.6 220 10:28 30.03.2022
4517 Clear 13 1014 67 10000 3.09 230 09:24 30.03.2022
4518 Clear 12 1014 71 10000 3.6 240 07:33 30.03.2022
4519 Clear 10 1014 76 10000 1.03 250 05:41 30.03.2022
4520 Clear 10 1014 81 10000 2.06 230 03:59 30.03.2022
4521 Clear 9 1014 93 10000 2.57 260 00:42 30.03.2022
4522 Clear 12 1015 76 10000 2.06 280 22:28 29.03.2022
4523 Clear 12 1015 71 10000 1.54 250 21:45 29.03.2022
4524 Clear 12 1015 71 10000 1.03 230 20:53 29.03.2022
4525 Clear 13 1015 62 10000 1.03 0 20:19 29.03.2022
4526 Clear 13 1015 62 10000 1.03 230 18:56 29.03.2022
4527 Clear 14 1015 58 10000 1.54 240 18:21 29.03.2022
4528 Clear 15 1015 51 10000 2.57 250 17:35 29.03.2022
4529 Clear 16 1015 48 10000 3.6 270 16:57 29.03.2022
4530 Clear 17 1015 45 10000 3.6 250 15:57 29.03.2022
4531 Clear 17 1016 45 10000 3.09 250 14:52 29.03.2022
4532 Clear 17 1017 45 10000 4.12 270 13:58 29.03.2022
4533 Clear 15 1018 51 10000 3.09 270 12:51 29.03.2022
4534 Clear 16 1018 51 10000 2.57 230 11:43 29.03.2022
4535 Clouds 12 1019 66 10000 0.51 0 10:30 29.03.2022
4536 Clouds 12 1020 66 10000 1.03 0 09:42 29.03.2022
4537 Clouds 9 1020 81 6000 1.03 220 06:58 29.03.2022
4538 Clear 10 1021 76 10000 1.03 130 03:54 29.03.2022
4539 Clear 9 1023 66 10000 2.06 250 00:35 29.03.2022
4540 Clear 10 1023 66 10000 0 0 23:23 28.03.2022
4541 Clear 11 1023 58 10000 1.03 0 22:52 28.03.2022
4542 Clear 12 1024 54 10000 2.06 280 22:26 28.03.2022
4543 Clear 11 1024 62 10000 1.03 40 20:56 28.03.2022
4544 Clear 11 1024 58 10000 1.03 40 20:21 28.03.2022
4545 Clear 11 1024 58 10000 1.03 180 19:41 28.03.2022
4546 Clear 12 1024 54 10000 1.03 0 18:56 28.03.2022
4547 Clear 12 1024 54 10000 1.03 0 18:36 28.03.2022
4548 Clear 14 1024 58 10000 2.57 190 17:39 28.03.2022
4549 Clear 15 1025 47 10000 2.06 220 16:20 28.03.2022
4550 Clear 16 1027 44 10000 2.06 230 14:29 28.03.2022
4551 Clear 15 1027 47 10000 2.57 240 13:58 28.03.2022
4552 Clear 15 1029 47 10000 2.57 250 12:20 28.03.2022
4553 Clear 15 1029 51 10000 2.06 250 11:23 28.03.2022
4554 Clear 14 1030 62 8000 1.03 0 09:42 28.03.2022
4555 Clear 13 1029 62 7000 0.51 0 09:19 28.03.2022
4556 Clouds 10 1029 76 7000 1.54 360 08:22 28.03.2022
4557 Clouds 6 1029 93 6000 2.06 350 07:28 28.03.2022
4558 Clear 5 1028 93 10000 1.03 20 03:43 28.03.2022
4559 Clear 9 1028 71 10000 1.54 190 23:28 27.03.2022
4560 Clear 9 1027 66 10000 0 0 22:24 27.03.2022
4561 Clear 9 1027 76 10000 0.51 0 21:41 27.03.2022
4562 Clear 9 1027 76 10000 0 0 20:54 27.03.2022
4563 Clear 10 1026 66 10000 1.54 170 19:47 27.03.2022
4564 Clear 11 1026 62 10000 1.54 220 18:55 27.03.2022
4565 Clear 12 1026 58 10000 2.06 230 18:27 27.03.2022
4566 Clear 12 1026 58 10000 2.06 230 18:27 27.03.2022
4567 Clear 13 1026 58 10000 3.09 250 17:38 27.03.2022
4568 Clear 13 1026 54 10000 4.12 260 15:59 27.03.2022
4569 Clear 12 1026 62 10000 4.63 240 14:55 27.03.2022
4570 Clear 12 1027 66 10000 4.12 240 13:54 27.03.2022
4571 Clear 11 1027 66 10000 4.63 240 12:20 27.03.2022
4572 Clear 10 1028 66 10000 5.14 230 10:47 27.03.2022
4573 Clear 8 1028 76 10000 6.17 230 08:37 27.03.2022
4574 Clear 7 1027 81 10000 5.14 230 05:54 27.03.2022
4575 Clear 6 1027 93 10000 2.06 250 00:47 27.03.2022
4576 Clear 6 1028 93 10000 1.54 220 23:34 26.03.2022
4577 Clear 6 1028 93 10000 1.54 180 22:35 26.03.2022
4578 Clear 6 1028 93 10000 1.03 190 21:33 26.03.2022
4579 Clear 5 1028 81 10000 0 0 20:20 26.03.2022
4580 Clear 7 1028 76 10000 2.06 260 19:19 26.03.2022
4581 Clear 7 1028 81 10000 3.09 240 17:47 26.03.2022
4582 Clear 8 1028 76 10000 3.6 250 17:28 26.03.2022
4583 Clear 8 1028 76 10000 4.12 240 16:25 26.03.2022
4584 Clouds 9 1028 71 10000 4.12 250 14:51 26.03.2022
4585 Clouds 9 1029 66 10000 4.63 250 13:52 26.03.2022
4586 Clouds 9 1029 71 10000 5.14 250 12:44 26.03.2022
4587 Clouds 8 1029 76 10000 4.12 230 11:29 26.03.2022
4588 Clouds 8 1029 71 10000 2.06 30 09:23 26.03.2022
4589 Clouds 7 1029 76 10000 3.09 340 08:28 26.03.2022
4590 Clouds 4 1027 93 10000 2.06 330 05:54 26.03.2022
4591 Clouds 5 1026 93 10000 3.09 20 03:59 26.03.2022
4592 Rain 8 1025 61 10000 6.17 20 23:39 25.03.2022
4593 Clouds 9 1023 49 10000 5.66 50 21:28 25.03.2022
4594 Clouds 9 1024 40 10000 5.14 50 20:45 25.03.2022
4595 Clouds 9 1022 40 10000 4.12 60 19:28 25.03.2022
4596 Clouds 9 1022 43 10000 4.63 70 18:46 25.03.2022
4597 Clouds 9 1022 43 10000 4.63 70 18:46 25.03.2022
4598 Clear 11 1021 37 10000 5.66 70 17:35 25.03.2022
4599 Clear 12 1021 37 10000 4.63 50 16:41 25.03.2022
4600 Clear 12 1021 37 10000 4.63 50 16:41 25.03.2022
4601 Clear 13 1020 33 10000 3.6 30 15:52 25.03.2022
4602 Clear 13 1020 41 10000 2.06 250 13:51 25.03.2022
4603 Clear 12 1020 50 10000 3.6 150 12:32 25.03.2022
4604 Clear 11 1020 62 10000 4.12 360 09:52 25.03.2022
4605 Clear 11 1020 58 10000 3.09 340 09:23 25.03.2022
4606 Clear 8 1019 76 10000 4.12 250 07:48 25.03.2022
4607 Clear 8 1019 76 10000 3.6 240 07:23 25.03.2022
4608 Clear 6 1018 70 10000 4.63 230 04:47 25.03.2022
4609 Clear 6 1019 87 10000 2.06 210 00:33 25.03.2022
4610 Clear 6 1020 65 10000 2.06 260 22:30 24.03.2022
4611 Clear 7 1020 57 10000 2.57 270 21:34 24.03.2022
4612 Clear 6 1020 70 10000 1.54 270 19:50 24.03.2022
4613 Clear 7 1020 76 10000 3.09 270 18:54 24.03.2022
4614 Clear 7 1020 65 10000 3.6 250 17:45 24.03.2022
4615 Clear 8 1020 66 10000 4.63 250 16:54 24.03.2022
4616 Clear 9 1020 61 10000 5.66 240 15:19 24.03.2022
4617 Clear 8 1020 66 10000 5.66 250 14:41 24.03.2022
4618 Clear 8 1021 71 10000 5.14 240 13:54 24.03.2022
4619 Clear 9 1021 66 10000 5.14 200 12:42 24.03.2022
4620 Clouds 10 1021 50 10000 3.09 340 11:33 24.03.2022
4621 Clouds 9 1022 61 10000 4.12 30 09:48 24.03.2022
4622 Clouds 7 1022 70 10000 3.6 350 08:40 24.03.2022
4623 Clouds 5 1021 87 10000 1.54 350 06:44 24.03.2022
4624 Clouds 3 1021 87 10000 2.57 10 01:43 24.03.2022
4625 Clouds 3 1023 81 10000 2.06 360 22:37 23.03.2022
4626 Clouds 5 1023 70 10000 3.6 20 21:25 23.03.2022
4627 Clouds 5 1023 70 10000 3.6 20 21:25 23.03.2022
4628 Clouds 5 1023 75 10000 4.12 20 20:47 23.03.2022
4629 Clouds 5 1023 81 10000 4.63 20 19:43 23.03.2022
4630 Clouds 5 1023 81 10000 4.63 20 19:43 23.03.2022
4631 Clouds 7 1023 65 10000 6.17 40 18:22 23.03.2022
4632 Clouds 7 1023 65 10000 5.66 40 17:36 23.03.2022
4633 Clouds 7 1023 70 10000 7.72 50 16:20 23.03.2022
4634 Clouds 7 1023 70 10000 8.23 30 14:50 23.03.2022
4635 Clouds 9 1023 53 10000 8.23 40 13:51 23.03.2022
4636 Clouds 8 1023 66 10000 8.23 30 11:52 23.03.2022
4637 Clouds 7 1023 76 10000 8.75 30 09:38 23.03.2022
4638 Clouds 6 1023 87 10000 6.69 30 06:40 23.03.2022
4639 Clouds 6 1023 81 10000 4.12 40 03:58 23.03.2022
4640 Clouds 5 1024 81 10000 5.14 40 00:29 23.03.2022
4641 Clouds 6 1025 75 10000 6.17 50 22:26 22.03.2022
4642 Clouds 6 1025 75 10000 5.14 50 21:29 22.03.2022
4643 Clouds 6 1024 75 10000 6.17 50 20:39 22.03.2022
4644 Clouds 5 1024 81 10000 6.17 40 19:31 22.03.2022
4645 Clouds 6 1024 70 10000 6.17 50 18:57 22.03.2022
4646 Clouds 6 1024 70 10000 7.72 60 17:58 22.03.2022
4647 Clouds 7 1023 65 10000 8.23 70 17:25 22.03.2022
4648 Clouds 6 1022 81 10000 1.03 0 15:54 22.03.2022
4649 Clouds 6 1022 81 10000 2.57 220 15:22 22.03.2022
4650 Clouds 6 1022 70 10000 1.03 0 14:46 22.03.2022
4651 Clouds 5 1022 81 10000 2.57 340 14:25 22.03.2022
4652 Clouds 4 1023 87 10000 3.09 150 12:46 22.03.2022
4653 Rain 5 1023 81 8000 3.09 190 11:36 22.03.2022
4654 Rain 6 1024 75 10000 2.57 190 10:35 22.03.2022
4655 Clear 5 1025 70 10000 3.6 40 07:57 22.03.2022
4656 Clear 4 1026 70 10000 3.09 30 05:20 22.03.2022
4657 Clear 4 1026 65 10000 5.14 30 03:41 22.03.2022
4658 Clear 5 1028 65 10000 4.63 40 23:49 21.03.2022
4659 Clouds 5 1029 65 10000 4.63 40 21:58 21.03.2022
4660 Clouds 5 1029 65 10000 5.14 50 20:47 21.03.2022
4661 Clouds 5 1029 65 10000 4.63 50 20:27 21.03.2022
4662 Clouds 5 1029 60 10000 5.66 50 19:57 21.03.2022
4663 Clouds 5 1029 65 10000 6.17 50 19:25 21.03.2022
4664 Clouds 6 1029 61 10000 6.69 50 17:53 21.03.2022
4665 Clouds 7 1029 53 10000 8.75 60 17:18 21.03.2022
4666 Clouds 6 1029 49 10000 9.26 50 16:42 21.03.2022
4667 Clouds 7 1029 49 10000 11.83 50 15:48 21.03.2022
4668 Clouds 7 1030 53 10000 9.26 40 14:56 21.03.2022
4669 Clouds 7 1030 45 10000 10.29 60 13:46 21.03.2022
4670 Clouds 7 1031 49 10000 7.72 40 12:34 21.03.2022
4671 Clouds 7 1031 49 10000 9.26 50 11:45 21.03.2022
4672 Clouds 6 1031 52 10000 4.63 90 10:36 21.03.2022
4673 Clouds 4 1031 52 10000 6.17 70 08:30 21.03.2022
4674 Clouds 4 1031 65 10000 6.17 60 06:38 21.03.2022
4675 Clouds 3 1031 60 10000 3.6 50 02:51 21.03.2022
4676 Clouds 3 1033 60 10000 6.17 50 23:43 20.03.2022
4677 Clouds 4 1033 56 10000 5.14 40 22:44 20.03.2022
4678 Clouds 4 1034 60 10000 6.17 50 21:51 20.03.2022
4679 Clouds 4 1034 56 10000 5.14 50 21:23 20.03.2022
4680 Clouds 4 1034 56 10000 5.66 50 20:43 20.03.2022
4681 Clouds 4 1034 52 10000 7.2 30 19:59 20.03.2022
4682 Clouds 4 1034 52 10000 6.69 40 19:31 20.03.2022
4683 Clouds 4 1034 60 10000 7.72 30 18:22 20.03.2022
4684 Clouds 5 1034 56 10000 8.75 40 17:33 20.03.2022
4685 Clouds 5 1034 52 10000 8.75 40 16:57 20.03.2022
4686 Clouds 5 1034 52 10000 10.29 30 15:34 20.03.2022
4687 Clouds 5 1034 52 10000 9.77 40 14:34 20.03.2022
4688 Clouds 5 1034 52 10000 8.54 31 12:35 20.03.2022
4689 Clouds 5 1034 54 10000 8.21 31 11:23 20.03.2022
4690 Clouds 5 1035 60 10000 9.77 20 09:26 20.03.2022
4691 Clouds 4 1034 70 10000 6.69 30 07:28 20.03.2022
4692 Snow 3 1034 75 10000 6.28 36 05:40 20.03.2022
4693 Clouds 0 1035 100 10000 1.54 340 01:50 20.03.2022
4694 Clouds 1 1035 86 10000 5.66 30 00:39 20.03.2022
4695 Snow 0 1035 100 10000 6.17 10 23:19 19.03.2022
4696 Clouds 0 1036 100 10000 7.2 30 21:27 19.03.2022
4697 Clouds 1 1036 86 10000 6.17 20 20:49 19.03.2022
4698 Clouds 1 1036 86 10000 5.14 50 18:58 19.03.2022
4699 Clouds 1 1036 86 4000 7.72 40 18:23 19.03.2022
4700 Clouds 2 1035 65 10000 6.69 20 17:35 19.03.2022
4701 Clouds 2 1036 80 6000 9.26 50 15:44 19.03.2022
4702 Clouds 1 1036 86 4000 7.72 10 14:44 19.03.2022
4703 Clouds 4 1036 70 10000 7.72 20 13:19 19.03.2022
4704 Clouds 4 1036 56 10000 7.72 30 12:40 19.03.2022
4705 Clouds 3 1036 65 10000 8.23 30 11:54 19.03.2022
4706 Clouds 3 1036 65 10000 8.23 30 11:54 19.03.2022
4707 Clouds 4 1036 60 4000 6.17 30 10:47 19.03.2022
4708 Snow 0 1036 86 10000 4.12 360 07:33 19.03.2022
4709 Snow 0 1036 69 10000 3.09 70 03:49 19.03.2022
4710 Clouds 0 1036 74 10000 5.66 10 02:29 19.03.2022
4711 Snow -1 1037 80 8000 4.12 20 23:45 18.03.2022
4712 Clouds -1 1037 86 7000 6.17 20 22:28 18.03.2022
4713 Clouds -1 1038 93 2000 5.66 360 21:45 18.03.2022
4714 Clouds 0 1037 80 2000 7.2 30 19:52 18.03.2022
4715 Clouds 0 1037 80 2000 7.2 30 19:52 18.03.2022
4716 Snow 0 1037 80 10000 7.72 30 19:21 18.03.2022
4717 Snow 0 1037 86 2000 9.26 20 17:52 18.03.2022
4718 Snow 2 1036 60 8000 9.26 10 16:49 18.03.2022
4719 Clouds 4 1036 60 10000 10.8 20 15:26 18.03.2022
4720 Snow 3 1036 70 7000 11.32 20 14:22 18.03.2022
4721 Clouds 3 1036 75 10000 8.75 20 12:36 18.03.2022
4722 Clouds 2 1036 87 10000 6.69 20 10:53 18.03.2022
4723 Snow 0 1036 100 2000 4.63 340 09:30 18.03.2022
4724 Snow 0 1035 93 8000 4.63 360 08:32 18.03.2022
4725 Snow 1 1035 80 6000 4.63 350 06:35 18.03.2022
4726 Clouds 1 1034 80 10000 3.6 40 02:57 18.03.2022
4727 Clouds 2 1034 75 10000 2.06 10 00:23 18.03.2022
4728 Clouds 2 1034 69 10000 5.66 50 23:24 17.03.2022
4729 Clouds 2 1033 69 10000 6.17 40 22:24 17.03.2022
4730 Clouds 3 1033 65 10000 7.2 40 21:48 17.03.2022
4731 Clouds 3 1033 65 10000 8.23 30 21:23 17.03.2022
4732 Clouds 3 1033 65 10000 7.72 30 20:44 17.03.2022
4733 Clouds 4 1032 65 10000 8.75 40 19:48 17.03.2022
4734 Clouds 3 1032 75 10000 8.23 50 18:59 17.03.2022
4735 Clouds 3 1032 75 10000 8.23 50 18:39 17.03.2022
4736 Clouds 4 1030 81 10000 10.29 40 16:49 17.03.2022
4737 Clouds 4 1029 87 10000 10.29 40 15:44 17.03.2022
4738 Clouds 4 1029 87 10000 9.26 40 15:24 17.03.2022
4739 Clouds 6 1028 75 10000 9.77 30 14:28 17.03.2022
4740 Clouds 10 1027 57 10000 7.72 30 12:54 17.03.2022
4741 Clouds 9 1027 61 10000 6.69 20 12:23 17.03.2022
4742 Clouds 10 1027 62 10000 6.69 20 11:27 17.03.2022
4743 Clouds 9 1027 66 10000 4.12 20 10:29 17.03.2022
4744 Mist 6 1026 87 4000 2.06 50 08:34 17.03.2022
4745 Mist 6 1025 87 4000 1.54 80 07:33 17.03.2022
4746 Mist 5 1024 93 4800 2.06 360 05:47 17.03.2022
4747 Rain 6 1023 81 10000 1.54 250 01:23 17.03.2022
4748 Rain 6 1024 87 10000 3.6 220 23:46 16.03.2022
4749 Clouds 6 1023 70 10000 1.03 200 22:45 16.03.2022
4750 Rain 6 1023 70 10000 0 0 22:21 16.03.2022
4751 Clouds 6 1023 70 10000 1.03 210 21:37 16.03.2022
4752 Clear 5 1023 75 10000 1.03 150 19:41 16.03.2022
4753 Clear 5 1023 75 10000 1.03 150 19:20 16.03.2022
4754 Clear 6 1023 70 10000 1.03 0 18:36 16.03.2022
4755 Clear 6 1023 70 10000 1.03 0 17:41 16.03.2022
4756 Clear 7 1024 70 10000 2.06 160 16:56 16.03.2022
4757 Clear 7 1024 65 10000 3.09 220 15:55 16.03.2022
4758 Clear 7 1025 61 10000 3.6 220 14:25 16.03.2022
4759 Clear 7 1026 61 10000 4.12 220 13:27 16.03.2022
4760 Clear 7 1027 65 10000 4.12 210 11:54 16.03.2022
4761 Clear 7 1027 65 10000 4.63 220 11:20 16.03.2022
4762 Clear 7 1028 65 10000 3.09 200 10:22 16.03.2022
4763 Clear 6 1028 70 10000 2.57 210 08:52 16.03.2022
4764 Clear 4 1028 81 10000 3.6 210 05:58 16.03.2022
4765 Clear 4 1031 75 10000 3.09 230 01:35 16.03.2022
4766 Clear 5 1032 70 10000 2.06 260 22:38 15.03.2022
4767 Clear 5 1032 60 10000 2.06 210 21:52 15.03.2022
4768 Clear 5 1033 65 10000 2.06 210 20:18 15.03.2022
4769 Clear 5 1033 70 10000 2.06 220 18:54 15.03.2022
4770 Clear 6 1034 65 10000 3.09 240 16:57 15.03.2022
4771 Clear 7 1034 61 10000 2.57 240 16:28 15.03.2022
4772 Clouds 7 1034 61 10000 4.12 0 14:58 15.03.2022
4773 Clouds 7 1034 61 10000 4.12 250 14:39 15.03.2022
4774 Clouds 7 1035 65 10000 4.12 230 13:28 15.03.2022
4775 Clouds 6 1035 65 10000 1.54 250 12:21 15.03.2022
4776 Clouds 6 1036 70 10000 2.06 200 11:29 15.03.2022
4777 Clouds 5 1036 75 10000 2.57 350 09:40 15.03.2022
4778 Clouds 4 1036 87 10000 3.09 350 08:42 15.03.2022
4779 Clouds 4 1036 75 10000 1.03 0 07:50 15.03.2022
4780 Clouds 0 1036 86 10000 1.54 320 06:54 15.03.2022
4781 Clouds 2 1036 93 10000 2.06 340 02:59 15.03.2022
4782 Clouds 2 1036 87 10000 2.06 350 23:40 14.03.2022
4783 Clouds 2 1036 87 10000 2.06 350 23:21 14.03.2022
4784 Clouds 0 1036 93 10000 3.09 350 22:26 14.03.2022
4785 Clouds 2 1036 87 10000 2.57 20 21:26 14.03.2022
4786 Clouds 3 1036 81 10000 3.09 10 20:41 14.03.2022
4787 Clouds 4 1036 75 10000 3.6 30 20:19 14.03.2022
4788 Clouds 4 1036 75 10000 3.09 30 18:42 14.03.2022
4789 Clouds 4 1035 81 10000 2.57 30 17:54 14.03.2022
4790 Clouds 4 1035 81 10000 4.63 70 16:58 14.03.2022
4791 Clouds 5 1034 70 10000 4.63 10 15:37 14.03.2022
4792 Clouds 5 1034 70 10000 4.63 10 14:40 14.03.2022
4793 Clouds 2 1035 93 10000 6.69 350 12:22 14.03.2022
4794 Clouds 5 1035 56 10000 2.06 290 10:51 14.03.2022
4795 Clouds 3 1035 75 10000 1.03 20 09:44 14.03.2022
4796 Clouds 3 1035 56 1100 3.09 70 09:21 14.03.2022
4797 Clouds 3 1034 60 10000 1.54 110 08:55 14.03.2022
4798 Clear 1 1033 80 10000 1.54 70 07:28 14.03.2022
4799 Clear -1 1033 86 10000 0.51 30 05:44 14.03.2022
4800 Clear -4 1032 100 10000 2.06 350 01:52 14.03.2022
4801 Clear -4 1032 100 10000 2.06 360 01:24 14.03.2022
4802 Clear -1 1031 93 10000 2.06 50 22:43 13.03.2022
4803 Clear -1 1031 93 10000 1.03 40 21:29 13.03.2022
4804 Clear -1 1031 93 10000 0.51 50 20:55 13.03.2022
4805 Clear -1 1031 93 10000 1.03 100 20:30 13.03.2022
4806 Clear 0 1031 93 10000 1.03 120 19:49 13.03.2022
4807 Clear 0 1030 86 10000 1.03 0 19:27 13.03.2022
4808 Clear 0 1030 86 10000 1.03 130 18:59 13.03.2022
4809 Clear 1 1030 86 10000 0 0 18:31 13.03.2022
4810 Clear 2 1030 75 10000 1.03 0 17:40 13.03.2022
4811 Clouds 4 1029 65 10000 1.03 0 16:57 13.03.2022
4812 Clouds 3 1029 75 10000 1.03 0 16:29 13.03.2022
4813 Clouds 3 1029 75 10000 2.06 150 15:44 13.03.2022
4814 Clouds 3 1029 81 10000 2.57 130 14:51 13.03.2022
4815 Rain 4 1029 70 10000 2.06 210 13:33 13.03.2022
4816 Clouds 3 1029 81 10000 1.03 0 12:37 13.03.2022
4817 Clouds 4 1029 75 10000 1.54 140 11:51 13.03.2022
4818 Clouds 3 1029 87 10000 1.03 110 11:31 13.03.2022
4819 Clouds 2 1029 93 7000 2.06 100 10:46 13.03.2022
4820 Snow 1 1029 100 7000 0.51 0 09:53 13.03.2022
4821 Snow 1 1029 100 1600 1.54 360 09:29 13.03.2022
4822 Snow 0 1029 100 10000 1.54 310 08:40 13.03.2022
4823 Snow 0 1028 100 1200 3.09 70 07:40 13.03.2022
4824 Snow -1 1026 93 10000 5.66 40 05:40 13.03.2022
4825 Clouds -1 1026 93 6000 6.69 30 02:27 13.03.2022
4826 Snow 0 1026 86 900 6.69 340 23:31 12.03.2022
4827 Snow -1 1026 93 3000 2.57 290 21:49 12.03.2022
4828 Snow -2 1026 100 700 6.69 310 20:29 12.03.2022
4829 Snow -2 1026 93 500 7.2 290 19:47 12.03.2022
4830 Snow -2 1027 93 900 6.69 280 18:47 12.03.2022
4831 Snow -1 1027 74 3500 6.17 290 18:21 12.03.2022
4832 Snow -1 1027 74 10000 5.66 310 17:23 12.03.2022
4833 Snow -1 1027 80 6000 8.75 340 16:23 12.03.2022
4834 Snow 0 1027 64 10000 7.2 330 15:22 12.03.2022
4835 Snow 0 1027 64 10000 8.23 340 13:55 12.03.2022
4836 Clouds 0 1027 74 10000 8.23 330 12:33 12.03.2022
4837 Clouds -1 1028 74 10000 7.2 330 11:55 12.03.2022
4838 Clouds -1 1028 74 10000 7.2 330 11:34 12.03.2022
4839 Snow -1 1028 74 10000 8.23 320 10:43 12.03.2022
4840 Snow -2 1028 74 10000 8.23 330 09:44 12.03.2022
4841 Snow -3 1027 80 10000 6.69 340 08:41 12.03.2022
4842 Clouds -4 1027 80 10000 6.17 330 06:44 12.03.2022
4843 Clouds -2 1027 80 10000 4.63 330 01:44 12.03.2022
4844 Clouds -2 1027 86 10000 2.06 290 23:46 11.03.2022
4845 Clouds -4 1027 80 10000 2.06 360 22:36 11.03.2022
4846 Snow -3 1027 93 6000 3.6 50 21:24 11.03.2022
4847 Snow -3 1027 100 1600 6.17 350 20:48 11.03.2022
4848 Clouds -2 1027 93 4000 4.12 360 20:26 11.03.2022
4849 Clouds -2 1027 93 2000 4.12 10 19:35 11.03.2022
4850 Clouds -1 1026 74 10000 4.12 10 18:33 11.03.2022
4851 Snow -2 1026 93 6000 5.14 360 17:26 11.03.2022
4852 Clouds -2 1026 93 6000 6.69 10 16:25 11.03.2022
4853 Clouds -1 1025 80 10000 8.23 360 15:36 11.03.2022
4854 Clouds -1 1024 74 10000 9.77 360 13:45 11.03.2022
4855 Clouds 0 1024 64 10000 10.8 350 12:41 11.03.2022
4856 Clouds -1 1024 80 10000 11.32 360 12:19 11.03.2022
4857 Snow -1 1023 86 7000 10.8 360 10:53 11.03.2022
4858 Snow -1 1022 93 2000 11.32 360 09:35 11.03.2022
4859 Snow -1 1021 93 1700 6.17 10 08:28 11.03.2022
4860 Snow -1 1021 100 1700 6.17 10 07:48 11.03.2022
4861 Snow -1 1021 100 350 5.66 360 06:42 11.03.2022
4862 Snow -1 1021 93 400 7.72 10 04:40 11.03.2022
4863 Clouds 0 1021 80 10000 4.63 20 01:48 11.03.2022
4864 Clouds 0 1021 86 2000 8.23 20 22:33 10.03.2022
4865 Clouds 1 1020 69 10000 8.75 30 21:54 10.03.2022
4866 Snow 0 1021 86 6000 11.32 20 21:25 10.03.2022
4867 Snow 1 1020 80 8000 6.17 20 20:36 10.03.2022
4868 Clouds 2 1019 75 8000 8.75 30 19:20 10.03.2022
4869 Clouds 1 1019 86 10000 8.23 20 17:51 10.03.2022
4870 Clouds 2 1018 80 10000 6.69 10 16:52 10.03.2022
4871 Clouds 0 1017 100 4000 7.72 20 15:29 10.03.2022
4872 Clouds 1 1017 93 2000 8.23 20 13:45 10.03.2022
4873 Clouds 1 1017 93 8000 7.2 30 12:41 10.03.2022
4874 Snow 2 1016 80 2000 7.72 40 11:28 10.03.2022
4875 Snow 2 1016 81 6000 6.17 30 09:42 10.03.2022
4876 Clouds 1 1016 93 2000 5.14 40 07:48 10.03.2022
4877 Snow 0 1016 86 6000 5.66 20 05:30 10.03.2022
4878 Clouds 0 1016 93 10000 5.66 360 02:33 10.03.2022
4879 Clouds 3 1017 60 10000 6.69 40 23:32 09.03.2022
4880 Clouds 4 1017 56 10000 6.17 30 22:22 09.03.2022
4881 Clouds 4 1017 52 10000 7.72 40 21:43 09.03.2022
4882 Clouds 4 1017 60 10000 8.23 40 20:36 09.03.2022
4883 Clouds 4 1017 65 10000 8.23 40 18:41 09.03.2022
4884 Clouds 3 1016 81 10000 6.69 10 17:28 09.03.2022
4885 Clouds 4 1016 70 10000 8.23 50 16:36 09.03.2022
4886 Clouds 5 1015 49 10000 8.23 30 15:32 09.03.2022
4887 Clouds 5 1015 70 10000 9.26 50 13:58 09.03.2022
4888 Clouds 6 1015 61 10000 8.23 30 12:59 09.03.2022
4889 Clouds 6 1016 61 10000 8.23 30 12:19 09.03.2022
4890 Clouds 5 1015 70 10000 7.72 10 11:36 09.03.2022
4891 Clouds 6 1015 65 10000 7.2 30 10:39 09.03.2022
4892 Clouds 5 1015 56 10000 6.69 60 08:59 09.03.2022
4893 Clouds 5 1015 65 10000 5.14 40 08:25 09.03.2022
4894 Clouds 3 1015 75 10000 5.14 30 04:47 09.03.2022
4895 Clouds 4 1015 87 10000 4.12 70 00:52 09.03.2022
4896 Clouds 4 1015 87 10000 5.66 30 23:18 08.03.2022
4897 Clouds 4 1015 87 10000 4.63 30 22:44 08.03.2022
4898 Clouds 4 1015 87 10000 4.12 20 21:26 08.03.2022
4899 Clouds 4 1015 87 8000 5.14 60 20:49 08.03.2022
4900 Rain 4 1015 87 10000 6.69 20 19:53 08.03.2022
4901 Clouds 5 1015 81 10000 5.66 50 18:44 08.03.2022
4902 Rain 5 1014 81 10000 6.69 50 17:40 08.03.2022
4903 Clouds 5 1013 81 10000 7.72 50 16:29 08.03.2022
4904 Rain 5 1013 87 10000 8.75 50 14:21 08.03.2022
4905 Rain 5 1013 87 10000 6.17 40 12:44 08.03.2022
4906 Rain 5 1013 93 10000 6.69 40 11:45 08.03.2022
4907 Clouds 5 1013 87 10000 7.2 50 10:55 08.03.2022
4908 Rain 5 1014 87 10000 5.66 50 10:19 08.03.2022
4909 Rain 5 1014 93 6000 2.57 80 07:33 08.03.2022
4910 Clouds 4 1015 87 10000 3.6 20 05:43 08.03.2022
4911 Clouds 4 1015 87 10000 5.66 340 23:52 07.03.2022
4912 Clouds 4 1015 87 10000 5.14 350 22:23 07.03.2022
4913 Clouds 5 1015 81 10000 6.17 360 21:33 07.03.2022
4914 Clouds 5 1015 81 10000 5.14 360 20:49 07.03.2022
4915 Clouds 5 1014 81 10000 6.17 360 20:20 07.03.2022
4916 Clouds 5 1014 81 10000 6.17 360 19:33 07.03.2022
4917 Clouds 5 1014 81 10000 6.17 350 18:44 07.03.2022
4918 Clouds 5 1014 81 10000 7.2 350 17:50 07.03.2022
4919 Clouds 6 1013 75 10000 6.17 360 16:56 07.03.2022
4920 Clouds 6 1013 81 10000 6.69 360 15:59 07.03.2022
4921 Clouds 6 1012 81 10000 5.66 10 13:52 07.03.2022
4922 Clouds 6 1012 81 10000 5.66 10 13:52 07.03.2022
4923 Clouds 7 1013 76 10000 5.66 10 12:28 07.03.2022
4924 Clouds 6 1013 87 10000 6.69 20 10:39 07.03.2022
4925 Clouds 5 1013 93 10000 6.69 10 08:57 07.03.2022
4926 Clouds 6 1012 93 10000 4.63 360 04:51 07.03.2022
4927 Rain 6 1012 93 10000 4.12 50 00:23 07.03.2022
4928 Rain 7 1012 81 10000 5.14 60 23:35 06.03.2022
4929 Rain 7 1012 87 10000 5.66 60 22:52 06.03.2022
4930 Rain 6 1012 87 10000 8.75 70 21:58 06.03.2022
4931 Rain 6 1013 87 10000 7.2 60 20:49 06.03.2022
4932 Rain 7 1013 81 10000 6.69 70 20:22 06.03.2022
4933 Rain 7 1013 76 10000 8.75 70 18:56 06.03.2022
4934 Clouds 7 1014 76 10000 8.75 70 18:23 06.03.2022
4935 Clouds 7 1014 76 10000 8.75 70 17:21 06.03.2022
4936 Clouds 7 1014 76 10000 9.26 60 16:41 06.03.2022
4937 Clouds 8 1014 71 10000 9.26 60 15:52 06.03.2022
4938 Clouds 8 1014 71 10000 9.77 60 14:49 06.03.2022
4939 Clouds 8 1014 71 10000 9.77 60 14:49 06.03.2022
4940 Clouds 8 1014 71 10000 10.29 60 14:31 06.03.2022
4941 Clouds 9 1014 66 10000 9.26 50 13:29 06.03.2022
4942 Clouds 8 1015 71 10000 10.29 60 12:35 06.03.2022
4943 Rain 8 1015 76 10000 9.26 70 10:59 06.03.2022
4944 Rain 7 1016 76 10000 8.23 70 10:22 06.03.2022
4945 Clouds 7 1016 70 10000 9.26 70 08:29 06.03.2022
4946 Clouds 7 1016 70 10000 9.26 70 08:29 06.03.2022
4947 Rain 7 1016 70 10000 9.26 70 08:29 06.03.2022
4948 Clouds 7 1016 70 10000 9.26 70 08:29 06.03.2022
4949 Rain 7 1016 70 10000 8.23 70 07:34 06.03.2022
4950 Rain 7 1015 70 10000 8.75 70 05:32 06.03.2022
4951 Clouds 7 1016 70 10000 9.26 70 00:51 06.03.2022
4952 Clouds 7 1016 76 10000 9.77 60 00:30 06.03.2022
4953 Clouds 7 1016 76 10000 8.75 60 23:21 05.03.2022
4954 Clouds 7 1017 76 10000 8.23 60 22:47 05.03.2022
4955 Clouds 7 1017 76 10000 7.72 60 21:46 05.03.2022
4956 Clouds 7 1016 76 10000 6.17 60 21:21 05.03.2022
4957 Clouds 8 1016 61 10000 4.63 60 19:26 05.03.2022
4958 Clouds 9 1016 49 10000 5.14 60 18:53 05.03.2022
4959 Clouds 9 1016 53 10000 5.66 70 17:53 05.03.2022
4960 Clouds 10 1016 53 10000 5.14 80 16:32 05.03.2022
4961 Clouds 10 1016 57 10000 4.63 100 15:31 05.03.2022
4962 Rain 10 1016 57 10000 3.6 110 14:47 05.03.2022
4963 Rain 10 1016 57 10000 3.6 130 14:29 05.03.2022
4964 Rain 10 1016 53 10000 2.57 140 13:21 05.03.2022
4965 Rain 10 1017 53 10000 2.06 100 11:48 05.03.2022
4966 Rain 9 1017 61 10000 2.06 120 11:18 05.03.2022
4967 Clouds 9 1017 57 10000 1.54 140 09:59 05.03.2022
4968 Clouds 8 1017 61 10000 2.57 110 08:59 05.03.2022
4969 Clouds 7 1017 76 10000 2.06 90 07:37 05.03.2022
4970 Clouds 6 1016 81 10000 2.06 100 05:42 05.03.2022
4971 Clouds 4 1016 81 10000 0.51 30 02:20 05.03.2022
4972 Clouds 5 1016 70 10000 1.03 160 23:37 04.03.2022
4973 Clouds 6 1016 65 10000 0 0 22:42 04.03.2022
4974 Clouds 6 1016 70 10000 1.03 60 21:48 04.03.2022
4975 Clear 7 1016 61 10000 1.54 140 20:52 04.03.2022
4976 Clear 7 1016 65 10000 1.54 120 20:22 04.03.2022
4977 Clear 7 1016 57 10000 1.03 0 19:35 04.03.2022
4978 Clear 7 1016 57 10000 0 0 18:43 04.03.2022
4979 Clear 7 1016 57 10000 1.03 250 17:31 04.03.2022
4980 Clear 8 1015 49 10000 1.03 260 16:43 04.03.2022
4981 Clear 9 1015 53 10000 2.06 230 15:28 04.03.2022
4982 Clear 9 1016 53 10000 3.6 220 14:19 04.03.2022
4983 Clear 8 1016 57 10000 3.6 220 13:24 04.03.2022
4984 Clear 9 1017 53 10000 5.14 220 11:40 04.03.2022
4985 Clear 9 1017 53 10000 5.66 210 10:42 04.03.2022
4986 Clouds 9 1017 53 10000 5.14 200 09:40 04.03.2022
4987 Clear 7 1017 65 10000 5.14 200 08:34 04.03.2022
4988 Clear 6 1017 70 10000 5.14 210 07:23 04.03.2022
4989 Clouds 5 1016 75 10000 4.63 230 03:50 04.03.2022
4990 Clouds 5 1016 70 10000 3.09 220 00:24 04.03.2022
4991 Clouds 6 1017 70 10000 2.06 300 22:21 03.03.2022
4992 Rain 6 1017 65 10000 3.6 310 21:40 03.03.2022
4993 Rain 6 1016 65 10000 5.66 220 21:21 03.03.2022
4994 Clouds 5 1016 75 10000 2.06 210 19:50 03.03.2022
4995 Clouds 5 1016 81 10000 2.06 210 18:53 03.03.2022
4996 Clouds 5 1016 81 10000 2.57 210 18:22 03.03.2022
4997 Clouds 5 1015 81 10000 2.57 190 17:28 03.03.2022
4998 Clouds 5 1015 81 10000 2.06 200 16:22 03.03.2022
4999 Clouds 5 1014 75 10000 1.03 0 15:20 03.03.2022
5000 Clouds 6 1014 65 10000 3.09 330 14:42 03.03.2022
5001 Clouds 6 1014 65 10000 5.66 330 13:19 03.03.2022
5002 Clouds 5 1013 75 10000 7.72 340 11:51 03.03.2022
5003 Clouds 4 1013 81 10000 6.69 320 10:42 03.03.2022
5004 Clouds 3 1013 87 10000 6.17 330 08:57 03.03.2022
5005 Rain 3 1013 87 10000 6.17 310 07:45 03.03.2022
5006 Clouds 3 1012 87 10000 4.63 320 06:35 03.03.2022
5007 Clouds 3 1012 81 10000 4.63 350 02:23 03.03.2022
5008 Clouds 4 1013 81 10000 5.14 30 23:31 02.03.2022
5009 Clouds 3 1013 87 10000 3.09 30 22:52 02.03.2022
5010 Clouds 4 1014 75 9000 4.63 360 21:32 02.03.2022
5011 Clouds 4 1014 75 10000 4.12 360 20:46 02.03.2022
5012 Clouds 4 1014 70 10000 5.14 40 20:24 02.03.2022
5013 Clouds 4 1014 65 10000 4.63 40 19:36 02.03.2022
5014 Clouds 4 1014 65 10000 6.17 50 18:46 02.03.2022
5015 Clouds 4 1015 70 10000 5.14 20 17:59 02.03.2022
5016 Clouds 4 1015 65 10000 4.63 20 17:28 02.03.2022
5017 Clouds 4 1015 65 10000 6.17 20 16:51 02.03.2022
5018 Clouds 6 1015 56 10000 5.14 20 14:48 02.03.2022
5019 Clouds 6 1017 56 10000 3.6 20 13:25 02.03.2022
5020 Clouds 6 1017 61 10000 4.12 20 12:44 02.03.2022
5021 Clouds 6 1018 61 10000 4.12 40 11:51 02.03.2022
5022 Clouds 6 1018 56 10000 4.12 40 11:24 02.03.2022
5023 Clouds 6 1018 56 10000 4.12 40 11:24 02.03.2022
5024 Clouds 5 1019 60 10000 5.14 40 09:46 02.03.2022
5025 Clouds 5 1019 65 10000 5.66 30 09:23 02.03.2022
5026 Clouds 3 1020 75 10000 5.14 360 07:51 02.03.2022
5027 Clouds 2 1021 75 10000 4.12 360 06:54 02.03.2022
5028 Clouds 3 1021 75 10000 5.66 350 02:54 02.03.2022
5029 Clouds 3 1022 81 10000 5.14 10 00:33 02.03.2022
5030 Clouds 3 1022 75 10000 4.63 20 22:50 01.03.2022
5031 Clouds 4 1022 70 10000 5.66 20 22:31 01.03.2022
5032 Clouds 4 1023 75 10000 4.12 10 21:25 01.03.2022
5033 Clouds 4 1023 70 10000 5.66 10 20:32 01.03.2022
5034 Clouds 4 1023 70 10000 6.17 10 19:45 01.03.2022
5035 Clouds 4 1022 70 10000 6.17 20 18:51 01.03.2022
5036 Clouds 4 1022 75 10000 5.14 10 18:21 01.03.2022
5037 Clouds 4 1022 75 10000 5.66 10 17:30 01.03.2022
5038 Clouds 4 1022 70 10000 6.17 10 16:35 01.03.2022
5039 Clouds 4 1022 75 10000 6.17 10 15:42 01.03.2022
5040 Clouds 5 1022 70 10000 6.17 360 14:41 01.03.2022
5041 Clouds 5 1023 70 10000 6.17 360 14:23 01.03.2022
5042 Clouds 5 1023 70 10000 6.69 350 13:25 01.03.2022
5043 Clouds 4 1023 75 10000 6.17 350 12:34 01.03.2022
5044 Clouds 4 1024 81 10000 4.63 330 10:37 01.03.2022
5045 Clouds 4 1023 81 10000 3.6 320 09:18 01.03.2022
5046 Clouds 4 1023 75 10000 3.09 310 07:54 01.03.2022
5047 Clouds 3 1023 75 10000 3.09 340 06:26 01.03.2022
5048 Clouds 3 1023 75 10000 3.09 330 02:44 01.03.2022
5049 Clouds 3 1023 75 10000 5.66 330 00:39 01.03.2022
5050 Clouds 3 1023 81 10000 6.69 340 23:33 28.02.2022
5051 Clouds 4 1023 75 10000 6.17 330 22:24 28.02.2022
5052 Clouds 4 1023 75 10000 6.69 340 21:41 28.02.2022
5053 Clouds 4 1022 75 10000 6.17 350 20:28 28.02.2022
5054 Clouds 4 1022 75 10000 8.23 340 19:41 28.02.2022
5055 Clouds 4 1021 81 10000 6.17 340 18:49 28.02.2022
5056 Clouds 4 1020 87 10000 9.26 340 17:33 28.02.2022
5057 Clouds 4 1020 87 10000 9.26 350 16:53 28.02.2022
5058 Clouds 5 1019 81 10000 9.77 340 15:31 28.02.2022
5059 Clouds 6 1018 81 10000 9.26 350 14:32 28.02.2022
5060 Clouds 6 1018 81 10000 8.23 350 13:48 28.02.2022
5061 Clouds 6 1017 87 10000 10.29 340 12:50 28.02.2022
5062 Clouds 6 1017 87 10000 8.75 330 11:58 28.02.2022
5063 Clouds 6 1017 87 10000 8.23 340 11:18 28.02.2022
5064 Clouds 7 1016 87 10000 7.72 340 10:22 28.02.2022
5065 Clouds 7 1016 87 10000 7.2 340 09:41 28.02.2022
5066 Clouds 7 1016 87 10000 4.63 320 08:48 28.02.2022
5067 Clouds 6 1015 93 10000 3.09 330 07:43 28.02.2022
5068 Clouds 6 1014 93 10000 3.09 340 05:52 28.02.2022
5069 Rain 7 1014 87 10000 3.6 300 04:30 28.02.2022
5070 Rain 7 1014 87 10000 3.6 300 04:30 28.02.2022
5071 Rain 7 1014 87 10000 3.6 300 04:30 28.02.2022
5072 Rain 7 1014 93 10000 3.6 70 00:34 28.02.2022
5073 Rain 7 1015 87 10000 5.66 50 22:38 27.02.2022
5074 Rain 7 1015 87 10000 7.2 60 21:58 27.02.2022
5075 Clouds 7 1015 87 10000 6.69 60 21:36 27.02.2022
5076 Clouds 7 1016 81 10000 7.2 60 20:41 27.02.2022
5077 Rain 7 1017 81 10000 8.23 70 20:18 27.02.2022
5078 Clouds 8 1018 71 10000 7.72 60 19:36 27.02.2022
5079 Clouds 8 1018 71 10000 7.72 60 19:18 27.02.2022
5080 Clouds 8 1019 71 10000 8.75 60 17:57 27.02.2022
5081 Clouds 8 1019 71 10000 10.29 70 17:34 27.02.2022
5082 Rain 8 1019 66 10000 9.77 60 16:22 27.02.2022
5083 Clouds 9 1020 71 10000 8.23 40 14:28 27.02.2022
5084 Clouds 10 1020 62 10000 7.72 60 12:35 27.02.2022
5085 Clouds 9 1022 66 10000 8.23 60 11:36 27.02.2022
5086 Clouds 9 1022 66 10000 6.17 50 10:36 27.02.2022
5087 Clouds 8 1022 71 10000 6.17 60 09:52 27.02.2022
5088 Clouds 8 1022 71 10000 6.69 50 09:21 27.02.2022
5089 Clouds 8 1022 71 10000 7.2 70 08:44 27.02.2022
5090 Clouds 7 1023 76 10000 6.69 60 05:43 27.02.2022
5091 Clouds 7 1022 81 10000 6.69 50 03:26 27.02.2022
5092 Clear 8 1023 76 10000 7.2 60 23:51 26.02.2022
5093 Clear 8 1022 81 10000 6.69 50 22:42 26.02.2022
5094 Clear 8 1022 81 10000 6.17 40 21:27 26.02.2022
5095 Clear 8 1022 76 10000 6.17 40 20:41 26.02.2022
5096 Clear 8 1022 76 10000 5.66 50 19:55 26.02.2022
5097 Clear 8 1022 76 10000 6.17 40 19:33 26.02.2022
5098 Clear 9 1022 66 10000 5.66 40 18:31 26.02.2022
5099 Clear 10 1022 57 10000 5.14 40 17:34 26.02.2022
5100 Clear 10 1021 53 10000 5.66 30 16:38 26.02.2022
5101 Clouds 11 1021 58 10000 3.09 50 15:28 26.02.2022
5102 Clouds 10 1021 62 10000 1.03 0 14:59 26.02.2022
5103 Clouds 10 1021 66 10000 2.06 0 14:41 26.02.2022
5104 Clouds 10 1021 66 10000 2.57 250 13:46 26.02.2022
5105 Clouds 10 1021 71 10000 3.6 240 12:53 26.02.2022
5106 Clear 10 1021 66 10000 2.57 230 11:50 26.02.2022
5107 Clear 10 1021 62 10000 2.57 210 11:25 26.02.2022
5108 Clear 10 1021 62 10000 1.54 200 09:31 26.02.2022
5109 Clear 8 1021 71 10000 1.54 240 08:26 26.02.2022
5110 Clear 6 1020 87 10000 0.51 270 04:23 26.02.2022
5111 Clear 7 1020 76 10000 1.03 240 23:50 25.02.2022
5112 Clouds 7 1020 76 10000 0.51 180 22:31 25.02.2022
5113 Clouds 7 1019 70 10000 1.03 130 21:31 25.02.2022
5114 Clouds 7 1019 70 10000 0.51 0 20:47 25.02.2022
5115 Clouds 7 1019 70 10000 1.03 70 20:25 25.02.2022
5116 Clouds 7 1019 70 10000 2.57 10 17:57 25.02.2022
5117 Clouds 7 1018 70 10000 4.12 10 16:54 25.02.2022
5118 Clouds 8 1018 66 10000 5.14 350 15:55 25.02.2022
5119 Clouds 8 1017 66 10000 5.14 350 15:23 25.02.2022
5120 Clouds 8 1017 66 10000 4.63 360 14:55 25.02.2022
5121 Clouds 8 1017 71 10000 5.14 10 14:24 25.02.2022
5122 Clouds 8 1017 71 10000 5.14 360 13:30 25.02.2022
5123 Clouds 8 1018 76 10000 5.66 360 12:21 25.02.2022
5124 Rain 7 1018 81 10000 6.17 10 11:21 25.02.2022
5125 Clouds 7 1017 87 10000 5.66 360 10:23 25.02.2022
5126 Rain 7 1017 81 10000 6.17 360 09:45 25.02.2022
5127 Rain 7 1017 87 10000 4.63 10 08:22 25.02.2022
5128 Rain 7 1016 81 10000 5.14 10 06:56 25.02.2022
5129 Rain 7 1016 76 10000 7.2 20 05:41 25.02.2022
5130 Rain 7 1016 81 10000 6.69 20 02:46 25.02.2022
5131 Rain 7 1016 76 10000 9.77 20 22:47 24.02.2022
5132 Rain 6 1016 81 10000 10.29 20 21:51 24.02.2022
5133 Rain 6 1017 87 10000 10.8 30 21:30 24.02.2022
5134 Rain 6 1017 87 10000 11.32 20 20:47 24.02.2022
5135 Rain 6 1017 87 10000 10.8 20 19:32 24.02.2022
5136 Rain 6 1017 87 10000 9.26 30 18:21 24.02.2022
5137 Rain 7 1017 81 10000 10.8 30 17:58 24.02.2022
5138 Rain 7 1017 81 10000 9.26 30 17:21 24.02.2022
5139 Rain 7 1017 81 10000 7.72 30 16:28 24.02.2022
5140 Rain 7 1017 81 10000 9.26 30 15:44 24.02.2022
5141 Rain 7 1017 81 10000 8.23 30 14:48 24.02.2022
5142 Rain 7 1017 81 10000 10.29 30 13:59 24.02.2022
5143 Rain 7 1017 81 10000 10.29 30 13:38 24.02.2022
5144 Rain 6 1018 87 8000 7.72 40 11:56 24.02.2022
5145 Rain 6 1019 87 10000 8.75 30 10:34 24.02.2022
5146 Rain 6 1019 87 10000 7.72 30 08:46 24.02.2022
5147 Rain 6 1019 87 10000 7.2 40 08:22 24.02.2022
5148 Clouds 6 1018 87 10000 6.69 30 05:50 24.02.2022
5149 Clouds 7 1020 87 10000 5.66 30 00:32 24.02.2022
5150 Rain 7 1020 87 10000 6.69 20 22:29 23.02.2022
5151 Clouds 7 1020 93 10000 5.66 20 20:52 23.02.2022
5152 Clouds 7 1019 93 7000 6.69 20 20:30 23.02.2022
5153 Clouds 8 1019 93 6000 7.72 20 19:37 23.02.2022
5154 Rain 8 1018 93 6000 5.14 10 18:31 23.02.2022
5155 Clouds 8 1018 93 6000 5.66 20 16:43 23.02.2022
5156 Clouds 9 1016 87 10000 8.23 10 14:34 23.02.2022
5157 Clouds 9 1016 93 6000 7.2 10 12:37 23.02.2022
5158 Rain 8 1016 93 3700 7.2 10 11:23 23.02.2022
5159 Mist 8 1016 93 3500 6.69 10 10:30 23.02.2022
5160 Rain 9 1016 93 7000 6.69 10 08:57 23.02.2022
5161 Clouds 9 1015 93 10000 8.23 10 07:57 23.02.2022
5162 Rain 9 1013 100 10000 4.12 340 03:47 23.02.2022
5163 Clouds 11 1011 93 10000 4.63 10 00:19 23.02.2022
5164 Clouds 11 1011 93 10000 2.06 350 23:35 22.02.2022
5165 Clouds 12 1011 93 6000 2.06 360 22:31 22.02.2022
5166 Rain 12 1010 87 6000 3.09 10 21:48 22.02.2022
5167 Rain 12 1011 94 6000 3.09 290 21:25 22.02.2022
5168 Rain 13 1010 88 7000 0.51 0 20:51 22.02.2022
5169 Rain 12 1009 94 8000 1.03 0 20:29 22.02.2022
5170 Clouds 14 1008 72 8000 1.03 0 19:36 22.02.2022
5171 Rain 14 1008 72 8000 1.03 0 19:18 22.02.2022
5172 Clouds 15 1007 58 10000 2.57 100 17:40 22.02.2022
5173 Clouds 15 1007 58 10000 2.57 100 17:19 22.02.2022
5174 Clouds 16 1006 55 10000 3.6 100 16:36 22.02.2022
5175 Clouds 16 1006 59 10000 2.06 100 15:38 22.02.2022
5176 Clouds 16 1006 59 10000 3.09 110 14:43 22.02.2022
5177 Clouds 16 1007 63 10000 1.54 160 11:54 22.02.2022
5178 Clouds 16 1007 55 10000 2.06 130 10:24 22.02.2022
5179 Clouds 12 1007 76 10000 0.51 0 07:48 22.02.2022
5180 Clouds 12 1007 76 10000 1.54 110 07:25 22.02.2022
5181 Clouds 11 1008 87 10000 2.06 250 02:52 22.02.2022
5182 Clouds 11 1008 82 10000 2.06 220 00:48 22.02.2022
5183 Clouds 12 1009 82 10000 1.54 270 22:38 21.02.2022
5184 Clouds 11 1010 81 10000 0 0 21:25 21.02.2022
5185 Clouds 11 1010 76 10000 1.03 0 20:29 21.02.2022
5186 Clear 12 1010 71 10000 1.54 70 18:41 21.02.2022
5187 Clear 15 1010 58 10000 1.03 0 16:47 21.02.2022
5188 Clear 16 1012 51 10000 2.06 210 14:24 21.02.2022
5189 Clear 16 1012 51 10000 2.06 210 13:59 21.02.2022
5190 Clear 16 1013 55 10000 2.06 170 12:58 21.02.2022
5191 Clear 15 1014 58 10000 2.06 160 12:22 21.02.2022
5192 Clear 15 1015 63 10000 2.06 100 10:45 21.02.2022
5193 Clouds 12 1016 62 10000 3.09 70 08:44 21.02.2022
5194 Clouds 9 1017 87 10000 1.03 10 02:31 21.02.2022
5195 Clouds 10 1017 81 10000 0 0 23:29 20.02.2022
5196 Rain 10 1017 81 10000 1.03 0 22:19 20.02.2022
5197 Clouds 10 1018 76 10000 1.03 0 21:41 20.02.2022
5198 Rain 10 1018 71 10000 0.51 0 20:52 20.02.2022
5199 Rain 10 1017 71 10000 1.03 230 20:22 20.02.2022
5200 Rain 11 1017 62 10000 2.06 250 19:29 20.02.2022
5201 Rain 11 1017 58 10000 1.54 250 18:49 20.02.2022
5202 Rain 10 1017 66 10000 1.54 270 18:30 20.02.2022
5203 Rain 11 1017 62 10000 1.54 260 17:30 20.02.2022
5204 Clear 12 1017 54 10000 3.09 260 15:30 20.02.2022
5205 Clear 12 1017 62 10000 3.09 270 14:39 20.02.2022
5206 Clear 12 1018 62 10000 3.6 250 13:22 20.02.2022
5207 Clear 12 1018 62 10000 3.6 250 13:22 20.02.2022
5208 Clear 12 1018 62 10000 3.6 250 13:22 20.02.2022
5209 Rain 12 1019 62 10000 3.6 260 11:56 20.02.2022
5210 Rain 12 1019 62 10000 3.6 260 11:56 20.02.2022
5211 Rain 12 1019 62 10000 3.6 260 11:56 20.02.2022
5212 Clear 11 1020 66 10000 3.09 250 10:21 20.02.2022
5213 Clear 11 1020 71 10000 2.57 260 09:35 20.02.2022
5214 Clear 8 1020 81 10000 1.54 220 06:30 20.02.2022
5215 Clear 7 1021 87 10000 1.03 0 00:32 20.02.2022
5216 Clear 5 1021 87 10000 0.51 300 23:33 19.02.2022
5217 Clear 4 1021 93 10000 0 0 22:24 19.02.2022
5218 Clear 4 1021 87 10000 0 0 21:47 19.02.2022
5219 Clear 5 1021 93 10000 0 0 20:28 19.02.2022
5220 Clear 6 1021 87 10000 0 0 19:34 19.02.2022
5221 Clear 7 1020 87 10000 0.51 180 18:40 19.02.2022
5222 Clear 7 1021 81 10000 1.03 190 18:40 19.02.2022
5223 Clear 7 1020 87 10000 0 0 17:57 19.02.2022
5224 Clear 9 1020 76 10000 2.06 210 16:47 19.02.2022
5225 Clear 11 1021 57 10000 2.06 210 15:59 19.02.2022
5226 Clear 11 1022 57 10000 2.57 240 14:53 19.02.2022
5227 Clear 10 1022 66 10000 3.09 250 13:57 19.02.2022
5228 Clear 10 1022 76 10000 2.57 190 11:47 19.02.2022
5229 Clear 10 1023 66 10000 2.06 160 10:48 19.02.2022
5230 Clear 8 1023 81 10000 1.54 120 08:56 19.02.2022
5231 Clear 2 1021 100 10000 1.03 70 06:45 19.02.2022
5232 Clear 2 1020 93 10000 2.57 350 00:37 19.02.2022
5233 Clear 5 1019 93 10000 1.54 290 22:24 18.02.2022
5234 Clear 6 1019 81 10000 0 0 21:21 18.02.2022
5235 Clear 7 1018 76 10000 3.09 70 19:56 18.02.2022
5236 Clear 8 1017 71 10000 3.6 60 18:51 18.02.2022
5237 Clear 8 1017 71 10000 5.66 40 18:28 18.02.2022
5238 Clear 8 1016 76 10000 2.57 20 17:56 18.02.2022
5239 Clouds 10 1014 66 10000 3.09 280 15:57 18.02.2022
5240 Thunderstorm 9 1013 71 10000 5.66 30 13:56 18.02.2022
5241 Rain 11 1012 66 10000 4.12 220 13:32 18.02.2022
5242 Clouds 12 1012 58 10000 2.57 240 12:48 18.02.2022
5243 Rain 10 1012 66 10000 1.03 0 11:56 18.02.2022
5244 Rain 10 1012 76 10000 3.6 290 10:42 18.02.2022
5245 Rain 10 1011 87 10000 4.12 290 07:20 18.02.2022
5246 Clouds 10 1010 81 10000 3.6 250 05:43 18.02.2022
5247 Rain 10 1009 76 10000 6.17 240 03:47 18.02.2022
5248 Clear 10 1009 76 10000 3.6 210 21:56 17.02.2022
5249 Clear 11 1009 71 10000 4.63 220 21:27 17.02.2022
5250 Clear 10 1009 76 10000 4.12 210 20:40 17.02.2022
5251 Clear 9 1009 76 10000 1.54 230 19:54 17.02.2022
5252 Clear 9 1010 81 10000 1.54 180 18:57 17.02.2022
5253 Clear 9 1010 81 10000 1.03 0 18:18 17.02.2022
5254 Clear 10 1010 66 10000 1.54 190 16:43 17.02.2022
5255 Clear 12 1011 50 10000 2.06 240 15:50 17.02.2022
5256 Clear 12 1012 54 10000 4.12 270 14:29 17.02.2022
5257 Clear 13 1012 62 10000 4.12 280 13:30 17.02.2022
5258 Clear 12 1013 76 10000 2.06 230 11:36 17.02.2022
5259 Clear 12 1014 66 10000 5.14 270 09:38 17.02.2022
5260 Clear 7 1015 81 10000 2.06 330 06:37 17.02.2022
5261 Clear 4 1017 81 10000 1.03 10 23:23 16.02.2022
5262 Clear 6 1017 70 10000 1.03 90 22:27 16.02.2022
5263 Clear 6 1018 70 10000 1.03 20 20:21 16.02.2022
5264 Clear 10 1018 53 10000 0 0 18:50 16.02.2022
5265 Clear 9 1018 57 10000 0 0 17:54 16.02.2022
5266 Clear 12 1019 46 10000 1.54 100 15:58 16.02.2022
5267 Clear 13 1019 50 10000 1.54 140 15:21 16.02.2022
5268 Clear 13 1020 50 10000 1.54 240 13:38 16.02.2022
5269 Clear 12 1021 47 10000 1.54 200 12:21 16.02.2022
5270 Clear 12 1022 50 10000 2.06 160 11:35 16.02.2022
5271 Clear 10 1023 62 10000 2.06 160 10:34 16.02.2022
5272 Clear 10 1023 62 10000 2.57 150 09:34 16.02.2022
5273 Mist 4 1023 100 4000 2.06 130 06:43 16.02.2022
5274 Mist 3 1024 93 4000 0 0 00:37 16.02.2022
5275 Clear 4 1024 87 10000 0 0 22:34 15.02.2022
5276 Clear 4 1024 87 10000 0 0 21:50 15.02.2022
5277 Clear 4 1024 87 10000 0.51 0 21:29 15.02.2022
5278 Clear 4 1024 93 10000 0 0 20:57 15.02.2022
5279 Clear 5 1024 87 10000 1.03 150 20:19 15.02.2022
5280 Clear 5 1024 87 10000 1.54 170 19:33 15.02.2022
5281 Clear 6 1024 81 10000 1.54 180 18:24 15.02.2022
5282 Clear 6 1024 81 10000 2.06 200 17:52 15.02.2022
5283 Clear 6 1024 81 10000 1.54 190 17:26 15.02.2022
5284 Clear 8 1024 71 10000 2.57 230 15:34 15.02.2022
5285 Clear 9 1024 61 10000 3.6 260 13:29 15.02.2022
5286 Clear 8 1024 71 10000 2.06 250 12:59 15.02.2022
5287 Clouds 8 1025 76 10000 2.57 230 11:41 15.02.2022
5288 Clouds 8 1025 76 10000 2.57 230 11:41 15.02.2022
5289 Clouds 8 1025 76 10000 2.06 230 09:54 15.02.2022
5290 Mist 0 1025 93 5000 1.54 350 07:00 15.02.2022
5291 Clear 0 1025 93 6000 2.06 350 06:19 15.02.2022
5292 Clear 5 1025 75 10000 2.06 40 23:34 14.02.2022
5293 Clouds 5 1025 75 10000 2.06 40 21:55 14.02.2022
5294 Clouds 5 1025 75 10000 2.06 50 20:51 14.02.2022
5295 Clouds 6 1025 70 10000 2.06 50 19:46 14.02.2022
5296 Clear 6 1025 70 10000 3.09 60 19:26 14.02.2022
5297 Clear 6 1025 70 10000 3.6 60 18:23 14.02.2022
5298 Clouds 7 1025 65 10000 3.6 60 17:27 14.02.2022
5299 Clouds 7 1025 65 10000 3.6 30 16:26 14.02.2022
5300 Clouds 8 1024 57 10000 3.09 50 14:43 14.02.2022
5301 Clouds 8 1024 61 10000 3.6 50 13:34 14.02.2022
5302 Clouds 8 1024 61 10000 3.6 20 12:58 14.02.2022
5303 Clouds 8 1025 66 10000 4.12 40 11:56 14.02.2022
5304 Clouds 8 1025 61 10000 4.63 40 11:37 14.02.2022
5305 Clouds 6 1025 81 10000 4.63 40 09:25 14.02.2022
5306 Clouds 6 1025 81 10000 4.12 30 07:37 14.02.2022
5307 Clouds 6 1025 81 10000 4.12 30 07:19 14.02.2022
5308 Clouds 6 1025 87 10000 5.14 40 22:48 13.02.2022
5309 Clouds 6 1026 87 10000 4.12 50 22:29 13.02.2022
5310 Clouds 6 1026 87 10000 5.14 50 21:48 13.02.2022
5311 Clouds 6 1026 87 10000 6.17 50 20:42 13.02.2022
5312 Clouds 7 1026 81 10000 6.69 50 19:57 13.02.2022
5313 Clouds 7 1026 76 10000 6.69 70 18:57 13.02.2022
5314 Clouds 7 1026 81 10000 5.66 60 18:38 13.02.2022
5315 Clouds 7 1026 70 10000 5.14 60 16:40 13.02.2022
5316 Clouds 7 1026 70 10000 6.69 40 15:50 13.02.2022
5317 Clouds 7 1027 70 10000 7.72 50 14:38 13.02.2022
5318 Clouds 7 1028 70 10000 8.75 50 13:26 13.02.2022
5319 Clouds 7 1028 70 10000 8.23 50 12:40 13.02.2022
5320 Clouds 7 1029 70 10000 8.75 60 10:40 13.02.2022
5321 Clouds 7 1029 76 10000 8.23 60 09:50 13.02.2022
5322 Clouds 7 1029 76 10000 10.29 70 08:55 13.02.2022
5323 Clouds 7 1031 81 10000 8.75 60 01:26 13.02.2022
5324 Clouds 7 1031 81 10000 9.77 50 00:21 13.02.2022
5325 Clouds 8 1032 76 10000 9.77 60 22:34 12.02.2022
5326 Clouds 8 1032 76 10000 8.75 40 22:00 12.02.2022
5327 Clouds 8 1031 76 10000 10.29 50 20:55 12.02.2022
5328 Clouds 8 1031 76 10000 8.23 40 19:56 12.02.2022
5329 Clouds 8 1030 81 10000 9.26 30 18:54 12.02.2022
5330 Clouds 8 1030 81 10000 9.26 30 18:36 12.02.2022
5331 Clouds 8 1029 81 10000 8.75 20 17:39 12.02.2022
5332 Clouds 9 1028 76 10000 6.69 20 16:46 12.02.2022
5333 Clouds 12 1028 54 10000 7.2 40 15:53 12.02.2022
5334 Clouds 11 1028 81 10000 1.54 0 15:20 12.02.2022
5335 Clouds 11 1027 81 10000 3.09 240 14:25 12.02.2022
5336 Clear 11 1027 81 10000 2.57 230 11:33 12.02.2022
5337 Clear 10 1027 81 10000 2.57 250 10:32 12.02.2022
5338 Clear 11 1027 76 10000 4.12 250 09:37 12.02.2022
5339 Clear 9 1027 71 10000 3.09 270 08:47 12.02.2022
5340 Clear 7 1026 87 10000 2.57 280 07:45 12.02.2022
5341 Clear 3 1024 100 7000 0 0 04:50 12.02.2022
5342 Clear 2 1024 93 7000 1.54 220 02:19 12.02.2022
5343 Clear 3 1023 93 7000 0 0 23:34 11.02.2022
5344 Clear 5 1023 100 7000 0 0 22:23 11.02.2022
5345 Clear 4 1023 93 10000 0 0 21:37 11.02.2022
5346 Clear 4 1023 93 10000 0 0 20:29 11.02.2022
5347 Clear 6 1023 87 10000 1.03 210 19:29 11.02.2022
5348 Clear 7 1023 81 10000 2.06 220 18:44 11.02.2022
5349 Clear 8 1023 76 10000 2.06 180 17:27 11.02.2022
5350 Clear 8 1023 76 10000 1.54 210 16:47 11.02.2022
5351 Clear 10 1023 61 10000 2.06 260 15:22 11.02.2022
5352 Clear 10 1023 57 10000 2.57 250 14:38 11.02.2022
5353 Clear 11 1023 62 10000 2.06 250 14:19 11.02.2022
5354 Clear 10 1024 61 10000 2.06 230 13:47 11.02.2022
5355 Clear 9 1024 66 10000 3.09 240 13:28 11.02.2022
5356 Clear 9 1025 61 10000 4.63 220 11:23 11.02.2022
5357 Clear 8 1026 66 10000 3.6 230 09:37 11.02.2022
5358 Clear 8 1026 66 10000 4.12 220 08:35 11.02.2022
5359 Clear 6 1026 70 10000 4.63 230 07:46 11.02.2022
5360 Clear 6 1026 70 10000 4.63 230 07:46 11.02.2022
5361 Clear 6 1025 81 10000 4.12 230 06:24 11.02.2022
5362 Clear 2 1026 93 10000 1.03 360 02:22 11.02.2022
5363 Clear 2 1027 93 10000 1.54 120 23:48 10.02.2022
5364 Clear 4 1028 87 10000 1.54 140 22:33 10.02.2022
5365 Clear 5 1028 81 10000 2.06 100 21:42 10.02.2022
5366 Clear 6 1028 75 10000 2.06 100 20:50 10.02.2022
5367 Clear 6 1028 75 10000 1.54 100 19:59 10.02.2022
5368 Clear 7 1028 70 10000 1.54 90 19:23 10.02.2022
5369 Clear 7 1028 70 10000 2.06 100 18:33 10.02.2022
5370 Clear 7 1028 76 10000 1.03 300 17:23 10.02.2022
5371 Clear 8 1028 76 10000 2.06 0 16:47 10.02.2022
5372 Clear 10 1028 57 10000 1.54 190 15:42 10.02.2022
5373 Clear 10 1028 57 10000 2.57 230 15:24 10.02.2022
5374 Clear 10 1028 50 10000 2.57 0 14:35 10.02.2022
5375 Clear 10 1028 46 10000 4.12 60 13:59 10.02.2022
5376 Clouds 10 1028 46 10000 3.6 50 13:19 10.02.2022
5377 Clouds 10 1029 57 10000 4.12 50 11:57 10.02.2022
5378 Clouds 9 1029 66 10000 4.12 30 11:32 10.02.2022
5379 Clouds 8 1029 71 10000 5.66 30 10:25 10.02.2022
5380 Clouds 9 1029 61 10000 4.63 20 09:46 10.02.2022
5381 Clouds 7 1029 81 10000 2.57 10 08:42 10.02.2022
5382 Clouds 2 1028 93 10000 2.06 10 06:34 10.02.2022
5383 Clouds 1 1027 93 10000 2.57 340 03:33 10.02.2022
5384 Clouds 3 1027 87 10000 2.06 330 00:57 10.02.2022
5385 Clouds 4 1027 87 10000 3.09 340 00:38 10.02.2022
5386 Clouds 4 1027 87 10000 3.09 340 00:20 10.02.2022
5387 Clouds 6 1026 81 10000 3.09 30 22:56 09.02.2022
5388 Clouds 6 1026 81 10000 2.57 30 22:33 09.02.2022
5389 Clouds 6 1026 81 10000 3.09 30 21:47 09.02.2022
5390 Clouds 5 1026 81 10000 2.57 360 21:27 09.02.2022
5391 Clouds 5 1026 81 10000 2.57 360 21:27 09.02.2022
5392 Clouds 5 1026 81 10000 2.06 360 20:44 09.02.2022
5393 Clouds 5 1026 81 10000 2.06 360 20:44 09.02.2022
5394 Clouds 5 1026 81 10000 2.06 360 20:22 09.02.2022
5395 Clouds 5 1026 75 10000 2.57 20 19:42 09.02.2022
5396 Clouds 6 1025 70 10000 3.09 30 18:50 09.02.2022
5397 Clouds 6 1025 65 10000 4.12 20 17:24 09.02.2022
5398 Clouds 6 1024 65 10000 5.14 30 16:20 09.02.2022
5399 Clouds 6 1024 65 10000 5.66 10 15:24 09.02.2022
5400 Clouds 8 1023 53 10000 6.17 20 12:53 09.02.2022
5401 Clouds 6 1023 70 10000 8.23 350 11:36 09.02.2022
5402 Clouds 6 1023 65 10000 7.2 360 10:35 09.02.2022
5403 Clouds 6 1023 61 10000 5.66 20 09:53 09.02.2022
5404 Clouds 6 1023 61 10000 7.2 20 09:22 09.02.2022
5405 Clouds 6 1023 61 10000 6.17 30 08:46 09.02.2022
5406 Clouds 4 1022 70 10000 6.17 10 06:52 09.02.2022
5407 Clouds 5 1020 65 10000 9.26 20 04:30 09.02.2022
5408 Clouds 5 1019 70 10000 7.72 10 03:48 09.02.2022
5409 Rain 4 1017 87 10000 9.26 20 23:45 08.02.2022
5410 Rain 4 1016 87 10000 9.26 20 23:19 08.02.2022
5411 Rain 4 1016 87 10000 8.75 20 22:38 08.02.2022
5412 Rain 4 1016 87 10000 8.75 20 22:20 08.02.2022
5413 Rain 4 1016 93 10000 9.26 20 21:22 08.02.2022
5414 Rain 4 1015 87 10000 9.77 10 20:58 08.02.2022
5415 Rain 4 1015 87 10000 7.2 10 20:37 08.02.2022
5416 Rain 4 1015 87 10000 7.2 10 20:37 08.02.2022
5417 Rain 4 1013 87 8000 11.32 20 19:27 08.02.2022
5418 Rain 5 1012 87 8000 10.8 20 18:24 08.02.2022
5419 Rain 5 1012 87 9000 9.77 20 17:30 08.02.2022
5420 Rain 4 1010 87 10000 10.29 20 15:47 08.02.2022
5421 Rain 4 1010 93 8000 11.32 20 15:27 08.02.2022
5422 Rain 5 1009 87 8000 10.29 20 13:50 08.02.2022
5423 Rain 5 1008 87 10000 8.75 20 12:24 08.02.2022
5424 Rain 5 1008 87 7000 9.26 20 10:49 08.02.2022
5425 Rain 5 1008 87 7000 7.72 20 09:49 08.02.2022
5426 Rain 4 1007 93 4000 6.69 10 08:39 08.02.2022
5427 Rain 5 1006 87 10000 9.77 20 06:38 08.02.2022
5428 Rain 7 1004 93 10000 8.75 360 04:40 08.02.2022
5429 Rain 8 1004 93 4000 7.72 330 04:22 08.02.2022
5430 Rain 10 1003 87 10000 3.09 280 03:36 08.02.2022
5431 Rain 10 1003 87 10000 3.09 280 03:18 08.02.2022
5432 Rain 10 1003 87 10000 5.66 220 02:59 08.02.2022
5433 Rain 10 1003 87 10000 5.66 220 02:36 08.02.2022
5434 Thunderstorm 10 1003 87 4000 7.2 210 02:18 08.02.2022
5435 Rain 10 1004 93 4000 7.2 200 01:44 08.02.2022
5436 Rain 10 1004 93 7000 2.06 280 01:25 08.02.2022
5437 Rain 10 1004 93 7000 2.06 280 01:25 08.02.2022
5438 Rain 10 1005 87 10000 2.57 230 00:55 08.02.2022
5439 Rain 10 1005 87 10000 3.09 270 00:21 08.02.2022
5440 Rain 11 1006 82 10000 6.17 220 23:44 07.02.2022
5441 Clouds 11 1006 82 10000 6.17 220 23:18 07.02.2022
5442 Clouds 11 1006 82 10000 7.72 220 22:59 07.02.2022
5443 Rain 11 1006 76 10000 8.75 220 22:19 07.02.2022
5444 Clouds 11 1006 76 10000 7.2 220 21:50 07.02.2022
5445 Clouds 11 1006 76 10000 9.26 210 21:27 07.02.2022
5446 Clouds 12 1006 71 10000 9.26 210 20:45 07.02.2022
5447 Clouds 11 1006 76 10000 9.26 210 20:27 07.02.2022
5448 Clouds 11 1007 76 10000 9.26 210 19:47 07.02.2022
5449 Clouds 10 1007 76 10000 2.57 190 18:35 07.02.2022
5450 Clouds 11 1008 76 10000 5.66 210 17:18 07.02.2022
5451 Clouds 11 1008 66 10000 8.75 210 16:46 07.02.2022
5452 Clouds 11 1009 62 10000 9.77 220 15:48 07.02.2022
5453 Clouds 12 1010 62 10000 6.69 230 13:51 07.02.2022
5454 Clouds 11 1011 62 10000 8.75 220 13:26 07.02.2022
5455 Clouds 12 1012 58 10000 7.2 230 12:18 07.02.2022
5456 Clouds 12 1012 58 10000 8.23 230 11:38 07.02.2022
5457 Clouds 11 1014 62 10000 6.17 220 10:59 07.02.2022
5458 Clouds 12 1014 62 10000 6.17 220 10:41 07.02.2022
5459 Clear 11 1014 66 10000 5.14 220 10:22 07.02.2022
5460 Clear 10 1014 66 10000 6.17 220 09:47 07.02.2022
5461 Clear 10 1014 66 10000 6.17 220 09:18 07.02.2022
5462 Clear 7 1015 71 10000 6.69 210 07:35 07.02.2022
5463 Clear 7 1015 71 10000 5.14 200 06:34 07.02.2022
5464 Clear 7 1017 76 10000 4.12 200 04:22 07.02.2022
5465 Clear 7 1020 87 10000 2.06 220 01:37 07.02.2022
5466 Clear 6 1020 87 10000 1.03 140 23:51 06.02.2022
5467 Clear 6 1021 87 10000 2.06 230 23:19 06.02.2022
5468 Clear 5 1021 93 10000 1.03 270 22:39 06.02.2022
5469 Clear 7 1022 87 10000 1.54 220 21:37 06.02.2022
5470 Clear 7 1022 87 10000 1.54 220 21:18 06.02.2022
5471 Clear 7 1023 81 10000 1.54 220 20:48 06.02.2022
5472 Clear 7 1023 81 10000 2.06 220 20:21 06.02.2022
5473 Clear 7 1023 87 10000 1.54 210 18:54 06.02.2022
5474 Clear 6 1023 93 10000 1.03 220 18:27 06.02.2022
5475 Clear 7 1023 87 10000 2.06 250 17:29 06.02.2022
5476 Clear 8 1023 81 10000 2.57 270 16:50 06.02.2022
5477 Clear 9 1023 76 10000 2.57 0 15:51 06.02.2022
5478 Clear 9 1023 76 10000 3.09 250 15:28 06.02.2022
5479 Clear 9 1024 76 10000 3.09 240 14:59 06.02.2022
5480 Clear 10 1024 71 10000 3.09 230 13:57 06.02.2022
5481 Clouds 9 1024 76 10000 3.6 220 13:20 06.02.2022
5482 Clouds 11 1025 62 10000 1.03 0 11:45 06.02.2022
5483 Clouds 10 1025 66 10000 2.57 350 10:33 06.02.2022
5484 Clear 9 1025 71 10000 3.09 360 09:36 06.02.2022
5485 Clouds 8 1024 76 10000 2.06 360 08:41 06.02.2022
5486 Clear 6 1023 81 10000 3.6 260 06:31 06.02.2022
5487 Clear 7 1022 76 10000 4.12 240 05:27 06.02.2022
5488 Clear 6 1021 81 10000 2.57 240 02:25 06.02.2022
5489 Clear 6 1021 81 10000 3.09 240 00:30 06.02.2022
5490 Clear 6 1021 81 10000 3.09 220 23:27 05.02.2022
5491 Clear 7 1021 76 10000 4.12 220 21:46 05.02.2022
5492 Clear 7 1020 71 10000 4.12 210 20:39 05.02.2022
5493 Clear 7 1020 71 10000 4.12 210 20:19 05.02.2022
5494 Clear 7 1020 81 10000 3.6 210 19:41 05.02.2022
5495 Clear 7 1020 76 10000 3.6 210 18:26 05.02.2022
5496 Clear 7 1019 76 10000 4.12 230 17:34 05.02.2022
5497 Clear 8 1019 57 10000 4.12 230 15:43 05.02.2022
5498 Clouds 8 1019 57 10000 4.12 230 15:25 05.02.2022
5499 Clear 7 1019 65 10000 5.14 230 13:24 05.02.2022
5500 Clear 7 1020 61 10000 5.66 220 12:42 05.02.2022
5501 Clear 7 1020 61 10000 6.17 220 11:18 05.02.2022
5502 Clear 7 1021 65 10000 6.17 220 10:43 05.02.2022
5503 Clear 6 1021 61 10000 6.17 210 09:49 05.02.2022
5504 Clear 5 1021 70 10000 5.66 200 08:21 05.02.2022
5505 Clear 3 1021 75 10000 5.14 220 06:58 05.02.2022
5506 Clear 3 1021 75 10000 5.14 220 05:44 05.02.2022
5507 Clear 1 1021 80 10000 1.54 170 01:47 05.02.2022
5508 Clear 2 1021 75 10000 1.54 160 01:18 05.02.2022
5509 Clear 2 1021 75 10000 1.54 160 01:18 05.02.2022
5510 Clear 3 1021 70 10000 1.54 150 00:36 05.02.2022
5511 Clear 3 1022 75 10000 2.06 120 23:33 04.02.2022
5512 Clear 1 1022 75 10000 2.57 120 22:37 04.02.2022
5513 Clear 1 1022 75 10000 2.06 120 21:36 04.02.2022
5514 Clear 2 1022 69 10000 2.06 130 21:18 04.02.2022
5515 Clear 3 1022 65 10000 2.06 90 20:28 04.02.2022
5516 Clear 3 1022 60 10000 2.57 70 18:30 04.02.2022
5517 Clouds 6 1022 49 10000 3.6 20 15:57 04.02.2022
5518 Clouds 6 1022 52 10000 5.14 360 14:56 04.02.2022
5519 Clouds 7 1022 49 10000 3.6 50 14:24 04.02.2022
5520 Clouds 6 1022 52 10000 4.63 10 12:43 04.02.2022
5521 Clouds 7 1022 53 10000 5.66 50 11:43 04.02.2022
5522 Clouds 7 1023 57 10000 5.14 40 10:48 04.02.2022
5523 Clouds 5 1022 70 10000 4.12 10 08:50 04.02.2022
5524 Clouds 3 1022 81 10000 4.12 10 07:35 04.02.2022
5525 Clouds 4 1020 81 10000 3.09 10 02:54 04.02.2022
5526 Clouds 5 1019 75 10000 4.12 20 02:20 04.02.2022
5527 Clouds 5 1019 75 10000 4.63 30 23:32 03.02.2022
5528 Clouds 6 1018 70 10000 5.14 20 22:48 03.02.2022
5529 Clouds 6 1018 75 10000 6.17 30 21:50 03.02.2022
5530 Rain 5 1018 87 10000 4.12 40 20:43 03.02.2022
5531 Rain 5 1017 81 10000 4.63 50 20:20 03.02.2022
5532 Rain 5 1017 81 10000 6.69 40 19:34 03.02.2022
5533 Rain 5 1017 81 10000 7.2 40 18:44 03.02.2022
5534 Rain 5 1016 87 10000 6.69 30 17:42 03.02.2022
5535 Rain 5 1015 87 10000 7.2 20 16:35 03.02.2022
5536 Rain 5 1014 87 10000 7.72 20 14:52 03.02.2022
5537 Rain 5 1012 87 10000 7.2 20 12:59 03.02.2022
5538 Rain 5 1012 87 10000 7.2 20 11:42 03.02.2022
5539 Rain 4 1010 87 10000 7.2 20 08:38 03.02.2022
5540 Rain 3 1007 93 10000 7.72 10 05:26 03.02.2022
5541 Snow 5 1007 93 10000 7.2 10 00:32 03.02.2022
5542 Rain 5 1006 93 10000 6.69 360 23:44 02.02.2022
5543 Rain 6 1006 93 10000 3.09 10 22:32 02.02.2022
5544 Rain 6 1006 93 10000 3.6 30 21:34 02.02.2022
5545 Rain 6 1006 93 8000 4.12 30 20:51 02.02.2022
5546 Rain 6 1007 93 10000 5.14 20 19:59 02.02.2022
5547 Rain 6 1007 93 9000 3.09 10 19:32 02.02.2022
5548 Rain 6 1007 93 8000 6.17 350 18:50 02.02.2022
5549 Rain 6 1006 93 10000 7.2 340 18:22 02.02.2022
5550 Rain 6 1005 100 8000 8.23 360 17:19 02.02.2022
5551 Clouds 7 1004 93 8000 4.12 360 16:42 02.02.2022
5552 Clouds 9 1005 93 9000 1.03 0 13:35 02.02.2022
5553 Rain 9 1006 87 10000 2.06 100 12:25 02.02.2022
5554 Rain 8 1007 93 4000 0.51 0 11:34 02.02.2022
5555 Rain 7 1007 100 4000 0 0 10:31 02.02.2022
5556 Rain 7 1007 93 10000 5.14 360 07:37 02.02.2022
5557 Clouds 7 1008 93 10000 2.06 360 22:52 01.02.2022
5558 Clouds 8 1008 87 10000 2.57 30 21:51 01.02.2022
5559 Rain 8 1007 87 10000 1.03 40 20:35 01.02.2022
5560 Rain 9 1007 66 10000 3.09 90 17:50 01.02.2022
5561 Clouds 9 1006 61 10000 3.6 100 16:40 01.02.2022
5562 Rain 8 1007 71 10000 5.66 130 14:47 01.02.2022
5563 Rain 9 1008 61 10000 5.14 130 12:45 01.02.2022
5564 Rain 10 1009 57 10000 4.12 130 11:34 01.02.2022
5565 Clear 6 1009 75 10000 2.57 180 04:53 01.02.2022
5566 Clear 5 1011 81 10000 2.06 130 23:42 31.01.2022
5567 Clear 5 1011 81 10000 2.06 130 23:42 31.01.2022
5568 Clear 5 1011 81 10000 2.06 120 23:21 31.01.2022
5569 Clear 4 1011 87 10000 1.54 120 21:42 31.01.2022
5570 Clear 6 1011 75 10000 2.06 120 21:19 31.01.2022
5571 Clear 4 1012 81 10000 1.54 180 20:32 31.01.2022
5572 Clear 3 1012 81 10000 0.51 0 19:35 31.01.2022
5573 Clear 6 1012 70 10000 2.57 220 18:26 31.01.2022
5574 Clear 6 1012 70 10000 2.57 220 17:41 31.01.2022
5575 Clear 7 1012 65 10000 3.09 220 16:38 31.01.2022
5576 Clear 8 1012 61 10000 4.12 220 15:43 31.01.2022
5577 Clear 8 1013 53 10000 4.12 240 14:22 31.01.2022
5578 Clear 8 1013 53 10000 5.14 230 12:39 31.01.2022
5579 Clear 8 1014 53 10000 4.12 230 11:56 31.01.2022
5580 Clear 8 1015 57 10000 4.12 230 10:50 31.01.2022
5581 Clear 8 1015 49 10000 2.57 270 10:30 31.01.2022
5582 Clear 7 1015 49 10000 2.57 300 09:27 31.01.2022
5583 Clear 7 1015 49 10000 1.54 260 08:51 31.01.2022
5584 Clear 6 1015 61 10000 3.6 280 08:20 31.01.2022
5585 Clear 4 1013 65 10000 2.06 290 06:18 31.01.2022
5586 Clouds 6 1013 65 10000 4.12 290 02:18 31.01.2022
5587 Clouds 8 1013 81 10000 6.17 260 23:18 30.01.2022
5588 Clouds 8 1012 76 10000 6.69 240 22:29 30.01.2022
5589 Clouds 8 1013 76 10000 7.72 250 21:42 30.01.2022
5590 Clouds 8 1012 71 10000 6.17 230 21:19 30.01.2022
5591 Clouds 8 1012 71 10000 7.72 240 20:47 30.01.2022
5592 Clouds 8 1012 66 10000 7.72 250 20:28 30.01.2022
5593 Clouds 7 1012 76 10000 7.2 250 19:52 30.01.2022
5594 Clouds 6 1012 81 10000 3.6 220 18:43 30.01.2022
5595 Clouds 6 1012 81 10000 3.6 220 18:20 30.01.2022
5596 Rain 6 1012 81 10000 5.66 220 17:22 30.01.2022
5597 Clouds 6 1013 81 10000 5.66 240 16:40 30.01.2022
5598 Rain 6 1014 81 10000 5.14 240 16:22 30.01.2022
5599 Rain 6 1013 81 10000 5.14 230 15:50 30.01.2022
5600 Rain 6 1014 81 10000 4.63 230 15:31 30.01.2022
5601 Rain 6 1014 81 10000 4.12 240 14:46 30.01.2022
5602 Clear 6 1016 70 10000 4.63 240 12:47 30.01.2022
5603 Clear 6 1017 65 10000 5.14 240 11:58 30.01.2022
5604 Clear 6 1017 61 10000 2.06 240 10:36 30.01.2022
5605 Clear 6 1017 61 10000 1.03 0 09:51 30.01.2022
5606 Clear 4 1018 70 10000 3.09 130 08:55 30.01.2022
5607 Clear 0 1019 93 6000 2.06 350 07:28 30.01.2022
5608 Clear 0 1022 93 10000 3.09 360 01:56 30.01.2022
5609 Clear 1 1022 93 10000 2.06 10 00:34 30.01.2022
5610 Clear 4 1023 81 10000 2.06 70 23:20 29.01.2022
5611 Clear 4 1023 87 10000 1.03 0 21:50 29.01.2022
5612 Clear 5 1023 70 10000 3.09 40 21:24 29.01.2022
5613 Clear 4 1023 81 10000 2.57 30 20:32 29.01.2022
5614 Clear 6 1023 70 10000 4.12 30 19:34 29.01.2022
5615 Clear 6 1023 70 10000 3.6 40 18:52 29.01.2022
5616 Clear 6 1023 70 10000 3.09 30 18:23 29.01.2022
5617 Clear 6 1023 70 10000 4.63 40 17:31 29.01.2022
5618 Clouds 7 1023 65 10000 3.09 50 16:25 29.01.2022
5619 Clouds 8 1022 66 10000 3.6 120 14:23 29.01.2022
5620 Clouds 8 1022 66 10000 3.09 130 13:44 29.01.2022
5621 Clouds 8 1022 66 10000 3.6 130 13:24 29.01.2022
5622 Clouds 8 1023 61 10000 3.6 130 11:49 29.01.2022
5623 Clouds 8 1023 66 10000 3.6 130 11:24 29.01.2022
5624 Clouds 6 1023 87 10000 0.51 0 08:57 29.01.2022
5625 Clouds 6 1022 75 10000 1.54 230 06:55 29.01.2022
5626 Clouds 7 1020 70 10000 6.17 220 00:36 29.01.2022
5627 Clouds 7 1020 70 10000 6.17 220 23:52 28.01.2022
5628 Clouds 6 1021 70 10000 6.17 220 22:50 28.01.2022
5629 Clouds 6 1021 70 10000 5.66 220 22:21 28.01.2022
5630 Clouds 7 1021 70 10000 6.17 210 21:36 28.01.2022
5631 Clouds 7 1020 65 10000 6.17 210 20:29 28.01.2022
5632 Clouds 7 1020 65 10000 6.17 210 19:29 28.01.2022
5633 Clouds 7 1019 70 10000 7.2 210 18:42 28.01.2022
5634 Clouds 6 1019 65 10000 6.17 210 16:46 28.01.2022
5635 Clouds 6 1019 65 10000 7.2 210 15:20 28.01.2022
5636 Clear 6 1020 61 10000 7.72 210 13:50 28.01.2022
5637 Clear 5 1020 65 10000 7.2 210 12:29 28.01.2022
5638 Clear 5 1022 65 10000 6.69 210 10:49 28.01.2022
5639 Clear 5 1022 65 10000 7.2 210 09:52 28.01.2022
5640 Clear 3 1022 70 10000 6.17 210 07:44 28.01.2022
5641 Clear 3 1022 75 10000 5.14 210 06:44 28.01.2022
5642 Clouds 3 1022 75 10000 5.14 220 03:56 28.01.2022
5643 Clouds 3 1023 75 10000 4.63 220 02:31 28.01.2022
5644 Clouds 3 1023 75 10000 4.12 220 01:59 28.01.2022
5645 Clouds 3 1023 75 10000 4.63 210 01:30 28.01.2022
5646 Clear 3 1024 75 10000 4.12 220 22:48 27.01.2022
5647 Clouds 5 1025 70 10000 4.12 220 21:46 27.01.2022
5648 Clouds 4 1025 75 10000 4.12 220 21:28 27.01.2022
5649 Clouds 4 1025 70 10000 2.57 240 20:24 27.01.2022
5650 Clear 4 1025 70 10000 2.57 230 18:24 27.01.2022
5651 Clear 4 1024 70 10000 2.57 230 17:26 27.01.2022
5652 Clouds 5 1025 70 10000 2.06 230 14:25 27.01.2022
5653 Clouds 5 1025 70 10000 2.57 230 13:24 27.01.2022
5654 Clouds 5 1025 60 10000 1.03 0 12:25 27.01.2022
5655 Clouds 3 1025 70 10000 1.54 350 09:56 27.01.2022
5656 Clouds 2 1025 69 10000 2.06 310 08:41 27.01.2022
5657 Clouds 2 1025 69 10000 2.06 310 08:18 27.01.2022
5658 Clouds 2 1023 69 10000 3.09 290 03:37 27.01.2022
5659 Clouds 2 1024 64 10000 2.06 300 00:25 27.01.2022
5660 Clouds 2 1024 64 10000 2.06 300 00:25 27.01.2022
5661 Clouds 1 1024 69 10000 1.54 280 22:38 26.01.2022
5662 Clouds 0 1024 74 10000 0.51 0 21:45 26.01.2022
5663 Snow -1 1024 74 10000 0 0 20:59 26.01.2022
5664 Clouds -1 1024 74 10000 1.03 0 20:35 26.01.2022
5665 Clouds -1 1024 74 10000 0.51 360 19:52 26.01.2022
5666 Clouds 0 1024 69 10000 0 0 19:18 26.01.2022
5667 Clouds 0 1023 64 10000 1.03 350 18:26 26.01.2022
5668 Snow 0 1023 69 10000 1.03 350 17:49 26.01.2022
5669 Snow 0 1023 59 10000 1.54 360 17:19 26.01.2022
5670 Clouds 1 1023 55 10000 2.57 330 16:26 26.01.2022
5671 Clouds 1 1022 55 10000 2.06 350 15:24 26.01.2022
5672 Clear 1 1023 64 10000 4.12 340 12:52 26.01.2022
5673 Clear 0 1023 69 10000 5.14 330 10:57 26.01.2022
5674 Clouds 0 1024 69 10000 5.14 330 09:59 26.01.2022
5675 Clouds 0 1024 69 10000 5.14 330 09:40 26.01.2022
5676 Clouds -1 1023 74 10000 6.17 350 07:28 26.01.2022
5677 Clouds -1 1023 74 10000 4.63 360 00:42 26.01.2022
5678 Clouds -1 1024 74 10000 4.63 10 23:44 25.01.2022
5679 Snow 0 1024 74 10000 4.12 10 22:50 25.01.2022
5680 Snow -1 1024 80 10000 4.63 360 22:20 25.01.2022
5681 Snow -3 1024 86 10000 4.12 360 21:35 25.01.2022
5682 Clouds -3 1025 80 10000 4.12 360 20:46 25.01.2022
5683 Clouds -1 1024 80 10000 4.63 10 19:59 25.01.2022
5684 Clouds -1 1024 80 10000 4.63 360 19:34 25.01.2022
5685 Clouds -2 1024 80 10000 4.12 10 18:20 25.01.2022
5686 Clouds -2 1024 80 10000 5.14 10 17:39 25.01.2022
5687 Clouds -1 1025 80 10000 5.66 10 16:35 25.01.2022
5688 Clouds 0 1025 74 10000 6.69 10 15:39 25.01.2022
5689 Clouds 0 1025 74 10000 6.69 10 15:20 25.01.2022
5690 Clouds 0 1025 74 10000 6.17 10 14:56 25.01.2022
5691 Clouds 0 1025 80 10000 5.66 10 12:23 25.01.2022
5692 Clouds 0 1027 74 10000 6.17 10 09:39 25.01.2022
5693 Clouds -1 1027 86 10000 4.12 10 08:29 25.01.2022
5694 Clouds -1 1028 80 10000 3.6 10 07:28 25.01.2022
5695 Clouds -1 1027 74 10000 4.12 10 05:54 25.01.2022
5696 Clouds 0 1028 80 6000 3.09 20 00:58 25.01.2022
5697 Snow 0 1028 93 2000 2.57 20 23:36 24.01.2022
5698 Snow 0 1028 93 2000 2.57 20 23:18 24.01.2022
5699 Snow 0 1028 100 800 3.09 10 22:53 24.01.2022
5700 Snow 0 1028 100 800 3.09 10 22:35 24.01.2022
5701 Snow 0 1028 100 400 2.06 40 21:42 24.01.2022
5702 Snow 0 1028 100 200 6.17 50 21:24 24.01.2022
5703 Snow 0 1027 100 600 4.12 30 20:28 24.01.2022
5704 Snow 0 1027 100 3000 5.14 360 19:38 24.01.2022
5705 Snow 0 1026 100 6000 3.6 10 18:50 24.01.2022
5706 Snow 0 1025 100 4000 5.66 20 17:42 24.01.2022
5707 Snow 0 1025 100 4000 5.66 360 17:22 24.01.2022
5708 Snow 0 1024 100 400 12.35 340 16:31 24.01.2022
5709 Snow -1 1024 100 300 6.69 310 15:35 24.01.2022
5710 Clouds 0 1024 100 600 12.35 330 13:59 24.01.2022
5711 Snow 1 1024 80 7000 10.8 330 12:34 24.01.2022
5712 Clouds 1 1024 80 10000 11.32 340 11:41 24.01.2022
5713 Snow 0 1025 86 10000 7.2 340 10:19 24.01.2022
5714 Snow 0 1024 93 10000 3.09 340 09:45 24.01.2022
5715 Snow -1 1024 93 750 4.63 330 08:18 24.01.2022
5716 Clouds -2 1022 93 7000 4.63 340 02:26 24.01.2022
5717 Clouds -3 1022 93 10000 6.17 340 01:26 24.01.2022
5718 Clouds -2 1022 86 10000 6.17 330 00:31 24.01.2022
5719 Clouds -2 1022 93 10000 6.69 330 23:40 23.01.2022
5720 Clouds -2 1022 93 7000 5.66 330 22:20 23.01.2022
5721 Clouds -2 1022 93 7000 4.63 340 21:40 23.01.2022
5722 Snow -2 1022 93 10000 6.17 330 21:20 23.01.2022
5723 Snow -2 1022 100 400 3.6 330 20:22 23.01.2022
5724 Clouds -1 1022 80 10000 5.14 320 18:56 23.01.2022
5725 Clouds -1 1022 80 10000 4.63 340 18:24 23.01.2022
5726 Clouds 0 1022 80 10000 4.63 20 17:19 23.01.2022
5727 Clouds 0 1020 74 10000 10.8 350 15:59 23.01.2022
5728 Clouds 2 1019 60 10000 7.2 360 14:52 23.01.2022
5729 Clouds 2 1019 60 10000 9.77 360 14:18 23.01.2022
5730 Clouds 1 1018 75 10000 6.17 360 12:46 23.01.2022
5731 Clouds 0 1019 86 900 6.69 360 12:20 23.01.2022
5732 Clouds 2 1018 69 10000 9.26 360 11:26 23.01.2022
5733 Clouds 1 1018 60 10000 7.72 10 10:57 23.01.2022
5734 Clouds 0 1018 74 10000 6.69 10 10:25 23.01.2022
5735 Clouds 0 1018 93 10000 4.12 330 09:31 23.01.2022
5736 Snow -1 1018 100 10000 3.6 300 08:49 23.01.2022
5737 Snow -2 1017 93 10000 3.6 340 03:49 23.01.2022
5738 Clouds -2 1017 93 10000 4.12 340 01:38 23.01.2022
5739 Snow -2 1017 93 10000 4.12 360 00:47 23.01.2022
5740 Clouds -2 1017 100 1600 7.2 340 23:59 22.01.2022
5741 Snow -2 1017 86 10000 2.06 360 22:53 22.01.2022
5742 Clouds 0 1017 86 10000 4.12 10 22:19 22.01.2022
5743 Clouds -1 1016 80 10000 2.57 350 20:46 22.01.2022
5744 Clouds -1 1016 74 10000 2.57 360 19:46 22.01.2022
5745 Clouds 0 1016 69 10000 2.57 10 18:38 22.01.2022
5746 Clouds 0 1016 64 10000 3.6 360 17:49 22.01.2022
5747 Clouds 0 1016 64 10000 3.09 10 17:29 22.01.2022
5748 Clouds 0 1015 64 10000 2.06 10 16:54 22.01.2022
5749 Clouds 2 1015 55 10000 3.09 10 15:45 22.01.2022
5750 Clouds 2 1015 55 10000 3.09 340 14:55 22.01.2022
5751 Clouds 2 1015 64 10000 3.09 340 13:31 22.01.2022
5752 Rain 2 1015 64 10000 3.6 360 12:40 22.01.2022
5753 Clouds 2 1016 69 10000 4.12 340 12:20 22.01.2022
5754 Clouds 2 1017 69 10000 3.09 350 10:55 22.01.2022
5755 Snow 1 1018 69 10000 3.09 320 10:26 22.01.2022
5756 Clouds 1 1018 69 10000 2.06 310 09:25 22.01.2022
5757 Clouds 1 1018 69 10000 2.57 300 08:50 22.01.2022
5758 Snow 0 1018 86 7000 2.06 330 06:56 22.01.2022
5759 Snow 1 1018 80 10000 5.66 340 02:40 22.01.2022
5760 Rain 2 1019 87 10000 4.63 360 23:52 21.01.2022
5761 Rain 2 1019 87 10000 4.12 10 23:21 21.01.2022
5762 Snow 2 1020 87 10000 6.17 360 21:45 21.01.2022
5763 Snow 2 1019 93 10000 3.6 10 19:48 21.01.2022
5764 Snow 1 1018 100 3400 3.6 360 17:53 21.01.2022
5765 Snow 1 1018 100 6000 4.63 20 16:54 21.01.2022
5766 Rain 3 1017 93 6000 7.2 20 15:24 21.01.2022
5767 Rain 7 1016 87 7000 9.77 360 12:51 21.01.2022
5768 Rain 10 1016 76 10000 5.66 220 11:29 21.01.2022
5769 Rain 10 1016 76 10000 7.72 220 10:51 21.01.2022
5770 Clouds 10 1017 76 10000 6.69 210 09:24 21.01.2022
5771 Clouds 10 1017 76 10000 7.2 210 08:20 21.01.2022
5772 Clouds 8 1017 76 10000 7.2 220 04:36 21.01.2022
5773 Clouds 8 1020 66 10000 9.26 210 22:52 20.01.2022
5774 Clouds 8 1020 71 10000 7.72 210 21:49 20.01.2022
5775 Clouds 8 1021 71 10000 9.26 210 21:28 20.01.2022
5776 Clouds 8 1021 66 10000 9.77 210 19:56 20.01.2022
5777 Clouds 8 1021 61 10000 10.29 210 19:19 20.01.2022
5778 Clouds 8 1021 61 10000 9.77 210 17:38 20.01.2022
5779 Clouds 8 1021 57 10000 9.26 210 16:35 20.01.2022
5780 Clouds 8 1022 57 10000 8.23 210 15:40 20.01.2022
5781 Clouds 8 1022 57 10000 9.26 210 14:40 20.01.2022
5782 Clouds 7 1023 61 10000 9.77 210 13:21 20.01.2022
5783 Clouds 7 1024 57 10000 9.77 210 12:31 20.01.2022
5784 Clouds 6 1025 61 10000 9.77 210 11:20 20.01.2022
5785 Clouds 5 1025 60 10000 9.77 210 10:19 20.01.2022
5786 Clouds 5 1025 60 10000 10.29 210 09:19 20.01.2022
5787 Clouds 3 1026 70 10000 9.26 200 07:24 20.01.2022
5788 Clouds 3 1028 56 10000 5.14 240 00:41 20.01.2022
5789 Clear 2 1030 77 10000 3.09 230 22:50 19.01.2022
5790 Clear 1 1030 84 10000 0.51 0 21:44 19.01.2022
5791 Clear 0 1030 87 10000 0.51 0 21:22 19.01.2022
5792 Clear 0 1030 87 10000 0 0 20:45 19.01.2022
5793 Clear 0 1031 87 10000 0.51 350 19:26 19.01.2022
5794 Clouds 0 1031 84 10000 2.57 340 17:51 19.01.2022
5795 Clouds 1 1031 77 10000 4.12 340 17:28 19.01.2022
5796 Clouds 3 1030 48 10000 5.66 330 15:44 19.01.2022
5797 Snow 2 1031 69 10000 4.63 320 13:38 19.01.2022
5798 Snow 3 1030 75 10000 6.69 300 12:24 19.01.2022
5799 Clouds 3 1030 56 10000 7.2 350 11:38 19.01.2022
5800 Clouds 2 1031 60 10000 8.23 360 10:19 19.01.2022
5801 Clouds 1 1030 80 10000 5.14 340 09:33 19.01.2022
5802 Clouds 2 1029 55 10000 6.17 10 06:34 19.01.2022
5803 Snow 2 1027 93 8000 8.75 340 01:40 19.01.2022
5804 Clouds 2 1026 60 10000 7.2 320 23:18 18.01.2022
5805 Clouds 3 1026 77 10000 5.14 330 21:56 18.01.2022
5806 Clouds 4 1025 77 10000 1.03 0 20:47 18.01.2022
5807 Clouds 3 1025 80 10000 2.06 360 19:53 18.01.2022
5808 Clouds 3 1025 79 10000 2.06 360 19:35 18.01.2022
5809 Clouds 4 1025 45 10000 3.6 30 18:36 18.01.2022
5810 Clouds 5 1025 45 10000 4.12 30 17:48 18.01.2022
5811 Clouds 5 1024 48 10000 5.66 360 16:33 18.01.2022
5812 Clouds 6 1024 45 10000 6.17 20 15:26 18.01.2022
5813 Clouds 7 1024 42 10000 6.17 360 14:54 18.01.2022
5814 Clouds 6 1023 52 10000 7.2 350 11:52 18.01.2022
5815 Clouds 5 1024 56 10000 9.26 340 10:41 18.01.2022
5816 Clouds 6 1021 52 10000 5.66 10 08:49 18.01.2022
5817 Clouds 4 1020 70 10000 9.77 360 07:45 18.01.2022
5818 Clouds 7 1015 61 10000 5.14 270 02:20 18.01.2022
5819 Clouds 9 1015 66 10000 8.23 240 23:22 17.01.2022
5820 Clouds 9 1016 82 10000 8.23 220 21:58 17.01.2022
5821 Clouds 9 1016 82 10000 7.72 230 21:31 17.01.2022
5822 Clouds 9 1017 82 10000 9.77 230 19:51 17.01.2022
5823 Clouds 9 1017 66 10000 7.2 220 18:28 17.01.2022
5824 Clouds 9 1017 82 10000 7.72 230 17:24 17.01.2022
5825 Clouds 9 1018 82 10000 6.17 230 16:24 17.01.2022
5826 Clouds 8 1019 61 10000 6.69 220 14:59 17.01.2022
5827 Clouds 8 1019 61 10000 7.2 230 14:33 17.01.2022
5828 Clouds 8 1020 57 10000 8.23 220 13:19 17.01.2022
5829 Clouds 8 1020 61 10000 8.75 210 12:52 17.01.2022
5830 Clouds 7 1021 61 10000 9.26 210 11:47 17.01.2022
5831 Clouds 6 1022 61 10000 7.2 210 10:21 17.01.2022
5832 Clouds 5 1023 65 10000 9.26 210 08:44 17.01.2022
5833 Clouds 3 1023 75 10000 6.69 210 07:22 17.01.2022
5834 Clouds 4 1026 60 10000 3.09 220 02:20 17.01.2022
5835 Clear 2 1026 65 10000 2.57 220 00:43 17.01.2022
5836 Clear 1 1027 93 10000 1.54 350 21:26 16.01.2022
5837 Clear 2 1027 90 10000 1.54 350 20:30 16.01.2022
5838 Clear 1 1027 80 10000 2.06 360 18:48 16.01.2022
5839 Clouds 3 1028 69 10000 2.57 340 17:51 16.01.2022
5840 Clouds 4 1028 65 10000 3.09 350 16:55 16.01.2022
5841 Clouds 5 1028 56 10000 5.14 350 15:50 16.01.2022
5842 Clouds 6 1027 52 10000 4.12 350 14:29 16.01.2022
5843 Clouds 6 1027 56 10000 5.66 340 13:33 16.01.2022
5844 Clouds 7 1027 45 10000 6.17 360 12:22 16.01.2022
5845 Clouds 7 1027 49 10000 5.14 20 11:29 16.01.2022
5846 Clouds 7 1028 53 10000 5.14 360 10:28 16.01.2022
5847 Clear 6 1028 56 10000 5.14 360 09:58 16.01.2022
5848 Clear 6 1028 56 10000 5.14 360 09:38 16.01.2022
5849 Clear 6 1028 52 10000 4.63 360 09:19 16.01.2022
5850 Clouds 3 1026 65 10000 5.14 20 07:19 16.01.2022
5851 Clouds 3 1023 96 10000 1.03 0 00:35 16.01.2022
5852 Clouds 2 1023 93 10000 1.54 330 22:53 15.01.2022
5853 Rain 4 1024 82 10000 3.6 40 21:22 15.01.2022
5854 Rain 5 1022 77 10000 1.54 280 20:45 15.01.2022
5855 Rain 5 1022 77 10000 2.06 290 20:22 15.01.2022
5856 Clouds 3 1022 81 10000 0.51 0 19:27 15.01.2022
5857 Clear 4 1022 52 10000 0.51 0 18:18 15.01.2022
5858 Clear 6 1021 42 10000 3.09 30 16:49 15.01.2022
5859 Clear 8 1021 39 10000 6.69 360 14:38 15.01.2022
5860 Clouds 8 1021 46 10000 6.17 10 12:40 15.01.2022
5861 Clouds 8 1020 49 10000 7.2 20 11:26 15.01.2022
5862 Clouds 7 1020 57 10000 6.17 20 09:46 15.01.2022
5863 Clear 4 1016 75 10000 3.6 280 01:58 15.01.2022
5864 Clear 6 1016 70 10000 5.66 250 23:21 14.01.2022
5865 Clear 5 1017 75 10000 5.66 250 21:18 14.01.2022
5866 Clear 5 1017 65 10000 6.17 260 20:25 14.01.2022
5867 Clear 5 1018 70 10000 6.17 260 19:50 14.01.2022
5868 Clear 5 1018 70 10000 6.17 250 18:41 14.01.2022
5869 Clear 4 1019 65 10000 5.14 240 17:36 14.01.2022
5870 Clear 4 1019 60 10000 5.14 240 16:42 14.01.2022
5871 Clear 4 1020 65 10000 6.69 260 15:32 14.01.2022
5872 Clear 4 1021 65 10000 5.66 260 14:26 14.01.2022
5873 Clear 4 1022 65 10000 5.14 260 12:58 14.01.2022
5874 Clear 5 1024 79 10000 5.14 260 11:52 14.01.2022
5875 Clear 4 1025 79 10000 2.57 250 10:30 14.01.2022
5876 Clear 2 1026 77 10000 2.06 350 08:53 14.01.2022
5877 Clear -1 1027 90 10000 3.6 350 07:30 14.01.2022
5878 Clouds 1 1030 77 10000 3.6 30 02:27 14.01.2022
5879 Clouds 2 1030 81 10000 4.63 10 00:21 14.01.2022
5880 Clouds 2 1031 79 10000 4.63 30 21:47 13.01.2022
5881 Clouds 2 1031 79 10000 4.63 40 21:29 13.01.2022
5882 Clouds 2 1032 79 10000 5.14 40 19:45 13.01.2022
5883 Clouds 2 1032 77 10000 6.17 40 19:23 13.01.2022
5884 Clouds 2 1032 77 10000 6.17 30 18:37 13.01.2022
5885 Clouds 2 1031 77 10000 6.17 40 16:52 13.01.2022
5886 Clouds 2 1031 79 10000 7.2 30 15:39 13.01.2022
5887 Clouds 2 1031 77 10000 7.72 20 15:20 13.01.2022
5888 Clouds 3 1031 77 10000 8.23 40 13:28 13.01.2022
5889 Clouds 3 1032 79 10000 8.23 20 10:39 13.01.2022
5890 Rain 3 1032 77 10000 7.72 40 09:23 13.01.2022
5891 Clouds 2 1031 77 10000 7.2 40 08:29 13.01.2022
5892 Clouds 2 1031 79 10000 7.72 50 07:58 13.01.2022
5893 Clouds 2 1031 81 10000 6.17 40 07:18 13.01.2022
5894 Clouds 2 1030 79 10000 7.2 30 05:20 13.01.2022
5895 Rain 2 1030 77 10000 7.72 40 03:34 13.01.2022
5896 Clouds 2 1028 81 10000 11.83 30 01:38 13.01.2022
5897 Clouds 2 1028 81 10000 9.26 20 23:53 12.01.2022
5898 Clouds 2 1028 84 10000 11.32 20 23:33 12.01.2022
5899 Clouds 2 1028 93 10000 9.26 20 21:59 12.01.2022
5900 Clouds 2 1028 93 10000 9.26 20 21:39 12.01.2022
5901 Clouds 2 1027 87 10000 8.75 20 21:18 12.01.2022
5902 Clouds 2 1027 84 10000 10.8 20 20:41 12.01.2022
5903 Clouds 2 1026 84 10000 9.26 10 18:48 12.01.2022
5904 Snow 2 1026 90 10000 8.23 20 17:54 12.01.2022
5905 Clouds 2 1025 87 10000 8.75 20 16:43 12.01.2022
5906 Clouds 3 1024 93 10000 9.77 30 14:49 12.01.2022
5907 Clouds 3 1023 96 10000 8.75 20 13:40 12.01.2022
5908 Clouds 3 1023 93 10000 9.26 30 12:56 12.01.2022
5909 Rain 3 1021 93 10000 9.77 30 09:26 12.01.2022
5910 Rain 3 1020 93 10000 9.77 20 07:57 12.01.2022
5911 Rain 3 1019 96 10000 11.32 30 07:33 12.01.2022
5912 Rain 5 1016 93 10000 10.29 30 02:20 12.01.2022
5913 Rain 6 1014 93 7000 12.35 30 23:26 11.01.2022
5914 Rain 6 1014 96 4000 11.32 30 22:25 11.01.2022
5915 Rain 7 1014 93 6000 12.86 40 21:28 11.01.2022
5916 Clouds 7 1014 96 6000 11.83 40 20:36 11.01.2022
5917 Clouds 7 1013 93 6000 10.8 40 19:31 11.01.2022
5918 Clouds 8 1013 87 6000 11.32 40 17:53 11.01.2022
5919 Clouds 8 1011 93 7000 11.32 40 16:39 11.01.2022
5920 Clouds 8 1011 93 7000 11.32 40 16:18 11.01.2022
5921 Clouds 8 1011 93 10000 10.8 40 14:50 11.01.2022
5922 Rain 9 1011 87 10000 11.83 40 14:32 11.01.2022
5923 Rain 9 1011 93 10000 12.86 50 13:48 11.01.2022
5924 Rain 9 1010 96 10000 11.32 40 13:25 11.01.2022
5925 Clouds 9 1011 96 10000 9.77 50 12:25 11.01.2022
5926 Rain 10 1010 93 10000 9.77 50 10:31 11.01.2022
5927 Rain 10 1010 87 10000 9.77 50 07:54 11.01.2022
5928 Clouds 10 1007 87 10000 7.72 50 03:51 11.01.2022
5929 Clouds 10 1006 87 10000 7.2 50 00:27 11.01.2022
5930 Clouds 10 1006 87 10000 7.2 40 23:39 10.01.2022
5931 Clouds 10 1006 87 10000 6.69 40 22:39 10.01.2022
5932 Clouds 10 1006 87 10000 7.2 30 22:18 10.01.2022
5933 Clouds 10 1006 93 10000 5.14 40 21:33 10.01.2022
5934 Clouds 10 1006 87 10000 5.66 30 20:59 10.01.2022
5935 Clouds 10 1006 87 10000 5.66 30 20:41 10.01.2022
5936 Clouds 10 1006 93 10000 5.66 30 20:19 10.01.2022
5937 Clouds 10 1006 93 10000 5.66 30 19:38 10.01.2022
5938 Clouds 11 1006 87 10000 5.14 30 19:19 10.01.2022
5939 Clouds 11 1005 87 10000 4.63 20 18:46 10.01.2022
5940 Clouds 12 1004 82 10000 2.57 30 16:48 10.01.2022
5941 Clouds 12 1004 82 10000 1.54 50 16:26 10.01.2022
5942 Clouds 12 1003 91 10000 3.09 30 14:43 10.01.2022
5943 Clouds 12 1002 91 10000 2.57 10 13:22 10.01.2022
5944 Clouds 12 1002 93 10000 4.12 30 11:56 10.01.2022
5945 Clouds 11 1002 87 10000 3.6 10 10:48 10.01.2022
5946 Clouds 10 1002 93 10000 4.63 20 09:37 10.01.2022
5947 Rain 10 1001 87 10000 6.17 30 05:51 10.01.2022
5948 Clouds 10 1001 87 10000 5.66 30 02:32 10.01.2022
5949 Clouds 10 1001 93 10000 5.14 40 01:21 10.01.2022
5950 Clouds 10 1001 87 10000 6.17 30 00:20 10.01.2022
5951 Clouds 10 1002 90 10000 5.14 30 22:47 09.01.2022
5952 Clouds 10 1002 90 10000 2.57 10 22:18 09.01.2022
5953 Clouds 10 1002 90 10000 3.09 10 21:41 09.01.2022
5954 Clouds 10 1003 90 10000 4.12 20 21:22 09.01.2022
5955 Clouds 10 1003 81 10000 3.6 20 20:46 09.01.2022
5956 Clouds 10 1003 81 10000 3.6 20 20:28 09.01.2022
5957 Clouds 11 1004 82 10000 3.6 30 19:39 09.01.2022
5958 Clouds 11 1004 82 10000 3.6 30 19:20 09.01.2022
5959 Clouds 11 1004 87 10000 3.09 10 18:38 09.01.2022
5960 Clouds 12 1004 93 10000 1.03 0 18:18 09.01.2022
5961 Clear 12 1004 91 10000 2.06 20 17:30 09.01.2022
5962 Clear 12 1004 76 10000 2.57 360 16:49 09.01.2022
5963 Clear 14 1004 83 10000 2.06 60 15:46 09.01.2022
5964 Clear 14 1004 80 10000 1.54 80 15:25 09.01.2022
5965 Clear 14 1005 62 10000 1.54 110 14:39 09.01.2022
5966 Clear 13 1005 67 10000 1.54 90 13:48 09.01.2022
5967 Clouds 13 1006 91 8000 1.54 80 11:58 09.01.2022
5968 Clouds 12 1007 93 8000 2.06 90 11:28 09.01.2022
5969 Clouds 9 1008 93 6000 1.03 0 09:55 09.01.2022
5970 Mist 9 1008 93 4000 1.54 110 09:24 09.01.2022
5971 Mist 9 1008 93 2500 1.03 0 07:54 09.01.2022
5972 Mist 9 1009 93 5000 3.09 350 01:30 09.01.2022
5973 Mist 9 1010 93 5000 2.57 10 00:50 09.01.2022
5974 Clouds 9 1010 93 6000 3.09 360 23:36 08.01.2022
5975 Rain 9 1011 93 6000 2.06 360 22:56 08.01.2022
5976 Clouds 9 1011 93 8000 2.06 10 21:32 08.01.2022
5977 Clouds 8 1011 93 10000 3.09 360 20:44 08.01.2022
5978 Clouds 9 1012 93 10000 2.06 360 20:23 08.01.2022
5979 Clouds 9 1012 93 7000 3.6 20 19:22 08.01.2022
5980 Clouds 10 1012 87 8000 3.09 10 17:43 08.01.2022
5981 Clouds 10 1013 93 7000 3.6 30 16:57 08.01.2022
5982 Clouds 11 1013 87 9000 4.12 350 15:34 08.01.2022
5983 Clouds 12 1013 87 7000 3.6 340 14:33 08.01.2022
5984 Clouds 12 1014 87 6000 1.03 0 12:35 08.01.2022
5985 Clouds 11 1015 87 10000 1.03 0 10:43 08.01.2022
5986 Clouds 11 1016 87 10000 1.54 30 10:23 08.01.2022
5987 Clouds 11 1016 87 10000 1.54 30 10:23 08.01.2022
5988 Clouds 11 1016 96 8000 2.57 40 09:34 08.01.2022
5989 Clouds 10 1016 93 10000 2.06 20 07:18 08.01.2022
5990 Rain 10 1018 93 10000 5.66 50 01:49 08.01.2022
5991 Clouds 10 1017 96 10000 6.17 60 00:22 08.01.2022
5992 Clouds 11 1018 93 10000 6.69 70 22:21 07.01.2022
5993 Clouds 11 1019 93 10000 6.17 60 20:35 07.01.2022
5994 Clouds 11 1019 93 10000 6.17 60 20:35 07.01.2022
5995 Clouds 11 1019 93 10000 6.69 60 19:34 07.01.2022
5996 Clouds 10 1019 93 10000 6.17 60 18:50 07.01.2022
5997 Clouds 10 1019 93 10000 6.69 50 18:26 07.01.2022
5998 Clouds 10 1019 93 10000 8.23 50 17:24 07.01.2022
5999 Clouds 10 1019 93 10000 6.69 40 15:55 07.01.2022
6000 Clouds 10 1018 93 10000 7.72 30 13:52 07.01.2022
6001 Clouds 10 1018 93 10000 6.17 30 12:57 07.01.2022
6002 Clouds 10 1019 93 10000 7.2 20 12:25 07.01.2022
6003 Clouds 12 1017 93 10000 1.03 10 06:47 07.01.2022
6004 Clear 11 1016 96 10000 1.03 0 02:54 07.01.2022
6005 Clear 12 1016 96 10000 1.03 200 01:52 07.01.2022
6006 Clear 13 1016 93 10000 1.03 0 01:27 07.01.2022
6007 Clear 13 1015 96 10000 1.03 0 00:34 07.01.2022
6008 Clear 13 1015 93 10000 2.06 270 22:42 06.01.2022
6009 Clear 13 1015 93 10000 1.54 230 21:22 06.01.2022
6010 Clear 14 1014 93 10000 1.54 250 20:19 06.01.2022
6011 Clear 14 1014 91 10000 2.57 230 19:40 06.01.2022
6012 Clear 15 1013 88 10000 5.66 270 17:52 06.01.2022
6013 Clear 15 1014 88 10000 3.6 290 17:31 06.01.2022
6014 Clear 16 1013 88 10000 4.12 260 16:39 06.01.2022
6015 Clear 15 1013 77 10000 5.14 260 15:45 06.01.2022
6016 Clear 16 1013 72 10000 5.14 250 15:23 06.01.2022
6017 Clear 17 1013 72 10000 1.03 0 14:20 06.01.2022
6018 Clear 16 1013 72 10000 2.06 240 13:44 06.01.2022
6019 Clear 16 1013 72 10000 4.12 240 12:40 06.01.2022
6020 Clear 16 1013 77 10000 6.17 260 11:41 06.01.2022
6021 Clear 16 1013 77 10000 6.17 250 11:20 06.01.2022
6022 Clear 15 1012 72 10000 8.75 230 08:31 06.01.2022
6023 Clear 13 1013 76 10000 3.09 250 00:39 06.01.2022
6024 Clear 13 1013 76 10000 4.12 250 23:35 05.01.2022
6025 Clear 13 1013 76 10000 4.12 250 23:35 05.01.2022
6026 Clear 14 1013 72 10000 4.63 240 22:50 05.01.2022
6027 Clear 14 1012 76 10000 4.63 260 22:29 05.01.2022
6028 Clear 14 1012 72 10000 5.14 240 21:45 05.01.2022
6029 Clear 14 1012 72 10000 6.69 230 20:45 05.01.2022
6030 Clear 15 1012 67 10000 7.2 230 19:58 05.01.2022
6031 Clear 14 1012 82 10000 5.14 230 18:33 05.01.2022
6032 Clear 15 1012 67 10000 9.26 240 17:23 05.01.2022
6033 Clear 15 1012 77 10000 4.12 230 16:24 05.01.2022
6034 Clear 15 1012 72 10000 4.63 250 15:20 05.01.2022
6035 Clouds 15 1012 72 10000 5.66 260 13:38 05.01.2022
6036 Clouds 16 1012 72 10000 4.63 250 12:51 05.01.2022
6037 Clear 12 1013 76 10000 4.63 220 08:58 05.01.2022
6038 Clear 11 1013 82 10000 5.14 220 07:34 05.01.2022
6039 Clear 11 1013 76 10000 4.63 210 03:33 05.01.2022
6040 Clear 12 1014 76 10000 5.14 230 00:33 05.01.2022
6041 Clear 11 1014 82 10000 3.6 260 23:26 04.01.2022
6042 Clear 12 1014 76 10000 5.14 200 22:27 04.01.2022
6043 Clear 10 1014 87 10000 2.57 170 20:50 04.01.2022
6044 Clear 9 1015 93 10000 1.03 140 19:19 04.01.2022
6045 Clear 10 1015 81 10000 0.51 0 17:39 04.01.2022
6046 Clear 11 1016 76 10000 1.54 270 16:41 04.01.2022
6047 Clear 12 1016 76 10000 1.54 270 16:22 04.01.2022
6048 Clear 13 1016 71 10000 2.06 210 14:52 04.01.2022
6049 Clear 14 1016 76 10000 2.06 230 14:34 04.01.2022
6050 Clear 14 1016 76 10000 3.09 220 13:27 04.01.2022
6051 Clear 13 1017 82 10000 4.12 250 10:41 04.01.2022
6052 Clear 12 1017 87 10000 3.09 240 09:20 04.01.2022
6053 Clear 11 1017 82 10000 2.57 260 08:25 04.01.2022
6054 Clouds 11 1015 82 10000 4.63 260 01:51 04.01.2022
6055 Clear 11 1015 82 10000 5.66 260 00:40 04.01.2022
6056 Clouds 11 1015 82 10000 4.63 260 23:18 03.01.2022
6057 Clear 11 1015 82 10000 3.6 250 21:50 03.01.2022
6058 Clear 11 1015 87 10000 5.14 260 21:24 03.01.2022
6059 Clear 12 1015 87 10000 3.6 260 19:47 03.01.2022
6060 Clear 12 1015 82 10000 3.6 260 18:47 03.01.2022
6061 Clear 11 1015 82 10000 3.6 250 18:24 03.01.2022
6062 Clear 12 1015 82 10000 3.09 250 16:58 03.01.2022
6063 Clear 13 1016 71 10000 5.14 220 14:55 03.01.2022
6064 Clouds 12 1016 71 10000 3.6 230 14:30 03.01.2022
6065 Clear 12 1017 71 10000 5.14 240 12:39 03.01.2022
6066 Clear 12 1018 66 10000 6.17 230 11:34 03.01.2022
6067 Clear 11 1018 71 10000 7.2 220 10:25 03.01.2022
6068 Clear 9 1019 76 10000 6.17 220 08:47 03.01.2022
6069 Clear 8 1019 81 10000 5.14 210 07:32 03.01.2022
6070 Clear 9 1023 87 10000 2.06 120 23:54 02.01.2022
6071 Clouds 8 1024 87 10000 1.54 130 23:18 02.01.2022
6072 Clouds 9 1024 87 10000 1.54 120 22:43 02.01.2022
6073 Clouds 9 1025 87 10000 1.03 120 21:38 02.01.2022
6074 Clouds 8 1025 93 10000 0 0 20:31 02.01.2022
6075 Clouds 9 1025 87 10000 1.54 100 19:52 02.01.2022
6076 Clouds 8 1026 87 10000 1.03 80 19:25 02.01.2022
6077 Clouds 9 1026 87 10000 1.54 30 18:33 02.01.2022
6078 Clouds 10 1026 76 10000 1.54 30 17:43 02.01.2022
6079 Clouds 10 1026 81 10000 3.09 70 17:21 02.01.2022
6080 Clouds 11 1025 71 10000 2.57 50 16:33 02.01.2022
6081 Clouds 11 1025 71 10000 4.12 60 15:51 02.01.2022
6082 Clouds 12 1025 71 10000 5.14 60 13:58 02.01.2022
6083 Clouds 12 1025 71 10000 3.6 60 12:34 02.01.2022
6084 Clouds 11 1025 87 10000 3.6 70 11:56 02.01.2022
6085 Clouds 11 1025 87 10000 4.63 360 10:59 02.01.2022
6086 Clouds 11 1025 87 10000 3.09 10 10:37 02.01.2022
6087 Clouds 10 1024 93 10000 0.51 0 08:27 02.01.2022
6088 Clouds 10 1022 87 9000 1.54 240 03:22 02.01.2022
6089 Clouds 10 1021 87 10000 3.6 260 23:56 01.01.2022
6090 Clouds 10 1021 87 10000 3.6 260 23:36 01.01.2022
6091 Clouds 10 1020 93 10000 3.09 250 22:44 01.01.2022
6092 Clouds 10 1020 87 9000 2.57 250 22:18 01.01.2022
6093 Clouds 10 1020 87 8000 2.06 270 21:43 01.01.2022
6094 Clouds 10 1019 87 8000 2.57 260 20:51 01.01.2022
6095 Clouds 10 1019 87 8000 2.57 260 19:55 01.01.2022
6096 Clouds 10 1019 93 8000 5.14 260 18:58 01.01.2022
6097 Clouds 10 1019 87 10000 3.09 250 17:56 01.01.2022
6098 Clouds 10 1018 87 7000 3.6 260 16:35 01.01.2022
6099 Rain 10 1018 87 7000 4.12 270 15:57 01.01.2022
6100 Rain 10 1018 87 10000 2.57 250 14:56 01.01.2022
6101 Rain 10 1018 87 10000 3.6 240 13:42 01.01.2022
6102 Clouds 10 1019 87 10000 4.63 250 12:43 01.01.2022
6103 Rain 10 1019 87 10000 3.6 230 11:47 01.01.2022
6104 Clouds 10 1019 81 10000 4.12 230 11:19 01.01.2022
6105 Clouds 10 1020 81 7000 4.63 250 09:49 01.01.2022
6106 Clouds 10 1020 81 10000 5.14 250 09:20 01.01.2022
6107 Clear 9 1020 87 10000 4.63 250 08:22 01.01.2022
6108 Clear 9 1019 87 10000 4.12 250 07:41 01.01.2022
6109 Clear 9 1019 87 10000 3.09 240 06:45 01.01.2022
6110 Clear 8 1019 93 10000 2.57 250 05:26 01.01.2022
6111 Clear 8 1019 87 10000 3.09 270 04:37 01.01.2022
6112 Clouds 7 1021 87 10000 2.06 290 00:41 01.01.2022
6113 Clouds 8 1022 87 10000 1.03 270 22:59 31.12.2021
6114 Clouds 8 1022 81 10000 1.54 310 21:52 31.12.2021
6115 Clouds 8 1022 87 10000 0.51 10 20:32 31.12.2021
6116 Clouds 9 1022 81 10000 1.03 0 19:29 31.12.2021
6117 Clouds 9 1022 81 10000 1.54 70 18:30 31.12.2021
6118 Clouds 9 1022 81 10000 2.06 80 17:38 31.12.2021
6119 Clouds 9 1022 81 10000 2.06 80 17:18 31.12.2021
6120 Clouds 9 1022 81 10000 2.06 100 16:21 31.12.2021
6121 Clouds 9 1022 81 10000 2.57 70 15:53 31.12.2021
6122 Clouds 9 1022 81 10000 2.57 80 15:28 31.12.2021
6123 Clouds 9 1022 81 10000 3.09 80 14:47 31.12.2021
6124 Clouds 9 1022 81 10000 3.6 50 14:28 31.12.2021
6125 Clouds 9 1022 81 10000 4.12 20 13:36 31.12.2021
6126 Clouds 9 1022 87 10000 5.14 30 12:45 31.12.2021
6127 Clouds 9 1023 93 10000 4.63 30 11:43 31.12.2021
6128 Clouds 9 1023 93 10000 4.12 30 11:24 31.12.2021
6129 Clouds 9 1023 87 10000 5.14 50 10:34 31.12.2021
6130 Clouds 9 1023 87 10000 4.12 30 09:52 31.12.2021
6131 Clouds 9 1023 87 10000 4.12 30 09:32 31.12.2021
6132 Clouds 9 1023 87 10000 5.66 50 08:25 31.12.2021
6133 Clouds 9 1022 87 10000 5.14 40 07:30 31.12.2021
6134 Clouds 10 1019 81 10000 6.69 40 23:23 30.12.2021
6135 Clouds 10 1019 81 10000 7.2 40 22:33 30.12.2021
6136 Clouds 10 1018 81 10000 7.2 40 21:56 30.12.2021
6137 Clouds 10 1018 81 10000 8.75 40 21:36 30.12.2021
6138 Clouds 10 1018 81 10000 7.2 50 20:46 30.12.2021
6139 Clouds 10 1017 81 10000 9.26 40 20:25 30.12.2021
6140 Clouds 10 1017 87 10000 8.23 40 19:45 30.12.2021
6141 Clouds 10 1016 87 10000 10.8 30 18:45 30.12.2021
6142 Clouds 10 1015 87 10000 10.8 20 18:18 30.12.2021
6143 Clouds 10 1013 87 10000 9.77 20 16:19 30.12.2021
6144 Clouds 11 1013 87 10000 9.77 20 15:51 30.12.2021
6145 Clouds 13 1012 87 10000 7.2 10 14:39 30.12.2021
6146 Clouds 13 1011 82 10000 7.72 10 13:55 30.12.2021
6147 Clouds 13 1011 82 10000 6.17 360 12:40 30.12.2021
6148 Clouds 13 1010 82 10000 4.12 360 10:58 30.12.2021
6149 Rain 13 1010 82 10000 4.12 360 09:59 30.12.2021
6150 Rain 12 1010 82 10000 3.6 360 08:58 30.12.2021
6151 Clouds 13 1008 58 10000 4.12 90 06:52 30.12.2021
6152 Rain 12 1007 71 10000 4.12 100 03:43 30.12.2021
6153 Rain 13 1007 71 10000 4.12 90 03:23 30.12.2021
6154 Clouds 13 1007 71 10000 3.6 100 23:50 29.12.2021
6155 Clouds 13 1007 71 10000 4.12 100 23:23 29.12.2021
6156 Clouds 13 1007 71 10000 4.12 100 22:22 29.12.2021
6157 Clouds 13 1007 71 10000 4.12 100 21:43 29.12.2021
6158 Clouds 13 1007 71 10000 4.12 90 20:39 29.12.2021
6159 Clouds 13 1008 76 10000 3.6 90 19:50 29.12.2021
6160 Rain 12 1008 82 10000 3.6 90 18:54 29.12.2021
6161 Rain 12 1009 87 8000 3.6 70 17:56 29.12.2021
6162 Rain 12 1008 93 8000 4.12 70 17:28 29.12.2021
6163 Rain 12 1009 87 10000 2.57 70 16:44 29.12.2021
6164 Rain 12 1009 87 9000 1.03 120 16:19 29.12.2021
6165 Rain 13 1009 76 10000 2.06 90 14:24 29.12.2021
6166 Rain 13 1009 71 10000 3.09 120 12:42 29.12.2021
6167 Clouds 13 1009 67 10000 4.12 110 11:49 29.12.2021
6168 Rain 13 1011 67 10000 4.12 120 10:31 29.12.2021
6169 Clouds 12 1011 62 10000 3.09 110 07:52 29.12.2021
6170 Clouds 12 1011 71 10000 2.57 100 06:43 29.12.2021
6171 Clouds 11 1011 76 10000 2.57 100 06:23 29.12.2021
6172 Clouds 10 1011 93 10000 2.06 10 05:40 29.12.2021
6173 Clouds 10 1011 93 10000 2.06 10 03:18 29.12.2021
6174 Clouds 12 1012 82 10000 2.57 50 00:24 29.12.2021
6175 Clouds 11 1012 93 10000 3.09 80 23:45 28.12.2021
6176 Clouds 11 1012 93 10000 1.54 30 22:42 28.12.2021
6177 Clouds 11 1012 93 10000 5.14 350 22:24 28.12.2021
6178 Rain 13 1012 82 10000 3.09 340 21:52 28.12.2021
6179 Clouds 13 1012 76 10000 2.57 80 20:47 28.12.2021
6180 Clouds 14 1012 67 10000 2.06 320 19:39 28.12.2021
6181 Clouds 14 1012 71 10000 2.06 280 18:44 28.12.2021
6182 Clouds 14 1012 67 10000 3.6 280 18:19 28.12.2021
6183 Clouds 14 1012 67 10000 3.6 220 16:35 28.12.2021
6184 Clouds 14 1011 67 10000 4.12 220 15:51 28.12.2021
6185 Clouds 14 1011 67 10000 2.57 230 15:23 28.12.2021
6186 Clouds 15 1011 58 10000 3.09 230 14:50 28.12.2021
6187 Clouds 15 1011 63 10000 3.09 250 14:21 28.12.2021
6188 Clouds 15 1011 63 10000 3.09 250 14:21 28.12.2021
6189 Clouds 15 1012 67 10000 3.09 260 13:51 28.12.2021
6190 Clouds 14 1012 67 10000 3.09 240 13:27 28.12.2021
6191 Clouds 14 1012 62 10000 3.6 250 12:49 28.12.2021
6192 Clouds 14 1012 67 10000 3.6 220 11:51 28.12.2021
6193 Clouds 13 1013 71 10000 3.09 210 09:27 28.12.2021
6194 Clouds 13 1013 67 10000 4.63 210 07:28 28.12.2021
6195 Clear 14 1014 62 10000 6.17 210 00:59 28.12.2021
6196 Clear 14 1014 62 10000 5.14 210 23:26 27.12.2021
6197 Clear 14 1015 62 10000 7.2 210 21:46 27.12.2021
6198 Clear 14 1014 67 10000 8.23 210 21:24 27.12.2021
6199 Clear 14 1015 67 10000 4.63 220 20:24 27.12.2021
6200 Clear 13 1015 71 10000 1.54 0 19:43 27.12.2021
6201 Clear 13 1015 71 10000 4.12 210 18:54 27.12.2021
6202 Clear 13 1016 76 10000 4.12 200 17:50 27.12.2021
6203 Clear 14 1015 72 10000 5.14 210 16:57 27.12.2021
6204 Clear 14 1016 72 10000 3.09 220 15:53 27.12.2021
6205 Clear 15 1016 67 10000 3.6 230 14:34 27.12.2021
6206 Clear 15 1016 72 10000 4.63 220 13:40 27.12.2021
6207 Clear 15 1016 67 10000 5.14 220 12:47 27.12.2021
6208 Clouds 15 1017 63 10000 5.66 220 10:32 27.12.2021
6209 Clouds 15 1018 63 10000 5.14 220 09:57 27.12.2021
6210 Clouds 14 1018 67 10000 5.14 220 08:39 27.12.2021
6211 Clear 13 1017 71 10000 4.12 220 07:32 27.12.2021
6212 Clear 13 1018 71 10000 5.14 220 02:24 27.12.2021
6213 Clear 12 1018 82 10000 2.57 250 23:58 26.12.2021
6214 Clear 12 1018 82 10000 2.57 250 23:58 26.12.2021
6215 Clear 12 1018 82 10000 2.57 250 23:40 26.12.2021
6216 Clear 12 1018 82 10000 3.6 280 22:47 26.12.2021
6217 Clear 12 1017 82 10000 2.06 220 21:29 26.12.2021
6218 Clear 12 1017 82 10000 5.66 230 19:49 26.12.2021
6219 Clear 13 1016 76 10000 7.2 220 18:25 26.12.2021
6220 Clear 13 1016 76 10000 7.2 210 17:30 26.12.2021
6221 Clear 14 1015 82 10000 6.69 220 14:38 26.12.2021
6222 Clear 14 1015 82 10000 7.72 210 13:43 26.12.2021
6223 Clear 14 1015 82 10000 7.72 220 13:21 26.12.2021
6224 Clear 14 1016 76 10000 7.72 220 12:33 26.12.2021
6225 Clear 13 1016 76 10000 6.17 220 10:48 26.12.2021
6226 Clear 12 1017 76 10000 4.63 230 09:29 26.12.2021
6227 Clear 11 1017 82 10000 6.17 220 08:44 26.12.2021
6228 Clear 12 1016 76 10000 6.69 220 07:59 26.12.2021
6229 Clear 11 1016 76 10000 4.63 220 01:36 26.12.2021
6230 Clear 11 1017 71 10000 8.75 220 23:58 25.12.2021
6231 Clear 11 1017 66 10000 9.26 220 23:28 25.12.2021
6232 Clear 11 1017 71 10000 7.72 220 22:29 25.12.2021
6233 Clear 11 1017 71 10000 6.69 210 21:25 25.12.2021
6234 Clear 11 1018 71 10000 9.26 220 19:28 25.12.2021
6235 Clear 11 1018 71 10000 9.26 220 18:57 25.12.2021
6236 Clear 11 1018 71 10000 8.23 220 18:25 25.12.2021
6237 Clear 11 1017 71 10000 8.75 220 16:46 25.12.2021
6238 Clear 12 1017 66 10000 8.75 220 15:26 25.12.2021
6239 Clear 12 1017 66 10000 7.72 210 13:47 25.12.2021
6240 Clear 12 1018 62 10000 6.69 220 12:18 25.12.2021
6241 Clouds 11 1018 62 10000 9.26 220 10:32 25.12.2021
6242 Clouds 11 1018 62 10000 10.29 220 09:48 25.12.2021
6243 Clear 9 1018 66 10000 9.26 210 07:21 25.12.2021
6244 Clear 8 1018 66 10000 9.26 210 01:34 25.12.2021
6245 Clear 8 1017 66 10000 9.77 220 00:18 25.12.2021
6246 Clouds 8 1017 61 10000 11.32 220 21:46 24.12.2021
6247 Clouds 8 1018 66 10000 8.23 210 19:26 24.12.2021
6248 Clouds 9 1018 61 10000 9.26 220 18:34 24.12.2021
6249 Clouds 8 1017 61 10000 7.72 220 16:43 24.12.2021
6250 Clouds 8 1017 57 10000 8.75 210 15:50 24.12.2021
6251 Clouds 9 1017 53 10000 8.23 210 15:20 24.12.2021
6252 Clouds 8 1018 57 10000 8.23 210 14:33 24.12.2021
6253 Clouds 8 1018 57 10000 8.23 220 13:50 24.12.2021
6254 Clouds 8 1018 61 10000 8.23 220 13:32 24.12.2021
6255 Clear 7 1019 65 10000 9.26 220 12:39 24.12.2021
6256 Clear 7 1019 61 10000 9.26 210 11:42 24.12.2021
6257 Clear 6 1020 65 10000 8.23 210 11:24 24.12.2021
6258 Clear 6 1021 61 10000 7.72 210 10:33 24.12.2021
6259 Clouds 5 1021 70 10000 7.72 210 08:40 24.12.2021
6260 Clouds 4 1022 75 10000 7.72 210 07:58 24.12.2021
6261 Clouds 4 1021 75 10000 7.72 210 06:44 24.12.2021
6262 Clouds -1 1024 86 10000 1.03 0 00:21 24.12.2021
6263 Clouds 0 1025 93 10000 0.51 0 23:49 23.12.2021
6264 Clear 0 1025 86 10000 0.51 360 22:51 23.12.2021
6265 Clear -1 1025 86 10000 0.51 350 22:24 23.12.2021
6266 Clear -1 1026 86 10000 0.51 0 21:39 23.12.2021
6267 Clear 0 1026 86 10000 1.03 80 20:30 23.12.2021
6268 Clear 0 1026 93 10000 2.06 360 19:28 23.12.2021
6269 Clouds 1 1026 86 10000 2.06 10 18:18 23.12.2021
6270 Clouds 1 1026 75 10000 2.57 360 17:29 23.12.2021
6271 Clouds 2 1027 64 10000 3.6 340 16:26 23.12.2021
6272 Clouds 4 1027 56 10000 3.6 340 15:33 23.12.2021
6273 Clouds 4 1027 60 10000 3.6 360 14:59 23.12.2021
6274 Clouds 4 1027 60 10000 3.6 360 14:39 23.12.2021
6275 Clouds 4 1027 75 10000 5.14 10 13:31 23.12.2021
6276 Clouds 4 1028 65 10000 3.09 10 11:49 23.12.2021
6277 Rain 3 1028 75 10000 4.63 360 09:53 23.12.2021
6278 Rain 3 1028 75 10000 6.17 350 09:34 23.12.2021
6279 Rain 2 1028 80 10000 3.6 360 08:28 23.12.2021
6280 Clouds 2 1027 75 10000 1.54 50 05:39 23.12.2021
6281 Clouds 2 1027 75 10000 3.09 60 01:31 23.12.2021
6282 Snow 2 1027 80 10000 3.09 20 22:53 22.12.2021
6283 Snow 2 1027 75 10000 4.12 20 22:19 22.12.2021
6284 Rain 2 1027 75 10000 3.6 30 21:36 22.12.2021
6285 Rain 3 1027 60 10000 4.63 80 21:18 22.12.2021
6286 Rain 4 1027 52 10000 3.09 70 20:40 22.12.2021
6287 Clouds 3 1027 56 10000 3.6 60 19:54 22.12.2021
6288 Clouds 3 1027 56 10000 3.6 60 18:55 22.12.2021
6289 Clouds 3 1027 60 10000 3.09 30 17:38 22.12.2021
6290 Clouds 3 1026 60 10000 3.6 50 16:22 22.12.2021
6291 Rain 5 1027 52 10000 2.57 70 14:28 22.12.2021
6292 Clouds 4 1027 56 10000 1.54 120 12:55 22.12.2021
6293 Clouds 5 1028 52 10000 3.09 50 11:48 22.12.2021
6294 Clouds 4 1028 52 10000 3.09 70 09:52 22.12.2021
6295 Clouds 3 1028 60 10000 2.06 80 08:23 22.12.2021
6296 Clouds 0 1027 86 10000 1.54 10 05:54 22.12.2021
6297 Clouds 1 1027 80 10000 1.54 350 05:36 22.12.2021
6298 Clouds 1 1027 80 10000 1.54 350 05:18 22.12.2021
6299 Clear 1 1027 80 10000 3.09 30 04:37 22.12.2021
6300 Clear 1 1027 86 10000 3.09 20 03:52 22.12.2021
6301 Clear 0 1027 93 10000 3.09 360 03:31 22.12.2021
6302 Clouds 1 1026 74 10000 2.57 10 23:48 21.12.2021
6303 Clouds 1 1026 74 10000 2.06 360 22:41 21.12.2021
6304 Clouds 2 1025 64 10000 3.09 300 21:57 21.12.2021
6305 Clouds 2 1025 64 10000 3.09 300 21:33 21.12.2021
6306 Clouds 2 1025 69 10000 1.54 290 20:39 21.12.2021
6307 Clouds 2 1024 80 10000 0.51 0 20:18 21.12.2021
6308 Clouds 1 1024 80 10000 1.03 0 19:34 21.12.2021
6309 Clouds 2 1024 75 10000 1.03 330 18:28 21.12.2021
6310 Clouds 3 1023 75 10000 2.06 290 17:58 21.12.2021
6311 Clouds 3 1023 75 10000 2.06 290 17:39 21.12.2021
6312 Clouds 6 1022 49 10000 5.14 300 15:39 21.12.2021
6313 Clouds 7 1021 42 10000 5.14 300 14:21 21.12.2021
6314 Clouds 7 1021 45 10000 5.66 280 13:42 21.12.2021
6315 Clouds 6 1020 52 10000 4.63 290 12:29 21.12.2021
6316 Clouds 6 1021 52 10000 5.14 320 10:39 21.12.2021
6317 Clouds 5 1020 56 10000 6.69 320 09:56 21.12.2021
6318 Clear 5 1020 60 10000 6.69 330 08:57 21.12.2021
6319 Clear 3 1019 65 10000 5.14 330 07:44 21.12.2021
6320 Clear 2 1019 69 10000 6.17 320 07:22 21.12.2021
6321 Clear 4 1017 65 10000 3.09 300 03:26 21.12.2021
6322 Clear 5 1017 75 10000 3.6 300 01:25 21.12.2021
6323 Clear 4 1015 81 10000 6.17 330 23:54 20.12.2021
6324 Clear 5 1015 70 10000 8.23 330 22:35 20.12.2021
6325 Clear 6 1014 65 10000 6.17 320 21:59 20.12.2021
6326 Clouds 7 1013 65 10000 6.17 310 21:27 20.12.2021
6327 Clouds 7 1013 65 10000 5.66 300 20:54 20.12.2021
6328 Clouds 7 1012 65 10000 6.17 300 20:23 20.12.2021
6329 Clouds 7 1012 70 10000 3.6 300 19:38 20.12.2021
6330 Clouds 7 1012 65 10000 3.09 290 19:19 20.12.2021
6331 Clouds 7 1012 65 10000 4.12 290 18:32 20.12.2021
6332 Clouds 7 1012 65 10000 3.09 300 17:50 20.12.2021
6333 Clouds 7 1011 65 10000 3.09 300 16:47 20.12.2021
6334 Clouds 7 1011 61 10000 4.63 290 15:57 20.12.2021
6335 Clouds 8 1011 61 10000 4.63 290 15:35 20.12.2021
6336 Rain 8 1010 61 10000 7.2 280 13:32 20.12.2021
6337 Rain 8 1010 61 10000 7.2 280 13:32 20.12.2021
6338 Clouds 7 1010 65 10000 8.23 290 12:30 20.12.2021
6339 Clouds 7 1010 65 10000 6.69 280 10:46 20.12.2021
6340 Clouds 7 1011 70 10000 6.17 250 09:40 20.12.2021
6341 Clouds 7 1011 70 10000 6.69 240 08:50 20.12.2021
6342 Clouds 7 1011 65 10000 6.17 250 08:31 20.12.2021
6343 Clouds 7 1010 65 10000 5.66 240 07:32 20.12.2021
6344 Clouds 6 1010 70 9000 4.12 240 06:39 20.12.2021
6345 Clear 0 1012 93 10000 1.54 310 00:20 20.12.2021
6346 Clear 1 1012 80 10000 2.57 340 22:56 19.12.2021
6347 Clear 1 1012 80 10000 3.09 350 22:32 19.12.2021
6348 Clear 2 1012 80 10000 3.09 330 21:32 19.12.2021
6349 Clear 1 1013 93 10000 1.54 360 20:42 19.12.2021
6350 Clear 1 1013 93 10000 1.54 360 20:23 19.12.2021
6351 Clear 2 1013 80 10000 2.06 350 19:41 19.12.2021
6352 Clouds 3 1013 75 10000 3.09 340 18:37 19.12.2021
6353 Clear 4 1013 75 10000 3.09 360 17:53 19.12.2021
6354 Clouds 5 1013 75 10000 4.12 360 17:30 19.12.2021
6355 Clouds 5 1013 70 10000 3.6 10 16:41 19.12.2021
6356 Clouds 5 1013 75 10000 6.17 20 15:52 19.12.2021
6357 Clouds 6 1013 65 10000 7.2 30 15:24 19.12.2021
6358 Clouds 6 1013 65 10000 7.72 30 14:45 19.12.2021
6359 Clouds 7 1014 65 10000 8.23 30 13:27 19.12.2021
6360 Clouds 7 1014 57 10000 9.26 20 12:52 19.12.2021
6361 Clouds 8 1015 53 10000 9.26 30 12:29 19.12.2021
6362 Clouds 7 1015 61 10000 8.75 30 11:33 19.12.2021
6363 Clouds 7 1015 61 10000 9.77 20 10:49 19.12.2021
6364 Clouds 7 1016 65 10000 8.23 20 10:22 19.12.2021
6365 Clouds 6 1016 81 10000 9.77 30 08:46 19.12.2021
6366 Clouds 6 1017 75 10000 6.17 30 06:30 19.12.2021
6367 Clouds 5 1018 81 10000 8.75 30 01:45 19.12.2021
6368 Rain 5 1018 75 10000 7.72 40 00:54 19.12.2021
6369 Rain 6 1019 81 10000 10.29 40 22:59 18.12.2021
6370 Rain 6 1019 81 10000 10.29 30 22:24 18.12.2021
6371 Rain 6 1019 81 10000 8.23 30 21:41 18.12.2021
6372 Rain 6 1019 75 10000 7.72 20 21:22 18.12.2021
6373 Rain 5 1019 81 10000 7.2 20 20:25 18.12.2021
6374 Rain 5 1019 81 10000 9.26 20 19:34 18.12.2021
6375 Rain 6 1019 75 10000 9.26 20 18:24 18.12.2021
6376 Clouds 6 1018 75 10000 7.72 20 17:49 18.12.2021
6377 Clouds 7 1018 76 10000 7.2 20 16:27 18.12.2021
6378 Clouds 6 1018 81 10000 7.2 20 15:48 18.12.2021
6379 Clouds 5 1018 87 10000 6.69 20 14:53 18.12.2021
6380 Clouds 6 1018 81 10000 7.72 20 13:42 18.12.2021
6381 Rain 7 1018 76 10000 6.17 20 11:48 18.12.2021
6382 Rain 6 1018 81 10000 7.2 10 09:53 18.12.2021
6383 Clouds 5 1018 93 5000 7.2 10 09:30 18.12.2021
6384 Clouds 6 1017 81 10000 6.17 20 08:35 18.12.2021
6385 Rain 5 1017 87 10000 3.09 20 06:27 18.12.2021
6386 Clouds 5 1017 93 10000 2.06 20 00:42 18.12.2021
6387 Clouds 5 1017 93 10000 2.57 10 23:46 17.12.2021
6388 Clouds 6 1017 87 10000 4.12 310 22:18 17.12.2021
6389 Rain 6 1018 87 10000 3.6 330 21:28 17.12.2021
6390 Rain 6 1018 87 10000 2.06 310 20:42 17.12.2021
6391 Rain 6 1018 93 10000 2.06 300 19:50 17.12.2021
6392 Rain 6 1018 93 10000 2.57 320 18:39 17.12.2021
6393 Rain 6 1018 87 10000 4.63 340 17:46 17.12.2021
6394 Rain 6 1018 87 10000 4.12 340 16:50 17.12.2021
6395 Rain 6 1018 87 10000 3.6 340 16:26 17.12.2021
6396 Rain 6 1018 87 10000 3.6 320 15:26 17.12.2021
6397 Rain 6 1019 87 10000 3.6 310 14:41 17.12.2021
6398 Rain 6 1019 81 10000 4.63 310 13:35 17.12.2021
6399 Clouds 6 1019 87 10000 4.12 300 12:28 17.12.2021
6400 Clouds 5 1020 87 8000 4.63 310 10:39 17.12.2021
6401 Clouds 5 1021 87 7000 4.12 300 09:47 17.12.2021
6402 Rain 5 1021 87 10000 3.6 290 08:31 17.12.2021
6403 Rain 5 1021 93 10000 2.06 290 07:20 17.12.2021
6404 Rain 5 1021 87 10000 3.09 330 04:40 17.12.2021
6405 Rain 5 1022 87 10000 7.2 330 23:58 16.12.2021
6406 Clouds 5 1022 87 10000 8.75 340 22:24 16.12.2021
6407 Clouds 5 1022 93 10000 9.26 340 21:51 16.12.2021
6408 Clouds 5 1022 93 10000 8.75 340 21:30 16.12.2021
6409 Clouds 5 1022 87 10000 8.23 340 20:31 16.12.2021
6410 Clouds 5 1022 87 10000 8.23 340 19:49 16.12.2021
6411 Rain 6 1022 93 10000 7.2 350 18:41 16.12.2021
6412 Clouds 6 1022 87 10000 7.2 350 17:57 16.12.2021
6413 Clouds 6 1022 87 10000 7.2 340 17:31 16.12.2021
6414 Clouds 6 1022 87 10000 7.72 340 16:22 16.12.2021
6415 Clouds 6 1021 87 10000 6.17 340 14:54 16.12.2021
6416 Rain 6 1021 87 10000 6.69 340 13:43 16.12.2021
6417 Rain 6 1022 93 10000 4.12 310 11:21 16.12.2021
6418 Rain 6 1022 93 9000 3.09 310 10:59 16.12.2021
6419 Rain 6 1022 93 8000 3.09 300 10:22 16.12.2021
6420 Rain 5 1022 93 10000 4.12 310 08:25 16.12.2021
6421 Rain 4 1022 93 10000 5.14 340 06:22 16.12.2021
6422 Rain 5 1023 93 10000 7.2 340 02:54 16.12.2021
6423 Rain 5 1023 87 10000 6.17 350 23:35 15.12.2021
6424 Rain 5 1023 87 10000 5.66 350 22:44 15.12.2021
6425 Rain 5 1023 87 10000 6.17 350 21:57 15.12.2021
6426 Rain 5 1023 87 10000 5.66 350 21:27 15.12.2021
6427 Rain 5 1022 93 10000 7.2 340 20:19 15.12.2021
6428 Rain 5 1022 87 10000 6.17 350 19:51 15.12.2021
6429 Rain 5 1022 93 10000 7.2 350 18:38 15.12.2021
6430 Rain 5 1022 87 10000 7.2 350 17:55 15.12.2021
6431 Rain 5 1021 87 10000 7.72 360 17:37 15.12.2021
6432 Rain 6 1021 93 10000 7.72 350 16:34 15.12.2021
6433 Rain 6 1021 87 10000 7.2 360 15:47 15.12.2021
6434 Rain 6 1021 87 8000 8.23 360 15:28 15.12.2021
6435 Rain 6 1020 87 10000 8.75 360 14:42 15.12.2021
6436 Rain 6 1019 87 8000 8.75 360 12:46 15.12.2021
6437 Rain 6 1020 87 10000 8.75 360 10:44 15.12.2021
6438 Rain 7 1019 87 10000 9.26 360 08:55 15.12.2021
6439 Clouds 6 1019 87 10000 9.26 360 07:43 15.12.2021
6440 Clouds 7 1017 93 10000 7.2 10 01:35 15.12.2021
6441 Clouds 8 1017 87 10000 8.23 20 23:42 14.12.2021
6442 Clouds 8 1017 87 10000 8.75 20 22:49 14.12.2021
6443 Clouds 9 1017 81 10000 9.26 20 22:24 14.12.2021
6444 Clouds 9 1017 87 10000 8.75 20 20:55 14.12.2021
6445 Clouds 9 1016 87 10000 7.72 20 19:44 14.12.2021
6446 Clouds 9 1016 87 10000 9.77 20 19:20 14.12.2021
6447 Clouds 10 1016 87 10000 9.77 30 18:28 14.12.2021
6448 Clouds 10 1015 87 10000 10.29 30 17:33 14.12.2021
6449 Clouds 10 1015 93 10000 9.26 40 16:42 14.12.2021
6450 Rain 11 1015 87 4000 7.2 40 15:36 14.12.2021
6451 Clouds 12 1014 76 10000 9.26 50 13:31 14.12.2021
6452 Clouds 13 1014 76 10000 8.75 50 12:21 14.12.2021
6453 Clouds 13 1015 76 10000 7.2 50 11:24 14.12.2021
6454 Clouds 12 1015 82 10000 7.2 60 10:24 14.12.2021
6455 Clouds 12 1016 82 10000 6.69 60 09:51 14.12.2021
6456 Clouds 11 1016 87 10000 4.63 50 08:28 14.12.2021
6457 Clouds 11 1016 87 10000 5.14 40 07:43 14.12.2021
6458 Clouds 11 1016 87 10000 5.14 40 05:35 14.12.2021
6459 Clouds 10 1017 93 10000 7.2 30 22:59 13.12.2021
6460 Clouds 9 1017 93 10000 8.75 40 21:53 13.12.2021
6461 Clouds 9 1017 93 8000 8.75 40 21:33 13.12.2021
6462 Clouds 10 1017 93 8000 7.2 30 20:45 13.12.2021
6463 Clouds 9 1017 93 8000 7.2 20 19:53 13.12.2021
6464 Clouds 10 1017 87 8000 6.69 20 19:19 13.12.2021
6465 Rain 10 1017 87 8000 6.69 30 17:26 13.12.2021
6466 Rain 10 1016 93 8000 7.2 10 15:56 13.12.2021
6467 Rain 9 1016 93 8000 7.2 10 15:38 13.12.2021
6468 Clouds 12 1015 87 10000 6.69 20 13:47 13.12.2021
6469 Clouds 12 1016 87 10000 7.72 350 12:59 13.12.2021
6470 Clouds 12 1016 87 10000 6.69 350 12:19 13.12.2021
6471 Clouds 11 1016 93 8000 4.63 350 11:35 13.12.2021
6472 Clouds 11 1016 93 4000 3.6 360 10:47 13.12.2021
6473 Clouds 12 1016 94 10000 1.03 0 09:41 13.12.2021
6474 Rain 12 1015 87 10000 2.57 120 07:57 13.12.2021
6475 Rain 12 1014 87 10000 4.12 130 05:36 13.12.2021
6476 Rain 12 1015 87 10000 2.06 160 03:30 13.12.2021
6477 Rain 12 1016 82 10000 4.12 180 23:26 12.12.2021
6478 Rain 12 1016 87 10000 5.14 190 21:50 12.12.2021
6479 Rain 12 1016 87 10000 4.63 190 20:28 12.12.2021
6480 Rain 12 1016 94 10000 5.14 170 18:43 12.12.2021
6481 Rain 12 1016 94 10000 4.63 180 17:45 12.12.2021
6482 Rain 12 1015 94 10000 2.57 180 16:28 12.12.2021
6483 Rain 12 1015 94 10000 2.06 170 15:50 12.12.2021
6484 Rain 12 1015 94 10000 1.03 0 15:26 12.12.2021
6485 Rain 12 1015 94 10000 1.03 0 15:26 12.12.2021
6486 Clouds 12 1015 94 10000 0.51 0 14:37 12.12.2021
6487 Rain 12 1015 94 10000 2.57 280 13:33 12.12.2021
6488 Rain 12 1014 94 10000 3.09 270 12:32 12.12.2021
6489 Rain 12 1015 87 10000 3.09 270 11:44 12.12.2021
6490 Rain 13 1015 87 10000 3.09 280 11:24 12.12.2021
6491 Rain 14 1015 82 9000 5.14 300 10:32 12.12.2021
6492 Rain 14 1014 82 10000 3.6 340 09:39 12.12.2021
6493 Rain 17 1014 64 10000 3 182 08:34 12.12.2021
6494 Clouds 17 1012 67 10000 3.38 125 06:20 12.12.2021
6495 Clouds 17 1012 67 10000 3.2 121 04:56 12.12.2021
6496 Clouds 16 1010 63 10000 5.14 150 03:57 12.12.2021
6497 Rain 16 1012 67 10000 3.6 150 23:48 11.12.2021
6498 Clear 16 1013 67 10000 2.57 120 22:24 11.12.2021
6499 Clear 15 1013 63 10000 3.09 100 21:52 11.12.2021
6500 Clear 16 1013 63 10000 2.06 100 21:18 11.12.2021
6501 Rain 16 1013 63 10000 2.06 100 19:30 11.12.2021
6502 Rain 16 1013 67 10000 1.54 100 18:53 11.12.2021
6503 Clear 16 1013 63 10000 2.57 100 18:26 11.12.2021
6504 Rain 16 1013 67 10000 2.57 90 17:24 11.12.2021
6505 Clouds 17 1013 63 10000 2.57 130 15:55 11.12.2021
6506 Clear 17 1013 55 10000 2.57 140 15:30 11.12.2021
6507 Clear 17 1014 63 10000 2.57 130 12:59 11.12.2021
6508 Clear 17 1014 59 10000 3.09 130 11:46 11.12.2021
6509 Clear 16 1015 55 10000 3.6 200 09:47 11.12.2021
6510 Clear 15 1015 67 10000 1.03 0 09:18 11.12.2021
6511 Clear 13 1014 71 10000 7.2 200 02:40 11.12.2021
6512 Clear 12 1014 76 10000 6.17 200 00:40 11.12.2021
6513 Clouds 12 1014 76 10000 8.23 200 23:23 10.12.2021
6514 Rain 11 1014 82 10000 7.2 200 21:57 10.12.2021
6515 Rain 11 1014 82 10000 7.2 200 21:36 10.12.2021
6516 Rain 11 1013 93 3500 13.89 260 19:22 10.12.2021
6517 Thunderstorm 13 1012 87 3500 15.43 260 18:39 10.12.2021
6518 Rain 16 1011 67 10000 5.66 270 16:57 10.12.2021
6519 Clouds 17 1010 67 10000 2.57 230 16:29 10.12.2021
6520 Clouds 17 1011 59 10000 4.12 190 15:41 10.12.2021
6521 Clouds 17 1011 63 10000 4.63 210 15:21 10.12.2021
6522 Clouds 18 1011 59 10000 4.12 180 13:52 10.12.2021
6523 Clouds 19 1011 52 10000 2.06 90 13:26 10.12.2021
6524 Clouds 19 1011 52 10000 2.06 90 13:26 10.12.2021
6525 Clouds 19 1012 48 10000 3.09 140 12:47 10.12.2021
6526 Clear 18 1013 48 10000 5.14 170 11:30 10.12.2021
6527 Clear 17 1014 55 10000 3.6 150 10:38 10.12.2021
6528 Clear 16 1015 59 10000 5.14 180 09:19 10.12.2021
6529 Clear 15 1015 58 10000 4.63 170 06:59 10.12.2021
6530 Clear 13 1015 71 10000 2.57 150 02:50 10.12.2021
6531 Clear 14 1015 63 10000 5.14 210 00:57 10.12.2021
6532 Clear 13 1016 71 10000 2.57 190 23:37 09.12.2021
6533 Clear 12 1016 76 10000 2.06 180 22:40 09.12.2021
6534 Clear 13 1016 71 10000 3.6 210 22:19 09.12.2021
6535 Clear 12 1016 76 10000 2.57 180 21:20 09.12.2021
6536 Clear 12 1016 76 10000 2.57 190 20:29 09.12.2021
6537 Clear 13 1016 72 10000 4.12 200 19:22 09.12.2021
6538 Clear 13 1016 67 10000 4.63 220 18:50 09.12.2021
6539 Clear 13 1016 76 10000 2.57 200 17:57 09.12.2021
6540 Clear 12 1016 82 10000 1.54 200 17:27 09.12.2021
6541 Clear 13 1016 76 10000 1.03 0 16:57 09.12.2021
6542 Clear 14 1016 72 10000 2.57 240 15:59 09.12.2021
6543 Clear 15 1016 67 10000 4.12 220 14:52 09.12.2021
6544 Clear 15 1016 63 10000 4.12 210 13:50 09.12.2021
6545 Clear 14 1016 67 10000 4.63 210 12:47 09.12.2021
6546 Clear 14 1017 62 10000 6.69 210 11:25 09.12.2021
6547 Clouds 13 1018 67 10000 6.69 220 09:45 09.12.2021
6548 Clouds 11 1016 82 10000 6.17 230 06:51 09.12.2021
6549 Clouds 10 1015 87 10000 3.6 250 03:49 09.12.2021
6550 Clouds 9 1014 87 10000 2.06 330 23:50 08.12.2021
6551 Clouds 9 1014 87 10000 1.03 0 23:31 08.12.2021
6552 Clouds 9 1014 87 10000 1.03 50 22:53 08.12.2021
6553 Clouds 9 1013 87 10000 2.57 60 21:49 08.12.2021
6554 Clouds 9 1013 87 10000 2.06 30 21:30 08.12.2021
6555 Clouds 9 1013 87 10000 3.09 30 20:19 08.12.2021
6556 Rain 9 1012 87 10000 4.12 40 19:39 08.12.2021
6557 Clouds 9 1012 87 10000 3.6 40 18:53 08.12.2021
6558 Clouds 9 1011 81 10000 4.12 40 18:21 08.12.2021
6559 Clouds 9 1010 87 10000 5.14 30 15:59 08.12.2021
6560 Clouds 9 1009 87 10000 5.66 30 15:31 08.12.2021
6561 Clouds 9 1009 87 10000 5.14 10 14:52 08.12.2021
6562 Clouds 10 1008 81 10000 6.17 10 13:21 08.12.2021
6563 Clouds 10 1007 87 10000 6.17 20 10:36 08.12.2021
6564 Clouds 10 1006 87 10000 5.14 360 09:31 08.12.2021
6565 Clouds 12 1004 71 10000 3.09 270 07:34 08.12.2021
6566 Clouds 11 1002 82 10000 2.57 250 04:58 08.12.2021
6567 Clouds 11 1000 87 10000 1.54 190 23:56 07.12.2021
6568 Clouds 12 1000 94 10000 1.03 0 22:37 07.12.2021
6569 Clouds 12 1000 94 10000 2.57 130 21:24 07.12.2021
6570 Rain 12 1000 94 8000 0.51 0 20:25 07.12.2021
6571 Clouds 13 1000 82 10000 2.57 110 18:56 07.12.2021
6572 Clouds 13 1000 82 10000 2.57 80 18:18 07.12.2021
6573 Rain 12 1001 87 10000 2.06 110 17:20 07.12.2021
6574 Clouds 12 1001 87 7000 1.54 350 16:36 07.12.2021
6575 Rain 12 1002 94 6000 5.66 280 15:37 07.12.2021
6576 Rain 13 1002 87 7000 9.26 280 14:37 07.12.2021
6577 Rain 17 1000 63 10000 4.12 90 13:19 07.12.2021
6578 Clouds 18 1001 59 10000 3.09 100 12:21 07.12.2021
6579 Clouds 17 1003 67 10000 4.12 120 10:44 07.12.2021
6580 Clouds 17 1004 67 10000 3.6 90 09:19 07.12.2021
6581 Clouds 14 1006 77 10000 2.06 140 06:39 07.12.2021
6582 Clouds 14 1006 88 10000 1.03 310 05:45 07.12.2021
6583 Clear 14 1008 77 10000 2.57 130 01:43 07.12.2021
6584 Clear 15 1009 72 10000 1.54 150 23:21 06.12.2021
6585 Clear 15 1009 72 10000 2.06 120 22:40 06.12.2021
6586 Clear 14 1009 72 10000 1.03 0 21:58 06.12.2021
6587 Clear 15 1009 72 10000 1.54 0 21:20 06.12.2021
6588 Clear 15 1009 72 10000 1.03 0 20:30 06.12.2021
6589 Clear 16 1010 67 10000 1.03 160 19:24 06.12.2021
6590 Clear 16 1010 67 10000 2.06 170 18:31 06.12.2021
6591 Clear 17 1010 63 10000 3.6 210 17:53 06.12.2021
6592 Clear 16 1010 67 10000 2.06 200 17:20 06.12.2021
6593 Clear 17 1010 63 10000 3.6 180 15:49 06.12.2021
6594 Clear 18 1010 63 10000 2.06 160 13:53 06.12.2021
6595 Clear 18 1011 59 10000 2.06 140 12:40 06.12.2021
6596 Clear 18 1011 59 10000 4.63 180 11:54 06.12.2021
6597 Clear 16 1013 72 10000 2.57 130 09:37 06.12.2021
6598 Clear 13 1012 88 10000 3.6 170 06:59 06.12.2021
6599 Clouds 12 1012 94 10000 2.06 190 00:33 06.12.2021
6600 Clear 11 1012 100 8000 0.51 0 21:54 05.12.2021
6601 Clear 11 1012 93 10000 1.03 0 21:25 05.12.2021
6602 Clear 11 1012 93 6000 1.03 130 20:20 05.12.2021
6603 Clear 11 1012 100 6000 1.54 120 19:57 05.12.2021
6604 Clouds 11 1012 100 6000 1.03 110 19:22 05.12.2021
6605 Clear 11 1012 93 7000 0.51 0 18:25 05.12.2021
6606 Clear 10 1012 93 7000 0.51 0 17:49 05.12.2021
6607 Clear 12 1012 94 7000 0.51 200 16:57 05.12.2021
6608 Clear 13 1011 88 7000 1.54 170 16:28 05.12.2021
6609 Clouds 13 1011 88 8000 0 0 15:58 05.12.2021
6610 Clouds 14 1011 82 8000 1.54 180 14:45 05.12.2021
6611 Clouds 14 1011 82 10000 1.54 180 14:27 05.12.2021
6612 Clouds 15 1011 77 10000 1.03 0 13:28 05.12.2021
6613 Clouds 15 1011 77 10000 1.03 0 12:40 05.12.2021
6614 Clouds 15 1012 82 8000 2.06 130 12:21 05.12.2021
6615 Clouds 14 1012 82 10000 2.06 160 11:35 05.12.2021
6616 Clouds 14 1012 88 10000 3.6 130 10:21 05.12.2021
6617 Clouds 13 1012 88 10000 2.06 130 08:50 05.12.2021
6618 Clouds 11 1011 93 10000 3.6 50 04:56 05.12.2021
6619 Clouds 10 1012 93 10000 4.12 50 01:23 05.12.2021
6620 Clouds 10 1012 93 10000 4.63 40 22:32 04.12.2021
6621 Clouds 10 1012 93 10000 3.6 30 21:36 04.12.2021
6622 Clouds 10 1012 93 10000 4.12 10 20:32 04.12.2021
6623 Clouds 10 1012 87 10000 4.12 20 19:33 04.12.2021
6624 Clouds 10 1012 87 10000 5.14 360 18:23 04.12.2021
6625 Clouds 10 1011 87 10000 5.14 360 17:45 04.12.2021
6626 Clouds 10 1011 87 10000 5.66 360 17:20 04.12.2021
6627 Clouds 11 1011 87 10000 4.63 10 16:42 04.12.2021
6628 Clouds 11 1010 93 10000 6.69 360 16:24 04.12.2021
6629 Rain 15 1008 82 10000 5.66 200 11:56 04.12.2021
6630 Rain 15 1009 82 10000 5.66 200 11:33 04.12.2021
6631 Rain 14 1009 82 10000 7.2 190 10:57 04.12.2021
6632 Rain 14 1010 82 7000 3.09 180 08:53 04.12.2021
6633 Rain 14 1010 82 10000 1.03 0 08:27 04.12.2021
6634 Clouds 14 1011 77 10000 2.06 130 04:42 04.12.2021
6635 Clear 14 1013 77 10000 4.63 190 00:49 04.12.2021
6636 Clear 14 1013 82 10000 2.06 120 23:29 03.12.2021
6637 Clear 14 1014 82 10000 3.6 170 22:50 03.12.2021
6638 Clear 14 1014 82 10000 3.6 170 21:50 03.12.2021
6639 Clouds 14 1014 82 10000 4.63 180 21:20 03.12.2021
6640 Clouds 14 1014 82 10000 4.12 190 20:27 03.12.2021
6641 Rain 14 1014 88 8000 4.63 210 19:20 03.12.2021
6642 Rain 16 1014 72 10000 6.17 240 18:22 03.12.2021
6643 Clouds 16 1014 72 10000 6.17 220 17:30 03.12.2021
6644 Clouds 18 1013 68 10000 4.12 210 13:35 03.12.2021
6645 Clouds 17 1013 72 10000 7.2 240 12:21 03.12.2021
6646 Clouds 17 1013 72 10000 4.63 250 11:19 03.12.2021
6647 Clear 16 1014 67 10000 6.17 220 08:40 03.12.2021
6648 Clear 15 1013 72 10000 8.23 220 07:43 03.12.2021
6649 Clear 14 1013 77 10000 8.23 220 06:41 03.12.2021
6650 Clear 14 1013 72 10000 6.17 230 00:49 03.12.2021
6651 Clouds 14 1013 72 10000 6.17 230 23:48 02.12.2021
6652 Clouds 14 1013 72 10000 7.2 230 22:54 02.12.2021
6653 Clouds 14 1013 72 10000 8.23 230 21:41 02.12.2021
6654 Clouds 13 1013 67 10000 5.66 200 20:45 02.12.2021
6655 Clouds 13 1013 67 10000 4.63 200 20:22 02.12.2021
6656 Clouds 13 1013 62 10000 5.66 200 18:50 02.12.2021
6657 Clear 12 1013 76 10000 3.09 200 16:43 02.12.2021
6658 Clear 13 1013 62 10000 4.63 230 15:41 02.12.2021
6659 Clear 14 1014 54 10000 3.09 190 14:52 02.12.2021
6660 Clear 14 1014 58 10000 6.17 220 13:39 02.12.2021
6661 Clear 14 1014 54 10000 7.2 210 12:36 02.12.2021
6662 Clear 13 1015 58 10000 7.2 210 10:42 02.12.2021
6663 Clear 12 1016 62 10000 7.2 210 09:26 02.12.2021
6664 Clear 10